# Wetter Temperatur Luftdruck Luftfeuchtigkeit Sichtweite Windgeschwindigkeit Windrichtung Zeit
1 Clear 37 998 40 0 2.33 186 08:41 14.07.2020
2 Clear 37 999 39 0 2.11 184 08:22 14.07.2020
3 Clear 36 999 42 0 2.11 184 07:55 14.07.2020
4 Clear 36 999 42 0 2.11 184 07:36 14.07.2020
5 Clear 36 999 44 0 1.71 185 07:18 14.07.2020
6 Clear 36 1000 43 0 1.3 190 06:27 14.07.2020
7 Clear 36 1000 46 0 1.3 190 05:55 14.07.2020
8 Clear 34 1001 55 0 0.26 205 04:55 14.07.2020
9 Clear 33 1001 57 0 0.26 205 04:35 14.07.2020
10 Clear 28 1008 65 10000 3 330 03:34 14.07.2020
11 Clear 29 1002 69 0 0.98 282 02:31 14.07.2020
12 Clouds 27 1002 75 0 0.97 314 01:52 14.07.2020
13 Clouds 27 1002 79 0 0.96 355 01:24 14.07.2020
14 Clouds 25 1001 83 0 0.96 355 00:47 14.07.2020
15 Clouds 25 1001 84 0 0.96 5 00:27 14.07.2020
16 Clouds 24 1001 88 0 0.96 5 23:40 13.07.2020
17 Clouds 23 1007 94 10000 2 350 23:20 13.07.2020
18 Clouds 23 1007 88 10000 2 350 22:59 13.07.2020
19 Clouds 23 1001 90 0 0.61 18 22:40 13.07.2020
20 Clouds 23 1001 89 0 0.79 45 22:20 13.07.2020
21 Clouds 23 1001 89 0 0.79 45 21:56 13.07.2020
22 Clouds 24 1001 87 0 0.79 45 21:38 13.07.2020
23 Clouds 24 1001 88 0 0.91 79 21:19 13.07.2020
24 Clouds 24 1001 86 0 0.91 79 20:56 13.07.2020
25 Clouds 24 1001 87 0 0.91 79 20:37 13.07.2020
26 Clear 24 1001 87 0 1.74 77 20:19 13.07.2020
27 Clear 24 998 94 0 1.74 77 19:43 13.07.2020
28 Clear 24 1001 85 0 1.53 87 19:25 13.07.2020
29 Clear 24 1001 84 0 1.53 87 18:57 13.07.2020
30 Clear 25 998 94 0 1.53 87 18:39 13.07.2020
31 Rain 24 1008 88 10000 1 20 18:20 13.07.2020
32 Rain 25 1001 77 0 1.11 148 17:56 13.07.2020
33 Rain 25 1001 76 0 1.11 148 17:37 13.07.2020
34 Rain 25 1001 76 0 1.93 174 17:18 13.07.2020
35 Rain 26 1001 74 0 1.93 174 16:55 13.07.2020
36 Rain 26 1001 72 0 1.93 174 16:36 13.07.2020
37 Clear 26 1001 71 0 2.3 175 16:18 13.07.2020
38 Clear 26 1001 69 0 2.3 175 15:41 13.07.2020
39 Clear 26 1007 78 10000 1 0 15:21 13.07.2020
40 Clear 26 1007 73 10000 1 0 14:59 13.07.2020
41 Clear 27 1007 73 10000 3 140 14:39 13.07.2020
42 Clouds 27 1007 73 10000 3 140 14:21 13.07.2020
43 Clouds 28 1007 69 10000 2 130 13:56 13.07.2020
44 Clouds 27 1006 65 10000 4 140 13:38 13.07.2020
45 Clouds 28 1006 65 10000 4 140 13:20 13.07.2020
46 Clouds 32 999 53 0 3.24 191 12:44 13.07.2020
47 Clouds 32 999 52 0 3.46 190 12:25 13.07.2020
48 Clouds 33 999 50 0 3.46 190 11:59 13.07.2020
49 Clouds 33 999 48 0 3.46 190 11:39 13.07.2020
50 Clouds 33 997 63 0 3.3 179 11:21 13.07.2020
51 Clouds 35 999 44 0 3.3 179 10:40 13.07.2020
52 Clouds 34 999 46 0 3.24 173 10:20 13.07.2020
53 Clouds 34 999 47 0 3.24 173 09:44 13.07.2020
54 Clouds 34 999 46 0 2.64 169 09:26 13.07.2020
55 Clouds 32 1006 45 10000 2 0 08:54 13.07.2020
56 Clouds 34 999 44 0 2.61 163 08:35 13.07.2020
57 Clouds 33 1006 58 8000 1 0 07:52 13.07.2020
58 Haze 31 1007 65 5000 2 300 07:20 13.07.2020
59 Clouds 34 1000 47 0 1.99 150 06:45 13.07.2020
60 Mist 31 1007 74 5000 1 0 06:24 13.07.2020
61 Clouds 30 1002 67 0 1.88 168 04:57 13.07.2020
62 Clouds 27 1002 85 0 0.45 0 02:42 13.07.2020
63 Clouds 26 1002 87 0 0.15 68 01:40 13.07.2020
64 Clouds 26 1002 88 0 0.23 8 01:20 13.07.2020
65 Clouds 25 999 99 0 0.23 8 00:38 13.07.2020
66 Clouds 23 1002 92 0 0.19 355 00:19 13.07.2020
67 Clouds 24 1002 93 0 0.19 355 23:41 12.07.2020
68 Clouds 25 1002 92 0 0.42 114 23:22 12.07.2020
69 Clouds 23 1001 92 0 0.42 114 22:56 12.07.2020
70 Clouds 25 1001 92 0 0.42 114 22:37 12.07.2020
71 Clouds 25 1001 91 0 0.91 133 22:18 12.07.2020
72 Clouds 23 1001 92 0 0.91 133 21:55 12.07.2020
73 Clouds 23 1001 92 0 0.91 133 21:55 12.07.2020
74 Clouds 25 1001 92 0 0.91 133 21:37 12.07.2020
75 Clouds 25 1001 92 0 0.99 127 21:19 12.07.2020
76 Clouds 25 1001 91 0 0.99 127 20:42 12.07.2020
77 Clouds 25 1001 90 0 1.6 158 20:20 12.07.2020
78 Clouds 25 1001 89 0 1.6 158 19:59 12.07.2020
79 Clouds 25 1001 89 0 1.6 158 19:39 12.07.2020
80 Rain 25 1001 90 0 1.68 159 19:20 12.07.2020
81 Rain 25 1001 89 0 1.68 159 18:54 12.07.2020
82 Rain 25 1001 89 0 1.68 159 18:36 12.07.2020
83 Mist 25 1007 88 5000 1 0 18:18 12.07.2020
84 Clouds 25 999 96 0 1.54 165 17:38 12.07.2020
85 Clouds 26 999 96 0 1.39 183 17:20 12.07.2020
86 Clouds 25 1001 87 0 1.39 183 16:48 12.07.2020
87 Clouds 25 1001 84 0 1.58 192 16:22 12.07.2020
88 Clouds 26 1001 87 0 1.58 192 15:50 12.07.2020
89 Clouds 26 1001 85 0 1.76 198 15:31 12.07.2020
90 Clouds 26 1001 84 0 1.76 198 14:58 12.07.2020
91 Clouds 26 1001 83 0 1.76 198 14:40 12.07.2020
92 Clouds 26 1001 82 0 2.19 196 14:21 12.07.2020
93 Clouds 28 1001 81 0 2.19 196 13:40 12.07.2020
94 Clouds 28 1001 80 0 2.67 197 13:21 12.07.2020
95 Clouds 28 1001 79 0 2.67 197 12:57 12.07.2020
96 Clouds 28 1001 79 0 2.67 197 12:57 12.07.2020
97 Clouds 28 1001 79 0 2.67 197 12:38 12.07.2020
98 Clouds 28 1001 79 0 2.67 197 12:38 12.07.2020
99 Haze 28 1006 74 4000 2 10 12:18 12.07.2020
100 Rain 29 998 94 0 2.8 187 11:44 12.07.2020
101 Rain 29 1000 75 0 2.62 170 11:21 12.07.2020
102 Rain 30 1000 74 0 2.62 170 10:44 12.07.2020
103 Rain 30 1000 72 0 1.68 142 10:23 12.07.2020
104 Rain 29 1000 75 0 1.68 142 09:59 12.07.2020
105 Rain 30 1000 70 0 0.45 315 09:40 12.07.2020
106 Rain 31 1000 64 0 0.31 168 09:21 12.07.2020
107 Rain 30 998 95 0 0.31 168 08:55 12.07.2020
108 Rain 30 998 95 0 0.31 168 08:37 12.07.2020
109 Clouds 30 1001 74 0 1.05 338 08:18 12.07.2020
110 Clouds 29 1001 75 0 1.05 338 07:45 12.07.2020
111 Clouds 29 1001 79 0 0.97 2 07:22 12.07.2020
112 Clouds 29 1001 73 0 0.97 2 06:52 12.07.2020
113 Mist 26 1007 78 2900 1 0 06:22 12.07.2020
114 Rain 27 1002 79 0 1.27 38 05:44 12.07.2020
115 Rain 25 1002 89 0 1.57 60 04:57 12.07.2020
116 Rain 25 1002 90 0 1.88 85 04:28 12.07.2020
117 Rain 24 1002 93 0 1.88 85 03:40 12.07.2020
118 Rain 24 1002 93 0 2.05 79 03:19 12.07.2020
119 Rain 24 1002 99 0 2.22 81 01:50 12.07.2020
120 Rain 23 1008 94 2700 1 0 00:55 12.07.2020
121 Rain 24 1002 99 0 2.18 109 00:24 12.07.2020
122 Rain 24 1002 99 0 2.18 109 23:59 11.07.2020
123 Rain 24 1002 99 0 2.18 109 23:40 11.07.2020
124 Rain 24 1002 99 0 2.03 126 23:20 11.07.2020
125 Rain 25 1001 99 0 2.03 126 22:56 11.07.2020
126 Rain 25 1001 99 0 2.03 126 22:37 11.07.2020
127 Rain 25 1001 97 0 1.99 136 22:19 11.07.2020
128 Rain 25 1001 93 0 1.99 136 21:43 11.07.2020
129 Rain 24 1001 92 0 2.13 140 21:24 11.07.2020
130 Rain 24 1001 92 0 2.4 81 20:59 11.07.2020
131 Rain 24 1001 91 0 2.4 81 20:40 11.07.2020
132 Rain 26 1001 90 0 2.55 95 20:21 11.07.2020
133 Rain 26 1001 91 0 2.55 95 20:21 11.07.2020
134 Rain 26 1002 91 0 2.55 95 19:58 11.07.2020
135 Rain 26 1002 90 0 2.55 95 19:40 11.07.2020
136 Rain 26 1002 89 0 2.73 106 19:22 11.07.2020
137 Rain 26 999 98 0 2.73 106 18:56 11.07.2020
138 Rain 26 1002 90 0 2.73 106 18:38 11.07.2020
139 Rain 26 1002 89 0 2.7 130 18:19 11.07.2020
140 Rain 26 1002 90 0 2.7 130 17:55 11.07.2020
141 Rain 26 999 99 0 2.7 130 17:37 11.07.2020
142 Rain 26 1002 90 0 3.09 144 17:18 11.07.2020
143 Rain 26 1002 90 0 3.09 144 16:42 11.07.2020
144 Clouds 26 1002 90 0 2.59 151 16:23 11.07.2020
145 Clouds 27 999 98 0 2.59 151 15:57 11.07.2020
146 Clouds 26 1002 91 0 2.59 151 15:39 11.07.2020
147 Mist 26 1008 88 4000 1 0 15:20 11.07.2020
148 Mist 27 1007 88 4000 1 20 14:56 11.07.2020
149 Mist 27 1007 83 4000 2 10 14:36 11.07.2020
150 Mist 27 1007 83 4000 2 10 14:18 11.07.2020
151 Mist 28 1007 78 4000 2 10 13:42 11.07.2020
152 Mist 28 1007 78 4000 2 10 13:21 11.07.2020
153 Mist 28 1007 78 4000 1 0 12:55 11.07.2020
154 Mist 28 1006 78 4000 1 0 12:37 11.07.2020
155 Mist 28 1006 78 4000 1 0 12:18 11.07.2020
156 Mist 28 1006 78 4000 2 10 11:41 11.07.2020
157 Mist 28 1006 78 4000 2 10 11:21 11.07.2020
158 Mist 28 1006 78 4000 2 360 10:56 11.07.2020
159 Mist 29 1007 74 4000 1 0 10:38 11.07.2020
160 Mist 29 1007 74 4000 1 0 10:19 11.07.2020
161 Mist 29 1007 78 4000 1 0 09:39 11.07.2020
162 Mist 28 1007 78 4000 1 0 09:20 11.07.2020
163 Mist 25 1007 78 3500 1 0 08:46 11.07.2020
164 Mist 27 1007 78 3500 1 0 08:28 11.07.2020
165 Mist 26 1007 83 3500 1 0 07:56 11.07.2020
166 Mist 26 1008 88 3500 1 0 07:36 11.07.2020
167 Rain 26 1008 88 3500 1 0 07:18 11.07.2020
168 Clouds 26 1002 86 0 1.31 90 06:27 11.07.2020
169 Clouds 26 1002 87 0 1.31 90 05:54 11.07.2020
170 Mist 25 1008 88 3500 1 110 05:19 11.07.2020
171 Clouds 25 1002 87 0 1.72 84 04:50 11.07.2020
172 Clouds 26 1002 89 0 1.56 91 04:19 11.07.2020
173 Clouds 26 1002 89 0 1.56 91 04:19 11.07.2020
174 Clouds 24 1002 94 0 1.6 109 02:54 11.07.2020
175 Clouds 24 1001 93 0 1.97 99 02:27 11.07.2020
176 Clouds 24 1001 95 0 1.91 97 01:25 11.07.2020
177 Clouds 24 1001 96 0 1.91 97 00:57 11.07.2020
178 Clouds 24 998 99 0 1.91 97 00:38 11.07.2020
179 Clouds 23 1001 96 0 1.84 106 00:18 11.07.2020
180 Clouds 23 1000 98 0 1.84 106 23:45 10.07.2020
181 Clouds 23 997 99 0 1.55 97 23:26 10.07.2020
182 Clouds 23 1000 98 0 1.55 97 22:57 10.07.2020
183 Clouds 23 1000 98 0 1.55 97 22:38 10.07.2020
184 Clouds 23 1000 98 0 1.65 97 22:19 10.07.2020
185 Clouds 23 1000 98 0 1.64 108 21:39 10.07.2020
186 Mist 23 1005 94 5000 1.38 141 21:20 10.07.2020
187 Mist 23 1005 94 5000 1.38 141 20:57 10.07.2020
188 Mist 23 1005 94 5000 1 0 20:38 10.07.2020
189 Mist 23 1005 94 5000 1 0 20:38 10.07.2020
190 Mist 23 1005 100 4000 2 350 20:19 10.07.2020
191 Mist 23 1005 94 4000 2 20 19:56 10.07.2020
192 Mist 23 1005 94 4000 2 20 19:38 10.07.2020
193 Mist 23 1005 94 4000 2 360 19:18 10.07.2020
194 Mist 23 1005 94 4500 2 30 18:41 10.07.2020
195 Mist 24 1005 94 4500 1 0 18:19 10.07.2020
196 Mist 23 1005 94 4500 1 0 17:55 10.07.2020
197 Mist 24 1005 94 4500 3 150 17:37 10.07.2020
198 Mist 24 1005 94 4500 3 150 17:18 10.07.2020
199 Rain 23 1005 100 4500 2 150 16:41 10.07.2020
200 Mist 24 1005 100 4500 2 150 16:20 10.07.2020
201 Rain 24 1006 94 4500 4 360 15:44 10.07.2020
202 Rain 24 1006 94 4500 4 360 15:22 10.07.2020
203 Thunderstorm 25 1006 83 4500 6 290 14:55 10.07.2020
204 Rain 25 1005 78 6000 5 320 14:37 10.07.2020
205 Rain 26 1005 78 6000 5 320 14:18 10.07.2020
206 Clouds 26 1004 78 6000 3 350 13:56 10.07.2020
207 Clouds 26 1004 78 6000 2 350 13:37 10.07.2020
208 Clouds 26 1003 73 6000 3 330 13:19 10.07.2020
209 Clouds 27 1004 69 6000 4 320 12:43 10.07.2020
210 Clouds 25 1004 69 6000 4 320 12:24 10.07.2020
211 Clouds 27 1003 69 6000 2 0 11:59 10.07.2020
212 Clouds 27 1003 69 6000 3.16 190 11:38 10.07.2020
213 Clouds 25 1003 69 6000 1 0 11:19 10.07.2020
214 Clouds 25 1003 69 6000 1 0 10:54 10.07.2020
215 Clouds 25 1003 65 6000 1 0 10:36 10.07.2020
216 Clouds 25 1003 65 6000 1 0 10:18 10.07.2020
217 Clouds 27 1004 65 6000 1 0 09:37 10.07.2020
218 Clouds 25 1004 65 6000 1 0 09:19 10.07.2020
219 Clouds 25 1004 65 6000 1 0 08:57 10.07.2020
220 Clouds 25 1004 65 8000 1 0 08:38 10.07.2020
221 Clouds 27 1004 65 8000 2 80 08:20 10.07.2020
222 Clouds 27 995 90 0 1.96 199 07:42 10.07.2020
223 Clouds 27 995 90 0 1.56 195 07:22 10.07.2020
224 Clouds 28 998 69 0 1.56 195 06:49 10.07.2020
225 Clouds 28 998 67 0 1.69 172 06:24 10.07.2020
226 Clouds 27 999 68 0 1.86 147 04:43 10.07.2020
227 Clouds 26 999 70 0 1.82 127 03:38 10.07.2020
228 Clouds 24 999 80 0 1.77 98 02:52 10.07.2020
229 Rain 23 999 88 0 1.76 63 01:50 10.07.2020
230 Clouds 22 999 89 0 1 70 00:48 10.07.2020
231 Clouds 22 999 88 0 1.54 66 00:20 10.07.2020
232 Clouds 22 998 90 0 1.54 66 23:46 09.07.2020
233 Clouds 22 998 89 0 1.1 60 23:23 09.07.2020
234 Clouds 22 998 90 0 1.1 60 22:59 09.07.2020
235 Clouds 22 998 93 0 1.1 60 22:41 09.07.2020
236 Clouds 22 998 94 0 0.91 63 22:21 09.07.2020
237 Clouds 22 998 95 0 0.91 63 21:57 09.07.2020
238 Clouds 22 998 95 0 0.91 63 21:39 09.07.2020
239 Clouds 22 998 95 0 1.32 103 21:19 09.07.2020
240 Clouds 22 998 95 0 1.32 103 20:58 09.07.2020
241 Clouds 22 998 95 0 1.32 103 20:39 09.07.2020
242 Clouds 22 995 98 0 0.86 84 20:21 09.07.2020
243 Clouds 22 998 96 0 0.86 84 19:42 09.07.2020
244 Clouds 22 998 96 0 0.88 75 19:21 09.07.2020
245 Clouds 22 998 97 0 0.88 75 18:43 09.07.2020
246 Clouds 22 1003 94 10000 1.29 92 18:24 09.07.2020
247 Clouds 22 1003 94 10000 1.29 92 17:56 09.07.2020
248 Clouds 22 1003 88 10000 1 0 17:38 09.07.2020
249 Clouds 22 1003 88 10000 1 0 17:20 09.07.2020
250 Clouds 22 1003 94 10000 1 70 16:56 09.07.2020
251 Clouds 22 1004 88 10000 1 160 16:38 09.07.2020
252 Clouds 22 1004 88 10000 1 160 16:19 09.07.2020
253 Clouds 22 1004 93 10000 1 0 15:56 09.07.2020
254 Clouds 22 1004 88 10000 1 0 15:37 09.07.2020
255 Clouds 22 1004 88 10000 2 20 15:18 09.07.2020
256 Clouds 22 1004 88 10000 2 20 14:57 09.07.2020
257 Clouds 22 1004 88 10000 4 320 14:39 09.07.2020
258 Clouds 22 995 96 0 1.56 93 14:20 09.07.2020
259 Clouds 22 995 97 0 2.64 91 13:56 09.07.2020
260 Clouds 22 995 97 0 2.64 91 13:37 09.07.2020
261 Rain 22 995 98 0 2.41 87 13:18 09.07.2020
262 Rain 22 1004 88 8000 4 300 12:41 09.07.2020
263 Rain 22 1004 88 8000 4 300 12:22 09.07.2020
264 Rain 24 995 98 0 1.92 74 11:56 09.07.2020
265 Rain 24 995 99 0 1.92 74 11:38 09.07.2020
266 Rain 24 1004 93 5000 3 300 11:18 09.07.2020
267 Rain 24 1004 88 8000 4 280 10:55 09.07.2020
268 Rain 24 1004 88 10000 6 280 10:37 09.07.2020
269 Rain 24 1004 88 10000 6 280 10:19 09.07.2020
270 Rain 23 1004 83 10000 3 290 09:42 09.07.2020
271 Rain 22 1004 83 10000 3 290 09:22 09.07.2020
272 Rain 22 1004 78 10000 3 290 08:49 09.07.2020
273 Rain 24 1004 83 8000 3 290 08:26 09.07.2020
274 Rain 25 1003 83 8000 3 290 07:50 09.07.2020
275 Rain 25 1004 78 8000 3 260 07:30 09.07.2020
276 Rain 25 1003 78 8000 2 270 06:58 09.07.2020
277 Clouds 25 1003 83 6000 2 330 06:20 09.07.2020
278 Rain 25 1003 83 5000 2 360 05:47 09.07.2020
279 Mist 25 1003 94 5000 3 360 04:28 09.07.2020
280 Rain 24 1004 88 5000 1 40 02:45 09.07.2020
281 Rain 24 1004 88 6000 2 350 01:54 09.07.2020
282 Rain 24 1003 94 7000 1 0 00:59 09.07.2020
283 Rain 24 1003 88 6000 1 0 00:38 09.07.2020
284 Rain 24 1003 94 6000 4 20 00:19 09.07.2020
285 Thunderstorm 25 1003 83 10000 2 40 23:43 08.07.2020
286 Thunderstorm 24 1003 83 10000 2 40 23:24 08.07.2020
287 Rain 24 1003 83 10000 2 30 22:55 08.07.2020
288 Rain 24 1003 83 10000 2 40 22:36 08.07.2020
289 Rain 25 994 91 0 2.78 110 22:18 08.07.2020
290 Rain 25 996 85 0 2.78 110 21:40 08.07.2020
291 Rain 25 994 84 0 2.42 107 21:22 08.07.2020
292 Clouds 25 996 73 0 2.42 107 20:59 08.07.2020
293 Clouds 26 996 58 0 2.42 107 20:41 08.07.2020
294 Clouds 26 996 67 0 1.55 119 20:23 08.07.2020
295 Clouds 26 996 67 0 1.55 119 19:54 08.07.2020
296 Clouds 27 995 67 0 1.55 119 19:36 08.07.2020
297 Clouds 27 996 66 0 1.47 153 19:18 08.07.2020
298 Clouds 28 994 72 0 1.47 153 18:40 08.07.2020
299 Clouds 28 996 64 0 2.8 173 18:21 08.07.2020
300 Clouds 29 996 62 0 2.8 173 17:57 08.07.2020
301 Clouds 29 996 60 0 0.45 135 17:38 08.07.2020
302 Clouds 29 996 60 0 0.45 135 17:38 08.07.2020
303 Clouds 29 996 58 0 3.4 172 17:20 08.07.2020
304 Clouds 29 996 58 0 3.4 172 17:20 08.07.2020
305 Clouds 29 996 58 0 3.4 172 17:20 08.07.2020
306 Clouds 29 996 54 0 3.4 172 16:57 08.07.2020
307 Clouds 29 994 59 0 3.4 172 16:38 08.07.2020
308 Clouds 29 996 53 0 4.5 179 16:18 08.07.2020
309 Clouds 30 996 49 0 4.5 179 15:57 08.07.2020
310 Clouds 30 996 48 0 4.5 179 15:38 08.07.2020
311 Clouds 30 996 46 0 4.85 177 15:19 08.07.2020
312 Clouds 31 996 43 0 0.45 225 14:42 08.07.2020
313 Clouds 31 996 46 0 0.89 270 14:21 08.07.2020
314 Clouds 31 995 49 0 5.56 173 13:56 08.07.2020
315 Clouds 31 995 51 0 5.56 173 13:37 08.07.2020
316 Clouds 32 995 46 0 5.45 172 13:18 08.07.2020
317 Clouds 32 995 44 0 5.45 172 12:40 08.07.2020
318 Clear 33 1002 43 10000 4 170 12:20 08.07.2020
319 Clear 33 1002 43 10000 5 180 11:39 08.07.2020
320 Clear 34 1002 43 10000 5 180 11:21 08.07.2020
321 Clear 34 995 41 0 4.32 184 10:59 08.07.2020
322 Clear 34 995 40 0 4.32 184 10:41 08.07.2020
323 Clear 34 995 40 0 4.16 193 10:23 08.07.2020
324 Clear 36 996 39 0 4.16 193 09:45 08.07.2020
325 Clear 36 996 37 0 3.62 200 09:25 08.07.2020
326 Clear 36 996 37 0 3.62 200 08:44 08.07.2020
327 Clear 35 997 38 0 3.61 205 08:25 08.07.2020
328 Clear 35 997 39 0 3.61 205 07:51 08.07.2020
329 Clear 35 998 39 0 3.51 203 07:25 08.07.2020
330 Clear 35 998 41 0 3.51 203 06:59 08.07.2020
331 Clear 35 998 40 0 3.51 203 06:39 08.07.2020
332 Clear 34 999 42 0 3.12 198 06:20 08.07.2020
333 Clear 34 999 42 0 3.12 198 05:44 08.07.2020
334 Clear 33 1000 50 0 2.56 189 04:39 08.07.2020
335 Clear 27 1007 61 10000 1 0 03:25 08.07.2020
336 Clear 28 999 81 0 1.14 86 01:59 08.07.2020
337 Clear 28 1001 69 0 1.14 86 01:37 08.07.2020
338 Clear 26 1001 72 0 1.41 77 00:46 08.07.2020
339 Clear 24 1008 83 10000 1 360 00:19 08.07.2020
340 Clear 23 1007 83 10000 2 60 23:43 07.07.2020
341 Clear 25 1001 74 0 1.79 102 23:21 07.07.2020
342 Clear 25 1001 73 0 1.79 102 22:54 07.07.2020
343 Clear 25 1001 72 0 1.79 102 22:36 07.07.2020
344 Clear 25 1001 71 0 1.9 109 22:18 07.07.2020
345 Clear 25 1008 78 10000 1 90 21:41 07.07.2020
346 Clear 26 1001 71 0 1.82 121 21:22 07.07.2020
347 Clear 26 1001 70 0 1.32 107 20:59 07.07.2020
348 Clear 26 1001 67 0 1.32 107 20:41 07.07.2020
349 Clear 26 1001 65 0 1.49 128 20:23 07.07.2020
350 Clear 27 1001 65 0 1.49 128 19:55 07.07.2020
351 Clear 27 1001 65 0 1.49 128 19:36 07.07.2020
352 Clear 27 1001 65 0 1.56 133 19:18 07.07.2020
353 Clear 27 1001 64 0 1.56 133 18:55 07.07.2020
354 Clear 27 1001 64 0 1.56 133 18:36 07.07.2020
355 Clear 28 1001 63 0 1.25 155 18:18 07.07.2020
356 Clear 28 1001 62 0 1.25 155 17:43 07.07.2020
357 Clear 28 1001 63 0 2.16 199 17:23 07.07.2020
358 Clear 28 1000 61 0 2.16 199 16:58 07.07.2020
359 Clear 29 1000 60 0 2.16 199 16:40 07.07.2020
360 Clear 29 1000 59 0 2.5 185 16:21 07.07.2020
361 Clear 30 1000 55 0 2.5 185 15:55 07.07.2020
362 Clear 29 1006 64 10000 2 140 15:36 07.07.2020
363 Clear 29 1006 64 10000 2 140 15:18 07.07.2020
364 Clear 31 999 40 0 1.81 136 14:42 07.07.2020
365 Clear 30 1005 57 10000 1 90 14:23 07.07.2020
366 Clear 32 1005 42 10000 2 100 13:40 07.07.2020
367 Clear 33 998 27 0 1.46 65 13:19 07.07.2020
368 Clear 34 1005 19 10000 2 100 12:47 07.07.2020
369 Clear 35 1005 19 10000 2 100 12:27 07.07.2020
370 Clear 35 998 25 0 2.02 64 11:59 07.07.2020
371 Clear 35 998 23 0 2.02 64 11:41 07.07.2020
372 Clear 35 998 24 0 2.51 62 11:21 07.07.2020
373 Clear 36 998 22 0 2.51 62 10:58 07.07.2020
374 Clear 35 1005 18 10000 2 10 10:38 07.07.2020
375 Clear 37 998 23 0 2.78 60 10:19 07.07.2020
376 Clear 35 1005 21 10000 3 30 09:42 07.07.2020
377 Clear 37 1005 21 10000 3 30 09:21 07.07.2020
378 Clear 37 1006 24 10000 2 0 08:43 07.07.2020
379 Clear 38 1006 24 10000 2 0 08:25 07.07.2020
380 Clear 37 999 22 0 2.17 83 07:58 07.07.2020
381 Clear 37 999 23 0 2.17 83 07:37 07.07.2020
382 Clear 37 999 25 0 2.12 70 07:19 07.07.2020
383 Clear 36 1000 27 0 2.12 70 06:40 07.07.2020
384 Clear 34 1007 24 10000 3 30 06:22 07.07.2020
385 Clear 34 1000 31 0 3 66 05:24 07.07.2020
386 Clear 33 1000 36 0 3 66 04:43 07.07.2020
387 Clear 32 1001 45 0 3.6 61 03:42 07.07.2020
388 Clear 29 1001 55 0 3.74 41 02:57 07.07.2020
389 Clear 27 1000 69 0 2.19 25 01:34 07.07.2020
390 Clear 26 1000 71 0 2.19 25 00:58 07.07.2020
391 Clear 26 1000 71 0 2.19 25 00:39 07.07.2020
392 Clear 25 1000 75 0 2.03 17 00:19 07.07.2020
393 Clear 24 1005 88 10000 3 360 23:42 06.07.2020
394 Clear 23 1005 88 10000 3 360 23:24 06.07.2020
395 Clear 24 1004 83 10000 4 350 22:56 06.07.2020
396 Clear 24 1004 83 10000 3 340 22:38 06.07.2020
397 Rain 24 1004 83 10000 3 340 22:18 06.07.2020
398 Rain 24 998 82 0 1.75 48 21:56 06.07.2020
399 Rain 24 998 82 0 1.81 57 21:36 06.07.2020
400 Rain 25 998 82 0 1.9 60 21:18 06.07.2020
401 Rain 25 998 79 0 1.9 60 20:40 06.07.2020
402 Rain 25 997 78 0 1.8 55 20:20 06.07.2020
403 Rain 25 997 79 0 1.8 55 19:58 06.07.2020
404 Rain 25 997 78 0 1.8 55 19:39 06.07.2020
405 Rain 25 997 79 0 1.52 59 19:21 06.07.2020
406 Rain 26 997 77 0 1.52 59 18:57 06.07.2020
407 Rain 26 997 76 0 1.52 59 18:57 06.07.2020
408 Rain 26 997 77 0 1.52 59 18:39 06.07.2020
409 Clouds 26 1002 73 10000 2 330 18:21 06.07.2020
410 Clouds 26 1002 73 10000 2 350 17:46 06.07.2020
411 Clouds 26 996 74 0 2.5 95 17:28 06.07.2020
412 Clouds 27 996 77 0 2.5 95 16:59 06.07.2020
413 Clouds 27 996 77 0 2.5 95 16:41 06.07.2020
414 Rain 27 996 78 0 2.45 128 16:21 06.07.2020
415 Rain 27 995 77 0 2.45 128 15:44 06.07.2020
416 Rain 28 1001 61 10000 3 260 15:25 06.07.2020
417 Rain 26 1001 61 10000 3 300 14:57 06.07.2020
418 Rain 25 1001 69 10000 3 330 14:38 06.07.2020
419 Rain 27 1001 69 10000 3 330 14:20 06.07.2020
420 Clouds 27 1000 69 10000 4 340 13:57 06.07.2020
421 Rain 27 999 65 10000 3 290 13:38 06.07.2020
422 Rain 29 998 65 10000 3 360 13:19 06.07.2020
423 Rain 31 998 55 10000 2 20 12:43 06.07.2020
424 Clouds 33 990 68 0 1.51 241 12:19 06.07.2020
425 Clouds 35 991 49 0 1.51 241 11:58 06.07.2020
426 Clouds 35 991 48 0 0.45 293 11:39 06.07.2020
427 Clouds 36 991 45 0 2 226 11:20 06.07.2020
428 Clouds 36 991 44 0 2 226 10:56 06.07.2020
429 Clouds 34 991 45 0 2 226 10:38 06.07.2020
430 Rain 34 991 46 0 3.58 181 10:18 06.07.2020
431 Clouds 35 997 43 10000 2 100 09:42 06.07.2020
432 Rain 36 990 44 0 1.68 85 09:22 06.07.2020
433 Rain 37 991 42 0 1.68 85 08:58 06.07.2020
434 Rain 37 990 38 0 1.68 85 08:38 06.07.2020
435 Clouds 37 990 40 0 1.35 157 08:20 06.07.2020
436 Clouds 37 991 40 0 1.35 157 07:46 06.07.2020
437 Clouds 37 991 39 0 1.27 160 07:24 06.07.2020
438 Clouds 36 991 42 0 1.27 160 06:42 06.07.2020
439 Clouds 36 991 42 0 1.27 160 06:42 06.07.2020
440 Clouds 35 992 45 0 0.87 108 06:23 06.07.2020
441 Clouds 34 992 45 0 0.87 108 05:41 06.07.2020
442 Clouds 34 992 49 0 0.61 71 05:19 06.07.2020
443 Clouds 30 990 80 0 0.69 45 03:44 06.07.2020
444 Clear 27 992 72 0 1.32 40 02:24 06.07.2020
445 Clear 26 992 81 0 1.32 40 01:39 06.07.2020
446 Clear 25 992 84 0 1.55 33 00:39 06.07.2020
447 Clear 24 991 84 0 1.76 43 00:20 06.07.2020
448 Clear 24 991 84 0 1.76 43 00:20 06.07.2020
449 Clear 23 992 85 0 1.76 43 23:44 05.07.2020
450 Clear 22 998 93 10000 1.75 51 23:25 05.07.2020
451 Clear 22 997 93 10000 1 0 22:59 05.07.2020
452 Clear 22 997 93 10000 1 0 22:40 05.07.2020
453 Clear 22 991 85 0 1.72 71 22:20 05.07.2020
454 Clear 22 991 85 0 1.72 71 22:20 05.07.2020
455 Clear 23 991 86 0 1.72 71 21:57 05.07.2020
456 Clear 23 991 85 0 1.72 71 21:39 05.07.2020
457 Clear 22 997 94 10000 1 80 21:18 05.07.2020
458 Clear 22 997 94 10000 1 0 20:58 05.07.2020
459 Clear 23 998 94 10000 1 80 20:39 05.07.2020
460 Clouds 23 998 94 10000 1 80 20:20 05.07.2020
461 Clouds 23 997 88 10000 1 0 19:43 05.07.2020
462 Clouds 23 997 88 10000 1 0 19:21 05.07.2020
463 Clouds 24 991 85 0 1.77 53 18:58 05.07.2020
464 Clouds 24 991 85 0 1.77 53 18:58 05.07.2020
465 Clouds 24 991 85 0 1.77 53 18:39 05.07.2020
466 Clouds 24 997 88 10000 1 20 18:20 05.07.2020
467 Clouds 24 997 88 10000 1 20 17:54 05.07.2020
468 Clouds 25 991 82 0 1.54 48 17:36 05.07.2020
469 Clouds 25 991 81 0 2.49 34 17:18 05.07.2020
470 Clouds 24 989 90 0 2.49 34 16:41 05.07.2020
471 Rain 25 991 77 0 2.23 26 16:23 05.07.2020
472 Rain 25 991 75 0 2.23 26 15:54 05.07.2020
473 Rain 25 989 87 0 2.23 26 15:36 05.07.2020
474 Rain 25 997 94 10000 2 70 15:18 05.07.2020
475 Clouds 26 997 88 10000 5 170 14:40 05.07.2020
476 Rain 26 990 70 0 1.75 116 14:20 05.07.2020
477 Rain 26 990 70 0 1.75 116 14:20 05.07.2020
478 Rain 27 991 70 0 3.26 44 13:42 05.07.2020
479 Rain 27 990 69 0 0.45 0 13:23 05.07.2020
480 Rain 28 989 59 0 1.34 0 12:47 05.07.2020
481 Thunderstorm 26 996 88 10000 4 360 12:27 05.07.2020
482 Clouds 25 995 94 10000 3 350 11:58 05.07.2020
483 Thunderstorm 21 996 88 10000 3 110 11:40 05.07.2020
484 Thunderstorm 27 996 88 10000 3 110 11:21 05.07.2020
485 Thunderstorm 27 997 94 6000 5 0 10:58 05.07.2020
486 Thunderstorm 32 995 62 8000 3 160 10:39 05.07.2020
487 Rain 33 987 66 0 2.15 200 10:19 05.07.2020
488 Rain 33 989 54 0 2.15 200 09:56 05.07.2020
489 Rain 33 989 52 0 2.15 200 09:37 05.07.2020
490 Rain 34 989 50 0 1.69 202 09:19 05.07.2020
491 Rain 35 989 47 0 1.21 205 08:45 05.07.2020
492 Clouds 36 989 40 0 1.44 128 08:27 05.07.2020
493 Clouds 36 989 39 0 1.44 128 07:47 05.07.2020
494 Clouds 36 990 42 0 0.89 120 07:29 05.07.2020
495 Clouds 35 990 41 0 0.89 120 06:50 05.07.2020
496 Clouds 32 992 43 0 0.74 71 05:29 05.07.2020
497 Clouds 30 993 53 0 1.08 9 03:31 05.07.2020
498 Clouds 27 999 61 10000 1 0 02:41 05.07.2020
499 Clouds 27 993 62 0 1.84 13 02:18 05.07.2020
500 Clouds 25 993 69 0 1.84 13 01:33 05.07.2020
501 Clouds 24 993 70 0 1.72 6 00:58 05.07.2020
502 Clouds 26 993 72 0 1.72 6 00:38 05.07.2020
503 Clouds 24 993 74 0 1.72 359 00:20 05.07.2020
504 Clouds 25 993 81 0 1.72 359 23:46 04.07.2020
505 Clouds 25 993 81 0 1.56 357 23:28 04.07.2020
506 Clouds 25 993 81 0 1.56 357 22:55 04.07.2020
507 Clouds 25 994 81 0 1.56 357 22:37 04.07.2020
508 Rain 25 993 81 0 1.96 3 22:18 04.07.2020
509 Rain 25 994 82 0 1.96 3 21:42 04.07.2020
510 Rain 25 994 79 0 1.62 2 21:23 04.07.2020
511 Rain 25 994 77 0 0.84 14 20:57 04.07.2020
512 Rain 25 994 77 0 0.84 14 20:38 04.07.2020
513 Rain 25 994 76 0 0.51 25 20:18 04.07.2020
514 Rain 25 994 77 0 0.51 25 19:43 04.07.2020
515 Clouds 25 994 77 0 1.38 356 19:22 04.07.2020
516 Clouds 25 994 77 0 1.38 356 19:22 04.07.2020
517 Clouds 25 994 76 0 1.38 356 18:55 04.07.2020
518 Clouds 25 994 76 0 1.38 356 18:55 04.07.2020
519 Clouds 26 995 76 0 1.38 356 18:37 04.07.2020
520 Rain 26 995 76 0 1.8 330 18:18 04.07.2020
521 Rain 26 995 75 0 1.8 330 17:42 04.07.2020
522 Rain 26 995 75 0 2.18 307 17:23 04.07.2020
523 Rain 26 995 78 0 2.18 307 16:57 04.07.2020
524 Rain 26 995 77 0 2.18 307 16:37 04.07.2020
525 Rain 27 995 75 0 2.06 278 16:19 04.07.2020
526 Rain 28 995 74 0 2.06 278 15:46 04.07.2020
527 Clouds 28 996 69 0 2.54 238 15:27 04.07.2020
528 Clouds 29 996 68 0 2.54 238 14:59 04.07.2020
529 Clouds 29 996 68 0 2.54 238 14:37 04.07.2020
530 Rain 29 995 67 0 3.01 248 14:19 04.07.2020
531 Rain 29 995 67 0 3.01 248 13:57 04.07.2020
532 Rain 29 995 66 0 3.01 248 13:39 04.07.2020
533 Clouds 29 995 64 0 3.25 215 13:18 04.07.2020
534 Clouds 29 995 64 0 3.25 215 12:42 04.07.2020
535 Clouds 30 993 82 0 4.92 205 12:20 04.07.2020
536 Clouds 30 995 61 0 4.92 205 11:46 04.07.2020
537 Clouds 30 995 61 0 0.45 180 11:25 04.07.2020
538 Clouds 31 995 60 0 5.01 210 11:00 04.07.2020
539 Clouds 32 995 54 0 5.01 210 10:41 04.07.2020
540 Clouds 32 995 55 0 4.82 203 10:21 04.07.2020
541 Clouds 32 996 52 0 4.82 203 09:58 04.07.2020
542 Clouds 32 996 52 0 4.82 203 09:58 04.07.2020
543 Clouds 32 995 51 0 4.82 203 09:37 04.07.2020
544 Clouds 32 995 52 0 4.45 207 09:18 04.07.2020
545 Clouds 32 996 55 0 0.45 180 08:46 04.07.2020
546 Clouds 32 994 75 0 4.7 206 08:27 04.07.2020
547 Clouds 33 997 49 0 4.7 206 07:46 04.07.2020
548 Clouds 33 997 50 0 4.11 206 07:26 04.07.2020
549 Clouds 32 997 53 0 4.11 206 06:53 04.07.2020
550 Clouds 27 1005 58 10000 1 0 06:22 04.07.2020
551 Clouds 30 999 56 0 3.49 201 05:34 04.07.2020
552 Clouds 30 999 62 0 2.98 205 04:43 04.07.2020
553 Clouds 24 1006 73 8000 2 120 02:51 04.07.2020
554 Clouds 26 1000 79 0 1.53 184 02:19 04.07.2020
555 Clouds 25 1000 77 0 1.29 168 01:26 04.07.2020
556 Clouds 24 1001 79 0 1.29 168 00:41 04.07.2020
557 Clouds 22 1001 81 0 1.14 182 00:22 04.07.2020
558 Clouds 21 1007 93 10000 1 0 23:40 03.07.2020
559 Clouds 23 1001 85 0 1.95 181 23:19 03.07.2020
560 Clouds 23 1001 84 0 1.95 181 22:55 03.07.2020
561 Clouds 23 1001 83 0 1.95 181 22:37 03.07.2020
562 Clouds 23 1001 83 0 1.91 181 22:18 03.07.2020
563 Clouds 23 1001 82 0 1.91 181 21:40 03.07.2020
564 Clouds 23 1001 82 0 2.01 179 21:20 03.07.2020
565 Clouds 23 1002 82 0 2.49 192 20:55 03.07.2020
566 Clouds 23 1002 81 0 2.49 192 20:37 03.07.2020
567 Clouds 23 999 95 0 2.71 193 20:18 03.07.2020
568 Clouds 24 1002 80 0 2.71 193 19:41 03.07.2020
569 Clouds 24 1002 79 0 2.54 195 19:19 03.07.2020
570 Clouds 24 1002 78 0 2.54 195 18:55 03.07.2020
571 Clouds 24 1003 78 0 2.54 195 18:36 03.07.2020
572 Clouds 24 1003 77 0 2.76 200 18:18 03.07.2020
573 Clouds 25 1003 77 0 2.76 200 17:41 03.07.2020
574 Clouds 25 1000 93 0 2.47 193 17:22 03.07.2020
575 Clouds 25 1003 77 0 2.47 193 16:45 03.07.2020
576 Clouds 25 1003 80 0 1.8 180 16:26 03.07.2020
577 Clouds 25 1003 84 0 1.8 180 15:48 03.07.2020
578 Clouds 25 1003 84 0 1.53 165 15:25 03.07.2020
579 Clouds 25 1003 85 0 1.53 165 14:58 03.07.2020
580 Clouds 26 1003 85 0 0.12 143 14:40 03.07.2020
581 Clouds 26 1003 85 0 0.26 115 14:21 03.07.2020
582 Clouds 26 1002 86 0 0.26 115 13:48 03.07.2020
583 Clouds 26 1002 83 0 0.16 300 13:29 03.07.2020
584 Clouds 26 1002 85 0 0.16 300 12:57 03.07.2020
585 Clouds 26 1002 84 0 0.16 300 12:39 03.07.2020
586 Rain 27 999 96 0 0.26 330 12:20 03.07.2020
587 Rain 28 999 93 0 0.26 330 11:43 03.07.2020
588 Rain 28 999 91 0 0.11 248 11:25 03.07.2020
589 Rain 29 1002 67 0 0.11 248 10:58 03.07.2020
590 Rain 29 1002 65 0 0.11 248 10:39 03.07.2020
591 Rain 29 1002 67 0 0.44 36 10:20 03.07.2020
592 Rain 29 1003 70 0 0.44 36 09:55 03.07.2020
593 Clouds 29 1003 68 0 1.4 342 09:37 03.07.2020
594 Clouds 25 1009 61 7000 2 160 09:18 03.07.2020
595 Clouds 27 1010 57 7000 3 160 08:40 03.07.2020
596 Clouds 27 1010 57 7000 3 160 08:19 03.07.2020
597 Clouds 26 1004 83 0 1.5 314 07:49 03.07.2020
598 Rain 25 1004 85 0 1.25 254 07:27 03.07.2020
599 Rain 25 1010 65 5000 2 0 06:58 03.07.2020
600 Rain 25 1005 98 0 0.93 181 06:20 03.07.2020
601 Rain 25 1005 97 0 0.54 65 04:56 03.07.2020
602 Rain 24 1005 98 0 1.57 52 03:45 03.07.2020
603 Rain 24 1005 98 0 2.04 45 02:49 03.07.2020
604 Clouds 22 1005 98 0 2.45 48 02:29 03.07.2020
605 Rain 23 1004 98 0 1.7 33 01:29 03.07.2020
606 Rain 23 1004 98 0 1.7 33 00:56 03.07.2020
607 Rain 23 1004 98 0 1.7 33 00:36 03.07.2020
608 Rain 22 1004 98 0 2.35 33 23:49 02.07.2020
609 Rain 22 1003 98 0 2.68 35 23:21 02.07.2020
610 Rain 22 1003 98 0 2.68 35 22:58 02.07.2020
611 Rain 22 1003 98 0 2.68 35 22:40 02.07.2020
612 Rain 22 1003 98 0 2.77 49 22:20 02.07.2020
613 Rain 22 1003 98 0 2.77 49 21:57 02.07.2020
614 Rain 22 1000 99 0 2.77 49 21:39 02.07.2020
615 Rain 22 1003 98 0 2.35 44 21:19 02.07.2020
616 Rain 23 1003 98 0 2.35 44 20:57 02.07.2020
617 Rain 23 1003 98 0 2.35 44 20:39 02.07.2020
618 Rain 23 1003 98 0 2.57 42 20:18 02.07.2020
619 Rain 23 1003 98 0 2.57 42 19:42 02.07.2020
620 Rain 23 1003 98 0 2.55 28 19:23 02.07.2020
621 Rain 23 1009 88 6000 1 0 18:58 02.07.2020
622 Rain 24 1003 97 0 2.55 28 18:40 02.07.2020
623 Rain 23 1003 97 0 1.8 7 18:21 02.07.2020
624 Rain 24 1003 97 0 1.8 7 17:54 02.07.2020
625 Rain 25 1003 79 0 1.8 7 17:36 02.07.2020
626 Rain 25 1003 70 0 1.59 346 17:18 02.07.2020
627 Rain 25 1002 68 0 1.59 346 16:41 02.07.2020
628 Rain 25 1002 69 0 2.68 1 16:20 02.07.2020
629 Clouds 25 1008 61 10000 3 110 15:55 02.07.2020
630 Clouds 25 1008 61 10000 3 110 15:36 02.07.2020
631 Clouds 25 1008 61 10000 3 110 15:18 02.07.2020
632 Rain 25 1007 57 10000 2 90 14:44 02.07.2020
633 Rain 25 1007 57 10000 2 90 14:44 02.07.2020
634 Rain 26 1001 71 0 2.91 327 14:22 02.07.2020
635 Rain 27 1007 57 10000 2 90 13:56 02.07.2020
636 Rain 27 1007 54 10000 2 110 13:37 02.07.2020
637 Rain 27 1007 54 10000 3 110 13:18 02.07.2020
638 Rain 28 1007 54 10000 2 100 12:41 02.07.2020
639 Rain 28 1007 54 10000 2 100 12:22 02.07.2020
640 Rain 28 1007 54 10000 2 90 11:55 02.07.2020
641 Rain 28 1007 58 10000 3 100 11:37 02.07.2020
642 Rain 28 1007 58 10000 3 100 11:19 02.07.2020
643 Rain 28 1007 54 10000 2 100 10:42 02.07.2020
644 Rain 28 1007 54 10000 2 100 10:23 02.07.2020
645 Rain 29 1007 58 10000 2 70 09:44 02.07.2020
646 Rain 30 1001 55 0 5.09 81 09:23 02.07.2020
647 Clouds 30 1001 54 0 3.76 87 08:59 02.07.2020
648 Clouds 29 1001 61 0 3.76 87 08:40 02.07.2020
649 Rain 30 1001 65 0 0.45 0 08:20 02.07.2020
650 Rain 29 1002 69 0 3.72 89 07:42 02.07.2020
651 Rain 29 1002 70 0 1.58 46 07:22 02.07.2020
652 Rain 29 1002 71 0 0.89 0 06:47 02.07.2020
653 Rain 29 1009 58 10000 2 100 06:27 02.07.2020
654 Rain 28 1009 69 10000 2 30 05:49 02.07.2020
655 Clouds 27 1000 90 0 1.66 87 04:55 02.07.2020
656 Clouds 27 1002 79 0 0.45 0 03:34 02.07.2020
657 Clouds 27 1002 70 0 2.99 72 01:51 02.07.2020
658 Clouds 25 1002 74 0 3.07 65 00:44 02.07.2020
659 Clouds 24 1002 77 0 0.45 315 00:18 02.07.2020
660 Clouds 24 1001 83 0 3.06 67 23:43 01.07.2020
661 Clouds 24 1001 85 0 0.45 315 23:22 01.07.2020
662 Clouds 24 1001 88 0 2.9 76 22:55 01.07.2020
663 Clouds 24 1001 87 0 2.9 76 22:37 01.07.2020
664 Clouds 24 1007 94 10000 4 350 22:18 01.07.2020
665 Clouds 24 1001 86 0 3.31 79 21:56 01.07.2020
666 Clouds 24 1001 86 0 3.31 79 21:38 01.07.2020
667 Clouds 24 1007 88 10000 1 0 21:19 01.07.2020
668 Clouds 25 1001 82 0 3.44 59 20:46 01.07.2020
669 Clouds 25 1001 81 0 3.24 59 20:26 01.07.2020
670 Clouds 25 1000 78 0 3.24 59 19:57 01.07.2020
671 Clouds 26 1000 78 0 3.24 59 19:39 01.07.2020
672 Clouds 26 1000 77 0 2.2 62 19:20 01.07.2020
673 Clouds 26 1000 75 0 2.2 62 18:55 01.07.2020
674 Clouds 26 1000 77 0 2.2 62 18:37 01.07.2020
675 Thunderstorm 26 1006 69 10000 7 340 18:19 01.07.2020
676 Clouds 27 1000 72 0 2.58 101 17:41 01.07.2020
677 Clouds 27 1000 70 0 4.86 100 17:20 01.07.2020
678 Clouds 27 999 69 0 4.86 100 16:49 01.07.2020
679 Clouds 27 999 68 0 0.45 315 16:29 01.07.2020
680 Clouds 28 998 67 0 6.56 92 15:59 01.07.2020
681 Clouds 28 998 66 0 6.56 92 15:41 01.07.2020
682 Clouds 28 1004 69 10000 3 10 15:22 01.07.2020
683 Clouds 28 1004 69 10000 2 10 14:55 01.07.2020
684 Clouds 29 1004 69 10000 3 30 14:37 01.07.2020
685 Clouds 29 1004 69 10000 3 30 14:19 01.07.2020
686 Clouds 31 1003 58 10000 3 60 13:40 01.07.2020
687 Clouds 32 1003 58 10000 3 90 13:21 01.07.2020
688 Clouds 33 1003 58 10000 3 90 12:59 01.07.2020
689 Clouds 34 1002 48 10000 5 30 12:39 01.07.2020
690 Rain 35 995 39 0 2.07 259 12:21 01.07.2020
691 Rain 35 995 40 0 2.07 259 11:56 01.07.2020
692 Rain 35 995 40 0 2.07 259 11:56 01.07.2020
693 Rain 35 993 44 0 2.07 259 11:37 01.07.2020
694 Rain 35 995 40 0 2.83 246 11:18 01.07.2020
695 Rain 36 995 40 0 2.83 246 10:42 01.07.2020
696 Rain 36 995 40 0 2.51 246 10:23 01.07.2020
697 Rain 36 994 38 0 2.51 246 09:59 01.07.2020
698 Rain 37 995 37 0 2.51 246 09:37 01.07.2020
699 Clouds 37 995 37 0 2.02 233 09:19 01.07.2020
700 Clouds 37 995 38 0 2.02 233 08:41 01.07.2020
701 Clouds 38 995 35 0 1.2 222 08:23 01.07.2020
702 Clouds 37 995 36 0 1.2 222 07:58 01.07.2020
703 Clouds 38 995 35 0 1.2 222 07:39 01.07.2020
704 Clouds 38 996 35 0 0.72 189 07:20 01.07.2020
705 Clouds 37 996 35 0 0.72 189 06:50 01.07.2020
706 Clouds 35 997 35 0 0.45 0 06:28 01.07.2020
707 Clouds 35 998 40 0 1.49 82 04:56 01.07.2020
708 Clouds 31 998 50 0 2.27 70 03:48 01.07.2020
709 Clouds 29 1004 54 10000 3 90 03:27 01.07.2020
710 Clouds 30 998 53 0 2.59 56 02:41 01.07.2020
711 Clear 28 998 60 0 2.37 49 01:48 01.07.2020
712 Clear 27 998 62 0 2.29 52 00:43 01.07.2020
713 Clear 26 997 63 0 2.16 58 00:25 01.07.2020
714 Clear 26 997 65 0 2.16 58 23:42 30.06.2020
715 Clear 26 997 62 0 2.24 57 23:22 30.06.2020
716 Clear 26 997 62 0 2.24 57 22:59 30.06.2020
717 Clear 24 1003 73 10000 1 40 22:40 30.06.2020
718 Clear 27 997 57 0 1.94 53 22:18 30.06.2020
719 Clear 27 996 60 0 1.94 53 21:41 30.06.2020
720 Clear 24 1003 73 10000 1 0 21:19 30.06.2020
721 Clear 25 1003 68 10000 2.18 57 20:54 30.06.2020
722 Clear 25 1003 68 10000 2.18 57 20:54 30.06.2020
723 Clear 25 1002 64 10000 1 0 20:36 30.06.2020
724 Clouds 25 1003 68 10000 1 0 20:18 30.06.2020
725 Clouds 25 1002 68 10000 1 170 19:41 30.06.2020
726 Clouds 28 996 55 0 1.76 74 19:19 30.06.2020
727 Clouds 26 1002 57 10000 1 0 18:43 30.06.2020
728 Clouds 29 996 48 0 1.51 79 18:21 30.06.2020
729 Clouds 29 996 49 0 1.51 79 17:59 30.06.2020
730 Clouds 29 996 48 0 1.51 79 17:37 30.06.2020
731 Clouds 29 1002 50 10000 3 170 17:19 30.06.2020
732 Clouds 30 996 46 0 1.44 113 16:43 30.06.2020
733 Clouds 31 996 45 0 1.97 145 16:24 30.06.2020
734 Clouds 31 995 42 0 1.97 145 15:59 30.06.2020
735 Clouds 31 995 40 0 1.97 145 15:40 30.06.2020
736 Clouds 31 995 39 0 1.96 135 15:21 30.06.2020
737 Clouds 32 995 38 0 1.96 135 14:54 30.06.2020
738 Clouds 32 995 38 0 2.01 195 14:36 30.06.2020
739 Clouds 33 1001 29 10000 3 200 14:18 30.06.2020
740 Clouds 34 995 37 0 1.49 221 13:40 30.06.2020
741 Clouds 34 995 36 0 2.23 243 13:20 30.06.2020
742 Clouds 35 994 34 0 2.23 243 12:58 30.06.2020
743 Clouds 35 994 34 0 2.23 243 12:58 30.06.2020
744 Clouds 35 994 33 0 2.23 243 12:39 30.06.2020
745 Clouds 36 992 33 0 1.63 233 12:20 30.06.2020
746 Clouds 36 992 32 0 1.63 233 11:57 30.06.2020
747 Clouds 35 994 32 0 1.63 233 11:38 30.06.2020
748 Clear 36 993 29 0 1.58 221 11:19 30.06.2020
749 Clear 36 992 27 0 1.58 221 10:56 30.06.2020
750 Clouds 28 995 63 0 4.03 207 16:38 28.06.2020
751 Clouds 28 998 52 0 4.47 195 16:19 28.06.2020
752 Clouds 29 998 53 0 4.47 195 15:56 28.06.2020
753 Clouds 29 998 53 0 4.47 195 15:37 28.06.2020
754 Rain 29 1004 54 10000 2 160 15:18 28.06.2020
755 Rain 29 1004 57 10000 2 150 15:18 28.06.2020
756 Clouds 31 1004 51 10000 2 150 14:43 28.06.2020
757 Clouds 31 1004 51 10000 2 150 14:24 28.06.2020
758 Clouds 30 1003 54 10000 2 150 13:55 28.06.2020
759 Clouds 30 1003 54 10000 2 150 13:55 28.06.2020
760 Clouds 31 1003 51 10000 2 170 13:37 28.06.2020
761 Clouds 31 1003 48 10000 1 0 13:18 28.06.2020
762 Clouds 31 1003 48 10000 1 0 12:55 28.06.2020
763 Clouds 30 1003 43 10000 3 200 12:36 28.06.2020
764 Clouds 31 1003 43 10000 3 180 12:18 28.06.2020
765 Clouds 32 1003 43 10000 3 180 11:44 28.06.2020
766 Clouds 32 1003 43 10000 3 180 11:21 28.06.2020
767 Clouds 32 1003 40 10000 4 170 10:59 28.06.2020
768 Clouds 32 1003 40 10000 3 160 10:41 28.06.2020
769 Clouds 32 1003 40 10000 3 160 10:23 28.06.2020
770 Clouds 33 1003 38 10000 3 180 09:43 28.06.2020
771 Clouds 33 1003 38 10000 3 180 09:24 28.06.2020
772 Clouds 33 1004 38 10000 3 0 08:58 28.06.2020
773 Clouds 33 1004 38 10000 4 190 08:40 28.06.2020
774 Clouds 33 1004 38 10000 4 190 08:21 28.06.2020
775 Clouds 33 998 41 0 3.79 197 07:39 28.06.2020
776 Clouds 34 998 45 0 3.01 193 06:58 28.06.2020
777 Clouds 34 996 55 0 3.01 193 06:32 28.06.2020
778 Clouds 35 999 41 0 3.08 188 05:54 28.06.2020
779 Clouds 34 1000 46 0 2.67 185 04:36 28.06.2020
780 Clouds 29 1007 48 10000 1 0 03:18 28.06.2020
781 Clouds 29 1001 65 0 1.28 103 02:23 28.06.2020
782 Clouds 28 1001 68 0 1.28 103 01:46 28.06.2020
783 Clouds 27 1001 71 0 1.58 93 01:22 28.06.2020
784 Clouds 24 1001 75 0 1.58 93 00:31 28.06.2020
785 Mist 24 1007 83 5000 2 90 23:58 27.06.2020
786 Mist 23 1007 83 5000 1 80 23:40 27.06.2020
787 Clouds 25 1001 82 0 1.94 90 23:21 27.06.2020
788 Clouds 25 1000 81 0 1.94 90 22:54 27.06.2020
789 Clouds 25 1000 81 0 1.94 90 22:36 27.06.2020
790 Clouds 25 1000 78 0 2.07 101 22:18 27.06.2020
791 Clouds 25 1000 77 0 2.07 101 21:42 27.06.2020
792 Clouds 25 1000 80 0 2.74 94 21:20 27.06.2020
793 Clouds 26 1000 77 0 2.74 94 20:56 27.06.2020
794 Clouds 26 998 91 0 2.74 94 20:37 27.06.2020
795 Clouds 26 1000 73 0 2.77 102 20:18 27.06.2020
796 Clouds 26 1000 71 0 2.77 102 19:38 27.06.2020
797 Clouds 27 1000 71 0 2.55 115 19:19 27.06.2020
798 Clouds 27 1000 71 0 2.55 115 18:57 27.06.2020
799 Clouds 27 1000 70 0 2.55 115 18:38 27.06.2020
800 Clouds 27 1000 70 0 2.55 115 18:38 27.06.2020
801 Clouds 27 1006 74 10000 3 140 18:19 27.06.2020
802 Clouds 28 1006 65 10000 4 130 17:41 27.06.2020
803 Clear 28 1006 65 10000 4 130 17:21 27.06.2020
804 Clear 29 999 71 0 3.07 169 16:57 27.06.2020
805 Clear 29 999 67 0 3.07 169 16:39 27.06.2020
806 Clear 30 999 61 0 2.98 171 16:19 27.06.2020
807 Clear 30 999 62 0 2.98 171 15:43 27.06.2020
808 Clear 30 1005 61 10000 3 160 15:24 27.06.2020
809 Clear 30 1004 58 10000 3 180 14:57 27.06.2020
810 Clear 30 1004 54 10000 3 170 14:38 27.06.2020
811 Clear 31 1004 54 10000 3 170 14:19 27.06.2020
812 Clear 32 1003 48 10000 4 170 13:42 27.06.2020
813 Clear 33 995 65 0 1.39 165 13:20 27.06.2020
814 Clear 32 1003 43 10000 4 160 12:58 27.06.2020
815 Clear 32 997 54 0 1.39 165 12:40 27.06.2020
816 Clear 33 1003 36 10000 3 200 12:21 27.06.2020
817 Clear 33 1003 36 10000 3 200 11:58 27.06.2020
818 Clear 34 1003 36 10000 3 160 11:38 27.06.2020
819 Clear 35 994 58 0 0.56 98 11:19 27.06.2020
820 Clear 35 1003 36 10000 1 0 10:41 27.06.2020
821 Clear 36 996 42 0 1.02 98 10:19 27.06.2020
822 Clear 36 996 43 0 0.45 0 09:57 27.06.2020
823 Clear 37 996 40 0 1.02 98 09:38 27.06.2020
824 Clear 36 997 42 0 1.48 158 09:20 27.06.2020
825 Clear 36 997 40 0 1.48 158 08:42 27.06.2020
826 Clear 36 997 39 0 1.67 160 08:22 27.06.2020
827 Clear 36 997 40 0 1.67 160 07:47 27.06.2020
828 Clear 36 997 40 0 1.54 157 07:25 27.06.2020
829 Clear 35 998 45 0 1.54 157 06:51 27.06.2020
830 Clear 35 998 46 0 1.54 157 06:33 27.06.2020
831 Clear 32 999 63 0 1.12 82 04:24 27.06.2020
832 Clear 31 999 62 0 1.12 82 03:59 27.06.2020
833 Clear 30 999 65 0 1.12 82 03:41 27.06.2020
834 Clear 27 1000 74 0 0.98 85 02:39 27.06.2020
835 Clear 28 999 75 0 1.14 90 02:20 27.06.2020
836 Clear 26 999 82 0 1 94 01:24 27.06.2020
837 Clear 25 999 87 0 0.45 315 00:41 27.06.2020
838 Clear 23 999 84 0 1.26 84 23:47 26.06.2020
839 Clear 23 999 84 0 1.7 78 23:27 26.06.2020
840 Clear 23 999 84 0 1.7 78 23:27 26.06.2020
841 Clear 23 999 83 0 1.7 78 22:58 26.06.2020
842 Clear 23 999 82 0 1.7 78 22:39 26.06.2020
843 Clear 23 999 83 0 2 76 22:20 26.06.2020
844 Clear 23 999 83 0 2 76 21:58 26.06.2020
845 Clear 23 999 84 0 2.24 68 21:38 26.06.2020
846 Clear 23 999 86 0 2.32 68 21:20 26.06.2020
847 Rain 23 999 85 0 2 90 21:20 26.06.2020
848 Clear 23 999 85 0 2.32 68 20:47 26.06.2020
849 Rain 23 999 84 0 3.1 90 20:26 26.06.2020
850 Rain 23 998 83 0 3.1 90 19:47 26.06.2020
851 Rain 23 998 84 0 3.38 97 19:25 26.06.2020
852 Rain 23 1004 88 6000 1 60 18:59 26.06.2020
853 Rain 24 1004 83 7000 2 80 18:40 26.06.2020
854 Rain 25 998 84 0 2.95 107 18:21 26.06.2020
855 Rain 26 998 84 0 2.95 107 17:44 26.06.2020
856 Clouds 26 998 83 0 2.95 138 17:26 26.06.2020
857 Clouds 26 997 81 0 2.95 138 16:55 26.06.2020
858 Clouds 27 997 79 0 2.95 138 16:36 26.06.2020
859 Rain 27 997 76 0 3.12 152 16:18 26.06.2020
860 Rain 27 997 73 0 3.12 152 15:41 26.06.2020
861 Rain 27 1003 78 10000 2 130 15:21 26.06.2020
862 Rain 27 1003 73 10000 1 120 14:57 26.06.2020
863 Rain 27 1003 65 10000 2 150 14:38 26.06.2020
864 Clouds 28 1003 65 10000 2 150 14:20 26.06.2020
865 Clouds 29 1003 58 10000 3 180 13:44 26.06.2020
866 Clouds 30 1002 54 10000 3 150 13:23 26.06.2020
867 Clouds 29 1002 54 10000 3 150 12:56 26.06.2020
868 Clouds 30 996 60 0 3.43 199 12:38 26.06.2020
869 Clouds 30 1002 51 10000 2 150 12:19 26.06.2020
870 Clouds 30 1002 51 10000 2 150 11:56 26.06.2020
871 Clouds 30 1002 51 10000 2 150 11:56 26.06.2020
872 Clouds 30 1003 51 10000 1 0 11:37 26.06.2020
873 Clouds 30 1003 51 10000 1 0 11:18 26.06.2020
874 Clouds 31 1003 51 10000 2 180 10:55 26.06.2020
875 Clouds 31 1003 51 10000 1 0 10:37 26.06.2020
876 Clouds 31 1003 51 10000 1 0 10:18 26.06.2020
877 Clouds 32 997 53 0 3.99 201 09:41 26.06.2020
878 Clouds 32 1003 54 10000 1 0 09:20 26.06.2020
879 Clouds 31 1003 54 10000 2 180 08:46 26.06.2020
880 Clouds 31 1003 54 10000 2 0 08:27 26.06.2020
881 Clouds 30 1004 54 10000 2 0 07:48 26.06.2020
882 Clouds 30 998 58 0 0.94 157 07:23 26.06.2020
883 Clouds 31 998 54 0 0.94 157 06:52 26.06.2020
884 Clouds 30 998 57 0 0.94 157 06:30 26.06.2020
885 Clouds 29 999 61 0 1.33 138 05:53 26.06.2020
886 Clouds 29 999 60 0 1.52 125 05:29 26.06.2020
887 Clouds 23 1005 73 10000 1 0 02:40 26.06.2020
888 Clear 22 996 95 0 2.15 92 01:39 26.06.2020
889 Clear 22 1004 88 10000 1 0 00:52 26.06.2020
890 Clear 21 1004 88 10000 1 360 00:31 26.06.2020
891 Clear 21 1004 93 10000 1.2 86 23:48 25.06.2020
892 Clear 21 1004 88 10000 1 0 23:22 25.06.2020
893 Clear 20 1004 88 10000 1 0 22:58 25.06.2020
894 Clear 20 1003 88 10000 1 0 22:39 25.06.2020
895 Clear 20 1003 88 10000 1 0 22:20 25.06.2020
896 Clear 20 1003 93 10000 1 360 21:58 25.06.2020
897 Clear 20 1003 93 10000 2 350 21:40 25.06.2020
898 Rain 21 1003 93 10000 2 350 21:21 25.06.2020
899 Rain 21 1003 93 10000 1 10 20:57 25.06.2020
900 Rain 21 1004 93 10000 2 350 20:39 25.06.2020
901 Rain 21 1004 93 10000 2 350 20:21 25.06.2020
902 Rain 21 1004 88 10000 2 10 19:54 25.06.2020
903 Rain 21 1004 88 10000 3 290 19:36 25.06.2020
904 Rain 21 1004 88 10000 3 290 19:18 25.06.2020
905 Rain 22 1004 93 10000 1 0 18:39 25.06.2020
906 Rain 21 1004 93 10000 1 0 18:21 25.06.2020
907 Rain 21 1004 88 10000 3 340 17:45 25.06.2020
908 Rain 21 1004 88 10000 3 340 17:20 25.06.2020
909 Thunderstorm 21 1004 88 10000 2 170 16:59 25.06.2020
910 Rain 22 1005 88 10000 4 330 16:40 25.06.2020
911 Rain 22 1005 88 10000 4 330 16:19 25.06.2020
912 Rain 22 1003 88 10000 3 0 15:44 25.06.2020
913 Rain 23 1003 88 10000 3 0 15:26 25.06.2020
914 Rain 23 1004 82 10000 4 50 14:56 25.06.2020
915 Rain 25 1004 77 10000 4 50 14:37 25.06.2020
916 Rain 25 1004 77 10000 4 50 14:19 25.06.2020
917 Rain 26 1002 88 6000 2 30 13:42 25.06.2020
918 Rain 25 1002 88 6000 2 30 13:22 25.06.2020
919 Rain 25 1001 88 6000 3 100 12:59 25.06.2020
920 Rain 25 1002 88 10000 3 360 12:41 25.06.2020
921 Thunderstorm 26 1000 78 10000 1 0 12:20 25.06.2020
922 Thunderstorm 26 1001 83 10000 2 100 11:43 25.06.2020
923 Thunderstorm 27 1001 83 10000 2 100 11:23 25.06.2020
924 Thunderstorm 28 1001 61 10000 5 140 10:45 25.06.2020
925 Clouds 27 995 72 0 4.14 151 10:26 25.06.2020
926 Clouds 28 992 92 0 4.14 151 09:59 25.06.2020
927 Clouds 27 992 93 0 4.14 151 09:40 25.06.2020
928 Rain 27 993 95 0 2.17 167 09:20 25.06.2020
929 Rain 28 992 91 0 2.17 167 08:43 25.06.2020
930 Clouds 29 995 64 0 1.04 199 08:19 25.06.2020
931 Clouds 28 995 63 0 1.04 199 07:45 25.06.2020
932 Clouds 28 995 61 0 0.92 206 07:26 25.06.2020
933 Clouds 29 996 58 0 0.92 206 06:48 25.06.2020
934 Clouds 29 996 59 0 1.03 189 06:27 25.06.2020
935 Clouds 29 996 57 0 1.03 189 05:51 25.06.2020
936 Clouds 29 996 71 0 1.8 184 03:58 25.06.2020
937 Clouds 25 1003 73 10000 3 140 03:32 25.06.2020
938 Clouds 25 997 73 0 2.22 175 02:42 25.06.2020
939 Clouds 24 997 88 0 2.44 177 01:55 25.06.2020
940 Clouds 24 997 87 0 2.66 169 01:20 25.06.2020
941 Clouds 24 994 97 0 2.66 169 00:43 25.06.2020
942 Clouds 23 997 95 0 2.5 161 00:20 25.06.2020
943 Clouds 23 994 97 0 2.5 161 23:44 24.06.2020
944 Clouds 23 1004 83 8000 2 240 23:25 24.06.2020
945 Clouds 23 1003 88 10000 1 0 22:58 24.06.2020
946 Clouds 23 1003 88 10000 1 100 22:40 24.06.2020
947 Clouds 23 1003 88 10000 1 100 22:20 24.06.2020
948 Clouds 23 1003 88 10000 1 360 21:55 24.06.2020
949 Rain 22 997 98 0 1.98 129 21:36 24.06.2020
950 Clouds 23 994 94 0 1.79 149 21:18 24.06.2020
951 Clouds 23 994 94 0 1.79 149 20:58 24.06.2020
952 Rain 23 997 99 0 1.79 149 20:38 24.06.2020
953 Clouds 23 1003 88 10000 1 0 20:20 24.06.2020
954 Clouds 23 1003 94 10000 1 0 19:55 24.06.2020
955 Clouds 23 1003 94 10000 1 0 19:36 24.06.2020
956 Clouds 23 1003 94 10000 1 0 19:18 24.06.2020
957 Clouds 23 1003 94 10000 1 0 18:57 24.06.2020
958 Clouds 23 1003 88 10000 2 150 18:38 24.06.2020
959 Clouds 23 1003 94 10000 2 110 18:19 24.06.2020
960 Clouds 23 1003 88 10000 3 50 17:43 24.06.2020
961 Rain 24 1003 88 10000 3 50 17:21 24.06.2020
962 Rain 24 1002 88 10000 2 310 16:59 24.06.2020
963 Rain 23 1001 88 10000 4 260 16:40 24.06.2020
964 Rain 23 1001 88 10000 4 260 16:22 24.06.2020
965 Rain 23 1002 88 10000 2 230 15:58 24.06.2020
966 Rain 24 1003 83 10000 1 0 15:39 24.06.2020
967 Thunderstorm 24 1004 83 10000 4 260 15:20 24.06.2020
968 Rain 24 1004 83 10000 4 260 14:54 24.06.2020
969 Thunderstorm 22 1004 78 10000 5 240 14:36 24.06.2020
970 Thunderstorm 22 1004 78 10000 5 240 14:18 24.06.2020
971 Clouds 29 1003 51 10000 4 280 13:41 24.06.2020
972 Rain 29 996 73 0 5.21 161 13:20 24.06.2020
973 Rain 30 996 57 0 5.21 161 12:41 24.06.2020
974 Clouds 30 1001 48 10000 3 180 12:21 24.06.2020
975 Clouds 31 1001 48 10000 3 180 11:57 24.06.2020
976 Clouds 31 1001 51 10000 3 150 11:39 24.06.2020
977 Clouds 31 1001 51 10000 3 150 11:21 24.06.2020
978 Clouds 31 1001 48 10000 2 160 10:44 24.06.2020
979 Clear 31 1001 51 10000 4 140 10:19 24.06.2020
980 Clear 31 1001 48 10000 3 180 09:45 24.06.2020
981 Clear 31 1001 48 10000 3 180 09:23 24.06.2020
982 Clear 32 994 48 0 3.76 173 08:54 24.06.2020
983 Clear 32 994 50 0 3.76 173 08:36 24.06.2020
984 Clouds 32 995 48 0 2.72 178 08:18 24.06.2020
985 Clouds 33 995 47 0 2.72 178 07:42 24.06.2020
986 Clouds 33 995 45 0 2.52 192 07:23 24.06.2020
987 Clouds 32 996 47 0 2.52 192 06:40 24.06.2020
988 Clouds 31 996 51 0 2.15 192 06:22 24.06.2020
989 Clouds 30 997 53 0 2.15 192 05:38 24.06.2020
990 Clouds 28 997 57 0 1.89 202 04:38 24.06.2020
991 Clouds 27 998 62 0 1.56 186 03:37 24.06.2020
992 Clouds 24 998 65 0 1.44 179 02:53 24.06.2020
993 Clouds 25 998 66 0 1.6 162 02:18 24.06.2020
994 Clouds 25 997 69 0 1.48 141 00:51 24.06.2020
995 Clouds 25 997 70 0 1.48 141 00:33 24.06.2020
996 Clouds 21 1003 82 10000 2 60 23:48 23.06.2020
997 Clouds 22 997 71 0 1.62 115 23:21 23.06.2020
998 Clouds 22 997 71 0 1.62 115 22:58 23.06.2020
999 Clouds 22 997 72 0 1.62 115 22:40 23.06.2020
1000 Clouds 23 997 72 0 1.92 122 22:18 23.06.2020
1001 Clouds 23 997 71 0 1.92 122 21:43 23.06.2020
1002 Clouds 23 997 70 0 2.68 111 21:20 23.06.2020
1003 Clouds 23 998 71 0 2.68 111 20:57 23.06.2020
1004 Clouds 23 998 72 0 2.68 111 20:39 23.06.2020
1005 Clouds 23 998 72 0 2.83 112 20:19 23.06.2020
1006 Clouds 23 999 72 0 2.83 112 19:59 23.06.2020
1007 Clouds 23 999 72 0 2.83 112 19:40 23.06.2020
1008 Rain 23 999 72 0 2.97 116 19:22 23.06.2020
1009 Rain 23 999 68 0 2.97 116 18:38 23.06.2020
1010 Clouds 25 999 67 0 3.03 116 18:18 23.06.2020
1011 Clouds 25 999 67 0 3.03 116 18:18 23.06.2020
1012 Clouds 23 999 67 0 3.03 116 17:42 23.06.2020
1013 Clouds 25 999 68 0 2.86 136 17:24 23.06.2020
1014 Clouds 25 999 69 0 2.86 136 16:57 23.06.2020
1015 Clouds 25 999 69 0 2.86 136 16:38 23.06.2020
1016 Clouds 25 998 69 0 4.03 148 16:20 23.06.2020
1017 Clouds 26 998 68 0 4.03 148 15:57 23.06.2020
1018 Clouds 26 998 68 0 4.03 148 15:39 23.06.2020
1019 Clouds 26 998 69 0 5.2 142 15:18 23.06.2020
1020 Clouds 26 997 68 0 5.2 142 14:43 23.06.2020
1021 Clouds 27 997 67 0 6.16 143 14:19 23.06.2020
1022 Clouds 28 997 68 0 0.45 90 13:57 23.06.2020
1023 Clouds 28 997 67 0 6.16 143 13:39 23.06.2020
1024 Clouds 29 996 66 0 6.14 143 13:20 23.06.2020
1025 Clouds 30 995 60 0 6.14 143 12:44 23.06.2020
1026 Clouds 32 1002 51 10000 4 130 12:23 23.06.2020
1027 Clouds 32 1002 51 10000 4 130 11:58 23.06.2020
1028 Clouds 32 1002 51 10000 5 160 11:40 23.06.2020
1029 Clouds 32 1002 51 10000 5 160 11:19 23.06.2020
1030 Clouds 32 1002 51 10000 4 140 10:56 23.06.2020
1031 Clouds 33 1002 45 10000 3 160 10:38 23.06.2020
1032 Clouds 33 1002 45 10000 3 160 10:20 23.06.2020
1033 Clouds 34 996 48 0 5.23 163 09:42 23.06.2020
1034 Clouds 34 996 45 0 5.17 183 09:20 23.06.2020
1035 Clouds 34 996 49 0 5.17 183 08:58 23.06.2020
1036 Clouds 34 996 47 0 5.17 183 08:39 23.06.2020
1037 Clouds 34 996 46 0 4.72 182 08:20 23.06.2020
1038 Clouds 33 997 47 0 4.72 182 07:40 23.06.2020
1039 Clouds 33 997 50 0 4.5 180 07:21 23.06.2020
1040 Clouds 32 997 52 0 4.5 180 06:49 23.06.2020
1041 Clouds 30 997 54 0 3.64 174 06:31 23.06.2020
1042 Clouds 31 995 72 0 3.64 174 05:42 23.06.2020
1043 Clouds 27 998 74 0 1.97 140 03:39 23.06.2020
1044 Clouds 26 998 77 0 1.69 117 02:56 23.06.2020
1045 Clouds 26 998 77 0 1.69 117 02:38 23.06.2020
1046 Clouds 26 998 78 0 1.26 139 02:20 23.06.2020
1047 Clouds 26 998 85 0 1.26 139 01:43 23.06.2020
1048 Clouds 26 998 79 0 1.26 118 01:19 23.06.2020
1049 Rain 25 998 82 0 1.63 91 00:24 23.06.2020
1050 Rain 25 998 83 0 1.63 91 23:57 22.06.2020
1051 Clouds 25 998 85 0 1.63 91 23:39 22.06.2020
1052 Clouds 25 998 80 0 1.38 85 23:19 22.06.2020
1053 Clouds 25 997 82 0 1.38 85 22:57 22.06.2020
1054 Clouds 25 997 82 0 1.38 85 22:39 22.06.2020
1055 Clouds 25 998 77 0 1.58 133 22:20 22.06.2020
1056 Clouds 26 997 75 0 1.58 133 21:57 22.06.2020
1057 Clouds 26 997 74 0 1.58 133 21:38 22.06.2020
1058 Clouds 26 997 70 0 2.15 156 21:20 22.06.2020
1059 Clouds 26 997 69 0 2.15 156 20:42 22.06.2020
1060 Clouds 26 997 69 0 2.15 156 20:42 22.06.2020
1061 Clouds 27 997 67 0 2.41 144 20:24 22.06.2020
1062 Clouds 27 997 66 0 2.41 144 19:57 22.06.2020
1063 Clouds 27 997 65 0 2.41 144 19:37 22.06.2020
1064 Clouds 27 997 64 0 2.9 142 19:18 22.06.2020
1065 Clouds 27 1004 61 10000 2 100 18:41 22.06.2020
1066 Clouds 26 1004 61 10000 2 100 18:23 22.06.2020
1067 Clouds 26 1004 57 10000 2 80 17:57 22.06.2020
1068 Clouds 27 1004 54 10000 2 90 17:38 22.06.2020
1069 Clouds 27 997 54 0 4.14 159 17:20 22.06.2020
1070 Clouds 27 997 55 0 4.14 159 16:56 22.06.2020
1071 Clouds 28 1004 54 10000 5 130 16:38 22.06.2020
1072 Clouds 30 1004 57 10000 3 130 16:18 22.06.2020
1073 Clouds 30 1004 54 10000 4 130 15:44 22.06.2020
1074 Clouds 30 1004 54 10000 4 130 15:25 22.06.2020
1075 Clouds 30 1003 58 10000 4 120 14:57 22.06.2020
1076 Clouds 31 1003 54 10000 5 140 14:37 22.06.2020
1077 Clouds 31 1003 54 10000 5 130 14:18 22.06.2020
1078 Clouds 32 996 45 0 6.4 159 13:40 22.06.2020
1079 Clouds 32 996 44 0 5.93 175 13:22 22.06.2020
1080 Clouds 32 996 44 0 5.93 175 12:59 22.06.2020
1081 -273 0 0 0 0 0 12:59 22.06.2020
1082 Clouds 33 994 45 0 5.93 175 12:40 22.06.2020
1083 Clouds 32 1003 38 10000 5 170 12:22 22.06.2020
1084 Clouds 33 1002 40 10000 5 160 11:38 22.06.2020
1085 Clouds 33 1003 40 10000 6 160 11:19 22.06.2020
1086 Clouds 32 1003 40 10000 6 160 10:57 22.06.2020
1087 Clouds 33 1003 40 10000 7 160 10:38 22.06.2020
1088 Clouds 34 1003 38 10000 6 160 10:19 22.06.2020
1089 Clouds 34 1003 38 10000 6 160 09:57 22.06.2020
1090 Clouds 34 1003 36 10000 7 180 09:39 22.06.2020
1091 Clouds 34 1003 34 10000 7 180 09:19 22.06.2020
1092 Clouds 35 1003 34 10000 7 180 08:56 22.06.2020
1093 Clouds 35 996 39 0 5.22 186 08:38 22.06.2020
1094 Clouds 35 996 39 0 5.78 191 08:18 22.06.2020
1095 Clouds 35 996 38 0 5.78 191 07:46 22.06.2020
1096 Clouds 36 996 36 0 0.45 0 07:25 22.06.2020
1097 Clouds 36 997 38 0 5.65 196 06:39 22.06.2020
1098 Clouds 35 997 41 0 0.45 158 06:20 22.06.2020
1099 Clouds 36 997 40 0 0.45 225 05:42 22.06.2020
1100 Clouds 33 997 47 0 4.89 207 03:47 22.06.2020
1101 Clouds 30 998 56 0 4 217 02:19 22.06.2020
1102 Clouds 30 997 58 0 3.85 207 01:18 22.06.2020
1103 Clouds 29 997 66 0 3.85 207 00:39 22.06.2020
1104 Clouds 28 997 69 0 3.37 193 23:58 21.06.2020
1105 Clouds 28 997 64 0 3.37 193 23:39 21.06.2020
1106 Clouds 27 997 64 0 3.2 183 23:20 21.06.2020
1107 Clouds 27 997 64 0 3.2 183 22:56 21.06.2020
1108 Clouds 27 997 64 0 3.2 183 22:37 21.06.2020
1109 Clouds 27 997 63 0 3.41 169 22:19 21.06.2020
1110 Clouds 28 996 63 0 3.41 169 21:56 21.06.2020
1111 Clouds 28 996 63 0 3.41 169 21:56 21.06.2020
1112 Clouds 28 996 63 0 3.41 169 21:37 21.06.2020
1113 Clouds 28 994 65 0 3.14 179 21:19 21.06.2020
1114 Clouds 28 996 62 0 2.77 139 20:57 21.06.2020
1115 Clouds 26 996 62 0 2.77 139 20:36 21.06.2020
1116 Clouds 28 996 63 0 2.69 132 20:18 21.06.2020
1117 Clouds 28 996 62 0 2.69 132 19:41 21.06.2020
1118 Clouds 28 996 61 0 2.52 147 19:23 21.06.2020
1119 Clouds 29 996 59 0 2.52 147 18:59 21.06.2020
1120 Clouds 29 996 58 0 2.52 147 18:40 21.06.2020
1121 Clouds 29 996 58 0 3.18 158 18:21 21.06.2020
1122 Clouds 30 996 57 0 3.18 158 17:58 21.06.2020
1123 Clouds 30 996 56 0 3.18 158 17:38 21.06.2020
1124 Clouds 30 996 55 0 3.67 166 17:19 21.06.2020
1125 Clouds 30 996 55 0 3.67 166 17:19 21.06.2020
1126 Clouds 31 996 54 0 3.67 166 16:41 21.06.2020
1127 Clouds 31 996 52 0 4.47 172 16:23 21.06.2020
1128 Clouds 32 996 49 0 0.45 270 15:57 21.06.2020
1129 Clouds 32 996 46 0 4.47 172 15:37 21.06.2020
1130 Clear 32 1002 40 10000 3 130 15:18 21.06.2020
1131 Clear 33 1002 40 10000 3 140 14:39 21.06.2020
1132 Clouds 33 1002 40 10000 3 140 14:20 21.06.2020
1133 Clouds 34 993 42 0 4.81 175 13:57 21.06.2020
1134 Clouds 34 995 42 0 4.81 175 13:39 21.06.2020
1135 Clouds 34 994 42 0 5.04 181 13:19 21.06.2020
1136 Clouds 34 1000 32 10000 5 180 12:44 21.06.2020
1137 Clouds 35 1000 32 10000 5 180 12:26 21.06.2020
1138 Clouds 35 1000 32 10000 5 180 12:26 21.06.2020
1139 Clouds 35 1000 32 10000 6 180 11:58 21.06.2020
1140 Clouds 36 1000 32 10000 5 170 11:40 21.06.2020
1141 Clear 36 1000 30 10000 6 170 11:22 21.06.2020
1142 Clear 36 1000 30 10000 6 170 10:56 21.06.2020
1143 Clear 36 1001 34 10000 6 170 10:38 21.06.2020
1144 Clouds 36 1001 32 10000 6 170 10:20 21.06.2020
1145 Clouds 37 1001 30 10000 6 170 09:41 21.06.2020
1146 Clouds 37 994 36 0 4.58 192 09:19 21.06.2020
1147 Clouds 37 994 35 0 4.58 192 08:56 21.06.2020
1148 Clouds 38 994 34 0 4.58 192 08:38 21.06.2020
1149 Clear 37 994 36 0 0.45 135 08:19 21.06.2020
1150 Clear 37 995 34 0 0.45 225 07:41 21.06.2020
1151 Clear 37 995 34 0 0.45 0 07:22 21.06.2020
1152 Clear 37 995 35 0 4.07 198 06:49 21.06.2020
1153 Clear 35 995 39 0 0.45 225 06:18 21.06.2020
1154 Clear 35 996 42 0 4.09 201 05:54 21.06.2020
1155 Clear 33 995 56 0 3.07 207 03:40 21.06.2020
1156 Clear 30 1004 51 10000 1 0 03:18 21.06.2020
1157 Clouds 31 997 56 0 1.96 235 02:20 21.06.2020
1158 Clouds 30 997 59 0 2.05 232 01:32 21.06.2020
1159 Clouds 29 997 60 0 2.73 236 00:56 21.06.2020
1160 Clouds 29 995 71 0 2.73 236 00:38 21.06.2020
1161 Clouds 28 997 64 0 2.46 219 00:19 21.06.2020
1162 Clouds 27 997 66 0 2.46 219 23:44 20.06.2020
1163 Clouds 27 997 66 0 2.33 205 23:22 20.06.2020
1164 Clouds 28 997 58 0 2.33 205 22:56 20.06.2020
1165 Clouds 28 996 57 0 2.33 205 22:38 20.06.2020
1166 Clouds 28 996 56 0 2.7 216 22:18 20.06.2020
1167 Clouds 28 996 55 0 2.7 216 21:56 20.06.2020
1168 Clouds 29 996 55 0 2.35 211 21:38 20.06.2020
1169 Clouds 27 996 55 0 2.35 211 21:19 20.06.2020
1170 Clouds 27 996 54 0 2.35 211 20:57 20.06.2020
1171 Clouds 28 996 53 0 2.35 211 20:38 20.06.2020
1172 Rain 28 996 53 0 2.58 188 20:19 20.06.2020
1173 Rain 28 996 55 0 2.58 188 19:44 20.06.2020
1174 Rain 29 996 57 0 2.5 165 19:25 20.06.2020
1175 Rain 29 996 58 0 2.5 165 18:58 20.06.2020
1176 Rain 29 996 58 0 2.5 165 18:40 20.06.2020
1177 Clouds 30 996 56 0 2.44 169 18:19 20.06.2020
1178 Clouds 28 996 54 0 2.44 169 17:56 20.06.2020
1179 Clouds 29 996 54 0 2.44 169 17:38 20.06.2020
1180 Rain 29 996 54 0 3.77 178 17:19 20.06.2020
1181 Rain 30 996 52 0 3.77 178 16:41 20.06.2020
1182 Rain 32 996 52 0 2.21 172 16:19 20.06.2020
1183 Rain 32 996 51 0 2.21 172 15:57 20.06.2020
1184 Rain 32 996 51 0 2.21 172 15:39 20.06.2020
1185 Rain 32 996 52 0 3.4 182 15:18 20.06.2020
1186 Rain 32 996 51 0 3.4 182 14:42 20.06.2020
1187 Rain 32 1002 51 10000 2 130 14:21 20.06.2020
1188 Rain 33 993 54 0 4.38 169 13:42 20.06.2020
1189 Clear 33 995 50 0 4.35 182 13:21 20.06.2020
1190 Clear 34 994 54 0 4.35 182 12:57 20.06.2020
1191 Clear 34 995 48 0 4.35 182 12:38 20.06.2020
1192 Clear 34 1002 46 10000 4 150 12:19 20.06.2020
1193 Clear 34 1002 46 10000 4 150 11:55 20.06.2020
1194 Clear 34 1002 46 10000 5 160 11:36 20.06.2020
1195 Clouds 34 1002 43 10000 3 140 11:18 20.06.2020
1196 Clouds 35 1002 43 10000 4 150 10:42 20.06.2020
1197 Clouds 35 1002 43 10000 4 150 10:20 20.06.2020
1198 Clouds 35 995 45 0 0.45 225 09:54 20.06.2020
1199 Clear 35 995 44 0 0.45 225 09:36 20.06.2020
1200 Clouds 35 995 44 0 4.22 199 09:18 20.06.2020
1201 Clear 35 996 42 0 4.17 201 08:43 20.06.2020
1202 Clear 34 996 47 0 4.13 201 08:25 20.06.2020
1203 Clear 35 997 41 0 4.13 201 07:51 20.06.2020
1204 Clear 35 995 52 0 4.15 204 07:27 20.06.2020
1205 Clear 34 998 45 0 4.15 204 06:53 20.06.2020
1206 Clouds 34 998 46 0 0.89 225 06:23 20.06.2020
1207 Clouds 34 998 47 0 4.07 203 05:50 20.06.2020
1208 Clouds 31 999 51 0 4.08 201 04:50 20.06.2020
1209 Clouds 28 1000 52 0 2.82 200 02:23 20.06.2020
1210 Clouds 28 997 65 0 2.82 200 01:46 20.06.2020
1211 Clouds 26 1000 59 0 2.88 200 00:52 20.06.2020
1212 Clouds 26 999 60 0 3.31 200 00:21 20.06.2020
1213 Clouds 25 999 58 0 3.31 200 23:49 19.06.2020
1214 Clouds 25 999 58 0 3.11 197 23:22 19.06.2020
1215 Clouds 25 999 57 0 3.11 197 22:59 19.06.2020
1216 Clouds 25 999 56 0 3.11 197 22:40 19.06.2020
1217 Clouds 25 999 56 0 3.24 198 22:22 19.06.2020
1218 Clouds 25 999 55 0 3.24 198 21:58 19.06.2020
1219 Clouds 25 999 53 0 3.24 198 21:38 19.06.2020
1220 Clouds 25 999 53 0 3.24 198 21:38 19.06.2020
1221 Clouds 27 1005 47 10000 3 140 21:18 19.06.2020
1222 Clouds 27 999 52 0 4.25 213 20:58 19.06.2020
1223 Clouds 27 999 51 0 4.25 213 20:40 19.06.2020
1224 Clouds 27 999 51 0 4.99 209 20:20 19.06.2020
1225 Clouds 27 999 50 0 4.99 209 19:55 19.06.2020
1226 Clouds 27 999 49 0 4.99 209 19:37 19.06.2020
1227 Clouds 27 999 49 0 4.99 209 19:37 19.06.2020
1228 Clouds 28 999 47 0 4.89 212 19:19 19.06.2020
1229 Clouds 28 999 46 0 4.89 212 18:41 19.06.2020
1230 Clouds 29 1006 39 10000 4 190 18:21 19.06.2020
1231 Clouds 29 999 45 0 5.43 214 17:58 19.06.2020
1232 Clouds 29 999 45 0 5.43 214 17:38 19.06.2020
1233 Clouds 29 999 44 0 6.05 217 17:20 19.06.2020
1234 Clouds 29 999 44 0 6.05 217 17:20 19.06.2020
1235 Clouds 30 999 44 0 6.05 217 16:54 19.06.2020
1236 Clouds 30 999 44 0 6.05 217 16:36 19.06.2020
1237 Clear 29 1006 44 10000 3 170 16:18 19.06.2020
1238 Clear 30 1005 39 10000 2 150 15:42 19.06.2020
1239 Clear 31 1005 39 10000 2 150 15:20 19.06.2020
1240 Clear 31 1005 35 10000 3 160 14:56 19.06.2020
1241 Clear 32 1005 33 10000 4 180 14:38 19.06.2020
1242 Clear 32 1005 31 10000 5 180 14:18 19.06.2020
1243 Clear 32 998 38 0 4.74 176 13:43 19.06.2020
1244 Clear 32 998 37 0 4.52 183 13:25 19.06.2020
1245 Clear 33 1004 31 10000 7 180 12:48 19.06.2020
1246 Clear 33 1004 31 10000 7 180 12:23 19.06.2020
1247 Clear 33 1004 29 10000 5 190 11:58 19.06.2020
1248 Clear 34 1004 29 10000 6 180 11:39 19.06.2020
1249 Clear 34 997 34 0 4.94 199 11:18 19.06.2020
1250 Clear 34 997 34 0 4.94 199 11:18 19.06.2020
1251 Clear 34 997 33 0 0.45 135 10:46 19.06.2020
1252 Clear 35 998 33 0 4.73 204 10:27 19.06.2020
1253 Clear 35 998 31 0 4.73 204 09:59 19.06.2020
1254 Clear 35 998 32 0 4.73 204 09:41 19.06.2020
1255 Clear 35 996 35 0 4.92 209 09:20 19.06.2020
1256 Clear 36 999 31 0 4.63 213 08:44 19.06.2020
1257 Clear 35 999 34 0 4.66 217 08:26 19.06.2020
1258 Clear 35 997 38 0 4.66 217 07:56 19.06.2020
1259 Clear 34 999 35 0 4.66 217 07:38 19.06.2020
1260 Clear 34 999 36 0 0.45 180 07:20 19.06.2020
1261 Clear 32 1000 39 0 0.45 180 06:25 19.06.2020
1262 Clear 34 1001 38 0 4.42 218 05:46 19.06.2020
1263 Clear 30 1002 47 0 2.47 220 04:27 19.06.2020
1264 Clear 27 1002 60 0 1.17 205 02:52 19.06.2020
1265 Clouds 23 1002 77 0 0.62 27 00:59 19.06.2020
1266 Clouds 23 1002 81 0 0.62 27 00:40 19.06.2020
1267 Clouds 23 1002 90 0 1.16 41 00:21 19.06.2020
1268 Clouds 22 1007 82 10000 2 340 23:41 18.06.2020
1269 Clouds 22 1007 82 10000 2 340 23:23 18.06.2020
1270 Clouds 22 1007 82 10000 1 0 22:59 18.06.2020
1271 Clouds 22 1007 73 10000 2 320 22:39 18.06.2020
1272 Clouds 22 1007 82 10000 2 350 22:19 18.06.2020
1273 Clouds 22 1007 82 10000 2 350 21:39 18.06.2020
1274 Clouds 22 1007 82 10000 2 350 21:20 18.06.2020
1275 Clouds 23 1007 77 10000 3 350 20:58 18.06.2020
1276 Clouds 23 1007 77 10000 2 340 20:38 18.06.2020
1277 Clouds 23 1007 73 10000 3 20 20:19 18.06.2020
1278 Clouds 23 1007 73 10000 3 10 19:42 18.06.2020
1279 Clouds 24 1007 73 10000 3 10 19:22 18.06.2020
1280 Clouds 24 998 91 0 1.23 282 18:58 18.06.2020
1281 Clouds 24 998 92 0 1.23 282 18:37 18.06.2020
1282 Clouds 24 998 94 0 2.05 271 18:19 18.06.2020
1283 Clouds 24 998 95 0 2.05 271 17:45 18.06.2020
1284 Clouds 23 998 95 0 2.31 255 17:25 18.06.2020
1285 Clouds 23 998 95 0 2.31 255 17:25 18.06.2020
1286 Clouds 24 998 94 0 2.31 255 16:56 18.06.2020
1287 Clouds 24 998 95 0 2.31 255 16:37 18.06.2020
1288 Clouds 24 998 96 0 3.02 238 16:18 18.06.2020
1289 Clouds 24 998 96 0 3.02 238 15:55 18.06.2020
1290 Clouds 24 998 95 0 3.02 238 15:37 18.06.2020
1291 Clouds 24 1006 64 10000 3 350 15:18 18.06.2020
1292 Clouds 25 997 95 0 2.96 222 14:41 18.06.2020
1293 Rain 25 997 96 0 1.59 164 14:23 18.06.2020
1294 Rain 25 997 94 0 1.59 164 13:59 18.06.2020
1295 Rain 25 997 93 0 1.59 164 13:41 18.06.2020
1296 Rain 26 997 93 0 2.71 156 13:22 18.06.2020
1297 Rain 26 997 93 0 2.71 156 12:55 18.06.2020
1298 Rain 26 997 92 0 2.71 156 12:37 18.06.2020
1299 Rain 26 997 94 0 2.83 115 12:19 18.06.2020
1300 Rain 27 1004 42 10000 3 120 11:46 18.06.2020
1301 Rain 26 1004 42 10000 4 110 11:21 18.06.2020
1302 Rain 27 1003 42 10000 5 110 10:41 18.06.2020
1303 Rain 30 1003 42 10000 5 110 10:20 18.06.2020
1304 Rain 33 996 44 0 2.3 60 09:59 18.06.2020
1305 Rain 33 996 43 0 2.3 60 09:41 18.06.2020
1306 Clouds 34 996 41 0 7.93 263 09:22 18.06.2020
1307 Clouds 34 996 39 0 7.93 263 08:41 18.06.2020
1308 Clouds 35 996 37 0 3.55 234 08:23 18.06.2020
1309 Clouds 35 996 37 0 3.55 234 07:59 18.06.2020
1310 Clouds 35 996 38 0 3.55 234 07:40 18.06.2020
1311 Clouds 35 996 37 0 1.58 212 07:21 18.06.2020
1312 Clouds 31 1004 42 10000 1 0 06:28 18.06.2020
1313 Clouds 30 1004 47 10000 2 110 04:27 18.06.2020
1314 Clouds 27 997 54 0 0.56 294 03:26 18.06.2020
1315 Clouds 26 997 62 0 0.61 273 01:40 18.06.2020
1316 Clouds 25 997 65 0 0.74 285 01:18 18.06.2020
1317 Clouds 25 996 63 0 0.74 285 00:49 18.06.2020
1318 Clouds 25 994 60 0 0.54 294 00:24 18.06.2020
1319 Clouds 24 996 63 0 0.54 294 23:47 17.06.2020
1320 Clouds 24 996 64 0 1.1 281 23:23 17.06.2020
1321 Clouds 24 994 58 0 1.1 281 22:59 17.06.2020
1322 Clouds 24 996 63 0 1.1 281 22:40 17.06.2020
1323 Clouds 24 1002 68 10000 2 70 22:21 17.06.2020
1324 Clouds 25 996 61 0 2.24 244 21:58 17.06.2020
1325 Clouds 25 995 60 0 1.17 262 21:39 17.06.2020
1326 Clouds 24 1002 56 10000 2 170 21:20 17.06.2020
1327 Clouds 25 996 59 0 2.36 236 20:55 17.06.2020
1328 Clouds 25 996 59 0 2.36 236 20:36 17.06.2020
1329 Clouds 25 996 58 0 3.93 226 20:18 17.06.2020
1330 Clouds 25 996 58 0 3.93 226 19:41 17.06.2020
1331 Clouds 25 993 57 0 5.08 222 19:19 17.06.2020
1332 Clouds 25 996 57 0 5.08 222 18:46 17.06.2020
1333 Clouds 26 996 56 0 5.66 220 18:28 17.06.2020
1334 Clouds 26 996 56 0 5.66 220 17:47 17.06.2020
1335 Clouds 26 996 56 0 6.2 219 17:23 17.06.2020
1336 Clouds 26 996 56 0 6.2 219 16:59 17.06.2020
1337 Clouds 27 996 55 0 6.2 219 16:41 17.06.2020
1338 Clouds 27 996 54 0 7.02 219 16:21 17.06.2020
1339 Clouds 28 996 53 0 7.02 219 15:59 17.06.2020
1340 Clouds 28 996 52 0 7.02 219 15:39 17.06.2020
1341 Clouds 28 996 51 0 7.78 215 15:21 17.06.2020
1342 Clouds 29 996 48 0 7.78 215 14:58 17.06.2020
1343 Clouds 29 995 47 0 7.78 215 14:40 17.06.2020
1344 Clouds 29 995 46 0 7.91 210 14:19 17.06.2020
1345 Clouds 29 995 46 0 7.46 215 13:58 17.06.2020
1346 Clouds 29 995 45 0 0.45 180 13:39 17.06.2020
1347 Clouds 29 995 44 0 8.02 212 13:21 17.06.2020
1348 Clouds 30 995 43 0 0.45 315 12:55 17.06.2020
1349 Clouds 31 992 40 0 0.45 135 12:36 17.06.2020
1350 Clouds 31 1001 35 10000 5 190 12:18 17.06.2020
1351 Clouds 31 994 40 0 8.28 211 11:43 17.06.2020
1352 Clouds 32 994 39 0 8.16 210 11:23 17.06.2020
1353 Clouds 32 992 37 0 8.16 210 10:39 17.06.2020
1354 Clouds 32 994 37 0 7.11 207 10:19 17.06.2020
1355 Clouds 32 994 36 0 7.11 207 09:59 17.06.2020
1356 Clouds 32 994 36 0 7.11 207 09:41 17.06.2020
1357 Clouds 33 994 36 0 6.43 207 09:21 17.06.2020
1358 Clouds 33 994 36 0 5.44 206 08:55 17.06.2020
1359 Clouds 33 995 35 0 5.44 206 08:36 17.06.2020
1360 Clouds 32 995 38 0 5.14 209 08:18 17.06.2020
1361 Clouds 32 1002 37 10000 4 220 07:42 17.06.2020
1362 Clouds 31 1002 37 10000 4 220 07:21 17.06.2020
1363 Clouds 30 1003 37 10000 4 220 06:55 17.06.2020
1364 Clouds 30 994 42 0 5.26 212 06:37 17.06.2020
1365 Clouds 30 996 43 0 5.2 213 06:19 17.06.2020
1366 Clouds 30 996 42 0 4.88 214 04:58 17.06.2020
1367 Clouds 28 1003 42 10000 2 220 02:59 17.06.2020
1368 Clouds 28 996 47 0 3.01 218 01:43 17.06.2020
1369 Clouds 27 996 49 0 2.96 216 00:41 17.06.2020
1370 Clouds 27 996 47 0 3.08 213 00:23 17.06.2020
1371 Clouds 26 996 49 0 3.08 213 23:56 16.06.2020
1372 Clouds 26 996 49 0 3.08 213 23:56 16.06.2020
1373 Clouds 26 996 49 0 3.08 213 23:37 16.06.2020
1374 Clouds 26 996 49 0 2.84 214 23:19 16.06.2020
1375 Clouds 26 996 49 0 2.84 214 22:55 16.06.2020
1376 Clouds 26 996 49 0 3.74 218 22:36 16.06.2020
1377 Clouds 26 995 48 0 3.74 218 22:18 16.06.2020
1378 Clouds 27 995 49 0 3.74 218 21:47 16.06.2020
1379 Clouds 27 996 48 0 4.57 220 21:23 16.06.2020
1380 Clouds 27 996 47 0 5.33 217 20:57 16.06.2020
1381 Clouds 27 996 47 0 5.33 217 20:39 16.06.2020
1382 Clouds 27 996 47 0 6.21 216 20:19 16.06.2020
1383 Clouds 27 994 43 0 6.21 216 19:57 16.06.2020
1384 Clouds 27 994 43 0 6.21 216 19:38 16.06.2020
1385 Clouds 27 996 47 0 7.07 217 19:20 16.06.2020
1386 Clouds 27 996 47 0 7.07 217 18:45 16.06.2020
1387 Clouds 27 996 48 0 7.53 218 18:22 16.06.2020
1388 Clouds 28 996 49 0 7.53 218 17:59 16.06.2020
1389 Clouds 28 996 49 0 7.53 218 17:39 16.06.2020
1390 Clouds 28 996 50 0 7.84 215 17:21 16.06.2020
1391 Clouds 28 996 50 0 7.84 215 17:21 16.06.2020
1392 Clouds 29 996 50 0 7.84 215 16:59 16.06.2020
1393 Clouds 29 996 49 0 7.84 215 16:41 16.06.2020
1394 Clouds 30 997 48 0 0.45 0 16:20 16.06.2020
1395 Clouds 30 997 45 0 0.45 270 15:57 16.06.2020
1396 Clouds 31 996 42 0 0.45 225 15:39 16.06.2020
1397 Clouds 32 1002 25 10000 5 190 15:21 16.06.2020
1398 Clouds 32 1002 25 10000 5 190 14:56 16.06.2020
1399 Clouds 32 1002 22 10000 5 190 14:38 16.06.2020
1400 Clouds 33 1002 18 10000 5 190 14:20 16.06.2020
1401 Clouds 33 995 28 0 6.95 196 13:46 16.06.2020
1402 Clouds 34 995 27 0 4.26 180 13:25 16.06.2020
1403 Clouds 34 1002 16 10000 7 180 12:55 16.06.2020
1404 Clouds 35 1002 17 10000 5 200 12:37 16.06.2020
1405 Clouds 36 1002 16 10000 6 190 12:18 16.06.2020
1406 Rain 36 1002 15 10000 8 180 11:41 16.06.2020
1407 Rain 36 1002 15 10000 8 180 11:23 16.06.2020
1408 Clouds 37 995 24 0 3.04 191 10:59 16.06.2020
1409 Clouds 37 995 24 0 3.04 191 10:41 16.06.2020
1410 Clouds 38 995 23 0 2.22 206 10:20 16.06.2020
1411 Clouds 38 995 23 0 0.89 315 09:47 16.06.2020
1412 Clouds 38 995 25 0 2.36 210 09:26 16.06.2020
1413 Clouds 38 1003 22 10000 6 170 08:59 16.06.2020
1414 Clouds 38 1003 26 10000 5 170 08:41 16.06.2020
1415 Clouds 37 1004 28 10000 4 160 08:22 16.06.2020
1416 Clouds 37 996 26 0 2.74 212 07:45 16.06.2020
1417 Clouds 37 1004 28 10000 3 160 07:26 16.06.2020
1418 Clouds 37 997 29 0 3.25 215 06:44 16.06.2020
1419 Clouds 35 1005 31 10000 3 80 06:19 16.06.2020
1420 Clouds 33 1006 33 10000 2 110 05:26 16.06.2020
1421 Clouds 32 999 37 0 0.45 315 04:26 16.06.2020
1422 Clouds 27 1007 42 10000 1 0 02:49 16.06.2020
1423 Clouds 27 1000 46 0 2.14 80 01:44 16.06.2020
1424 Clouds 27 1000 48 0 2.12 89 01:19 16.06.2020
1425 Clouds 27 1000 51 0 2.12 89 00:37 16.06.2020
1426 Clouds 24 1007 56 10000 1 0 00:18 16.06.2020
1427 Clouds 26 1000 53 0 1.86 80 23:41 15.06.2020
1428 Clouds 26 998 47 0 2.36 82 23:21 15.06.2020
1429 Clouds 26 1000 54 0 2.36 82 22:55 15.06.2020
1430 Clouds 26 1000 52 0 2.36 82 22:36 15.06.2020
1431 Clouds 26 999 50 0 2 95 22:18 15.06.2020
1432 Clouds 27 999 46 0 2 95 21:55 15.06.2020
1433 Clouds 26 999 45 0 2.33 62 21:36 15.06.2020
1434 Clouds 26 1005 47 10000 3 100 21:18 15.06.2020
1435 Clouds 26 1005 47 10000 3 100 20:54 15.06.2020
1436 Clouds 25 1005 47 10000 3 100 20:54 15.06.2020
1437 Clouds 25 1005 53 10000 3 90 20:36 15.06.2020
1438 Clouds 25 1005 56 10000 1 0 20:18 15.06.2020
1439 Clouds 26 1005 53 10000 1 0 19:41 15.06.2020
1440 Clouds 29 998 38 0 3.73 123 19:22 15.06.2020
1441 Clouds 30 998 37 0 3.73 123 18:58 15.06.2020
1442 Clouds 30 998 36 0 3.73 123 18:40 15.06.2020
1443 Clear 29 1005 49 10000 1 60 18:21 15.06.2020
1444 Clear 31 998 33 0 2.68 124 17:58 15.06.2020
1445 Clear 31 998 33 0 2.68 124 17:40 15.06.2020
1446 Clear 32 998 32 0 1.46 180 17:19 15.06.2020
1447 Clear 32 998 30 0 1.46 180 16:56 15.06.2020
1448 Clear 32 1005 30 10000 2 180 16:38 15.06.2020
1449 Clear 32 998 29 0 2.13 201 16:18 15.06.2020
1450 Clear 33 1004 22 10000 3 190 15:41 15.06.2020
1451 Clear 34 1004 21 10000 3 190 15:20 15.06.2020
1452 Clear 34 1004 21 10000 3 190 15:20 15.06.2020
1453 Clear 34 1004 21 10000 3 190 14:57 15.06.2020
1454 Clear 34 1004 21 10000 3 200 14:39 15.06.2020
1455 Clouds 35 1004 18 10000 3 190 14:19 15.06.2020
1456 Clouds 35 997 25 0 1.61 191 13:56 15.06.2020
1457 Clouds 35 997 25 0 1.61 191 13:37 15.06.2020
1458 Clouds 36 997 24 0 2.21 203 13:18 15.06.2020
1459 Clouds 36 1003 19 10000 3 150 12:42 15.06.2020
1460 Clouds 36 1003 19 10000 3 150 12:22 15.06.2020
1461 Clouds 36 1003 19 10000 3 150 12:22 15.06.2020
1462 Clouds 37 1003 16 10000 3 150 11:58 15.06.2020
1463 Clouds 37 1003 13 10000 4 180 11:40 15.06.2020
1464 Clouds 37 1003 13 10000 4 180 11:22 15.06.2020
1465 Clouds 37 996 21 0 2.93 215 10:41 15.06.2020
1466 Clouds 38 995 14 0 2.99 221 10:21 15.06.2020
1467 Clouds 38 1004 12 10000 2 0 09:44 15.06.2020
1468 Clouds 38 997 18 0 1.5 220 09:23 15.06.2020
1469 Clouds 39 997 17 0 1.75 291 08:48 15.06.2020
1470 Clouds 39 997 16 0 1.4 304 08:27 15.06.2020
1471 Clouds 39 997 18 0 1.4 304 07:57 15.06.2020
1472 Clouds 39 996 13 0 1.4 304 07:39 15.06.2020
1473 Clear 39 998 17 0 1.11 295 07:19 15.06.2020
1474 Clear 37 1006 14 10000 2 0 06:28 15.06.2020
1475 Clear 37 1006 15 10000 2 0 05:51 15.06.2020
1476 Clear 38 999 20 0 0.96 296 05:29 15.06.2020
1477 Clear 36 1000 27 0 2 10 04:22 15.06.2020
1478 Clear 34 1000 28 0 2 10 03:49 15.06.2020
1479 Clear 30 1008 28 10000 3 20 02:58 15.06.2020
1480 Clear 29 1001 37 0 2.12 2 02:32 15.06.2020
1481 Clear 28 1001 41 0 2.12 2 01:47 15.06.2020
1482 Clear 27 1001 42 0 2.24 4 01:27 15.06.2020
1483 Clear 27 1001 43 0 2.24 4 00:45 15.06.2020
1484 Clear 26 1001 48 0 1.87 6 00:23 15.06.2020
1485 Clear 26 1000 50 0 1.87 6 23:58 14.06.2020
1486 Clear 25 1000 48 0 1.87 6 23:40 14.06.2020
1487 Clear 25 1000 49 0 1.76 4 23:22 14.06.2020
1488 Clear 25 1000 48 0 1.76 4 22:57 14.06.2020
1489 Clear 25 1000 47 0 1.76 4 22:38 14.06.2020
1490 Clear 25 1000 47 0 1.74 355 22:18 14.06.2020
1491 Clear 25 1000 47 0 1.74 355 21:56 14.06.2020
1492 Clear 25 1000 47 0 1.74 355 21:38 14.06.2020
1493 Clear 25 1007 52 10000 1 0 21:19 14.06.2020
1494 Clouds 27 1000 42 0 1.6 329 20:57 14.06.2020
1495 Clouds 27 1000 39 0 1.6 329 20:38 14.06.2020
1496 Clouds 28 1000 37 0 1.63 324 20:19 14.06.2020
1497 Clouds 29 999 35 0 1.63 324 19:56 14.06.2020
1498 Clouds 29 999 33 0 1.63 324 19:37 14.06.2020
1499 Clouds 29 999 31 0 1.44 301 19:19 14.06.2020
1500 Clouds 30 999 30 0 1.44 301 18:56 14.06.2020
1501 Clouds 30 999 30 0 1.44 301 18:37 14.06.2020
1502 Clouds 30 999 29 0 1.65 264 18:19 14.06.2020
1503 Clouds 30 999 29 0 1.65 264 17:55 14.06.2020
1504 Clouds 30 999 30 0 1.65 264 17:37 14.06.2020
1505 Clouds 30 999 30 0 2.13 231 17:18 14.06.2020
1506 Clouds 30 999 30 0 2.13 231 16:40 14.06.2020
1507 Clear 31 999 31 0 2.4 219 16:20 14.06.2020
1508 Clear 31 1006 22 10000 5 200 15:57 14.06.2020
1509 Clear 32 1005 20 10000 5 200 15:39 14.06.2020
1510 Clear 33 1005 19 10000 5 210 15:18 14.06.2020
1511 Clear 33 999 27 0 2.46 236 14:57 14.06.2020
1512 Clear 33 999 26 0 2.46 236 14:37 14.06.2020
1513 Clear 33 998 24 0 3.24 264 14:18 14.06.2020
1514 Clear 33 998 24 0 3.24 264 13:41 14.06.2020
1515 Clear 34 998 24 0 3.99 277 13:22 14.06.2020
1516 Clear 35 998 24 0 3.99 277 12:59 14.06.2020
1517 Clear 35 998 24 0 3.99 277 12:40 14.06.2020
1518 Clear 35 998 24 0 4.54 278 12:22 14.06.2020
1519 Clear 35 998 24 0 4.54 278 11:59 14.06.2020
1520 Clear 35 998 25 0 4.54 278 11:40 14.06.2020
1521 Clear 36 998 23 0 3.98 277 11:21 14.06.2020
1522 Clear 36 998 22 0 3.98 277 10:57 14.06.2020
1523 Clear 37 998 21 0 3.98 277 10:38 14.06.2020
1524 Clear 37 998 22 0 3.57 280 10:18 14.06.2020
1525 Clear 35 1006 17 10000 6 260 09:42 14.06.2020
1526 Clear 35 1006 17 10000 6 260 09:23 14.06.2020
1527 Clear 36 1007 18 10000 5 290 08:42 14.06.2020
1528 Clear 36 1007 18 10000 5 290 08:22 14.06.2020
1529 Clear 35 1008 20 10000 4 300 07:53 14.06.2020
1530 Clear 36 1008 20 10000 4 300 07:35 14.06.2020
1531 Clear 34 1001 21 0 3.26 307 06:54 14.06.2020
1532 Clear 33 1009 19 10000 3 290 05:54 14.06.2020
1533 Clear 32 1002 25 0 0.89 0 05:29 14.06.2020
1534 Clear 32 1003 27 0 4.27 322 04:38 14.06.2020
1535 Clear 31 1003 29 0 1.34 0 03:55 14.06.2020
1536 Clear 27 1010 30 10000 5 310 02:40 14.06.2020
1537 Clear 27 1010 30 10000 5 310 02:18 14.06.2020
1538 Clear 28 1004 38 0 4.45 330 01:27 14.06.2020
1539 Clear 27 1003 39 0 4.45 330 00:48 14.06.2020
1540 Clear 22 1009 55 10000 2 30 00:21 14.06.2020
1541 Clear 24 1003 40 0 4.03 326 23:46 13.06.2020
1542 Clear 25 1003 40 0 4.32 335 23:26 13.06.2020
1543 Clear 25 1002 39 0 4.32 335 22:59 13.06.2020
1544 Clear 25 1002 39 0 4.32 335 22:38 13.06.2020
1545 Clear 24 1008 43 10000 2 340 22:19 13.06.2020
1546 Clear 24 1008 43 10000 2 340 21:57 13.06.2020
1547 Clear 25 1008 37 10000 2 10 21:39 13.06.2020
1548 Clear 25 1008 40 10000 3 350 21:21 13.06.2020
1549 Clear 26 1002 37 0 1.34 0 20:44 13.06.2020
1550 Clear 26 1007 31 10000 2 0 20:21 13.06.2020
1551 Clear 26 1001 35 0 1.34 0 19:59 13.06.2020
1552 Clear 26 1000 35 0 0.45 0 19:38 13.06.2020
1553 Clear 27 1000 34 0 1.34 338 19:19 13.06.2020
1554 Clear 27 1000 33 0 0.89 315 18:58 13.06.2020
1555 Clear 27 1000 33 0 0.89 315 18:58 13.06.2020
1556 Clear 27 1000 32 0 1.34 90 18:39 13.06.2020
1557 Clear 28 999 32 0 1.34 315 18:20 13.06.2020
1558 Clear 28 999 31 0 0.89 315 17:56 13.06.2020
1559 Clear 29 996 26 0 4.9 337 17:37 13.06.2020
1560 Clear 29 998 31 0 6.3 332 17:19 13.06.2020
1561 Clear 29 998 29 0 6.3 332 16:54 13.06.2020
1562 Clear 29 998 28 0 0.45 45 16:36 13.06.2020
1563 Clear 30 996 25 0 6.55 325 16:18 13.06.2020
1564 Clear 29 1003 21 10000 4 360 15:41 13.06.2020
1565 Clear 31 997 26 0 6.6 327 15:21 13.06.2020
1566 Clear 31 997 26 0 6.6 327 15:21 13.06.2020
1567 Clear 31 996 26 0 6.6 327 14:44 13.06.2020
1568 Clouds 32 994 22 0 6.8 324 14:23 13.06.2020
1569 Clouds 33 996 24 0 0.45 0 13:57 13.06.2020
1570 Clouds 33 995 24 0 0.45 0 13:37 13.06.2020
1571 Clouds 33 995 24 0 0.89 315 13:18 13.06.2020
1572 Clouds 34 994 39 0 4.68 314 12:43 13.06.2020
1573 Clouds 34 994 40 0 2.69 293 12:25 13.06.2020
1574 Clouds 34 993 41 0 2.69 293 11:57 13.06.2020
1575 Clouds 34 991 40 0 2.69 293 11:37 13.06.2020
1576 Clouds 35 993 39 0 0.64 208 11:19 13.06.2020
1577 Clouds 35 993 40 0 0.64 208 10:54 13.06.2020
1578 Clouds 35 993 38 0 1.88 114 10:28 13.06.2020
1579 Clouds 36 993 36 0 1.88 114 09:57 13.06.2020
1580 Clouds 36 993 36 0 1.88 114 09:39 13.06.2020
1581 Rain 32 1000 35 10000 3 360 09:20 13.06.2020
1582 Rain 32 1000 33 10000 3 20 08:45 13.06.2020
1583 Clouds 32 1000 33 10000 3 20 08:26 13.06.2020
1584 Clouds 33 994 38 0 3.2 27 07:45 13.06.2020
1585 Rain 32 1001 38 10000 3 20 07:27 13.06.2020
1586 Rain 30 1001 48 8000 1 0 06:45 13.06.2020
1587 Rain 32 995 38 0 2.45 2 06:26 13.06.2020
1588 Rain 32 995 45 0 2.45 2 05:33 13.06.2020
1589 Rain 31 1002 48 6000 3 300 04:55 13.06.2020
1590 Rain 30 996 58 0 3.11 330 03:46 13.06.2020
1591 Rain 29 996 58 0 2.46 289 02:53 13.06.2020
1592 Rain 28 996 63 0 1.75 270 02:24 13.06.2020
1593 Clouds 28 996 68 0 0.45 0 01:26 13.06.2020
1594 Clouds 27 996 69 0 1.11 203 00:57 13.06.2020
1595 Clouds 27 995 70 0 1.11 203 00:37 13.06.2020
1596 Clouds 25 995 68 0 1.6 157 00:19 13.06.2020
1597 Clouds 24 995 67 0 1.6 157 23:40 12.06.2020
1598 Clouds 24 995 67 0 1.41 110 23:18 12.06.2020
1599 Clouds 24 995 67 0 1.41 110 23:18 12.06.2020
1600 Clouds 26 995 66 0 1.41 110 22:55 12.06.2020
1601 Clouds 26 995 66 0 1.41 110 22:55 12.06.2020
1602 Clouds 25 995 66 0 1.41 110 22:36 12.06.2020
1603 Clouds 26 995 66 0 1.04 86 22:18 12.06.2020
1604 Clouds 27 995 66 0 1.04 86 21:42 12.06.2020
1605 Clouds 26 995 65 0 1.05 143 21:23 12.06.2020
1606 Clouds 26 994 65 0 1.05 143 21:23 12.06.2020
1607 Clouds 27 995 64 0 1.44 195 20:57 12.06.2020
1608 Clouds 27 995 63 0 1.44 195 20:38 12.06.2020
1609 Clouds 28 994 62 0 2.93 203 20:19 12.06.2020
1610 Clouds 28 1001 69 10000 2 90 19:44 12.06.2020
1611 Clouds 28 994 60 0 3.42 183 19:22 12.06.2020
1612 Clouds 28 994 59 0 3.42 183 18:58 12.06.2020
1613 Clouds 28 994 59 0 3.42 183 18:37 12.06.2020
1614 Clouds 28 995 58 0 3.62 187 18:18 12.06.2020
1615 Clouds 29 1001 57 10000 1 0 17:43 12.06.2020
1616 Clouds 29 1001 57 10000 1 0 17:25 12.06.2020
1617 Clouds 29 1001 57 10000 2 150 16:47 12.06.2020
1618 Clouds 29 1001 57 10000 2 150 16:23 12.06.2020
1619 Clouds 30 1001 54 10000 2 140 15:53 12.06.2020
1620 Clouds 31 1001 51 10000 3 150 15:29 12.06.2020
1621 Clouds 31 1001 51 10000 2 140 14:59 12.06.2020
1622 Clouds 32 1000 48 10000 3 130 14:41 12.06.2020
1623 Clouds 31 1000 45 10000 3 130 14:22 12.06.2020
1624 Clouds 32 994 45 0 4.41 174 13:56 12.06.2020
1625 Clouds 32 994 45 0 4.41 174 13:56 12.06.2020
1626 Clouds 33 993 44 0 4.41 174 13:37 12.06.2020
1627 Clouds 34 993 42 0 3.16 179 13:18 12.06.2020
1628 Clouds 34 993 39 0 3.16 179 12:39 12.06.2020
1629 Clear 35 991 34 0 2.5 202 12:19 12.06.2020
1630 Clear 35 991 34 0 2.5 202 12:19 12.06.2020
1631 Clear 35 992 36 0 2.5 202 11:44 12.06.2020
1632 Clear 35 992 35 0 2.19 212 11:23 12.06.2020
1633 Clear 36 992 33 0 0.45 0 10:56 12.06.2020
1634 Clear 36 992 33 0 2.19 212 10:38 12.06.2020
1635 Clear 36 992 33 0 2.05 215 10:19 12.06.2020
1636 Clear 37 993 32 0 2.05 215 09:44 12.06.2020
1637 Clouds 37 993 31 0 1.73 206 09:20 12.06.2020
1638 Clouds 37 993 31 0 1.73 206 08:41 12.06.2020
1639 Clouds 37 993 31 0 1.91 215 08:23 12.06.2020
1640 Clouds 37 994 29 0 1.91 215 07:42 12.06.2020
1641 Clouds 37 994 30 0 1.81 209 07:24 12.06.2020
1642 Clouds 36 994 34 0 1.81 209 06:43 12.06.2020
1643 Clouds 34 995 37 0 1.79 207 06:22 12.06.2020
1644 Clouds 33 995 36 0 1.79 207 05:49 12.06.2020
1645 Clouds 33 996 36 0 1.34 200 05:24 12.06.2020
1646 Clouds 30 997 45 0 0.3 341 03:55 12.06.2020
1647 Clouds 27 997 55 0 0.71 327 02:43 12.06.2020
1648 Clouds 26 997 60 0 0.67 355 01:47 12.06.2020
1649 Clouds 25 997 63 0 0.63 73 01:20 12.06.2020
1650 Clouds 24 998 65 0 0.63 73 00:40 12.06.2020
1651 Clouds 24 998 67 0 1.37 40 00:21 12.06.2020
1652 Clouds 24 998 66 0 1.37 40 23:57 11.06.2020
1653 Clouds 24 998 67 0 1.37 40 23:39 11.06.2020
1654 Clouds 24 998 68 0 1.66 31 23:20 11.06.2020
1655 Clouds 24 998 67 0 1.66 31 22:55 11.06.2020
1656 Clouds 24 998 66 0 1.66 31 22:37 11.06.2020
1657 Clouds 24 998 66 0 1.66 31 22:37 11.06.2020
1658 Clouds 24 998 66 0 1.5 20 22:19 11.06.2020
1659 Clouds 24 998 64 0 1.5 20 21:43 11.06.2020
1660 Clouds 24 998 65 0 1.79 342 21:20 11.06.2020
1661 Clouds 24 998 64 0 1.79 342 20:58 11.06.2020
1662 Clouds 24 996 70 0 1.79 342 20:40 11.06.2020
1663 Clouds 24 998 71 0 1.02 320 20:20 11.06.2020
1664 Clouds 25 998 70 0 1.02 320 19:44 11.06.2020
1665 Clouds 24 1005 77 10000 1 0 19:22 11.06.2020
1666 Clouds 24 999 70 0 0.84 282 18:57 11.06.2020
1667 Clouds 24 999 71 0 0.84 282 18:39 11.06.2020
1668 Clouds 24 999 71 0 0.84 273 18:19 11.06.2020
1669 Clouds 24 999 71 0 0.84 273 17:55 11.06.2020
1670 Clouds 24 999 70 0 0.84 273 17:37 11.06.2020
1671 Clouds 24 999 71 0 1.4 360 17:18 11.06.2020
1672 Clouds 24 999 71 0 1.4 360 16:43 11.06.2020
1673 Clouds 25 1000 70 0 1.23 33 16:25 11.06.2020
1674 Clouds 25 1000 62 0 1.23 33 15:58 11.06.2020
1675 Clouds 25 1000 61 0 1.23 33 15:39 11.06.2020
1676 Clouds 25 1000 62 0 1.97 25 15:21 11.06.2020
1677 Clouds 26 999 61 0 1.97 25 14:46 11.06.2020
1678 Clouds 24 999 59 0 3.68 39 14:21 11.06.2020
1679 Clouds 25 999 57 0 3.68 39 13:57 11.06.2020
1680 Clouds 25 998 55 0 3.68 39 13:39 11.06.2020
1681 Clouds 27 998 56 0 5.12 39 13:20 11.06.2020
1682 Clouds 25 1005 61 10000 4 70 12:57 11.06.2020
1683 Clouds 25 1005 61 10000 4 90 12:39 11.06.2020
1684 Clouds 27 998 58 0 5.03 42 12:19 11.06.2020
1685 Clouds 28 998 45 0 5.03 42 11:57 11.06.2020
1686 Clouds 28 998 39 0 0.45 0 11:38 11.06.2020
1687 Clouds 29 1004 48 10000 4 80 11:20 11.06.2020
1688 Clouds 30 1004 33 10000 4 330 10:57 11.06.2020
1689 Clouds 30 1004 30 10000 7 300 10:38 11.06.2020
1690 Clouds 30 1004 30 10000 6 290 10:18 11.06.2020
1691 Clouds 30 997 41 0 0.89 0 09:41 11.06.2020
1692 Rain 31 997 41 0 0.45 0 09:23 11.06.2020
1693 Rain 32 997 40 0 0.45 0 08:44 11.06.2020
1694 Rain 32 998 46 0 0.45 315 08:20 11.06.2020
1695 Rain 32 998 54 0 4.45 298 07:42 11.06.2020
1696 Clouds 33 997 51 0 3.03 299 07:24 11.06.2020
1697 Clouds 32 998 55 0 3.03 299 06:52 11.06.2020
1698 Rain 32 995 61 0 1.15 242 06:28 11.06.2020
1699 Rain 33 998 51 0 1.15 242 05:36 11.06.2020
1700 Rain 29 998 54 0 1.01 119 03:30 11.06.2020
1701 Clouds 28 999 58 0 1.8 72 02:52 11.06.2020
1702 Clouds 29 999 58 0 2.27 51 02:32 11.06.2020
1703 Clouds 27 999 68 0 2.24 47 01:47 11.06.2020
1704 Clouds 27 997 79 0 2.64 31 01:24 11.06.2020
1705 Clouds 26 997 78 0 2.64 31 00:49 11.06.2020
1706 Clouds 25 1000 72 0 2.21 32 00:27 11.06.2020
1707 Clouds 25 1000 70 0 2.21 32 23:46 10.06.2020
1708 Clouds 25 1000 69 0 2.29 28 23:27 10.06.2020
1709 Clouds 24 1006 88 10000 1 350 22:57 10.06.2020
1710 Clouds 24 1005 82 10000 1 0 22:38 10.06.2020
1711 Clouds 24 1005 77 10000 2 20 22:19 10.06.2020
1712 Clouds 25 1005 77 10000 2 20 21:56 10.06.2020
1713 Clouds 24 1006 82 10000 1 20 21:38 10.06.2020
1714 Clouds 25 1005 82 10000 2 360 21:18 10.06.2020
1715 Clouds 26 999 65 0 2.11 42 20:56 10.06.2020
1716 Clouds 26 999 68 0 2.11 42 20:38 10.06.2020
1717 Clouds 26 999 68 0 1.76 26 20:20 10.06.2020
1718 Clouds 26 999 66 0 1.76 26 19:41 10.06.2020
1719 Clouds 26 1005 69 10000 2 60 19:20 10.06.2020
1720 Clouds 26 1004 73 10000 2 40 18:58 10.06.2020
1721 Clouds 27 1004 73 10000 2 40 18:40 10.06.2020
1722 Clouds 27 1004 78 10000 2 50 18:19 10.06.2020
1723 Clouds 28 1004 69 10000 1 0 17:56 10.06.2020
1724 Clouds 28 1004 69 10000 1 0 17:37 10.06.2020
1725 Clouds 28 1004 64 10000 1 0 17:19 10.06.2020
1726 Clouds 29 1004 64 10000 1 0 16:57 10.06.2020
1727 Clouds 29 1004 61 10000 2 100 16:39 10.06.2020
1728 Clouds 30 1004 54 10000 2 100 16:20 10.06.2020
1729 Clouds 30 1004 54 10000 2 100 16:20 10.06.2020
1730 Clouds 30 1003 54 10000 2 80 15:41 10.06.2020
1731 Clear 30 1003 54 10000 2 80 15:22 10.06.2020
1732 Clear 31 1003 45 10000 1 0 14:59 10.06.2020
1733 Clear 31 1002 45 10000 2 160 14:40 10.06.2020
1734 Clouds 32 996 43 0 2.23 10 14:20 10.06.2020
1735 Clear 32 996 41 0 3.37 19 13:41 10.06.2020
1736 Clear 33 996 40 0 3.1 347 13:21 10.06.2020
1737 Clear 33 1002 31 10000 4 200 12:46 10.06.2020
1738 Clear 34 1002 30 10000 5 190 12:23 10.06.2020
1739 Clear 35 1002 30 10000 5 190 11:59 10.06.2020
1740 Clear 36 1002 32 10000 5 170 11:41 10.06.2020
1741 Clear 36 1002 32 10000 4 200 11:20 10.06.2020
1742 Clear 36 995 35 0 4.38 308 10:58 10.06.2020
1743 Clear 35 1002 33 10000 3 180 10:58 10.06.2020
1744 Clear 36 995 34 0 4.38 308 10:39 10.06.2020
1745 -273 0 0 0 0 0 10:39 10.06.2020
1746 Clear 36 996 36 0 3.23 299 10:21 10.06.2020
1747 Clear 35 1003 31 10000 3 210 09:43 10.06.2020
1748 Clear 35 1003 31 10000 3 210 09:24 10.06.2020
1749 Clear 34 1004 38 10000 4 180 08:57 10.06.2020
1750 Clear 35 1004 38 10000 4 180 08:39 10.06.2020
1751 Clouds 35 1004 43 10000 4 150 08:20 10.06.2020
1752 Clouds 34 1005 43 10000 3 190 07:39 10.06.2020
1753 Clouds 34 1005 45 10000 4 160 07:21 10.06.2020
1754 Clouds 33 999 43 0 2.35 282 06:47 10.06.2020
1755 Clouds 34 999 42 0 0.52 244 06:25 10.06.2020
1756 Clouds 33 1000 47 0 0.52 244 05:58 10.06.2020
1757 Clouds 32 998 56 0 0.76 254 05:28 10.06.2020
1758 Clouds 30 1001 51 0 0.76 254 04:37 10.06.2020
1759 Rain 28 1002 61 0 0.91 357 03:33 10.06.2020
1760 Clouds 25 1002 99 0 1.51 19 02:23 10.06.2020
1761 Clouds 23 999 94 0 1.51 19 01:38 10.06.2020
1762 Rain 22 999 95 0 1.54 51 00:40 10.06.2020
1763 Rain 22 1002 93 0 2.39 67 00:22 10.06.2020
1764 Rain 23 1003 87 0 2.39 67 23:57 09.06.2020
1765 Rain 23 1003 89 0 2.39 67 23:39 09.06.2020
1766 Rain 23 1003 90 0 2.83 23 23:20 09.06.2020
1767 Rain 23 1003 86 0 2.83 23 22:56 09.06.2020
1768 Rain 24 1003 83 0 2.83 23 22:38 09.06.2020
1769 Clouds 24 1003 83 0 1.75 47 22:19 09.06.2020
1770 Clouds 23 1002 83 0 1.75 47 21:56 09.06.2020
1771 Clouds 22 1002 82 0 1.75 47 21:38 09.06.2020
1772 Clouds 22 1002 82 0 1.75 47 21:38 09.06.2020
1773 Clouds 24 1002 82 0 1.84 91 21:20 09.06.2020
1774 Clouds 24 1002 82 0 1.84 91 20:56 09.06.2020
1775 Clouds 24 1003 82 0 1.84 91 20:38 09.06.2020
1776 Clouds 24 1003 82 0 2.59 105 20:18 09.06.2020
1777 Clouds 24 1003 81 0 2.59 105 19:56 09.06.2020
1778 Clouds 24 1000 91 0 2.59 105 19:38 09.06.2020
1779 Clouds 24 1003 81 0 2.78 104 19:20 09.06.2020
1780 Clouds 25 1003 79 0 2.78 104 18:45 09.06.2020
1781 Clouds 25 1003 78 0 2.95 110 18:26 09.06.2020
1782 Clouds 25 1003 75 0 2.95 110 17:58 09.06.2020
1783 Clouds 25 1004 74 0 2.95 110 17:40 09.06.2020
1784 Clouds 25 1004 74 0 2.63 113 17:22 09.06.2020
1785 Clouds 25 1004 73 0 2.63 113 16:58 09.06.2020
1786 Clouds 25 1004 73 0 2.63 113 16:39 09.06.2020
1787 Clouds 25 1004 71 0 3.24 120 16:20 09.06.2020
1788 Clouds 26 1005 70 0 3.24 120 15:41 09.06.2020
1789 Clouds 26 1011 64 10000 2 110 15:23 09.06.2020
1790 Clouds 26 1010 64 10000 3 140 14:59 09.06.2020
1791 Clouds 26 1010 61 10000 4 120 14:39 09.06.2020
1792 Clouds 26 1010 61 10000 4 120 14:20 09.06.2020
1793 Clouds 27 1010 61 10000 3 120 13:57 09.06.2020
1794 Clouds 27 1010 61 10000 3 120 13:57 09.06.2020
1795 Clouds 27 1010 61 10000 3 120 13:38 09.06.2020
1796 Clouds 27 1010 57 10000 4 110 13:20 09.06.2020
1797 Clouds 28 1010 54 10000 4 120 12:42 09.06.2020
1798 Clouds 28 1010 51 10000 4 110 12:21 09.06.2020
1799 Clouds 29 1010 51 10000 4 110 11:58 09.06.2020
1800 Clouds 29 1010 51 10000 4 120 11:40 09.06.2020
1801 Clouds 29 1010 51 10000 4 120 11:40 09.06.2020
1802 Clouds 30 1010 54 10000 3 120 11:20 09.06.2020
1803 Clouds 30 1010 54 10000 3 120 11:20 09.06.2020
1804 Clouds 30 1010 54 10000 3 120 10:55 09.06.2020
1805 Clouds 30 1010 54 10000 3 120 10:55 09.06.2020
1806 Clouds 30 1003 53 0 4.54 123 10:36 09.06.2020
1807 Clouds 31 1003 52 0 4.44 119 10:18 09.06.2020
1808 Clouds 31 1003 50 0 4.44 119 09:41 09.06.2020
1809 Clouds 31 1003 50 0 2.15 116 09:22 09.06.2020
1810 Clouds 31 1003 49 0 2.15 116 08:56 09.06.2020
1811 Clouds 31 1003 49 0 2.15 116 08:37 09.06.2020
1812 Clouds 31 1003 50 0 2.36 92 08:18 09.06.2020
1813 Clouds 30 1004 52 0 2.36 92 07:37 09.06.2020
1814 Clouds 30 1004 53 0 2.59 100 07:18 09.06.2020
1815 Clouds 30 1002 55 0 2.59 100 06:52 09.06.2020
1816 Clouds 30 1004 52 0 2.44 80 06:28 09.06.2020
1817 Clouds 30 1004 54 0 2.12 60 04:57 09.06.2020
1818 Clouds 28 1004 60 0 0.45 315 02:52 09.06.2020
1819 Clouds 29 1004 46 0 2.02 40 01:41 09.06.2020
1820 Clouds 29 1003 42 0 2.13 10 01:19 09.06.2020
1821 Clouds 29 1003 41 0 2.13 10 00:45 09.06.2020
1822 Clouds 26 1009 64 10000 1 320 00:20 09.06.2020
1823 Clouds 28 1003 41 0 3.99 8 23:54 08.06.2020
1824 Clouds 28 1002 40 0 3.99 8 23:36 08.06.2020
1825 Clouds 29 1002 40 0 3.93 357 23:18 08.06.2020
1826 Clouds 29 1002 40 0 3.93 357 22:41 08.06.2020
1827 Clouds 29 1002 40 0 0.45 315 22:21 08.06.2020
1828 Clouds 29 1002 39 0 3.15 1 21:58 08.06.2020
1829 Clouds 27 1009 53 10000 1 330 21:39 08.06.2020
1830 Clouds 29 1009 50 10000 2 350 21:21 08.06.2020
1831 Clouds 30 1000 32 0 3.49 1 20:56 08.06.2020
1832 Clouds 30 1002 38 0 3.49 1 20:37 08.06.2020
1833 Clouds 30 1002 38 0 2.36 345 20:19 08.06.2020
1834 Clouds 31 1002 36 0 2.36 345 19:44 08.06.2020
1835 Clouds 30 1008 53 10000 1 0 19:22 08.06.2020
1836 Clouds 30 1009 50 10000 1 0 18:58 08.06.2020
1837 Clouds 30 1009 50 10000 1 0 18:58 08.06.2020
1838 Clouds 30 1009 50 10000 1 0 18:39 08.06.2020
1839 Clouds 31 1008 47 10000 1 0 18:18 08.06.2020
1840 Clouds 31 1008 47 10000 1 0 17:55 08.06.2020
1841 Clouds 31 1008 47 10000 2 140 17:36 08.06.2020
1842 Clouds 32 1002 37 0 1.95 165 17:18 08.06.2020
1843 Clouds 32 1001 39 0 1.95 165 16:42 08.06.2020
1844 Clouds 32 1001 38 0 1.76 200 16:23 08.06.2020
1845 Clouds 33 1001 36 0 1.76 200 15:45 08.06.2020
1846 Clouds 33 1007 33 10000 4 170 15:23 08.06.2020
1847 Clouds 33 1007 33 10000 4 170 14:59 08.06.2020
1848 Clouds 33 1006 29 10000 3 180 14:41 08.06.2020
1849 Clouds 33 1000 34 0 3.35 240 14:21 08.06.2020
1850 Clouds 34 1000 32 0 3.35 240 13:44 08.06.2020
1851 Clouds 34 1006 24 10000 5 190 13:26 08.06.2020
1852 Clouds 34 1006 23 10000 7 200 12:58 08.06.2020
1853 Clouds 35 1006 20 10000 6 200 12:40 08.06.2020
1854 Clouds 35 1006 21 10000 7 200 12:19 08.06.2020
1855 Clouds 36 1006 20 10000 8 190 11:42 08.06.2020
1856 Clouds 36 1006 20 10000 8 190 11:23 08.06.2020
1857 Clouds 36 999 27 0 7.36 202 10:59 08.06.2020
1858 Clouds 36 999 26 0 0.45 113 10:40 08.06.2020
1859 Clouds 37 999 25 0 0.45 135 10:21 08.06.2020
1860 Clouds 37 1006 18 10000 6 200 09:59 08.06.2020
1861 Clouds 37 1006 18 10000 6 200 09:59 08.06.2020
1862 Clouds 37 1006 17 10000 9 210 09:41 08.06.2020
1863 Clouds 38 1006 17 10000 8 190 09:22 08.06.2020
1864 Clouds 39 999 17 0 0.45 180 08:47 08.06.2020
1865 Clouds 38 999 17 0 7.89 210 08:23 08.06.2020
1866 Clouds 39 997 16 0 0.89 225 07:46 08.06.2020
1867 Clouds 39 999 18 0 7.41 218 07:24 08.06.2020
1868 Clouds 38 999 20 0 0.45 180 06:54 08.06.2020
1869 Clouds 38 999 22 0 7.41 218 06:35 08.06.2020
1870 Clouds 37 1000 24 0 6.88 217 05:53 08.06.2020
1871 Clouds 37 1000 30 0 6.62 216 04:32 08.06.2020
1872 Clouds 33 1000 41 0 4.26 230 02:46 08.06.2020
1873 Clouds 31 1000 61 0 3.9 228 02:21 08.06.2020
1874 Clouds 29 1000 74 0 3.83 228 01:34 08.06.2020
1875 Clouds 28 1000 79 0 3.39 229 00:41 08.06.2020
1876 Mist 26 1006 88 4000 1 0 00:18 08.06.2020
1877 Mist 25 1005 88 4200 2 90 23:37 07.06.2020
1878 Mist 25 1005 88 5000 2 70 23:18 07.06.2020
1879 Mist 25 1005 88 5000 2 70 22:55 07.06.2020
1880 Mist 26 1005 88 5000 1 70 22:36 07.06.2020
1881 Mist 26 1005 94 5000 2 70 22:18 07.06.2020
1882 Mist 26 1005 94 5000 2 70 21:56 07.06.2020
1883 Clouds 26 1005 88 6000 1 0 21:36 07.06.2020
1884 Clear 27 1005 83 6000 1 0 21:18 07.06.2020
1885 Clear 28 1005 73 6000 1 0 20:39 07.06.2020
1886 Clear 28 1004 78 6000 2 120 20:20 07.06.2020
1887 Clear 28 1004 78 6000 2 120 19:56 07.06.2020
1888 Clear 29 1005 74 7000 2 120 19:38 07.06.2020
1889 Clear 29 1005 74 7000 1 0 19:19 07.06.2020
1890 Clear 29 1004 74 7000 2 130 18:56 07.06.2020
1891 Clear 29 1004 74 7000 2 130 18:37 07.06.2020
1892 Clear 30 1004 69 8000 2 110 18:19 07.06.2020
1893 Clear 30 1004 69 8000 2 110 17:55 07.06.2020
1894 Clear 30 1004 74 8000 2 110 17:37 07.06.2020
1895 Clear 31 1004 69 10000 2 110 17:19 07.06.2020
1896 Clear 31 1004 65 10000 2 90 16:42 07.06.2020
1897 Clear 31 1004 65 10000 2 90 16:21 07.06.2020
1898 Clear 31 1004 65 10000 2 90 16:21 07.06.2020
1899 Clear 32 1003 62 10000 2 110 15:40 07.06.2020
1900 Clouds 33 1003 62 10000 2 110 15:21 07.06.2020
1901 Clouds 33 1002 58 10000 2 120 14:40 07.06.2020
1902 Clouds 34 1002 52 10000 3 120 14:21 07.06.2020
1903 Clouds 34 995 41 0 3.12 194 13:48 07.06.2020
1904 Clouds 35 995 39 0 3.11 194 13:21 07.06.2020
1905 Clouds 36 1001 34 10000 2 160 12:56 07.06.2020
1906 Clouds 36 1001 34 10000 2 160 12:37 07.06.2020
1907 Clouds 36 1001 32 10000 5 170 12:18 07.06.2020
1908 Clouds 36 1001 32 10000 5 170 11:55 07.06.2020
1909 Clouds 37 1002 34 10000 4 150 11:36 07.06.2020
1910 Clouds 37 995 38 0 3.81 217 11:18 07.06.2020
1911 Clouds 37 995 37 0 3.81 217 10:44 07.06.2020
1912 Clouds 37 995 36 0 0.45 225 10:20 07.06.2020
1913 Clouds 37 995 35 0 0.45 180 09:58 07.06.2020
1914 Clouds 37 995 37 0 3.49 228 09:39 07.06.2020
1915 Clouds 36 995 35 0 0.45 225 09:20 07.06.2020
1916 Clouds 37 996 34 0 0.45 0 08:57 07.06.2020
1917 Clouds 36 996 34 0 3.48 226 08:39 07.06.2020
1918 Clouds 36 996 33 0 3.12 227 08:20 07.06.2020
1919 Clouds 37 997 33 0 3.12 227 07:33 07.06.2020
1920 Clouds 36 997 35 0 2.67 224 06:52 07.06.2020
1921 Clouds 33 998 34 0 1.46 222 05:52 07.06.2020
1922 Clouds 32 999 37 0 0.91 58 04:21 07.06.2020
1923 Clouds 28 999 39 0 0.91 58 03:33 07.06.2020
1924 Clouds 27 1000 45 0 1.95 45 02:18 07.06.2020
1925 Clouds 25 1000 51 0 0.45 315 01:25 07.06.2020
1926 Clouds 25 1000 52 0 1.58 65 00:47 07.06.2020
1927 Clouds 21 1007 77 10000 1 70 00:20 07.06.2020
1928 Clouds 21 1007 77 10000 1 70 23:59 06.06.2020
1929 Clouds 20 1007 72 10000 1 50 23:38 06.06.2020
1930 Clear 20 1007 72 10000 1 50 23:19 06.06.2020
1931 Clear 20 1007 72 10000 1 40 22:56 06.06.2020
1932 Clear 20 1007 72 10000 1 30 22:38 06.06.2020
1933 Clear 20 1006 72 10000 1 40 22:19 06.06.2020
1934 Clear 21 1000 47 0 1.85 111 21:47 06.06.2020
1935 Clear 21 1000 47 0 2.34 99 21:22 06.06.2020
1936 -273 0 0 0 0 0 20:58 06.06.2020
1937 Clear 22 1000 46 0 2.34 99 20:40 06.06.2020
1938 Clear 22 1000 44 0 2.46 69 20:19 06.06.2020
1939 Clear 22 1000 44 0 2.46 69 19:57 06.06.2020
1940 Clear 22 999 43 0 2.46 69 19:38 06.06.2020
1941 Clear 22 999 42 0 2.15 77 19:20 06.06.2020
1942 Clear 22 1006 56 10000 1 0 18:55 06.06.2020
1943 Clear 22 1006 56 10000 1 0 18:36 06.06.2020
1944 Clear 25 999 42 0 1.92 110 18:18 06.06.2020
1945 Clear 26 1000 42 0 1.92 110 17:41 06.06.2020
1946 Clear 23 1007 46 10000 2 150 17:20 06.06.2020
1947 Clear 24 1000 44 0 2.8 148 16:55 06.06.2020
1948 Clear 24 1000 43 0 2.8 148 16:37 06.06.2020
1949 Clear 26 1000 43 0 3.82 134 16:19 06.06.2020
1950 Clear 26 1001 41 0 3.82 134 15:44 06.06.2020
1951 Clear 27 1006 39 10000 3 140 15:20 06.06.2020
1952 Clear 27 1006 39 10000 3 140 14:56 06.06.2020
1953 Clear 27 1006 41 10000 3 140 14:37 06.06.2020
1954 Clear 28 1006 39 10000 4 140 14:19 06.06.2020
1955 Clear 29 997 40 0 4.88 152 13:46 06.06.2020
1956 Clear 29 999 45 0 3.95 154 13:19 06.06.2020
1957 Clear 30 998 45 0 3.95 154 12:56 06.06.2020
1958 Clear 31 1004 39 10000 5 130 12:38 06.06.2020
1959 Clear 32 1004 40 10000 4 130 12:18 06.06.2020
1960 Clear 32 1004 40 10000 5 140 11:40 06.06.2020
1961 Clear 32 1004 40 10000 5 140 11:21 06.06.2020
1962 Clear 32 1004 40 10000 5 140 11:21 06.06.2020
1963 Clear 32 997 39 0 3.94 175 11:21 06.06.2020
1964 Clear 32 996 35 0 3.94 175 10:59 06.06.2020
1965 Clear 33 997 38 0 0.45 248 10:40 06.06.2020
1966 Clear 32 1005 37 10000 3 140 10:22 06.06.2020
1967 Clear 33 1005 35 10000 3 150 09:59 06.06.2020
1968 Clear 33 998 36 0 3.45 182 09:41 06.06.2020
1969 Clear 33 998 35 0 3.55 192 09:22 06.06.2020
1970 Clear 33 998 33 0 0.45 180 08:45 06.06.2020
1971 Clear 33 1006 33 10000 4 120 08:24 06.06.2020
1972 Clear 33 1006 33 10000 4 120 08:24 06.06.2020
1973 Clear 33 999 30 0 3.27 196 07:56 06.06.2020
1974 Clear 34 999 31 0 3.27 196 07:37 06.06.2020
1975 Clear 34 998 30 0 3.02 196 07:19 06.06.2020
1976 Clear 33 998 30 0 3.02 196 06:43 06.06.2020
1977 Clear 31 1000 33 0 2.66 188 06:24 06.06.2020
1978 Clear 29 1009 34 10000 2 0 05:32 06.06.2020
1979 Clear 30 1002 35 0 2.21 169 04:50 06.06.2020
1980 Clear 26 1009 44 10000 1 0 03:29 06.06.2020
1981 Clear 26 1003 47 0 1.7 94 02:26 06.06.2020
1982 Clear 23 1003 57 0 1.38 98 01:23 06.06.2020
1983 Clear 23 1003 60 0 1.38 98 00:57 06.06.2020
1984 Clear 23 1002 58 0 1.38 98 00:39 06.06.2020
1985 Clear 19 1009 87 10000 1 20 00:20 06.06.2020
1986 Clear 18 1009 82 10000 1 20 23:40 05.06.2020
1987 Clear 18 1009 82 10000 1 20 23:20 05.06.2020
1988 Clear 18 1009 82 10000 1 20 23:20 05.06.2020
1989 Clear 18 1009 87 10000 1 50 22:56 05.06.2020
1990 Clear 18 1009 87 10000 1 70 22:38 05.06.2020
1991 Clear 18 1009 87 10000 1 70 22:20 05.06.2020
1992 Clear 18 1009 87 10000 1.55 96 21:43 05.06.2020
1993 Clear 19 1009 87 10000 1.81 95 21:23 05.06.2020
1994 Clouds 19 1009 82 10000 1 50 20:59 05.06.2020
1995 Clouds 20 1009 77 10000 1 160 20:41 05.06.2020
1996 Clouds 20 1009 68 10000 2 70 20:21 05.06.2020
1997 Clouds 20 1009 72 10000 2 80 19:44 05.06.2020
1998 Clouds 21 1009 72 10000 2 80 19:24 05.06.2020
1999 Clouds 22 1010 72 10000 1 130 18:59 05.06.2020
2000 Clouds 23 1010 72 10000 1 0 18:39 05.06.2020
2001 Clouds 23 1010 68 10000 1 0 18:20 05.06.2020
2002 Clouds 23 1009 59 10000 2 160 17:58 05.06.2020
2003 Clouds 23 1009 59 10000 2 160 17:58 05.06.2020
2004 Clouds 23 1009 59 10000 2 160 17:40 05.06.2020
2005 Clouds 23 1009 59 10000 2 160 17:19 05.06.2020
2006 Clouds 25 1003 38 0 2.82 158 16:41 05.06.2020
2007 Clouds 25 1003 37 0 3.64 155 16:23 05.06.2020
2008 Clouds 25 1003 36 0 3.64 155 15:57 05.06.2020
2009 Clouds 25 1002 37 0 3.64 155 15:38 05.06.2020
2010 Clouds 25 1002 37 0 4.11 145 15:20 05.06.2020
2011 Clouds 26 1002 38 0 4.11 145 14:56 05.06.2020
2012 Clouds 26 1002 40 0 4.11 145 14:38 05.06.2020
2013 Clouds 27 999 34 0 4.69 138 14:19 05.06.2020
2014 Clouds 27 1001 41 0 0.45 0 13:43 05.06.2020
2015 Clouds 27 1000 42 0 0.45 225 13:24 05.06.2020
2016 Clouds 28 1007 42 10000 4 150 12:55 05.06.2020
2017 Clouds 29 1006 37 10000 4 140 12:37 05.06.2020
2018 Clouds 30 1006 35 10000 4 150 12:18 05.06.2020
2019 Clouds 30 1006 35 10000 4 150 11:42 05.06.2020
2020 Clouds 31 999 36 0 0.45 0 11:22 05.06.2020
2021 Clouds 31 999 36 0 5.41 147 10:56 05.06.2020
2022 Clouds 31 999 34 0 5.41 147 10:38 05.06.2020
2023 Clouds 32 999 33 0 4.45 157 10:19 05.06.2020
2024 Clouds 32 999 32 0 4.45 157 09:55 05.06.2020
2025 Clouds 32 999 31 0 0.45 135 09:37 05.06.2020
2026 Clear 32 999 30 0 4.33 159 09:18 05.06.2020
2027 Clear 33 999 28 0 4.33 159 08:55 05.06.2020
2028 Clear 31 1007 28 10000 3 110 08:36 05.06.2020
2029 Clear 32 1007 28 10000 4 130 08:18 05.06.2020
2030 Clear 33 1000 28 0 4.16 162 07:43 05.06.2020
2031 Clear 33 1000 27 0 3.87 152 07:20 05.06.2020
2032 Clear 30 1008 28 10000 4 160 05:58 05.06.2020
2033 Clear 29 1008 32 10000 3 0 05:19 05.06.2020
2034 Clear 29 1002 34 0 2.61 114 04:26 05.06.2020
2035 Clear 25 1010 44 10000 3 360 02:56 05.06.2020
2036 Clear 25 1010 44 10000 3 20 02:24 05.06.2020
2037 Clouds 23 1009 49 10000 2 10 01:55 05.06.2020
2038 Clouds 24 1003 44 0 2.13 30 01:26 05.06.2020
2039 Clouds 23 1009 72 10000 1 30 00:42 05.06.2020
2040 Clouds 19 1009 72 10000 1.81 37 00:20 05.06.2020
2041 Clouds 21 1008 72 10000 1.81 37 23:46 04.06.2020
2042 Clouds 21 1008 72 10000 1.81 39 23:27 04.06.2020
2043 Clouds 22 1008 72 10000 1.81 39 22:55 04.06.2020
2044 Clouds 22 1008 72 10000 1.81 39 22:36 04.06.2020
2045 Clouds 22 1008 63 10000 1 30 22:18 04.06.2020
2046 Clouds 22 1008 63 10000 1 30 21:56 04.06.2020
2047 Clouds 21 1007 63 10000 1 0 21:36 04.06.2020
2048 Clouds 23 1001 50 0 1.35 37 21:18 04.06.2020
2049 Clouds 23 1000 49 0 1.35 37 20:40 04.06.2020
2050 Clouds 23 1000 48 0 1.44 66 20:21 04.06.2020
2051 Clouds 23 1000 47 0 1.44 66 19:59 04.06.2020
2052 Clouds 23 999 42 0 1.44 66 19:39 04.06.2020
2053 Rain 24 1001 46 0 2.53 91 19:21 04.06.2020
2054 Rain 24 1000 45 0 2.53 91 18:56 04.06.2020
2055 Rain 24 1002 44 0 2.53 91 18:37 04.06.2020
2056 Clouds 24 1002 43 0 1.94 124 18:19 04.06.2020
2057 Clouds 24 1001 41 0 1.94 124 17:42 04.06.2020
2058 Clouds 24 1001 41 0 2.06 136 17:21 04.06.2020
2059 Clouds 25 1001 44 0 2.06 136 16:55 04.06.2020
2060 Clouds 24 1007 43 10000 2 110 16:37 04.06.2020
2061 Rain 25 1001 44 0 3.12 126 16:18 04.06.2020
2062 Rain 25 1005 44 10000 6 120 15:41 04.06.2020
2063 Rain 26 1005 44 10000 6 120 15:22 04.06.2020
2064 Rain 27 997 39 0 3.76 151 14:39 04.06.2020
2065 Rain 27 999 39 0 4.27 153 14:20 04.06.2020
2066 Clouds 28 998 39 0 4.64 156 13:56 04.06.2020
2067 Clouds 28 997 39 0 4.64 156 13:38 04.06.2020
2068 Clouds 29 997 41 0 0.45 135 13:19 04.06.2020
2069 Clouds 30 1002 32 10000 5 150 12:55 04.06.2020
2070 Clouds 30 1002 32 10000 5 150 12:36 04.06.2020
2071 Clouds 31 1002 32 10000 5 150 12:18 04.06.2020
2072 Clouds 32 1002 30 10000 5 150 11:40 04.06.2020
2073 Clouds 33 1002 23 10000 3 140 11:20 04.06.2020
2074 Clouds 33 1002 23 10000 3 140 10:59 04.06.2020
2075 Clouds 33 1003 22 10000 2 130 10:38 04.06.2020
2076 Clouds 33 1003 22 10000 2 130 10:38 04.06.2020
2077 Clear 34 1003 21 10000 2 0 10:20 04.06.2020
2078 Clear 34 996 20 0 0.45 270 09:46 04.06.2020
2079 Clear 35 1003 19 10000 2 80 09:28 04.06.2020
2080 Clear 33 1003 19 10000 3 80 08:51 04.06.2020
2081 Clear 33 1003 19 10000 2 100 08:31 04.06.2020
2082 Clear 33 1003 19 10000 2 110 07:59 04.06.2020
2083 Clear 35 996 21 0 0.51 106 07:31 04.06.2020
2084 Clear 34 996 22 0 0.65 104 06:45 04.06.2020
2085 Clear 34 996 22 0 0.65 104 06:45 04.06.2020
2086 Clear 31 1004 23 10000 3 20 06:26 04.06.2020
2087 Clear 30 1004 30 10000 3 20 05:51 04.06.2020
2088 Clear 29 1004 30 10000 3 20 05:31 04.06.2020
2089 Clear 29 1004 30 10000 3 20 05:31 04.06.2020
2090 Clear 26 1005 29 10000 4 30 03:31 04.06.2020
2091 Clear 24 1005 33 10000 6 30 02:19 04.06.2020
2092 Clear 24 998 37 0 4.26 46 01:20 04.06.2020
2093 Clear 24 995 29 0 4.26 46 00:53 04.06.2020
2094 Clear 24 997 36 0 4.15 50 23:58 03.06.2020
2095 Clear 24 996 35 0 4.15 50 23:36 03.06.2020
2096 Clear 24 996 34 0 4.42 53 23:18 03.06.2020
2097 Clear 24 995 32 0 4.42 53 22:40 03.06.2020
2098 Clear 25 995 29 0 4.32 50 22:19 03.06.2020
2099 Clear 25 995 25 0 4.32 50 21:59 03.06.2020
2100 Clear 25 994 23 0 4.32 50 21:41 03.06.2020
2101 Clear 25 1001 26 10000 4 20 21:22 03.06.2020
2102 Clear 24 1001 45 10000 2 10 20:58 03.06.2020
2103 Clear 24 1001 39 10000 3 360 20:40 03.06.2020
2104 Clear 25 1001 32 10000 3 10 20:20 03.06.2020
2105 Clear 25 1001 32 10000 3 10 19:57 03.06.2020
2106 Clear 24 1000 67 10000 2 20 19:38 03.06.2020
2107 Clear 24 1000 63 10000 1 20 19:19 03.06.2020
2108 Clear 25 1000 55 10000 2 350 18:56 03.06.2020
2109 Clear 25 1000 55 10000 2 350 18:38 03.06.2020
2110 Clear 26 1000 56 10000 1 0 18:18 03.06.2020
2111 Clear 26 1000 56 10000 2 30 17:42 03.06.2020
2112 Clear 26 1000 56 10000 2 30 17:22 03.06.2020
2113 Clear 26 1000 56 10000 2 30 17:22 03.06.2020
2114 Clear 27 999 56 10000 2 40 16:56 03.06.2020
2115 Clear 27 999 52 10000 1 80 16:38 03.06.2020
2116 Clear 28 998 53 10000 2 50 16:19 03.06.2020
2117 Clear 28 998 53 10000 2 50 16:19 03.06.2020
2118 Clear 31 992 35 0 3.27 39 15:41 03.06.2020
2119 Clear 32 991 33 0 3.6 35 15:21 03.06.2020
2120 Clear 32 991 35 0 3.6 35 14:59 03.06.2020
2121 Clear 32 991 34 0 3.6 35 14:40 03.06.2020
2122 Clear 33 990 33 0 4.76 13 14:21 03.06.2020
2123 Clear 34 990 29 0 4.76 13 13:40 03.06.2020
2124 Clear 34 989 29 0 4.8 349 13:20 03.06.2020
2125 Clear 36 989 27 0 4.8 349 12:44 03.06.2020
2126 Clear 36 988 26 0 5.74 321 12:23 03.06.2020
2127 Clear 37 988 25 0 5.74 321 11:59 03.06.2020
2128 Clear 37 988 24 0 5.74 321 11:40 03.06.2020
2129 Clear 37 987 18 0 6.03 310 11:22 03.06.2020
2130 Clear 38 988 19 0 6.03 310 10:42 03.06.2020
2131 Clear 37 995 12 10000 8 300 10:24 03.06.2020
2132 Clear 37 996 11 10000 12 300 09:47 03.06.2020
2133 Clear 37 996 11 10000 12 300 09:22 03.06.2020
2134 Clear 37 996 11 10000 11 300 08:59 03.06.2020
2135 Clear 37 996 11 10000 11 310 08:40 03.06.2020
2136 Clear 36 997 11 10000 10 310 08:20 03.06.2020
2137 Clear 36 998 13 10000 6 330 07:43 03.06.2020
2138 Clear 35 998 13 10000 6 330 07:22 03.06.2020
2139 Clear 34 998 11 10000 4 320 06:54 03.06.2020
2140 Clear 34 998 11 10000 4 320 06:33 03.06.2020
2141 Clear 33 999 15 8000 4 330 05:48 03.06.2020
2142 Dust 32 999 15 8000 6 320 04:59 03.06.2020
2143 Clear 31 993 19 0 6.65 333 03:51 03.06.2020
2144 Clear 29 999 32 10000 5 10 03:21 03.06.2020
2145 Clear 28 993 29 0 0.89 0 02:23 03.06.2020
2146 Clear 25 993 63 0 4.87 348 00:47 03.06.2020
2147 Clear 24 993 65 0 4.01 4 00:25 03.06.2020
2148 Clear 23 992 67 0 4.01 4 23:52 02.06.2020
2149 Clear 23 992 67 0 4.01 4 23:52 02.06.2020
2150 Clear 22 998 93 10000 1 0 23:28 02.06.2020
2151 Clear 22 998 88 10000 1 0 22:58 02.06.2020
2152 Clear 22 998 88 10000 2 20 22:39 02.06.2020
2153 Clear 22 998 88 10000 2 20 22:19 02.06.2020
2154 Clear 22 998 88 10000 2 20 22:19 02.06.2020
2155 Clear 22 998 82 10000 2 350 21:56 02.06.2020
2156 Clear 23 997 77 10000 1 0 21:38 02.06.2020
2157 Clear 23 997 77 10000 1 0 21:19 02.06.2020
2158 Clear 23 998 82 10000 1 0 20:58 02.06.2020
2159 Clear 23 998 72 10000 1 0 20:40 02.06.2020
2160 Clear 24 998 68 10000 2 50 20:20 02.06.2020
2161 Clear 24 998 68 10000 2 20 19:44 02.06.2020
2162 Clear 25 998 53 10000 2 0 19:25 02.06.2020
2163 Clear 26 998 53 10000 2 0 18:58 02.06.2020
2164 Clear 26 998 56 10000 2 80 18:40 02.06.2020
2165 Clear 26 998 56 10000 2 110 18:20 02.06.2020
2166 Clear 26 998 56 10000 2 110 17:55 02.06.2020
2167 Clear 28 991 36 0 2.33 244 17:37 02.06.2020
2168 Clear 28 991 36 0 2.33 244 17:37 02.06.2020
2169 Clear 28 991 36 0 3.39 225 17:19 02.06.2020
2170 Clear 28 991 36 0 3.39 225 16:54 02.06.2020
2171 Clear 28 988 30 0 3.39 225 16:36 02.06.2020
2172 Clear 29 998 32 10000 4 140 16:18 02.06.2020
2173 Clear 29 998 36 10000 4 160 15:40 02.06.2020
2174 Clear 29 998 36 10000 4 160 15:20 02.06.2020
2175 Clear 30 998 36 10000 2 140 14:46 02.06.2020
2176 Clear 30 998 36 10000 2 140 14:27 02.06.2020
2177 Clear 31 998 30 10000 3 170 13:55 02.06.2020
2178 Clear 31 991 30 0 5.35 187 13:37 02.06.2020
2179 Clear 31 990 30 0 4.6 194 13:18 02.06.2020
2180 Clear 32 997 31 10000 5 170 12:56 02.06.2020
2181 Clear 33 997 27 10000 6 180 12:37 02.06.2020
2182 Clear 33 997 25 10000 6 170 12:19 02.06.2020
2183 Clear 34 997 24 10000 7 170 11:41 02.06.2020
2184 Clear 34 997 24 10000 7 170 11:22 02.06.2020
2185 Clear 34 998 26 10000 7 170 10:56 02.06.2020
2186 Clear 34 998 27 10000 6 180 10:38 02.06.2020
2187 Clear 34 998 27 10000 6 180 10:20 02.06.2020
2188 Clear 35 992 27 0 3.64 198 09:43 02.06.2020
2189 Clear 35 999 29 10000 5 180 09:21 02.06.2020
2190 Clear 34 1000 31 10000 4 160 08:54 02.06.2020
2191 Clear 34 1000 33 10000 4 190 08:28 02.06.2020
2192 Clear 35 1001 37 10000 3 160 07:58 02.06.2020
2193 Clear 34 1001 37 10000 3 160 07:33 02.06.2020
2194 Clear 32 992 35 0 2.15 285 06:59 02.06.2020
2195 Clear 32 994 35 0 2.15 285 06:37 02.06.2020
2196 Clear 30 995 38 0 1.54 282 05:37 02.06.2020
2197 Clear 27 996 46 0 1 263 04:20 02.06.2020
2198 Clear 24 996 52 0 0.74 250 02:37 02.06.2020
2199 Clear 23 997 58 0 0.78 267 01:53 02.06.2020
2200 Clear 20 1003 82 10000 1 0 00:46 02.06.2020
2201 Clear 20 1003 82 10000 2 360 00:20 02.06.2020
2202 Clear 19 1003 82 10000 2 330 23:39 01.06.2020
2203 Clear 19 1003 82 10000 2 330 23:19 01.06.2020
2204 Clear 19 1002 82 10000 3 350 22:56 01.06.2020
2205 Clear 19 1002 82 10000 3 350 22:38 01.06.2020
2206 Clear 19 1002 82 10000 3 350 22:19 01.06.2020
2207 Clear 19 1002 82 10000 3 350 22:19 01.06.2020
2208 Clear 19 1002 87 10000 3 350 21:42 01.06.2020
2209 Clear 20 1002 87 10000 3 350 21:21 01.06.2020
2210 Clear 20 1002 87 10000 3 350 20:59 01.06.2020
2211 Clear 20 1002 82 10000 1 0 20:41 01.06.2020
2212 Clouds 20 1002 82 10000 1 0 20:20 01.06.2020
2213 Clouds 20 1002 82 10000 1 0 19:58 01.06.2020
2214 Clouds 20 1002 82 10000 1 0 19:58 01.06.2020
2215 Clouds 20 1003 77 10000 4 330 19:39 01.06.2020
2216 Clouds 20 1003 82 10000 3 360 19:20 01.06.2020
2217 Clouds 20 1003 88 10000 2 360 18:57 01.06.2020
2218 Clouds 20 1003 88 10000 2 360 18:38 01.06.2020
2219 Rain 20 1003 88 10000 1 0 18:19 01.06.2020
2220 Rain 21 1003 82 10000 2 360 17:41 01.06.2020
2221 Rain 21 1003 82 10000 2 360 17:21 01.06.2020
2222 Rain 21 1003 82 10000 2 100 16:58 01.06.2020
2223 Rain 21 1003 88 10000 1 0 16:39 01.06.2020
2224 Rain 21 1003 82 10000 2 40 16:19 01.06.2020
2225 Rain 21 1003 82 10000 2 40 15:54 01.06.2020
2226 Rain 21 1002 82 10000 2 30 15:36 01.06.2020
2227 Clouds 21 1002 82 10000 1 0 15:18 01.06.2020
2228 Clouds 21 1001 82 10000 4 20 14:41 01.06.2020
2229 Thunderstorm 21 1003 77 7000 11 280 14:23 01.06.2020
2230 Rain 21 1003 77 7000 11 280 13:58 01.06.2020
2231 Rain 22 1003 77 7000 11 280 13:39 01.06.2020
2232 Rain 23 1003 77 7000 11 280 13:20 01.06.2020
2233 Rain 25 1001 32 10000 8 310 12:58 01.06.2020
2234 Rain 28 1000 32 10000 3 200 12:39 01.06.2020
2235 Clouds 29 1000 32 10000 3 200 12:20 01.06.2020
2236 Rain 31 1000 30 10000 5 200 11:42 01.06.2020
2237 Clouds 31 1000 30 10000 5 200 11:23 01.06.2020
2238 Clouds 31 1000 30 10000 6 190 10:59 01.06.2020
2239 Clouds 32 1001 27 10000 6 190 10:39 01.06.2020
2240 Clouds 32 1001 27 10000 6 190 10:20 01.06.2020
2241 Clouds 32 1001 27 10000 6 210 09:57 01.06.2020
2242 Clouds 32 1001 27 10000 6 200 09:39 01.06.2020
2243 Clear 32 1001 27 10000 6 200 09:20 01.06.2020
2244 Clear 32 994 31 0 0.45 180 08:50 01.06.2020
2245 Clear 33 995 30 0 6.3 197 08:25 01.06.2020
2246 Clear 33 995 29 0 0.45 135 07:45 01.06.2020
2247 Clear 32 996 28 0 6.15 204 07:27 01.06.2020
2248 Clear 32 996 27 0 0.45 135 06:58 01.06.2020
2249 Clear 29 1004 32 10000 2 0 06:24 01.06.2020
2250 Clear 29 1005 36 10000 2 0 05:53 01.06.2020
2251 Clear 28 1007 41 10000 1 0 04:31 01.06.2020
2252 Clear 25 1000 40 0 2.92 228 03:48 01.06.2020
2253 Clear 25 1008 49 10000 1 0 03:24 01.06.2020
2254 Clouds 22 1002 51 0 0.59 187 02:19 01.06.2020
2255 Clouds 21 1009 72 10000 1 0 01:34 01.06.2020
2256 Clouds 19 1002 61 0 0.39 119 00:58 01.06.2020
2257 Clouds 18 1009 87 10000 2 360 00:40 01.06.2020
2258 Clouds 18 1009 87 10000 2 360 00:21 01.06.2020
2259 Clouds 17 1008 87 10000 1 340 23:57 31.05.2020
2260 Clouds 16 1008 87 10000 1 0 23:38 31.05.2020
2261 Clouds 16 1008 87 10000 2 360 23:20 31.05.2020
2262 Clouds 16 1008 93 10000 1 0 22:45 31.05.2020
2263 Clouds 17 1008 93 10000 1 0 22:27 31.05.2020
2264 Clouds 17 1008 93 10000 1 30 21:59 31.05.2020
2265 Clouds 17 1009 87 10000 1 0 21:41 31.05.2020
2266 Clouds 16 1009 87 10000 1 0 21:23 31.05.2020
2267 Clouds 17 1009 87 10000 1 0 20:57 31.05.2020
2268 Clouds 17 1009 87 10000 1 0 20:57 31.05.2020
2269 Clouds 18 1009 87 10000 1 0 20:38 31.05.2020
2270 Clouds 18 1009 87 10000 1 0 20:19 31.05.2020
2271 Clouds 18 1009 87 10000 1 60 19:55 31.05.2020
2272 Clouds 18 1009 87 10000 1 10 19:36 31.05.2020
2273 Clear 19 1009 82 10000 1 340 19:18 31.05.2020
2274 Clear 18 1009 81 10000 1 30 18:43 31.05.2020
2275 Clear 20 1009 76 10000 1 40 18:25 31.05.2020
2276 Clear 20 1009 71 10000 1 0 17:46 31.05.2020
2277 Clear 19 1009 71 10000 1 0 17:25 31.05.2020
2278 Clear 21 1009 71 10000 1 40 16:59 31.05.2020
2279 Clear 21 1009 67 10000 2 90 16:40 31.05.2020
2280 Clear 21 1009 67 10000 2 90 16:21 31.05.2020
2281 Clear 21 1009 67 10000 2 90 16:21 31.05.2020
2282 Clear 22 1008 39 10000 1 0 15:40 31.05.2020
2283 Clear 23 1008 39 10000 2 160 15:21 31.05.2020
2284 Clear 25 1007 32 10000 2 320 14:47 31.05.2020
2285 Clear 25 1007 32 10000 2 320 14:23 31.05.2020
2286 Clear 26 1001 24 0 1.81 326 13:57 31.05.2020
2287 Clear 26 1000 21 0 1.81 326 13:38 31.05.2020
2288 Clear 27 1000 21 0 3.86 327 13:20 31.05.2020
2289 Clear 28 1000 20 0 3.86 327 12:58 31.05.2020
2290 Clear 28 1000 20 0 3.86 327 12:58 31.05.2020
2291 Clear 28 998 15 0 3.86 327 12:39 31.05.2020
2292 Clear 28 1000 20 0 5.68 320 12:21 31.05.2020
2293 Clear 28 999 19 0 1.34 0 11:49 31.05.2020
2294 Clear 28 997 17 0 6.43 315 11:24 31.05.2020
2295 Clear 29 999 19 0 0.89 0 10:57 31.05.2020
2296 Clear 29 999 19 0 0.89 0 10:39 31.05.2020
2297 Clear 29 999 19 0 0.45 0 10:21 31.05.2020
2298 Clear 29 999 20 0 0.45 0 09:45 31.05.2020
2299 Clear 30 999 19 0 0.89 0 09:24 31.05.2020
2300 Clear 29 1006 24 10000 6 340 08:59 31.05.2020
2301 Clear 28 1006 25 10000 7 310 08:40 31.05.2020
2302 Clear 28 1006 25 10000 7 310 08:22 31.05.2020
2303 Clear 28 998 26 0 6.15 308 07:46 31.05.2020
2304 Clear 28 1007 33 10000 8 320 07:21 31.05.2020
2305 Clear 27 998 28 0 6.25 309 06:55 31.05.2020
2306 Clear 27 998 30 0 6.25 309 06:34 31.05.2020
2307 Clouds 25 1007 36 10000 11 270 05:46 31.05.2020
2308 Clouds 26 1001 33 0 1.34 315 05:27 31.05.2020
2309 Rain 23 1008 68 10000 4 270 03:57 31.05.2020
2310 Clouds 20 1008 88 10000 3 210 02:59 31.05.2020
2311 Rain 18 1007 93 10000 3 50 02:33 31.05.2020
2312 Rain 18 1008 82 10000 6 290 01:39 31.05.2020
2313 Rain 20 1002 89 0 0.45 0 00:33 31.05.2020
2314 Rain 20 1001 88 0 1.25 74 23:59 30.05.2020
2315 Rain 20 1001 88 0 1.25 74 23:41 30.05.2020
2316 Rain 20 1002 89 0 1.32 77 23:23 30.05.2020
2317 Clouds 20 1002 89 0 1.32 77 22:42 30.05.2020
2318 Clouds 20 1001 88 0 1.3 87 22:23 30.05.2020
2319 Clouds 20 1002 89 0 1.3 87 21:58 30.05.2020
2320 Clouds 20 1002 89 0 1.3 87 21:58 30.05.2020
2321 Clouds 20 1002 89 0 0.45 0 21:39 30.05.2020
2322 Clouds 20 1002 92 0 2.62 85 21:20 30.05.2020
2323 Clouds 20 1002 92 0 3.44 143 20:57 30.05.2020
2324 Clouds 20 1002 88 0 3.44 143 20:39 30.05.2020
2325 Clouds 20 1002 88 0 3.64 131 20:20 30.05.2020
2326 Clouds 21 1000 92 0 3.64 131 19:43 30.05.2020
2327 Clouds 21 1002 92 0 1.7 108 19:22 30.05.2020
2328 Clouds 21 1003 88 0 1.7 108 18:59 30.05.2020
2329 Clouds 21 1010 93 10000 2 10 18:40 30.05.2020
2330 Clouds 19 1010 93 10000 2 360 18:18 30.05.2020
2331 Clouds 19 1003 87 0 1.75 31 17:40 30.05.2020
2332 Rain 19 1003 85 0 0.76 29 17:22 30.05.2020
2333 Rain 21 1004 89 0 0.76 29 16:45 30.05.2020
2334 Rain 21 1004 92 0 0.84 259 16:24 30.05.2020
2335 Rain 23 1004 84 0 0.84 259 15:59 30.05.2020
2336 Rain 24 1003 70 0 0.84 259 15:41 30.05.2020
2337 Rain 24 1003 70 0 0.84 259 15:41 30.05.2020
2338 Thunderstorm 22 1009 88 10000 4 30 15:22 30.05.2020
2339 Rain 24 1008 94 10000 1 0 14:43 30.05.2020
2340 Rain 26 1008 94 10000 1 0 14:23 30.05.2020
2341 Rain 26 1008 68 10000 3 160 13:43 30.05.2020
2342 Rain 26 1008 68 10000 3 160 13:22 30.05.2020
2343 Rain 26 1008 57 10000 7 210 12:42 30.05.2020
2344 Thunderstorm 24 1008 57 10000 7 210 12:20 30.05.2020
2345 Thunderstorm 24 1007 77 8000 1 0 11:57 30.05.2020
2346 Clouds 30 1006 35 10000 5 160 11:39 30.05.2020
2347 Clouds 30 1006 35 10000 5 160 11:20 30.05.2020
2348 Clouds 31 999 35 0 7.19 197 10:40 30.05.2020
2349 Clouds 32 999 34 0 7.81 185 10:21 30.05.2020
2350 Clouds 32 1000 33 0 7.81 185 09:49 30.05.2020
2351 Clouds 32 1000 32 0 7.12 186 09:31 30.05.2020
2352 Clouds 34 1000 29 0 8.1 186 08:51 30.05.2020
2353 Clouds 33 1000 30 0 8.1 186 08:32 30.05.2020
2354 Clouds 34 1000 31 0 7.18 192 07:45 30.05.2020
2355 Clouds 32 1001 32 0 0.45 225 07:25 30.05.2020
2356 Clouds 33 1001 34 0 6.13 196 06:52 30.05.2020
2357 Clouds 33 999 43 0 4.83 209 06:23 30.05.2020
2358 Clouds 32 1002 42 0 4.83 209 05:49 30.05.2020
2359 Clear 28 1004 58 0 1.94 205 03:57 30.05.2020
2360 Clear 26 1004 68 0 1.43 158 02:31 30.05.2020
2361 Clouds 24 1004 70 0 1.79 126 01:50 30.05.2020
2362 Clouds 22 1004 75 0 1.79 91 00:40 30.05.2020
2363 Clouds 22 1004 77 0 1.8 72 00:21 30.05.2020
2364 Clouds 21 1004 78 0 1.8 72 23:58 29.05.2020
2365 Clouds 21 1004 80 0 1.8 72 23:38 29.05.2020
2366 Clouds 21 1003 80 0 2.08 54 23:18 29.05.2020
2367 Clouds 21 1003 78 0 2.08 54 22:41 29.05.2020
2368 Clouds 22 1003 77 0 1.79 36 22:20 29.05.2020
2369 Clouds 22 1000 80 0 1.79 36 21:59 29.05.2020
2370 Clouds 22 1009 72 10000 2 130 21:39 29.05.2020
2371 Clouds 22 1003 76 0 0.3 338 21:20 29.05.2020
2372 Clouds 22 1003 76 0 0.3 338 20:54 29.05.2020
2373 Clouds 23 1003 73 0 0.3 338 20:36 29.05.2020
2374 Clouds 23 1003 73 0 1.24 116 20:18 29.05.2020
2375 Clouds 23 1003 73 0 1.24 116 19:42 29.05.2020
2376 Clouds 23 1003 73 0 1.84 105 19:23 29.05.2020
2377 Clouds 23 1009 73 10000 2 120 18:47 29.05.2020
2378 Clouds 23 1009 73 10000 1 160 18:21 29.05.2020
2379 Clouds 24 1003 70 0 3.33 116 17:57 29.05.2020
2380 Clouds 24 1003 69 0 3.33 116 17:38 29.05.2020
2381 Clouds 24 1003 69 0 3.33 116 17:38 29.05.2020
2382 Clouds 24 1003 68 0 4.58 108 17:20 29.05.2020
2383 Clouds 25 1003 67 0 4.58 108 16:45 29.05.2020
2384 Clouds 25 1003 67 0 3.63 107 16:27 29.05.2020
2385 Clouds 26 1008 60 10000 2 100 15:57 29.05.2020
2386 Clouds 26 1008 57 10000 3 110 15:39 29.05.2020
2387 Clouds 27 1008 57 10000 3 110 15:20 29.05.2020
2388 Clouds 27 1008 57 10000 4 120 14:51 29.05.2020
2389 Clouds 27 1007 57 10000 4 130 14:24 29.05.2020
2390 Clouds 28 1000 62 0 5.54 127 13:58 29.05.2020
2391 Clouds 28 1000 61 0 5.54 127 13:40 29.05.2020
2392 Clear 29 1000 59 0 5.15 130 13:21 29.05.2020
2393 Clear 29 1006 51 10000 3 100 12:44 29.05.2020
2394 Clear 28 1006 51 10000 3 100 12:25 29.05.2020
2395 Clear 29 1006 48 8000 3 110 11:46 29.05.2020
2396 Clear 29 1006 48 8000 3 110 11:27 29.05.2020
2397 Clear 28 1006 51 8000 3 130 10:59 29.05.2020
2398 Clear 29 1006 48 8000 3 140 10:40 29.05.2020
2399 Clouds 31 1006 48 8000 3 140 10:21 29.05.2020
2400 Clouds 30 1006 51 8000 3 110 09:55 29.05.2020
2401 Clouds 30 1006 51 8000 3 110 09:55 29.05.2020
2402 Clear 31 1006 51 8000 4 140 09:37 29.05.2020
2403 Clouds 31 1006 45 10000 4 130 09:18 29.05.2020
2404 Clear 31 1006 45 10000 2 110 08:44 29.05.2020
2405 Clouds 32 1000 42 0 1.66 161 08:21 29.05.2020
2406 Clouds 31 1000 46 0 1.66 161 07:46 29.05.2020
2407 Clouds 31 1000 42 0 1.33 135 07:27 29.05.2020
2408 Clouds 28 1000 50 0 1.33 135 06:49 29.05.2020
2409 Clouds 28 1000 53 0 1.6 95 06:29 29.05.2020
2410 Clouds 28 999 57 0 1.6 95 05:58 29.05.2020
2411 Clouds 26 1001 54 0 2.29 76 04:53 29.05.2020
2412 Clouds 22 1001 54 0 2.1 49 01:48 29.05.2020
2413 Clouds 23 1001 54 0 1.95 52 01:25 29.05.2020
2414 Clouds 23 1001 56 0 1.95 52 00:49 29.05.2020
2415 Clouds 20 1001 59 0 1.76 76 00:23 29.05.2020
2416 Clouds 19 1001 61 0 1.76 76 23:41 28.05.2020
2417 Clouds 19 1000 62 0 1.76 83 23:19 28.05.2020
2418 Clouds 19 1000 62 0 1.76 83 23:19 28.05.2020
2419 Clouds 19 1000 62 0 1.76 83 22:59 28.05.2020
2420 Clouds 19 1000 62 0 1.76 83 22:39 28.05.2020
2421 Clouds 20 1000 62 0 1.97 76 22:18 28.05.2020
2422 Clouds 20 1000 62 0 1.97 76 21:54 28.05.2020
2423 Clouds 20 1000 64 0 1.97 76 21:36 28.05.2020
2424 Clear 20 1000 64 0 1.95 80 21:18 28.05.2020
2425 Clear 20 1000 63 0 1.95 80 20:40 28.05.2020
2426 Clouds 21 1000 63 0 2.31 82 20:20 28.05.2020
2427 Clouds 21 1000 64 0 2.31 82 19:58 28.05.2020
2428 Clouds 21 1000 63 0 2.31 82 19:40 28.05.2020
2429 Clouds 22 1000 63 0 3.44 77 19:20 28.05.2020
2430 Clouds 22 1000 63 0 3.44 77 18:55 28.05.2020
2431 Clouds 22 1000 64 0 3.44 77 18:36 28.05.2020
2432 Clouds 23 1000 63 0 4.14 81 18:18 28.05.2020
2433 Clouds 24 1000 60 0 4.14 81 17:40 28.05.2020
2434 Clouds 24 999 57 0 3.84 86 17:21 28.05.2020
2435 Clouds 25 999 54 0 3.84 86 16:46 28.05.2020
2436 Clouds 26 999 54 0 4.57 87 16:21 28.05.2020
2437 Clouds 26 1006 47 10000 2 120 15:55 28.05.2020
2438 Clouds 26 1005 44 10000 1 0 15:36 28.05.2020
2439 Clouds 28 1004 42 10000 3 120 15:18 28.05.2020
2440 Clouds 29 1004 42 10000 2 70 14:42 28.05.2020
2441 Rain 29 996 36 0 3.26 106 14:22 28.05.2020
2442 Clear 29 996 36 0 2.67 134 14:22 28.05.2020
2443 Rain 30 997 38 0 3.26 106 13:46 28.05.2020
2444 Clouds 30 997 35 0 3.14 179 13:28 28.05.2020
2445 Thunderstorm 30 1004 28 10000 6 200 12:56 28.05.2020
2446 Thunderstorm 30 1004 32 10000 2 60 12:37 28.05.2020
2447 Clouds 31 1004 27 10000 1 0 12:18 28.05.2020
2448 Clear 33 1003 25 10000 2 80 11:40 28.05.2020
2449 Clear 34 1003 25 10000 2 80 11:22 28.05.2020
2450 Clear 34 996 27 0 6.01 207 10:50 28.05.2020
2451 Clear 34 995 29 0 4.46 208 10:28 28.05.2020
2452 Clear 34 995 29 0 4.46 208 10:28 28.05.2020
2453 Clear 34 995 29 0 4.46 208 09:59 28.05.2020
2454 Clear 34 995 27 0 4.46 208 09:38 28.05.2020
2455 Clear 34 995 27 0 2.78 229 09:18 28.05.2020
2456 Clear 35 996 27 0 2.78 229 08:44 28.05.2020
2457 Clouds 35 996 26 0 3.13 231 08:25 28.05.2020
2458 Clouds 35 996 26 0 3.13 231 07:45 28.05.2020
2459 Clouds 34 996 26 0 3.24 228 07:23 28.05.2020
2460 Clouds 34 997 29 0 3.24 228 06:45 28.05.2020
2461 Clouds 31 1005 34 10000 5 180 06:27 28.05.2020
2462 Clouds 31 998 38 0 2.73 231 05:40 28.05.2020
2463 Clouds 29 999 48 0 2.45 227 04:39 28.05.2020
2464 Clouds 28 999 50 0 2.1 210 04:20 28.05.2020
2465 Clouds 27 999 49 0 2.1 210 03:42 28.05.2020
2466 Clear 22 1007 64 10000 2 110 02:45 28.05.2020
2467 Clouds 22 1001 63 0 1.61 80 01:46 28.05.2020
2468 Clouds 20 1001 68 0 1.69 74 00:50 28.05.2020
2469 Clouds 18 1007 82 10000 1 0 00:22 28.05.2020
2470 Clouds 17 1007 87 10000 1 0 23:56 27.05.2020
2471 Clouds 16 1007 82 10000 1 50 23:38 27.05.2020
2472 Clouds 16 1007 82 10000 1 50 23:19 27.05.2020
2473 Clouds 16 1000 75 0 1.24 95 22:43 27.05.2020
2474 Clouds 16 1000 74 0 2.14 100 22:23 27.05.2020
2475 Clouds 17 1007 77 10000 1 0 21:57 27.05.2020
2476 Clouds 19 1000 74 0 2.14 100 21:39 27.05.2020
2477 Clear 19 1000 74 0 2.4 54 21:20 27.05.2020
2478 Clear 18 1007 63 10000 2 100 20:58 27.05.2020
2479 Clear 18 1008 67 10000 2 100 20:40 27.05.2020
2480 Clear 20 999 65 0 2.52 76 20:20 27.05.2020
2481 Clear 20 1001 69 0 2.52 76 19:46 27.05.2020
2482 Clear 20 1001 67 0 2.34 82 19:21 27.05.2020
2483 Clear 21 1001 66 0 2.34 82 18:58 27.05.2020
2484 Clear 21 1001 66 0 2.34 82 18:39 27.05.2020
2485 Clear 20 1008 72 10000 2 50 18:19 27.05.2020
2486 Clear 21 1008 72 10000 1 0 17:43 27.05.2020
2487 Clear 21 1008 72 10000 1 0 17:24 27.05.2020
2488 Clear 21 1008 72 10000 2 40 16:57 27.05.2020
2489 Clear 23 1001 58 0 1.72 125 16:38 27.05.2020
2490 Clear 23 1001 58 0 1.89 147 16:20 27.05.2020
2491 Clear 23 1001 56 0 1.89 147 15:49 27.05.2020
2492 Clear 24 1007 53 10000 3 120 15:23 27.05.2020
2493 Clear 24 1007 53 10000 3 120 14:58 27.05.2020
2494 Clear 25 1006 53 10000 4 110 14:39 27.05.2020
2495 Clouds 26 1006 53 10000 4 110 14:20 27.05.2020
2496 Clear 28 1005 34 10000 4 100 13:42 27.05.2020
2497 Clear 28 1005 34 10000 4 100 13:24 27.05.2020
2498 Clear 30 1005 20 10000 2 140 12:43 27.05.2020
2499 Clear 30 1005 20 10000 2 140 12:24 27.05.2020
2500 Clear 30 1004 18 10000 3 170 11:59 27.05.2020
2501 Clear 31 1004 18 10000 2 130 11:39 27.05.2020
2502 Clear 31 1004 18 10000 2 130 11:21 27.05.2020
2503 Clear 32 1005 17 10000 2 70 10:55 27.05.2020
2504 Clear 31 1005 18 10000 2 10 10:37 27.05.2020
2505 Clear 31 1005 17 10000 2 0 10:18 27.05.2020
2506 Clear 31 1005 18 10000 1 0 09:40 27.05.2020
2507 Clear 31 1005 18 10000 1 0 09:21 27.05.2020
2508 Clear 31 1005 17 10000 2 320 08:55 27.05.2020
2509 Clear 31 1006 21 10000 3 20 08:36 27.05.2020
2510 Clear 30 1006 20 10000 3 0 08:18 27.05.2020
2511 Clear 29 1007 21 10000 4 20 07:41 27.05.2020
2512 Clear 29 1007 21 10000 4 20 07:23 27.05.2020
2513 Clear 30 1008 26 10000 4 340 06:45 27.05.2020
2514 Clear 28 1008 26 10000 4 340 06:20 27.05.2020
2515 Clear 27 1008 29 10000 3 300 05:48 27.05.2020
2516 Clear 27 1008 31 10000 5 310 04:24 27.05.2020
2517 Clear 24 1007 35 10000 6 310 02:32 27.05.2020
2518 Clouds 24 1001 44 0 5.87 335 01:53 27.05.2020
2519 Clouds 24 1001 46 0 5.15 326 01:25 27.05.2020
2520 Clouds 23 1001 48 0 0.45 0 00:46 27.05.2020
2521 Clouds 21 1001 49 0 0.45 315 00:20 27.05.2020
2522 Clouds 21 1001 50 0 4.36 319 23:54 26.05.2020
2523 Clouds 20 998 43 0 4.36 319 23:36 26.05.2020
2524 Clouds 21 1001 49 0 4.47 314 23:18 26.05.2020
2525 Clouds 22 1001 49 0 4.47 314 22:40 26.05.2020
2526 Rain 22 998 40 0 4.53 315 22:21 26.05.2020
2527 Rain 22 1001 49 0 4.53 315 21:58 26.05.2020
2528 Rain 22 1001 50 0 4.53 315 21:39 26.05.2020
2529 Clouds 22 1001 50 0 3.39 302 21:20 26.05.2020
2530 Clouds 22 1001 45 0 0.45 315 20:43 26.05.2020
2531 Clouds 23 1000 40 0 0.45 0 20:22 26.05.2020
2532 Clouds 23 1001 40 0 2.31 296 19:58 26.05.2020
2533 Clouds 23 1001 40 0 2.31 296 19:38 26.05.2020
2534 Clouds 23 1001 38 0 2.07 296 19:19 26.05.2020
2535 Clouds 23 1001 37 0 2.07 296 18:43 26.05.2020
2536 Clouds 24 1001 38 0 4.3 265 18:23 26.05.2020
2537 Clouds 24 1001 37 0 4.3 265 17:59 26.05.2020
2538 Clouds 24 1001 36 0 0.45 0 17:38 26.05.2020
2539 Clouds 24 1002 40 0 4.46 220 17:20 26.05.2020
2540 Clouds 25 1002 40 0 4.46 220 16:45 26.05.2020
2541 Clouds 25 1001 39 0 4.82 206 16:20 26.05.2020
2542 Clouds 25 1002 39 0 4.82 206 15:55 26.05.2020
2543 Clouds 25 1002 38 0 4.82 206 15:37 26.05.2020
2544 Clear 25 1002 38 0 3.75 208 15:19 26.05.2020
2545 Clear 25 1007 29 10000 5 190 14:43 26.05.2020
2546 Clouds 26 1007 29 10000 5 190 14:23 26.05.2020
2547 Clouds 27 999 31 0 3.52 202 13:56 26.05.2020
2548 Clouds 27 1000 34 0 3.52 202 13:37 26.05.2020
2549 Clouds 27 1000 33 0 3.69 212 13:18 26.05.2020
2550 Clouds 28 1007 17 10000 5 190 12:42 26.05.2020
2551 Clouds 28 1000 30 0 3.64 235 12:22 26.05.2020
2552 Clouds 28 1000 28 0 3.64 235 11:58 26.05.2020
2553 Clouds 28 1000 28 0 3.64 235 11:58 26.05.2020
2554 Clouds 29 1000 26 0 3.64 235 11:40 26.05.2020
2555 Clouds 30 1000 25 0 3.95 250 11:18 26.05.2020
2556 Clouds 31 1001 22 0 3.95 250 10:43 26.05.2020
2557 Clouds 30 1001 22 0 3.53 258 10:19 26.05.2020
2558 Clouds 30 999 18 0 3.53 258 09:40 26.05.2020
2559 Clouds 30 1008 17 10000 2 0 09:20 26.05.2020
2560 Clouds 29 1009 21 10000 1 0 08:44 26.05.2020
2561 Clouds 30 1009 21 10000 1 0 08:23 26.05.2020
2562 Clouds 30 1009 19 10000 2 0 07:58 26.05.2020
2563 Clouds 29 1009 18 10000 2 0 07:39 26.05.2020
2564 Clear 29 1009 18 10000 2 0 07:21 26.05.2020
2565 Clear 29 1010 21 10000 3 280 06:46 26.05.2020
2566 Clear 27 1010 21 10000 3 280 06:23 26.05.2020
2567 Clear 28 1011 21 10000 2 0 05:35 26.05.2020
2568 Clear 27 1011 22 10000 3 20 04:56 26.05.2020
2569 Clear 27 1011 26 10000 3 360 04:37 26.05.2020
2570 Clear 27 1011 31 10000 3 10 04:18 26.05.2020
2571 Clear 23 1011 43 10000 3 340 02:52 26.05.2020
2572 Clouds 22 1011 46 10000 2 340 02:21 26.05.2020
2573 Clouds 22 1005 44 0 0.45 315 01:40 26.05.2020
2574 Clouds 19 1010 93 10000 2 350 00:39 26.05.2020
2575 Clouds 17 1010 93 10000 2 350 00:20 26.05.2020
2576 Clouds 17 1010 100 10000 1 350 23:58 25.05.2020
2577 Clouds 16 1010 100 10000 1 0 23:38 25.05.2020
2578 Clouds 18 1010 93 10000 1 20 23:19 25.05.2020
2579 Clouds 18 1010 93 10000 1 20 22:55 25.05.2020
2580 Clouds 18 1009 100 10000 1 40 22:37 25.05.2020
2581 Clouds 18 1009 100 10000 1 40 22:37 25.05.2020
2582 Clouds 18 1009 93 10000 1 70 22:19 25.05.2020
2583 Clouds 18 1009 93 10000 1 70 21:57 25.05.2020
2584 Clouds 18 1010 87 10000 1 20 21:37 25.05.2020
2585 Clouds 18 1009 93 10000 1 0 21:18 25.05.2020
2586 Clouds 18 1009 93 10000 1 0 21:18 25.05.2020
2587 Clouds 18 1009 93 10000 1 0 20:57 25.05.2020
2588 Clouds 18 1003 81 0 2.87 318 20:38 25.05.2020
2589 Clouds 18 1003 81 0 2.96 322 20:19 25.05.2020
2590 Clouds 19 1003 79 0 2.96 322 19:41 25.05.2020
2591 Clouds 18 1004 79 0 2.49 325 19:19 25.05.2020
2592 Clouds 19 1010 77 10000 2 170 18:58 25.05.2020
2593 Clouds 19 1010 77 10000 3 180 18:40 25.05.2020
2594 Clouds 18 1010 77 10000 2 150 18:20 25.05.2020
2595 Clouds 19 1010 82 10000 1 170 17:44 25.05.2020
2596 Clouds 19 1010 82 10000 1 170 17:25 25.05.2020
2597 Clouds 20 1004 70 0 2.46 319 16:58 25.05.2020
2598 Clouds 21 1001 66 0 2.46 319 16:40 25.05.2020
2599 Clouds 21 1010 56 10000 2 220 16:21 25.05.2020
2600 Clouds 21 1010 56 10000 3 190 15:45 25.05.2020
2601 Clouds 21 1010 56 10000 3 190 15:21 25.05.2020
2602 Clouds 21 1010 60 10000 3 180 14:59 25.05.2020
2603 Clouds 22 1010 60 10000 2 190 14:41 25.05.2020
2604 Clouds 21 1010 60 10000 2 190 14:23 25.05.2020
2605 Clouds 21 1010 72 10000 1 150 13:56 25.05.2020
2606 Clouds 21 1010 77 10000 1 0 13:37 25.05.2020
2607 Clouds 22 1009 64 10000 2 20 13:19 25.05.2020
2608 Clouds 23 1009 56 10000 2 10 12:39 25.05.2020
2609 Clouds 23 1009 56 10000 2 10 12:21 25.05.2020
2610 Clouds 23 1009 60 10000 1 0 11:57 25.05.2020
2611 Clouds 23 1010 56 10000 2.45 211 11:37 25.05.2020
2612 Clouds 23 1010 43 10000 1 0 11:18 25.05.2020
2613 Clouds 23 1009 46 10000 2 340 10:41 25.05.2020
2614 Clouds 23 1009 46 10000 2 340 10:21 25.05.2020
2615 Clouds 24 1010 46 10000 2 330 09:56 25.05.2020
2616 Clouds 25 1010 53 10000 1 0 09:38 25.05.2020
2617 Clouds 25 1011 53 10000 1 0 09:19 25.05.2020
2618 Clouds 25 1011 56 10000 2 270 08:44 25.05.2020
2619 Clouds 25 1011 56 10000 2 270 08:24 25.05.2020
2620 Clouds 23 1011 64 10000 3 220 07:59 25.05.2020
2621 Rain 22 1012 68 10000 1 0 07:41 25.05.2020
2622 Rain 22 1013 68 10000 6 300 07:20 25.05.2020
2623 Rain 22 1011 60 10000 1 0 06:46 25.05.2020
2624 Clouds 23 1011 60 10000 1 0 06:27 25.05.2020
2625 Rain 22 1012 43 10000 2 10 03:46 25.05.2020
2626 Rain 22 1012 43 10000 2 10 03:22 25.05.2020
2627 Clear 22 1005 45 0 2.8 57 02:44 25.05.2020
2628 Clouds 22 1005 45 0 3.01 51 01:42 25.05.2020
2629 Clouds 22 1011 42 10000 3 20 00:58 25.05.2020
2630 Clouds 21 1011 52 10000 1 0 00:36 25.05.2020
2631 Clouds 21 1011 52 10000 2 350 00:18 25.05.2020
2632 Clouds 20 1010 59 10000 3 340 23:43 24.05.2020
2633 Clouds 20 1010 59 10000 3 340 23:23 24.05.2020
2634 Clouds 20 1010 55 10000 2 340 22:58 24.05.2020
2635 Clouds 20 1010 59 10000 2 20 22:40 24.05.2020
2636 Clouds 20 1010 51 10000 3 350 22:18 24.05.2020
2637 Clouds 21 1010 51 10000 3 350 21:55 24.05.2020
2638 Clouds 21 1010 48 10000 2 10 21:37 24.05.2020
2639 Clouds 20 1010 59 10000 2 30 21:19 24.05.2020
2640 Clouds 21 1010 52 10000 2 40 20:43 24.05.2020
2641 Clouds 21 1010 52 10000 2 40 20:22 24.05.2020
2642 Clouds 22 1010 55 10000 2 20 19:59 24.05.2020
2643 Clouds 22 1010 63 10000 3 10 19:40 24.05.2020
2644 Clouds 22 1010 63 10000 3 10 19:19 24.05.2020
2645 Clouds 22 1010 63 10000 3 350 18:54 24.05.2020
2646 Clouds 23 1010 63 10000 1 0 18:36 24.05.2020
2647 Clear 23 1010 49 10000 1 0 18:18 24.05.2020
2648 Clear 25 1003 48 0 2.2 305 17:40 24.05.2020
2649 Clear 25 1004 43 0 2.4 299 17:21 24.05.2020
2650 Clear 26 1010 36 10000 3 210 16:57 24.05.2020
2651 Clear 25 1010 46 10000 1 0 16:38 24.05.2020
2652 Clear 25 1010 46 10000 1 0 16:38 24.05.2020
2653 Clear 25 1010 46 10000 1 0 16:20 24.05.2020
2654 Clear 25 1010 43 10000 3 170 15:57 24.05.2020
2655 Clear 25 1010 43 10000 3 170 15:38 24.05.2020
2656 Clear 26 1009 38 10000 2 190 15:19 24.05.2020
2657 Clear 26 1009 43 10000 2 170 14:46 24.05.2020
2658 Clouds 27 1001 32 0 1.45 269 14:24 24.05.2020
2659 Clouds 28 1003 37 0 1.45 269 13:59 24.05.2020
2660 Clouds 28 1003 37 0 1.45 269 13:41 24.05.2020
2661 Clouds 28 1003 35 0 1.63 283 13:21 24.05.2020
2662 Clouds 29 1002 33 0 1.63 283 12:59 24.05.2020
2663 Clouds 29 1002 31 0 1.63 283 12:40 24.05.2020
2664 Clouds 29 1002 31 0 2.29 283 12:22 24.05.2020
2665 Clouds 30 1002 31 0 2.29 283 11:59 24.05.2020
2666 Clouds 30 1002 29 0 2.29 283 11:41 24.05.2020
2667 Clouds 30 1002 29 0 2.29 283 11:41 24.05.2020
2668 Clouds 30 1002 29 0 2.29 283 11:41 24.05.2020
2669 Clouds 30 1002 32 0 2.63 290 11:22 24.05.2020
2670 Clouds 30 1002 31 0 2.63 290 10:57 24.05.2020
2671 Clouds 31 1002 30 0 2.63 290 10:39 24.05.2020
2672 Clouds 30 1002 31 0 2.45 297 10:21 24.05.2020
2673 Clouds 30 1002 33 0 2.45 297 09:41 24.05.2020
2674 Clouds 30 1003 29 0 2.07 293 09:19 24.05.2020
2675 Clouds 31 1003 29 0 2.46 295 08:57 24.05.2020
2676 Clouds 31 1001 25 0 2.46 295 08:39 24.05.2020
2677 Clear 31 1010 23 10000 1 0 08:20 24.05.2020
2678 Clear 31 1001 25 0 2.44 292 07:49 24.05.2020
2679 Clear 29 1011 28 10000 2 0 07:25 24.05.2020
2680 Clear 28 1011 28 10000 2 0 06:57 24.05.2020
2681 Clear 30 1004 28 0 0.89 0 06:36 24.05.2020
2682 Clear 29 1004 31 0 2.62 336 04:54 24.05.2020
2683 Clear 27 1006 35 0 2.72 340 03:42 24.05.2020
2684 Clear 23 1012 46 10000 3 10 02:46 24.05.2020
2685 Clear 21 1012 52 10000 2 360 01:50 24.05.2020
2686 Clear 21 1006 52 0 1.78 1 00:41 24.05.2020
2687 Clear 18 1012 63 10000 2 350 00:22 24.05.2020
2688 Clear 17 1011 63 10000 3 10 23:46 23.05.2020
2689 Clear 20 1011 63 10000 3 10 23:25 23.05.2020
2690 Clear 19 1011 67 10000 6 350 22:59 23.05.2020
2691 Clear 19 1011 72 10000 4 340 22:39 23.05.2020
2692 Clear 20 1011 72 10000 4 340 22:20 23.05.2020
2693 Clear 19 1011 93 10000 1 0 21:58 23.05.2020
2694 Clear 20 1011 93 10000 2 170 21:40 23.05.2020
2695 Clear 19 1011 93 10000 2 170 21:20 23.05.2020
2696 Clear 19 1011 93 10000 2 170 21:20 23.05.2020
2697 Clear 19 1011 93 10000 1 0 20:58 23.05.2020
2698 Clear 19 1011 93 10000 2 360 20:38 23.05.2020
2699 Clear 19 1011 93 10000 2 360 20:38 23.05.2020
2700 Clear 19 1011 93 10000 2 360 20:19 23.05.2020
2701 Clear 19 1011 87 10000 1 30 19:54 23.05.2020
2702 Clear 20 1011 82 10000 3.21 358 19:36 23.05.2020
2703 Clear 20 1011 82 10000 3.21 358 19:36 23.05.2020
2704 Clear 20 1011 77 10000 1 0 19:18 23.05.2020
2705 Clear 21 1011 72 10000 3 70 18:40 23.05.2020
2706 Clear 22 1010 49 10000 3 310 18:22 23.05.2020
2707 Clear 22 1004 47 0 4.97 6 17:56 23.05.2020
2708 Clear 22 1004 46 0 4.97 6 17:38 23.05.2020
2709 Clear 21 1010 55 10000 2 290 17:19 23.05.2020
2710 Clear 22 1004 51 0 4.56 336 16:57 23.05.2020
2711 Clear 23 1010 37 10000 3 300 16:39 23.05.2020
2712 Clear 22 1003 48 0 4.14 319 16:19 23.05.2020
2713 Clear 23 1003 52 0 4.14 319 15:43 23.05.2020
2714 Clear 24 1009 35 10000 3 270 15:24 23.05.2020
2715 Clear 24 1009 35 10000 5 320 14:58 23.05.2020
2716 Clear 25 1008 31 10000 5 330 14:39 23.05.2020
2717 Clouds 25 1008 31 10000 6 320 14:21 23.05.2020
2718 Clouds 25 1002 41 0 4.88 327 13:41 23.05.2020
2719 Clouds 25 1001 40 0 5.38 298 13:19 23.05.2020
2720 Clouds 25 1001 40 0 5.38 298 13:19 23.05.2020
2721 Clouds 26 1007 29 10000 8 320 12:56 23.05.2020
2722 Clouds 26 1006 34 10000 5 310 12:38 23.05.2020
2723 Clouds 27 1006 38 10000 4 310 12:18 23.05.2020
2724 Clouds 27 1007 38 10000 4 320 11:43 23.05.2020
2725 Clouds 27 1006 38 10000 3 350 11:22 23.05.2020
2726 Clouds 27 1006 38 10000 3 350 10:57 23.05.2020
2727 Clouds 27 1007 38 10000 2 30 10:39 23.05.2020
2728 Clouds 26 1007 38 10000 2 30 10:20 23.05.2020
2729 Clouds 27 1007 46 10000 3 50 09:58 23.05.2020
2730 Clouds 27 1007 43 10000 5 30 09:39 23.05.2020
2731 Clouds 26 1007 43 10000 5 30 09:21 23.05.2020
2732 Rain 26 1007 41 10000 7 300 08:43 23.05.2020
2733 Clouds 26 1007 41 10000 7 300 08:19 23.05.2020
2734 Rain 27 1007 56 10000 4 330 07:47 23.05.2020
2735 Rain 25 1007 56 10000 4 330 07:29 23.05.2020
2736 Rain 25 1007 56 10000 6 350 06:55 23.05.2020
2737 Clouds 27 1007 41 10000 1 0 06:36 23.05.2020
2738 Clouds 25 1008 53 10000 2 300 04:56 23.05.2020
2739 Clouds 21 1008 60 10000 1 0 03:30 23.05.2020
2740 Rain 20 1008 72 10000 2 40 02:57 23.05.2020
2741 Clouds 19 1002 80 0 3.47 11 01:57 23.05.2020
2742 Clouds 18 1002 84 0 3.94 13 01:21 23.05.2020
2743 Clouds 17 999 95 0 3.94 13 00:46 23.05.2020
2744 Clouds 17 1002 92 0 4.65 11 00:25 23.05.2020
2745 Rain 17 1001 94 0 4.65 11 23:57 22.05.2020
2746 Rain 17 1001 95 0 4.65 11 23:38 22.05.2020
2747 Rain 17 1001 98 0 5.96 9 23:18 22.05.2020
2748 Rain 16 998 95 0 5.96 9 22:43 22.05.2020
2749 Rain 17 1001 97 0 6.38 15 22:21 22.05.2020
2750 Rain 17 1008 87 10000 3 350 21:57 22.05.2020
2751 Rain 18 1008 87 10000 2 10 21:38 22.05.2020
2752 Rain 18 1008 87 10000 2 10 21:20 22.05.2020
2753 Rain 19 1008 82 10000 4 10 20:45 22.05.2020
2754 Rain 19 1008 82 10000 4 10 20:21 22.05.2020
2755 Clouds 20 1001 74 0 0.89 45 19:59 22.05.2020
2756 Clouds 21 1001 73 0 0.45 0 19:37 22.05.2020
2757 Clouds 21 998 56 0 6.24 359 19:18 22.05.2020
2758 Rain 22 1006 60 10000 2 110 18:39 22.05.2020
2759 Rain 24 1006 52 10000 1 0 18:19 22.05.2020
2760 Clouds 24 1000 51 0 5.02 345 17:56 22.05.2020
2761 Clouds 24 1000 48 0 5.02 345 17:36 22.05.2020
2762 Clouds 25 999 44 0 4.43 355 17:18 22.05.2020
2763 Clouds 25 999 44 0 4.43 355 16:41 22.05.2020
2764 Clouds 26 1000 42 0 0.45 0 16:20 22.05.2020
2765 Clouds 26 1005 38 10000 4 360 15:57 22.05.2020
2766 Clouds 26 1005 41 10000 3 10 15:39 22.05.2020
2767 Rain 27 1005 44 10000 3 10 15:19 22.05.2020
2768 Clouds 27 1004 47 10000 4 10 14:43 22.05.2020
2769 Clouds 27 1004 47 10000 4 10 14:43 22.05.2020
2770 Clouds 27 1004 47 10000 4 10 14:24 22.05.2020
2771 Clouds 27 1003 50 10000 2 50 13:45 22.05.2020
2772 Clouds 28 1003 50 10000 2 50 13:20 22.05.2020
2773 Clouds 28 1002 47 10000 1 90 12:45 22.05.2020
2774 Clouds 28 1002 47 10000 1 90 12:26 22.05.2020
2775 Clouds 30 1002 30 10000 2 190 11:59 22.05.2020
2776 Clouds 30 1002 28 10000 3 210 11:40 22.05.2020
2777 Clouds 30 1002 28 10000 3 210 11:20 22.05.2020
2778 Clouds 30 1002 28 10000 3 210 10:55 22.05.2020
2779 Clouds 30 1002 28 10000 4 200 10:36 22.05.2020
2780 Clouds 30 1002 30 10000 3 200 10:18 22.05.2020
2781 Clouds 30 1002 32 10000 4 210 09:41 22.05.2020
2782 Clouds 31 1003 35 10000 4 230 09:19 22.05.2020
2783 Clouds 31 994 34 0 4.95 305 08:43 22.05.2020
2784 Clouds 31 996 31 0 4.91 308 08:21 22.05.2020
2785 Clouds 31 996 30 0 4.91 308 08:21 22.05.2020
2786 Clouds 31 996 33 0 4.91 308 07:57 22.05.2020
2787 Clouds 31 997 35 0 4.71 325 07:27 22.05.2020
2788 Clouds 30 995 53 0 4.71 325 06:58 22.05.2020
2789 Clouds 30 997 40 0 4.71 325 06:36 22.05.2020
2790 Clouds 29 998 48 0 4.74 331 05:40 22.05.2020
2791 Clouds 28 998 36 0 5.68 334 04:51 22.05.2020
2792 Clear 27 998 51 0 6.4 328 04:28 22.05.2020
2793 Clear 25 998 57 0 6.4 328 03:47 22.05.2020
2794 Mist 22 1005 77 5000 2 150 02:59 22.05.2020
2795 Clear 21 999 75 0 6.15 314 01:56 22.05.2020
2796 Clear 20 999 83 0 4.96 300 01:28 22.05.2020
2797 Clear 18 999 90 0 4.96 300 00:48 22.05.2020
2798 Clear 18 996 97 0 2.66 296 00:28 22.05.2020
2799 Clear 18 999 96 0 2.66 296 23:43 21.05.2020
2800 Clear 17 999 98 0 1.43 271 23:25 21.05.2020
2801 Clear 17 998 98 0 1.43 271 22:58 21.05.2020
2802 Clear 17 998 98 0 1.43 271 22:58 21.05.2020
2803 Clear 17 998 99 0 1.43 271 22:38 21.05.2020
2804 Clear 17 998 99 0 1.61 212 22:20 21.05.2020
2805 Clear 17 998 99 0 1.61 212 21:58 21.05.2020
2806 Clear 17 999 99 0 1.61 212 21:39 21.05.2020
2807 Clear 17 999 99 0 1.56 193 21:19 21.05.2020
2808 Mist 16 1005 93 2800 3 200 20:43 21.05.2020
2809 Clouds 16 999 99 0 1.61 170 20:22 21.05.2020
2810 Clouds 16 999 99 0 1.61 170 20:22 21.05.2020
2811 Clouds 16 999 99 0 1.61 170 19:41 21.05.2020
2812 Clouds 16 999 99 0 1.82 162 19:21 21.05.2020
2813 Clouds 16 999 99 0 1.82 162 18:59 21.05.2020
2814 Clouds 16 999 99 0 1.82 162 18:39 21.05.2020
2815 Mist 16 1005 100 2500 1 0 18:19 21.05.2020
2816 Mist 16 1005 100 2500 1 0 17:58 21.05.2020
2817 Clouds 16 999 99 0 1.79 139 17:39 21.05.2020
2818 Clouds 16 1000 99 0 2.21 120 17:21 21.05.2020
2819 Mist 17 1005 93 3200 2 170 16:46 21.05.2020
2820 Mist 17 1005 93 3200 2 170 16:24 21.05.2020
2821 Mist 17 1006 93 3500 1 0 15:47 21.05.2020
2822 Mist 20 1006 93 3500 1 0 15:24 21.05.2020
2823 Rain 20 1000 99 0 3.48 107 14:56 21.05.2020
2824 Rain 19 999 99 0 3.48 107 14:37 21.05.2020
2825 Rain 20 999 99 0 2.42 68 14:18 21.05.2020
2826 Rain 20 999 99 0 2.42 68 13:40 21.05.2020
2827 Clouds 20 998 99 0 2.09 53 13:22 21.05.2020
2828 Mist 20 1004 82 3500 1 0 12:55 21.05.2020
2829 Mist 20 1003 88 3500 2 140 12:36 21.05.2020
2830 Mist 20 1003 93 3500 3 140 12:18 21.05.2020
2831 Mist 21 1004 93 4000 3 140 11:41 21.05.2020
2832 Mist 21 1004 93 4000 3 140 11:23 21.05.2020
2833 Rain 20 1005 100 5000 2 0 10:55 21.05.2020
2834 Mist 22 1005 68 5000 4 350 10:37 21.05.2020
2835 Rain 22 996 90 0 5.47 183 10:18 21.05.2020
2836 Rain 23 997 71 0 0.45 315 09:42 21.05.2020
2837 Rain 24 1003 60 8000 5 120 09:24 21.05.2020
2838 Clouds 25 996 55 0 3.79 150 08:58 21.05.2020
2839 Clouds 26 997 52 0 3.79 150 08:40 21.05.2020
2840 Clouds 26 997 52 0 3.29 147 08:22 21.05.2020
2841 Clouds 24 1004 56 10000 4 120 07:43 21.05.2020
2842 Rain 26 998 50 0 2.07 129 07:24 21.05.2020
2843 Rain 25 998 56 0 2.07 129 06:45 21.05.2020
2844 Clouds 22 1007 53 10000 3 70 05:52 21.05.2020
2845 Clouds 22 1007 53 8000 1 0 04:29 21.05.2020
2846 Clouds 21 1007 53 6000 3 10 03:21 21.05.2020
2847 Clouds 21 1007 53 6000 3 10 03:21 21.05.2020
2848 Clouds 21 1001 54 0 2.78 78 02:33 21.05.2020
2849 Clouds 20 1001 60 0 2.87 88 01:58 21.05.2020
2850 Clouds 20 1002 61 0 2.87 88 01:39 21.05.2020
2851 Clouds 20 1002 63 0 2.47 88 01:18 21.05.2020
2852 Clouds 20 998 67 0 2.47 88 00:41 21.05.2020
2853 Clouds 18 1001 66 0 2.42 99 00:19 21.05.2020
2854 Clouds 18 1002 67 0 2.42 99 23:40 20.05.2020
2855 Rain 19 1002 67 0 2.09 92 23:19 20.05.2020
2856 Rain 19 1001 65 0 2.09 92 22:55 20.05.2020
2857 Rain 20 1001 65 0 2.09 92 22:37 20.05.2020
2858 Rain 20 1001 66 0 1.81 75 22:19 20.05.2020
2859 Rain 20 1001 71 0 1.81 75 21:40 20.05.2020
2860 Clouds 20 1001 73 0 1.31 29 21:20 20.05.2020
2861 Clouds 20 998 71 0 1.31 29 20:44 20.05.2020
2862 Rain 20 998 73 0 1.71 52 20:24 20.05.2020
2863 Rain 20 1001 78 0 1.71 52 19:54 20.05.2020
2864 Rain 20 1001 76 0 1.71 52 19:36 20.05.2020
2865 Rain 20 1001 75 0 2.51 106 19:18 20.05.2020
2866 Rain 20 1001 84 0 2.51 106 18:42 20.05.2020
2867 Clouds 22 1008 46 10000 2 0 18:22 20.05.2020
2868 Rain 22 1009 43 10000 4 120 17:41 20.05.2020
2869 Rain 23 1009 43 10000 4 120 17:22 20.05.2020
2870 Thunderstorm 23 1009 46 10000 4 120 16:56 20.05.2020
2871 Thunderstorm 23 1008 49 10000 6 120 16:38 20.05.2020
2872 Thunderstorm 24 1008 49 10000 6 120 16:19 20.05.2020
2873 Clouds 26 1007 38 10000 5 110 15:43 20.05.2020
2874 Clouds 27 1001 44 0 5.02 52 15:25 20.05.2020
2875 Clouds 28 1006 39 10000 3 120 14:45 20.05.2020
2876 Clouds 28 1006 39 10000 3 120 14:26 20.05.2020
2877 Clouds 28 1005 41 10000 2 140 13:59 20.05.2020
2878 Clouds 28 1005 39 10000 2 150 13:39 20.05.2020
2879 Clouds 29 998 35 0 1.98 190 13:18 20.05.2020
2880 Clouds 30 998 33 0 1.98 190 12:42 20.05.2020
2881 Clouds 30 998 34 0 2.15 198 12:21 20.05.2020
2882 Clouds 31 997 33 0 2.15 198 11:38 20.05.2020
2883 Clouds 31 997 34 0 1.14 180 11:20 20.05.2020
2884 Clouds 32 997 32 0 1.14 180 10:55 20.05.2020
2885 Clouds 32 997 32 0 1.14 180 10:55 20.05.2020
2886 Clouds 33 997 30 0 1.14 180 10:37 20.05.2020
2887 Clouds 32 997 31 0 0.86 172 10:18 20.05.2020
2888 Clouds 32 998 31 0 0.86 172 09:41 20.05.2020
2889 Clouds 31 1005 23 10000 3 130 09:20 20.05.2020
2890 Clouds 31 998 26 0 0.76 116 08:42 20.05.2020
2891 Clouds 31 998 26 0 1.07 96 08:19 20.05.2020
2892 Clouds 31 998 27 0 1.34 315 07:50 20.05.2020
2893 Clouds 30 1006 28 10000 3 50 07:23 20.05.2020
2894 Clouds 30 1006 25 10000 3 360 06:53 20.05.2020
2895 Clouds 29 1007 28 10000 3 0 06:18 20.05.2020
2896 Clouds 28 1001 36 0 2.45 55 04:38 20.05.2020
2897 Clouds 28 1001 39 0 2.88 47 04:18 20.05.2020
2898 Clear 23 1008 41 10000 3 20 03:29 20.05.2020
2899 Clouds 22 1001 59 0 2.76 42 01:41 20.05.2020
2900 Clouds 22 1001 61 0 2.63 39 01:23 20.05.2020
2901 Clouds 20 1001 65 0 0.45 315 00:40 20.05.2020
2902 Clear 20 1001 66 0 0.45 0 00:20 20.05.2020
2903 Clear 19 998 65 0 2.31 35 23:36 19.05.2020
2904 Clear 19 1000 70 0 1.99 32 23:18 19.05.2020
2905 Clear 19 1000 70 0 1.99 32 22:55 19.05.2020
2906 Clear 19 1000 69 0 1.99 32 22:36 19.05.2020
2907 Clear 19 1000 69 0 1.75 35 22:18 19.05.2020
2908 Clear 19 1000 68 0 1.75 35 21:55 19.05.2020
2909 Clear 19 1000 68 0 2.03 47 21:36 19.05.2020
2910 Clouds 20 1000 66 0 1.12 21 21:18 19.05.2020
2911 Clear 20 999 65 0 1.43 28 20:54 19.05.2020
2912 Clear 20 999 63 0 1.43 28 20:36 19.05.2020
2913 Clear 20 999 63 0 1.43 28 20:36 19.05.2020
2914 Clouds 21 999 63 0 0.87 323 20:18 19.05.2020
2915 Clouds 21 999 61 0 0.87 323 19:38 19.05.2020
2916 Clouds 21 999 61 0 0.43 296 19:19 19.05.2020
2917 Clouds 22 999 58 0 0.43 296 18:44 19.05.2020
2918 Clouds 22 999 56 0 1.21 47 18:23 19.05.2020
2919 Clouds 22 999 54 0 1.21 47 17:57 19.05.2020
2920 Clouds 22 999 53 0 1.21 47 17:39 19.05.2020
2921 Rain 23 999 51 0 3.53 14 17:20 19.05.2020
2922 Rain 24 999 45 0 3.53 14 16:41 19.05.2020
2923 Clouds 24 999 43 0 0.45 315 16:23 19.05.2020
2924 Clouds 25 998 30 0 1.76 296 15:56 19.05.2020
2925 Clouds 24 1006 33 10000 1 70 15:38 19.05.2020
2926 Clouds 25 1006 33 10000 1 70 15:20 19.05.2020
2927 Clouds 27 1005 26 10000 2 80 14:54 19.05.2020
2928 Clouds 27 1005 26 10000 2 80 14:54 19.05.2020
2929 Clouds 28 998 29 0 2.95 259 14:36 19.05.2020
2930 Clouds 28 997 28 0 1.91 258 14:18 19.05.2020
2931 Clouds 28 996 28 0 1.91 258 13:41 19.05.2020
2932 Clouds 28 996 27 0 2.59 262 13:23 19.05.2020
2933 Clouds 28 996 26 0 2.59 262 12:59 19.05.2020
2934 Clouds 29 994 19 0 2.59 262 12:40 19.05.2020
2935 Clouds 30 995 24 0 3.75 262 12:22 19.05.2020
2936 Clouds 30 995 24 0 3.75 262 12:22 19.05.2020
2937 Clouds 30 995 24 0 3.75 262 11:59 19.05.2020
2938 Clouds 30 995 25 0 3.75 262 11:40 19.05.2020
2939 Clouds 30 995 25 0 3.33 215 11:21 19.05.2020
2940 Clouds 31 995 23 0 3.33 215 10:49 19.05.2020
2941 Clear 32 995 21 0 4.02 213 10:29 19.05.2020
2942 Clear 30 1002 17 10000 3 180 09:59 19.05.2020
2943 Clear 30 1002 17 10000 2 0 09:41 19.05.2020
2944 Clear 30 1002 17 10000 2 0 09:23 19.05.2020
2945 Clear 31 1003 17 10000 2 0 08:44 19.05.2020
2946 Clear 30 1003 17 10000 2 0 08:24 19.05.2020
2947 Clear 30 1003 17 10000 2 0 08:24 19.05.2020
2948 Clear 31 1004 18 10000 2 0 07:44 19.05.2020
2949 Clear 30 1004 18 10000 2 0 07:26 19.05.2020
2950 Clear 30 1005 20 10000 3 40 06:51 19.05.2020
2951 Clear 29 1005 18 10000 4 360 06:25 19.05.2020
2952 Clear 28 1006 21 10000 2 0 05:41 19.05.2020
2953 Clear 28 1006 26 10000 2 0 04:56 19.05.2020
2954 Clear 27 1006 24 10000 3 350 04:32 19.05.2020
2955 Clear 22 1000 44 0 0.17 29 01:32 19.05.2020
2956 Clear 20 1000 45 0 0.66 13 00:47 19.05.2020
2957 Clear 18 1006 51 10000 1 0 00:25 19.05.2020
2958 Clear 17 1000 49 0 0.52 335 23:58 18.05.2020
2959 Clear 17 1000 49 0 0.52 335 23:39 18.05.2020
2960 Clear 19 999 46 0 0.64 341 23:19 18.05.2020
2961 Clear 19 999 47 0 0.64 341 22:41 18.05.2020
2962 Clear 19 999 46 0 0.96 357 22:22 18.05.2020
2963 Clear 19 999 46 0 0.96 357 21:58 18.05.2020
2964 Clear 19 996 29 0 0.96 357 21:39 18.05.2020
2965 Clear 20 998 42 0 1.75 28 21:19 18.05.2020
2966 Clear 19 1004 34 10000 3 30 20:43 18.05.2020
2967 Clear 20 1004 41 10000 3 20 20:22 18.05.2020
2968 Clear 20 1004 41 10000 3 20 19:59 18.05.2020
2969 Clear 19 1004 44 10000 3 350 19:41 18.05.2020
2970 Clear 19 1004 47 10000 3 350 19:19 18.05.2020
2971 Clear 19 1004 58 10000 3 360 18:46 18.05.2020
2972 Clear 19 1004 58 10000 3 360 18:25 18.05.2020
2973 Clear 20 1004 50 10000 1 0 17:55 18.05.2020
2974 Clear 17 1003 41 10000 1 0 17:37 18.05.2020
2975 Clear 19 1004 34 10000 1 0 17:18 18.05.2020
2976 Clear 22 1003 24 10000 2 80 16:43 18.05.2020
2977 Clear 23 1003 23 10000 2 80 16:22 18.05.2020
2978 Clear 23 1003 20 10000 4 40 15:59 18.05.2020
2979 Clear 23 1002 18 10000 4 30 15:41 18.05.2020
2980 Clear 25 995 24 0 5.38 41 15:22 18.05.2020
2981 Clear 25 995 24 0 5.38 41 14:57 18.05.2020
2982 Clear 25 995 24 0 5.38 41 14:38 18.05.2020
2983 Clear 25 995 25 0 3.78 356 14:20 18.05.2020
2984 Clear 26 994 23 0 3.78 356 13:41 18.05.2020
2985 Clear 27 994 23 0 4.08 354 13:21 18.05.2020
2986 Clear 27 994 23 0 4.08 354 13:21 18.05.2020
2987 Clear 27 994 23 0 4.08 354 13:21 18.05.2020
2988 Clear 28 994 21 0 4.08 354 12:58 18.05.2020
2989 Clear 28 994 21 0 4.08 354 12:40 18.05.2020
2990 Clear 28 994 21 0 5.13 348 12:19 18.05.2020
2991 Clear 28 994 20 0 0.45 0 11:59 18.05.2020
2992 Clear 28 994 20 0 0.45 0 11:59 18.05.2020
2993 Clear 28 994 21 0 5.13 348 11:40 18.05.2020
2994 Clear 28 994 21 0 4.57 345 11:21 18.05.2020
2995 Clear 29 995 19 0 4.57 345 10:46 18.05.2020
2996 Clear 28 995 21 0 0.89 338 10:23 18.05.2020
2997 Clear 28 995 21 0 0.89 338 10:23 18.05.2020
2998 Clear 27 996 23 0 3.94 344 09:45 18.05.2020
2999 Clouds 26 1002 15 10000 6 290 09:26 18.05.2020
3000 Clouds 27 1003 15 10000 5 290 08:56 18.05.2020
3001 Clouds 28 1003 15 10000 5 340 08:38 18.05.2020
3002 Clear 28 1003 15 10000 5 340 08:19 18.05.2020
3003 Clear 27 1005 15 10000 7 340 07:42 18.05.2020
3004 Clear 26 1005 22 10000 5 360 07:21 18.05.2020
3005 Clear 25 1006 23 10000 6 10 06:47 18.05.2020
3006 Clear 24 1006 22 10000 6 360 06:21 18.05.2020
3007 Clear 24 1006 22 10000 8 350 05:42 18.05.2020
3008 Clear 22 1000 35 0 0.45 315 03:37 18.05.2020
3009 Clear 19 1006 34 10000 6 330 02:31 18.05.2020
3010 Clear 19 997 35 0 6.2 358 01:45 18.05.2020
3011 Clouds 16 1006 57 10000 3 360 00:38 18.05.2020
3012 Clouds 16 1006 57 10000 3 360 00:38 18.05.2020
3013 Clouds 15 1006 53 10000 3 350 00:18 18.05.2020
3014 Clouds 15 1005 53 10000 2 350 23:42 17.05.2020
3015 Clouds 15 1005 53 10000 2 350 23:20 17.05.2020
3016 Clouds 14 1005 61 10000 3 350 22:59 17.05.2020
3017 Clouds 15 1005 53 10000 3 340 22:39 17.05.2020
3018 Clouds 15 1005 53 10000 3 340 22:21 17.05.2020
3019 Clouds 15 1005 53 10000 4 340 21:59 17.05.2020
3020 Clouds 15 1005 53 10000 4 350 21:40 17.05.2020
3021 Clear 16 1005 50 10000 3 350 21:19 17.05.2020
3022 Clear 16 1004 57 10000 2 340 20:43 17.05.2020
3023 Clouds 16 1004 57 10000 2 340 20:22 17.05.2020
3024 Clouds 15 1004 70 10000 2 40 19:58 17.05.2020
3025 Clouds 16 1004 66 10000 3 350 19:40 17.05.2020
3026 Clouds 16 1004 66 10000 3 350 19:22 17.05.2020
3027 Clouds 15 1004 75 10000 2 360 18:55 17.05.2020
3028 Clouds 16 1004 70 10000 1 350 18:37 17.05.2020
3029 Clouds 16 1004 70 10000 1 350 18:19 17.05.2020
3030 Clouds 17 1004 62 10000 2 40 17:40 17.05.2020
3031 Clouds 17 1004 62 10000 2 40 17:40 17.05.2020
3032 Clouds 17 1004 62 10000 2 40 17:21 17.05.2020
3033 Clouds 17 1004 58 10000 4 350 17:21 17.05.2020
3034 Clouds 17 1004 58 10000 4 350 16:56 17.05.2020
3035 Clouds 17 1005 58 10000 2 350 16:37 17.05.2020
3036 Clouds 17 1005 50 10000 3 310 16:19 17.05.2020
3037 Clouds 18 996 32 0 2.34 300 15:45 17.05.2020
3038 Clouds 18 1005 39 10000 3 300 15:24 17.05.2020
3039 Clouds 19 1005 39 10000 3 300 14:57 17.05.2020
3040 Clouds 18 1005 50 10000 1 180 14:38 17.05.2020
3041 Clouds 18 1005 50 10000 1 180 14:19 17.05.2020
3042 Clouds 18 1005 50 10000 1 180 14:19 17.05.2020
3043 Clouds 19 998 46 0 2.88 252 13:41 17.05.2020
3044 Clouds 19 998 43 0 4.17 224 13:20 17.05.2020
3045 Clouds 22 997 34 0 2.96 303 05:22 17.05.2020
3046 Clouds 20 1004 29 10000 1 0 03:31 17.05.2020
3047 Clouds 19 1004 36 10000 2 360 02:26 17.05.2020
3048 Clouds 19 1004 39 10000 1 0 01:53 17.05.2020
3049 Clouds 18 998 44 0 1.55 1 00:46 17.05.2020
3050 Clouds 14 1003 66 10000 1 0 00:26 17.05.2020
3051 Clouds 13 1003 81 10000 1 0 23:42 16.05.2020
3052 Clouds 17 997 45 0 1.42 353 23:23 16.05.2020
3053 Clouds 16 997 42 0 1.42 353 22:59 16.05.2020
3054 Clouds 17 997 41 0 1.42 353 22:41 16.05.2020
3055 Clouds 15 1003 75 10000 1 0 22:22 16.05.2020
3056 Clouds 16 1003 53 10000 1 0 21:56 16.05.2020
3057 Clouds 12 1004 81 10000 1 0 21:38 16.05.2020
3058 Clear 16 1003 76 10000 1 0 21:19 16.05.2020
3059 Clear 16 1003 76 10000 1 0 20:56 16.05.2020
3060 Clear 16 1003 76 10000 1 0 20:56 16.05.2020
3061 Clear 9 1004 81 10000 2.08 9 20:37 16.05.2020
3062 Clouds 16 1004 81 10000 1 0 20:19 16.05.2020
3063 Clouds 16 1003 81 10000 1 0 19:42 16.05.2020
3064 Clouds 17 1004 71 10000 1 0 19:23 16.05.2020
3065 Clouds 16 1003 81 10000 1 0 19:23 16.05.2020
3066 Clouds 17 1004 71 10000 1 0 18:57 16.05.2020
3067 Clouds 17 1004 71 10000 1 0 18:38 16.05.2020
3068 Clouds 18 1004 62 10000 2 360 18:20 16.05.2020
3069 Clouds 17 1004 51 10000 2 340 17:42 16.05.2020
3070 Clouds 20 1004 51 10000 2 340 17:21 16.05.2020
3071 Clouds 20 1004 51 10000 2 340 17:21 16.05.2020
3072 Clouds 20 1004 82 10000 2 10 16:45 16.05.2020
3073 Clear 19 1004 82 10000 2 10 16:25 16.05.2020
3074 Clear 20 1004 72 10000 2 340 15:59 16.05.2020
3075 Clear 19 1004 87 10000 1 0 15:41 16.05.2020
3076 Clear 21 1003 82 10000 1 0 15:21 16.05.2020
3077 Clear 22 1003 82 10000 1 0 14:56 16.05.2020
3078 Clear 21 1003 82 10000 1 0 14:38 16.05.2020
3079 Clouds 22 997 67 0 5.32 325 14:19 16.05.2020
3080 Clouds 23 996 64 0 5.32 325 13:42 16.05.2020
3081 Clouds 23 996 63 0 6.26 323 13:24 16.05.2020
3082 Clouds 24 1001 60 10000 2 180 12:59 16.05.2020
3083 Clouds 24 1001 56 10000 2 160 12:40 16.05.2020
3084 Clouds 25 1000 53 10000 1 0 12:19 16.05.2020
3085 Clouds 26 1000 56 10000 1 0 11:42 16.05.2020
3086 Clouds 25 1000 56 10000 1 0 11:23 16.05.2020
3087 Clouds 25 1000 53 9000 2 0 10:58 16.05.2020
3088 Clouds 25 1001 56 8000 1 0 10:39 16.05.2020
3089 Clouds 25 1001 56 8000 1 0 10:21 16.05.2020
3090 Clouds 25 1001 60 7000 2 0 09:47 16.05.2020
3091 Clouds 25 1001 60 7000 2 0 09:28 16.05.2020
3092 Clouds 24 1002 60 7000 1 0 08:56 16.05.2020
3093 Clouds 25 1002 60 7000 2 0 08:36 16.05.2020
3094 Clouds 23 1003 64 6000 2 0 08:18 16.05.2020
3095 Clouds 23 996 58 0 0.96 48 07:43 16.05.2020
3096 Clouds 23 996 58 0 0.96 48 07:43 16.05.2020
3097 Clouds 23 996 61 0 1.47 50 07:21 16.05.2020
3098 Clouds 21 996 64 0 0.45 0 06:47 16.05.2020
3099 Clouds 19 997 71 0 1.8 62 06:21 16.05.2020
3100 Clouds 19 997 62 0 1.8 62 05:43 16.05.2020
3101 Mist 19 1004 77 2900 2 0 05:24 16.05.2020
3102 Clouds 16 998 80 0 1.86 60 03:29 16.05.2020
3103 Mist 16 1004 82 4500 3 100 02:47 16.05.2020
3104 Clouds 15 998 79 0 2.26 83 02:20 16.05.2020
3105 Clouds 15 998 80 0 2.26 83 01:40 16.05.2020
3106 Clouds 15 998 80 0 2.1 93 00:58 16.05.2020
3107 Clouds 15 998 80 0 2.1 93 00:40 16.05.2020
3108 Clouds 15 998 79 0 2.42 102 00:20 16.05.2020
3109 Clouds 15 998 80 0 2.42 102 23:40 15.05.2020
3110 Clouds 16 998 79 0 2.03 98 23:19 15.05.2020
3111 Clouds 16 998 78 0 2.03 98 22:42 15.05.2020
3112 Rain 16 998 77 0 2.09 98 22:22 15.05.2020
3113 Clouds 16 1005 77 10000 3 150 21:58 15.05.2020
3114 Clouds 16 1005 77 10000 2 130 21:39 15.05.2020
3115 Clouds 16 998 75 0 2.39 95 21:21 15.05.2020
3116 Clouds 16 999 74 0 2.39 95 20:56 15.05.2020
3117 Clouds 16 998 73 0 2.39 95 20:38 15.05.2020
3118 Clouds 16 999 72 0 2.2 125 20:19 15.05.2020
3119 Clouds 16 999 71 0 2.2 125 19:44 15.05.2020
3120 Clouds 16 999 71 0 2.2 125 19:44 15.05.2020
3121 Rain 17 999 70 0 3.37 116 19:24 15.05.2020
3122 Rain 17 999 69 0 3.37 116 18:58 15.05.2020
3123 Rain 17 1000 69 0 3.37 116 18:39 15.05.2020
3124 Rain 17 1000 69 0 3.76 142 18:18 15.05.2020
3125 Clouds 18 1006 59 10000 3 120 17:39 15.05.2020
3126 Clouds 18 1006 59 10000 3 120 17:19 15.05.2020
3127 Clouds 18 1006 55 10000 2 130 16:57 15.05.2020
3128 Clouds 18 1006 59 10000 3 150 16:38 15.05.2020
3129 Rain 20 1000 68 0 2.88 156 16:19 15.05.2020
3130 Rain 20 1000 68 0 2.88 156 15:41 15.05.2020
3131 Clear 20 1000 67 0 4.19 157 15:22 15.05.2020
3132 Clouds 21 1006 68 10000 3 160 14:59 15.05.2020
3133 Clouds 21 1006 68 10000 3 140 14:41 15.05.2020
3134 Clouds 21 1006 68 10000 3 140 14:23 15.05.2020
3135 Clouds 22 1006 64 10000 3 130 13:58 15.05.2020
3136 Clouds 22 1005 64 10000 2 140 13:38 15.05.2020
3137 Clouds 22 999 68 0 1.72 165 13:19 15.05.2020
3138 Clouds 22 1004 64 10000 4 130 12:39 15.05.2020
3139 Clouds 23 1004 60 10000 4 130 12:18 15.05.2020
3140 Clouds 23 1004 60 10000 4 130 11:56 15.05.2020
3141 Clouds 23 1004 60 10000 4 130 11:56 15.05.2020
3142 Clouds 23 997 66 0 2.57 174 11:38 15.05.2020
3143 Clouds 23 997 67 0 1.82 218 11:19 15.05.2020
3144 Clouds 23 997 66 0 1.82 218 10:57 15.05.2020
3145 Clouds 23 997 66 0 1.82 218 10:38 15.05.2020
3146 Clouds 23 997 67 0 2.35 208 10:20 15.05.2020
3147 Clouds 23 997 66 0 2.35 208 09:56 15.05.2020
3148 Clouds 23 998 67 0 2.35 208 09:36 15.05.2020
3149 Clouds 22 997 68 0 2.67 201 09:18 15.05.2020
3150 Clouds 22 998 68 0 2.67 201 08:38 15.05.2020
3151 Clouds 23 998 68 0 2.51 171 08:20 15.05.2020
3152 Clouds 22 999 68 0 2.51 171 07:46 15.05.2020
3153 Clouds 22 999 68 0 2.51 171 07:46 15.05.2020
3154 Clouds 22 999 68 0 2.58 164 07:28 15.05.2020
3155 Clouds 22 999 68 0 2.58 164 06:59 15.05.2020
3156 Clouds 20 1006 64 10000 4 150 05:56 15.05.2020
3157 Clouds 20 1006 72 10000 3 140 04:39 15.05.2020
3158 Clouds 19 1006 72 10000 3 160 03:50 15.05.2020
3159 Clouds 19 1006 77 8000 2 140 02:55 15.05.2020
3160 Clouds 18 1000 79 0 0.45 180 01:37 15.05.2020
3161 Clouds 18 1000 78 0 2.39 104 01:18 15.05.2020
3162 Clouds 18 999 79 0 2.39 104 00:40 15.05.2020
3163 Clouds 18 999 80 0 2.75 83 00:21 15.05.2020
3164 Clouds 18 1005 82 8000 2 90 23:41 14.05.2020
3165 Clouds 18 1005 82 8000 2 90 23:19 14.05.2020
3166 Clouds 18 1005 82 8000 3 140 22:42 14.05.2020
3167 Clouds 18 1005 82 8000 3 140 22:24 14.05.2020
3168 Clouds 18 1005 82 8000 3 140 22:24 14.05.2020
3169 Clouds 18 1005 82 8000 2 140 21:59 14.05.2020
3170 Clouds 18 1005 82 8000 3 110 21:40 14.05.2020
3171 Clouds 18 1005 82 8000 4 110 21:20 14.05.2020
3172 Clouds 19 1005 82 8000 4 110 20:57 14.05.2020
3173 Clouds 19 1005 82 8000 3 100 20:39 14.05.2020
3174 Clouds 19 1005 82 8000 3 100 20:19 14.05.2020
3175 Clouds 19 1005 82 8000 2 90 19:57 14.05.2020
3176 Clouds 20 1005 77 8000 2 110 19:38 14.05.2020
3177 Clouds 20 1005 72 10000 2 90 19:20 14.05.2020
3178 Clouds 20 1005 72 10000 2 90 18:57 14.05.2020
3179 Clouds 20 1005 72 10000 2 100 18:38 14.05.2020
3180 Rain 20 1006 64 10000 3 100 18:19 14.05.2020
3181 Rain 20 1006 64 10000 3 100 17:56 14.05.2020
3182 Rain 20 1006 64 10000 3 100 17:56 14.05.2020
3183 Rain 21 1006 60 10000 3 140 17:37 14.05.2020
3184 Rain 21 1005 60 10000 3 130 17:18 14.05.2020
3185 Rain 21 1005 56 10000 4 140 16:41 14.05.2020
3186 Clouds 23 1005 56 10000 4 140 16:23 14.05.2020
3187 Clouds 22 1005 53 10000 4 130 15:59 14.05.2020
3188 Clouds 23 1005 53 10000 4 130 15:40 14.05.2020
3189 Clouds 23 1005 53 10000 4 130 15:40 14.05.2020
3190 Clouds 24 1004 53 10000 4 130 15:20 14.05.2020
3191 Clouds 24 1003 53 10000 4 130 14:56 14.05.2020
3192 Clouds 24 1003 53 10000 4 130 14:38 14.05.2020
3193 Clear 26 997 52 0 5.89 156 14:20 14.05.2020
3194 Clear 26 996 50 0 5.89 156 13:57 14.05.2020
3195 Clear 26 996 48 0 5.89 156 13:38 14.05.2020
3196 Clear 26 996 48 0 5.89 156 13:38 14.05.2020
3197 Clear 27 1003 41 10000 5 140 13:19 14.05.2020
3198 Clear 27 1003 41 10000 5 140 12:57 14.05.2020
3199 Clear 28 1002 41 10000 6 130 12:37 14.05.2020
3200 Clouds 28 1002 39 10000 7 140 12:18 14.05.2020
3201 Clouds 28 1002 39 10000 7 140 11:56 14.05.2020
3202 Clouds 29 1002 37 10000 7 140 11:38 14.05.2020
3203 Clouds 30 1001 32 10000 6 150 11:19 14.05.2020
3204 Clouds 31 1001 28 10000 4 150 10:44 14.05.2020
3205 Clear 30 1001 28 10000 4 150 10:26 14.05.2020
3206 Clear 31 1002 27 10000 4 140 09:56 14.05.2020
3207 Clear 31 1002 25 10000 5 170 09:38 14.05.2020
3208 Clear 31 1002 25 10000 5 130 09:19 14.05.2020
3209 Clear 31 1003 27 10000 4 150 08:40 14.05.2020
3210 Clouds 31 1003 25 10000 4 0 08:19 14.05.2020
3211 Clouds 32 1003 27 10000 5 160 07:45 14.05.2020
3212 Clouds 32 1003 27 10000 5 160 07:22 14.05.2020
3213 Clouds 31 1004 28 10000 4 0 06:53 14.05.2020
3214 Clouds 31 1004 27 10000 6 140 06:27 14.05.2020
3215 Clouds 30 1005 28 10000 4 200 05:43 14.05.2020
3216 Clouds 30 1005 28 10000 4 200 05:22 14.05.2020
3217 Clouds 30 999 38 0 5.13 205 03:52 14.05.2020
3218 Clouds 26 1005 41 10000 3 210 03:21 14.05.2020
3219 Clouds 26 999 49 0 4.38 204 02:40 14.05.2020
3220 Clouds 26 996 51 0 3.83 200 01:53 14.05.2020
3221 Clouds 24 999 59 0 3.17 196 00:58 14.05.2020
3222 Clouds 21 1005 72 10000 2 100 00:30 14.05.2020
3223 Clouds 20 1004 72 10000 2 90 23:57 13.05.2020
3224 Clouds 23 998 62 0 2.6 191 23:38 13.05.2020
3225 Clouds 23 998 62 0 3.05 192 23:18 13.05.2020
3226 Clouds 23 998 60 0 3.05 192 22:42 13.05.2020
3227 Clouds 23 998 60 0 3.02 200 22:23 13.05.2020
3228 Clouds 23 998 59 0 3.02 200 21:59 13.05.2020
3229 Clouds 23 998 59 0 3.02 200 21:40 13.05.2020
3230 Clouds 23 1004 68 10000 3 130 21:19 13.05.2020
3231 Clouds 24 1004 64 10000 2 130 20:58 13.05.2020
3232 Clouds 24 998 55 0 4.59 202 20:39 13.05.2020
3233 Clouds 24 998 54 0 4.93 204 20:21 13.05.2020
3234 Clouds 25 998 55 0 4.93 204 19:43 13.05.2020
3235 Clouds 25 998 54 0 4.75 210 19:24 13.05.2020
3236 Clouds 25 998 56 0 4.75 210 18:45 13.05.2020
3237 Clouds 25 1005 68 10000 2 130 18:22 13.05.2020
3238 -273 0 0 0 0 0 17:59 13.05.2020
3239 Clouds 25 1005 64 10000 2 100 17:38 13.05.2020
3240 Clouds 26 1005 56 10000 2 140 17:19 13.05.2020
3241 Clouds 26 1005 56 10000 2 140 17:19 13.05.2020
3242 Clouds 27 998 57 0 4.16 205 16:41 13.05.2020
3243 Clouds 27 998 55 0 4.06 205 16:20 13.05.2020
3244 Clouds 27 998 55 0 4.06 205 15:59 13.05.2020
3245 Clouds 27 998 55 0 4.06 205 15:41 13.05.2020
3246 Clouds 27 998 54 0 4.38 205 15:18 13.05.2020
3247 Clouds 27 998 53 0 4.38 205 14:55 13.05.2020
3248 Clouds 27 1005 44 10000 4 190 14:37 13.05.2020
3249 Clouds 27 998 51 0 4.64 205 14:19 13.05.2020
3250 Clouds 27 998 51 0 4.64 205 13:54 13.05.2020
3251 Clouds 27 998 51 0 4.64 205 13:36 13.05.2020
3252 Clouds 28 1004 42 10000 4 200 13:18 13.05.2020
3253 Clouds 28 1004 39 10000 5 200 12:42 13.05.2020
3254 Clouds 30 1004 35 10000 6 180 12:21 13.05.2020
3255 Clouds 30 1004 35 10000 6 180 11:56 13.05.2020
3256 Clouds 31 1004 30 10000 7 200 11:38 13.05.2020
3257 Clouds 31 1004 25 10000 6 190 11:20 13.05.2020
3258 Clouds 31 1004 25 10000 6 190 10:58 13.05.2020
3259 Clouds 31 1004 25 10000 6 180 10:38 13.05.2020
3260 Clouds 31 1004 25 10000 6 180 10:19 13.05.2020
3261 Clouds 32 1005 27 10000 4 160 09:49 13.05.2020
3262 Clouds 32 1005 27 10000 4 160 09:49 13.05.2020
3263 Clouds 32 1005 27 10000 4 160 09:24 13.05.2020
3264 Clouds 32 998 31 0 5.61 200 08:59 13.05.2020
3265 Clouds 32 998 30 0 0.45 225 08:39 13.05.2020
3266 Clouds 33 999 28 0 4.99 199 08:20 13.05.2020
3267 Clouds 32 999 30 0 4.99 199 07:56 13.05.2020
3268 Clouds 33 999 30 0 4.99 199 07:33 13.05.2020
3269 Clouds 32 1000 29 0 4.12 198 06:55 13.05.2020
3270 Clouds 32 1000 29 0 4.12 198 06:35 13.05.2020
3271 Clouds 26 1009 38 10000 2 0 05:48 13.05.2020
3272 Clear 27 1009 38 10000 2 50 04:20 13.05.2020
3273 Clear 21 1011 45 10000 1 0 02:38 13.05.2020
3274 Clear 20 1011 59 10000 1 0 01:46 13.05.2020
3275 Clear 18 1004 55 0 1.3 51 00:58 13.05.2020
3276 Clear 14 1010 87 10000 2 360 00:25 13.05.2020
3277 Clear 17 1004 64 0 1.19 39 23:59 12.05.2020
3278 Clear 17 1004 64 0 1.19 39 23:59 12.05.2020
3279 Clear 16 1004 65 0 1.19 39 23:39 12.05.2020
3280 Clear 15 1010 93 10000 1 0 23:20 12.05.2020
3281 Clear 17 1004 65 0 1.37 15 22:42 12.05.2020
3282 Clear 17 1004 65 0 1.09 14 22:22 12.05.2020
3283 Clear 17 1001 46 0 1.09 14 21:57 12.05.2020
3284 Clear 16 1010 87 10000 1 50 21:38 12.05.2020
3285 Clear 16 1010 87 10000 1 50 21:20 12.05.2020
3286 Clear 16 1010 87 10000 2 360 20:59 12.05.2020
3287 Clear 16 1010 87 10000 2 360 20:59 12.05.2020
3288 Clear 17 1010 81 10000 1.01 348 20:40 12.05.2020
3289 Clear 17 1010 81 10000 0.86 330 20:21 12.05.2020
3290 Clear 18 1010 81 10000 2 90 19:58 12.05.2020
3291 Clear 18 1010 76 10000 1 0 19:40 12.05.2020
3292 Clear 18 1010 76 10000 1 0 19:21 12.05.2020
3293 Clear 20 1003 55 0 1.02 310 18:56 12.05.2020
3294 Clear 20 1003 53 0 1.02 310 18:38 12.05.2020
3295 Clear 19 1010 76 10000 1 90 18:20 12.05.2020
3296 Clear 19 1009 67 10000 1 120 17:43 12.05.2020
3297 Clear 19 1009 67 10000 1 120 17:24 12.05.2020
3298 Clear 20 1009 58 10000 1 150 16:47 12.05.2020
3299 Clear 20 1009 58 10000 1 150 16:26 12.05.2020
3300 Clear 21 1009 55 10000 1 0 15:57 12.05.2020
3301 Clear 22 1008 42 10000 2 190 15:39 12.05.2020
3302 Clear 22 1008 42 10000 2 190 15:39 12.05.2020
3303 Clear 22 1008 45 10000 2 160 15:19 12.05.2020
3304 Clear 22 1008 45 10000 2 160 14:57 12.05.2020
3305 Clear 23 1008 40 10000 2 160 14:38 12.05.2020
3306 Clear 23 1008 40 10000 2 160 14:20 12.05.2020
3307 Clear 24 1007 35 10000 2 180 13:58 12.05.2020
3308 Clear 24 1007 33 10000 4 180 13:40 12.05.2020
3309 Clear 24 1007 33 10000 4 180 13:20 12.05.2020
3310 Clear 25 1007 27 10000 5 190 12:58 12.05.2020
3311 Clear 25 1006 27 10000 6 170 12:39 12.05.2020
3312 Clear 25 1006 25 10000 7 180 12:21 12.05.2020
3313 Clear 25 1006 25 10000 7 180 11:58 12.05.2020
3314 Clear 26 1006 24 10000 7 200 11:39 12.05.2020
3315 Clear 26 1006 24 10000 7 200 11:21 12.05.2020
3316 Clear 27 1006 22 10000 9 190 10:58 12.05.2020
3317 Clear 28 1006 19 10000 9 210 10:40 12.05.2020
3318 Clear 28 1006 18 10000 8 190 10:22 12.05.2020
3319 Clear 28 1006 18 10000 8 190 09:59 12.05.2020
3320 Clear 29 1006 13 10000 8 200 09:39 12.05.2020
3321 Clear 29 999 22 0 3.65 295 09:21 12.05.2020
3322 Clear 29 999 22 0 3.65 295 08:57 12.05.2020
3323 Clear 29 1000 21 0 0.45 135 08:38 12.05.2020
3324 Clear 30 998 12 0 4.21 252 08:19 12.05.2020
3325 Clear 30 1000 17 0 4.21 252 07:41 12.05.2020
3326 Clear 29 1008 11 10000 3 230 07:22 12.05.2020
3327 Clear 27 1009 11 10000 4 310 06:47 12.05.2020
3328 Clear 26 1009 11 10000 4 310 06:27 12.05.2020
3329 Clear 26 1010 13 10000 4 280 05:50 12.05.2020
3330 Clear 25 1010 13 10000 4 280 05:30 12.05.2020
3331 Clear 21 1010 13 10000 7 300 03:27 12.05.2020
3332 Clear 21 1010 15 10000 8 310 02:41 12.05.2020
3333 Clear 20 1010 18 10000 7 310 02:18 12.05.2020
3334 Clear 20 1003 29 0 0.45 0 01:26 12.05.2020
3335 Clear 17 1009 18 10000 5 310 00:26 12.05.2020
3336 Clear 17 1009 18 10000 6 310 23:58 11.05.2020
3337 Clear 15 1008 20 10000 6 310 23:40 11.05.2020
3338 Clear 17 1008 20 10000 6 310 23:20 11.05.2020
3339 Clear 17 1008 21 10000 6 310 22:58 11.05.2020
3340 Clear 16 1008 23 10000 5 310 22:40 11.05.2020
3341 Clear 16 1008 23 10000 5 310 22:20 11.05.2020
3342 Clear 17 1008 25 10000 4 310 21:57 11.05.2020
3343 Clear 16 1008 27 10000 4 300 21:39 11.05.2020
3344 Clear 19 1001 31 0 2.08 317 21:19 11.05.2020
3345 Clear 18 1007 25 10000 6 300 20:57 11.05.2020
3346 Clear 18 1007 25 10000 6 300 20:38 11.05.2020
3347 Clouds 19 1001 29 0 2.01 352 20:19 11.05.2020
3348 Clouds 19 1007 29 10000 5 310 19:54 11.05.2020
3349 Clouds 19 1007 27 10000 4 350 19:36 11.05.2020
3350 Clouds 17 1007 28 10000 4 330 19:18 11.05.2020
3351 Clouds 18 1007 28 10000 4 330 18:55 11.05.2020
3352 Clouds 17 1007 36 10000 4 350 18:36 11.05.2020
3353 Clouds 18 1006 31 10000 5 350 18:18 11.05.2020
3354 Clouds 18 1006 31 10000 5 350 18:18 11.05.2020
3355 Clouds 19 1006 35 10000 5 20 17:41 11.05.2020
3356 Clouds 21 999 34 0 0.45 270 17:22 11.05.2020
3357 Dust 20 1005 30 8000 6 10 16:58 11.05.2020
3358 Dust 21 1004 28 6000 10 350 16:38 11.05.2020
3359 Clouds 22 998 34 0 1.34 315 16:20 11.05.2020
3360 Clouds 22 997 38 0 1.34 0 15:57 11.05.2020
3361 Dust 21 1003 30 4500 11 20 15:38 11.05.2020
3362 Clouds 25 1000 18 6000 7 330 15:18 11.05.2020
3363 Clouds 27 999 18 7000 7 330 14:42 11.05.2020
3364 Clouds 27 999 18 7000 7 330 14:42 11.05.2020
3365 Clouds 28 992 22 0 1.34 315 14:22 11.05.2020
3366 Clouds 28 992 23 0 0.45 0 14:22 11.05.2020
3367 Clouds 29 992 22 0 0.89 135 13:59 11.05.2020
3368 Clouds 29 991 21 0 0.89 0 13:40 11.05.2020
3369 Clouds 30 991 19 0 1.79 270 13:18 11.05.2020
3370 Clouds 30 991 19 0 1.79 270 13:18 11.05.2020
3371 Clouds 30 988 11 0 3.6 273 12:56 11.05.2020
3372 Clouds 30 988 11 0 3.6 273 12:56 11.05.2020
3373 Clouds 30 990 22 0 3.6 273 12:38 11.05.2020
3374 Clouds 30 990 22 0 6.35 288 12:19 11.05.2020
3375 Clouds 31 990 16 0 0.89 45 11:55 11.05.2020
3376 Clouds 31 990 17 0 0.45 135 11:37 11.05.2020
3377 Clouds 31 991 17 0 0.45 180 11:18 11.05.2020
3378 Clouds 31 991 17 0 7.43 293 11:18 11.05.2020
3379 Clouds 31 991 17 0 7.43 293 10:54 11.05.2020
3380 Clouds 30 991 20 0 6.92 295 10:36 11.05.2020
3381 Clouds 30 991 18 0 6.92 295 10:18 11.05.2020
3382 Clouds 30 992 19 0 6.92 295 09:42 11.05.2020
3383 Clouds 29 1000 13 10000 6 240 09:22 11.05.2020
3384 Clear 28 1001 12 10000 8 280 08:58 11.05.2020
3385 Clear 28 1001 12 10000 8 280 08:58 11.05.2020
3386 Clear 30 994 17 0 6.2 281 08:38 11.05.2020
3387 Clear 29 995 17 0 6.02 266 08:18 11.05.2020
3388 Clear 28 996 18 0 6.02 266 07:50 11.05.2020
3389 Clear 29 996 17 0 6.27 261 07:31 11.05.2020
3390 Clear 28 1004 10 10000 8 270 06:52 11.05.2020
3391 Clear 26 1006 10 10000 9 260 06:18 11.05.2020
3392 Clear 25 1007 11 10000 9 280 05:30 11.05.2020
3393 Clear 24 1008 11 10000 8 260 04:43 11.05.2020
3394 Clear 24 1002 17 0 0.89 315 03:35 11.05.2020
3395 Clouds 21 1011 15 10000 6 260 02:34 11.05.2020
3396 Clouds 19 1011 20 10000 4 270 01:46 11.05.2020
3397 Clouds 18 1011 18 10000 4 260 00:54 11.05.2020
3398 Clouds 18 1011 18 10000 4 260 00:22 11.05.2020
3399 Clouds 17 1011 23 10000 4 290 23:45 10.05.2020
3400 Clouds 17 1011 23 10000 4 290 23:26 10.05.2020
3401 Clouds 17 1012 25 10000 3 270 22:58 10.05.2020
3402 Clouds 17 1012 25 10000 3 270 22:40 10.05.2020
3403 Clouds 16 1012 25 10000 3 270 22:22 10.05.2020
3404 Clouds 16 1012 50 10000 1 0 21:44 10.05.2020
3405 Clouds 16 1012 50 10000 1 0 21:21 10.05.2020
3406 Clouds 16 1012 50 10000 1 0 21:21 10.05.2020
3407 Clouds 16 1012 50 10000 1 0 20:56 10.05.2020
3408 Clouds 16 1013 50 10000 1 0 20:38 10.05.2020
3409 Clouds 16 1013 50 10000 1 0 20:20 10.05.2020
3410 Clouds 16 1013 41 10000 1 0 19:54 10.05.2020
3411 Clouds 17 1013 33 10000 1 0 19:36 10.05.2020
3412 Clouds 18 1013 27 10000 3 360 19:18 10.05.2020
3413 Clouds 16 1013 27 10000 3 360 18:54 10.05.2020
3414 Clouds 16 1013 31 10000 3 350 18:36 10.05.2020
3415 Clouds 17 1013 31 10000 2 340 18:18 10.05.2020
3416 Clouds 17 1013 29 10000 1 0 17:41 10.05.2020
3417 Clouds 21 1006 25 0 3.29 335 17:22 10.05.2020
3418 Clouds 21 1006 24 0 3.29 335 16:59 10.05.2020
3419 Clouds 20 1013 18 10000 7 330 16:41 10.05.2020
3420 Clouds 22 1006 25 0 3.3 331 16:19 10.05.2020
3421 Clouds 22 1006 25 0 3.3 331 15:57 10.05.2020
3422 Clouds 22 1006 23 0 0.45 315 15:36 10.05.2020
3423 Clouds 22 1006 23 0 0.45 0 15:18 10.05.2020
3424 Clouds 21 1012 16 10000 7 320 14:55 10.05.2020
3425 Clouds 21 1011 18 10000 7 320 14:37 10.05.2020
3426 Clear 23 1005 25 0 4.35 331 14:18 10.05.2020
3427 Clear 24 1005 23 0 4.35 331 13:39 10.05.2020
3428 Clear 24 1004 21 0 0.45 0 13:21 10.05.2020
3429 Clear 24 1004 21 0 5.34 319 12:59 10.05.2020
3430 Clear 25 1004 22 0 5.34 319 12:41 10.05.2020
3431 Clear 25 1004 22 0 6.33 316 12:21 10.05.2020
3432 Clear 26 1003 21 0 6.33 316 11:58 10.05.2020
3433 Clear 26 1003 21 0 6.33 316 11:58 10.05.2020
3434 Clear 26 1003 20 0 0.45 0 11:39 10.05.2020
3435 Clear 26 1003 20 0 0.45 0 11:39 10.05.2020
3436 Clear 26 1003 21 0 0.89 338 11:20 10.05.2020
3437 Clear 27 1003 20 0 0.89 0 10:48 10.05.2020
3438 Clear 27 1003 20 0 1.34 0 10:29 10.05.2020
3439 Clear 26 1009 14 10000 10 330 09:59 10.05.2020
3440 Clear 26 1009 15 10000 9 330 09:40 10.05.2020
3441 Clear 26 1009 15 10000 9 330 09:21 10.05.2020
3442 Clear 27 1009 13 10000 8 330 08:52 10.05.2020
3443 Clear 27 1009 13 10000 8 280 08:24 10.05.2020
3444 Clear 27 1009 14 10000 10 280 07:56 10.05.2020
3445 Clear 26 1010 12 10000 9 270 07:37 10.05.2020
3446 Clear 25 1010 12 10000 9 270 07:19 10.05.2020
3447 Clear 27 1004 18 0 1.34 0 06:48 10.05.2020
3448 Clear 25 1010 13 10000 9 270 06:21 10.05.2020
3449 Clear 25 1011 14 10000 8 280 05:43 10.05.2020
3450 Clear 25 1005 19 0 0.45 315 04:41 10.05.2020
3451 Clear 24 1005 20 0 1.34 0 04:22 10.05.2020
3452 Clear 24 1004 20 0 0.89 23 03:41 10.05.2020
3453 Clear 22 1010 18 10000 7 310 02:54 10.05.2020
3454 Clouds 21 1010 26 10000 5 310 02:24 10.05.2020
3455 Clouds 21 1010 26 10000 5 310 02:24 10.05.2020
3456 Clouds 19 1010 42 10000 5 330 01:43 10.05.2020
3457 Clouds 21 1010 42 10000 5 330 01:23 10.05.2020
3458 Clouds 19 1009 93 10000 1 0 00:58 10.05.2020
3459 Clouds 18 1009 93 6000 1 0 00:37 10.05.2020
3460 Mist 15 1009 93 5000 1 0 00:19 10.05.2020
3461 Mist 14 1009 93 5000 2 350 23:39 09.05.2020
3462 Clouds 16 1003 87 0 1.59 329 23:21 09.05.2020
3463 Mist 14 1008 100 4500 2 360 22:55 09.05.2020
3464 Clouds 15 1003 94 0 1.59 329 22:37 09.05.2020
3465 Mist 14 1008 93 4500 1 0 22:19 09.05.2020
3466 Mist 15 1008 93 4500 1 0 21:55 09.05.2020
3467 Mist 16 1008 93 4500 1 0 21:36 09.05.2020
3468 Mist 15 1008 100 4500 1 0 21:18 09.05.2020
3469 Mist 15 1008 100 4500 1 0 20:54 09.05.2020
3470 Mist 15 1008 100 5000 1 350 20:36 09.05.2020
3471 Mist 16 1008 93 5000 1 0 20:18 09.05.2020
3472 Mist 17 1008 93 5000 1 0 19:39 09.05.2020
3473 Mist 17 1008 93 5000 1 0 19:20 09.05.2020
3474 Mist 17 1007 93 5000 1 0 18:55 09.05.2020
3475 Mist 17 1008 93 5000 1 0 18:37 09.05.2020
3476 Mist 17 1008 93 5000 1 0 18:37 09.05.2020
3477 Clouds 17 1008 87 6000 2 320 18:18 09.05.2020
3478 Clouds 17 1007 93 6000 2 130 17:41 09.05.2020
3479 Clouds 17 1007 93 6000 2 130 17:22 09.05.2020
3480 Clouds 18 1007 87 8000 1 0 16:41 09.05.2020
3481 Clouds 18 1007 87 8000 1 0 16:20 09.05.2020
3482 Clouds 18 1007 87 10000 2 150 15:54 09.05.2020
3483 Clouds 19 1007 82 10000 2 150 15:36 09.05.2020
3484 Clouds 20 1006 77 10000 1 0 15:18 09.05.2020
3485 Clouds 21 1006 72 10000 3 170 14:42 09.05.2020
3486 Clouds 20 1006 77 10000 2 160 14:20 09.05.2020
3487 Clouds 17 1006 77 10000 2 160 13:58 09.05.2020
3488 Clouds 19 1006 68 10000 2 170 13:40 09.05.2020
3489 Clouds 20 1006 68 10000 2 170 13:20 09.05.2020
3490 Clouds 20 1005 64 10000 3 180 12:55 09.05.2020
3491 Clouds 22 1005 60 10000 3 180 12:37 09.05.2020
3492 Clouds 23 1006 64 10000 3 190 12:19 09.05.2020
3493 Clouds 23 1006 56 10000 3 180 11:42 09.05.2020
3494 Clouds 23 1006 56 10000 3 170 11:19 09.05.2020
3495 Clouds 23 1006 56 10000 3 180 10:47 09.05.2020
3496 Clouds 23 1006 56 10000 3 180 10:26 09.05.2020
3497 Clouds 23 1006 56 10000 3 210 09:58 09.05.2020
3498 Clouds 23 1000 63 0 4.34 198 09:40 09.05.2020
3499 Clouds 22 1007 56 10000 3 0 09:19 09.05.2020
3500 Clouds 22 1007 56 10000 3 0 08:51 09.05.2020
3501 Clouds 22 998 73 0 4.71 199 08:33 09.05.2020
3502 Clouds 22 1007 60 10000 3 220 07:54 09.05.2020
3503 Clouds 22 1007 64 8000 4 210 07:36 09.05.2020
3504 Clouds 22 1008 64 8000 3 0 07:18 09.05.2020
3505 Clouds 21 1008 68 8000 2 0 06:26 09.05.2020
3506 Clouds 20 1008 72 8000 2 240 05:49 09.05.2020
3507 Clouds 19 1003 74 0 2.32 210 04:53 09.05.2020
3508 Clouds 19 1000 81 0 0.99 222 03:39 09.05.2020
3509 Clouds 16 1003 82 0 0.98 229 02:50 09.05.2020
3510 Clouds 15 1003 83 0 1.36 252 01:54 09.05.2020
3511 Clouds 15 1003 81 0 1 212 01:27 09.05.2020
3512 Clouds 14 1003 85 0 1 212 00:59 09.05.2020
3513 Clouds 14 1003 89 0 1 212 00:38 09.05.2020
3514 Mist 12 1009 100 4000 1 350 23:58 08.05.2020
3515 Mist 12 1009 100 4000 1 360 23:39 08.05.2020
3516 Clouds 11 1003 92 0 0.27 280 23:19 08.05.2020
3517 Clouds 11 1003 93 0 0.27 280 22:54 08.05.2020
3518 Clouds 11 1004 93 0 0.27 280 22:36 08.05.2020
3519 Clouds 11 1004 92 0 0.62 247 22:18 08.05.2020
3520 Clouds 11 1004 92 0 0.62 247 22:18 08.05.2020
3521 Clouds 12 1004 91 0 0.62 247 21:42 08.05.2020
3522 Clouds 12 1005 89 0 0.64 191 21:19 08.05.2020
3523 Clouds 12 1005 89 0 0.64 191 21:19 08.05.2020
3524 Clouds 13 1005 90 0 0.64 191 20:59 08.05.2020
3525 Clouds 13 1005 89 0 0.64 191 20:41 08.05.2020
3526 Clouds 13 1005 88 0 0.99 142 20:23 08.05.2020
3527 Clouds 14 1005 85 0 0.99 142 19:56 08.05.2020
3528 Clouds 14 1005 84 0 0.99 142 19:37 08.05.2020
3529 Clouds 14 1005 84 0 1.32 119 19:19 08.05.2020
3530 Clouds 14 1006 82 0 1.32 119 18:44 08.05.2020
3531 Clouds 14 1012 87 10000 1 0 18:26 08.05.2020
3532 Clouds 15 1013 72 10000 2 220 17:43 08.05.2020
3533 Clouds 15 1013 72 10000 3 230 17:20 08.05.2020
3534 Clouds 14 1013 72 10000 3 230 16:55 08.05.2020
3535 Clouds 14 1013 76 10000 3 210 16:37 08.05.2020
3536 Clouds 14 1013 76 10000 3 220 16:18 08.05.2020
3537 Clouds 14 1013 76 10000 2 180 15:42 08.05.2020
3538 Clouds 14 1013 76 10000 2 180 15:20 08.05.2020
3539 Rain 14 1012 82 10000 2 160 14:56 08.05.2020
3540 Rain 14 1012 82 10000 2 160 14:56 08.05.2020
3541 Rain 14 1012 82 10000 2 150 14:37 08.05.2020
3542 Rain 14 1012 93 7000 2 140 14:18 08.05.2020
3543 Rain 14 1012 93 3200 4 130 13:41 08.05.2020
3544 Rain 14 1012 93 3200 4 130 13:41 08.05.2020
3545 Clouds 14 1006 82 0 2.36 128 13:20 08.05.2020
3546 Clouds 15 1006 84 0 2.36 128 12:59 08.05.2020
3547 Clouds 15 1006 84 0 2.36 128 12:38 08.05.2020
3548 Clouds 15 1006 84 0 2.68 128 12:20 08.05.2020
3549 Clouds 15 1012 77 10000 2 160 11:44 08.05.2020
3550 Clouds 15 1012 77 10000 2 160 11:23 08.05.2020
3551 Clouds 16 1012 77 10000 2 180 10:59 08.05.2020
3552 Clouds 16 1012 82 10000 1 160 10:40 08.05.2020
3553 Clouds 16 1006 84 0 2.04 106 10:19 08.05.2020
3554 Clouds 16 1006 83 0 2.04 106 09:56 08.05.2020
3555 Clouds 16 1006 85 0 2.04 106 09:38 08.05.2020
3556 Rain 16 1006 85 0 2.5 95 09:18 08.05.2020
3557 Rain 16 1006 85 0 2.5 95 09:18 08.05.2020
3558 Rain 16 1006 88 0 2.5 95 08:42 08.05.2020
3559 Rain 16 1007 90 0 2.81 91 08:22 08.05.2020
3560 Rain 15 1007 92 0 2.81 91 07:43 08.05.2020
3561 Rain 16 1007 92 0 3.07 93 07:24 08.05.2020
3562 Rain 15 1007 93 0 3.07 93 06:51 08.05.2020
3563 Rain 15 1007 91 0 3.31 93 06:24 08.05.2020
3564 Rain 15 1007 92 0 3.31 93 05:51 08.05.2020
3565 Rain 14 1008 92 0 3.27 91 04:41 08.05.2020
3566 Rain 14 1007 94 0 2.98 84 02:35 08.05.2020
3567 Rain 14 1007 94 0 2.87 78 01:56 08.05.2020
3568 Rain 14 1007 93 0 2.92 67 01:28 08.05.2020
3569 Rain 14 1007 93 0 2.92 67 00:53 08.05.2020
3570 Rain 14 1012 93 1700 2 110 00:32 08.05.2020
3571 Rain 14 1012 93 2500 2 120 23:59 07.05.2020
3572 Rain 14 1012 93 3000 1 0 23:40 07.05.2020
3573 Rain 14 1012 93 3000 1 0 23:22 07.05.2020
3574 Rain 14 1012 93 3000 1 0 22:56 07.05.2020
3575 Rain 14 1013 93 3500 1 0 22:38 07.05.2020
3576 Rain 14 1012 93 4000 2 80 22:19 07.05.2020
3577 Rain 14 1007 94 0 0.45 315 21:55 07.05.2020
3578 Rain 15 1006 94 0 3.21 103 21:37 07.05.2020
3579 Rain 15 1006 94 0 3.32 87 21:19 07.05.2020
3580 Rain 15 1006 94 0 3.21 103 20:42 07.05.2020
3581 Rain 15 1006 94 0 2.83 97 20:23 07.05.2020
3582 Rain 15 1007 94 0 2.83 97 19:58 07.05.2020
3583 Rain 15 1007 94 0 2.83 97 19:38 07.05.2020
3584 Rain 15 1007 94 0 2.48 96 19:20 07.05.2020
3585 Rain 15 1007 93 0 2.48 96 18:45 07.05.2020
3586 Rain 15 1007 92 0 1.63 98 18:26 07.05.2020
3587 Rain 16 1007 92 0 1.63 98 17:57 07.05.2020
3588 Rain 16 1007 92 0 1.63 98 17:36 07.05.2020
3589 Rain 16 1007 92 0 1.34 97 17:18 07.05.2020
3590 Rain 16 1007 93 0 1.34 97 16:40 07.05.2020
3591 Rain 17 1013 82 5000 3 80 16:18 07.05.2020
3592 Rain 16 1007 93 0 0.86 140 15:56 07.05.2020
3593 Rain 17 1006 92 0 0.86 140 15:37 07.05.2020
3594 Rain 17 1007 91 0 1.42 171 15:18 07.05.2020
3595 Rain 18 1006 78 0 1.42 171 14:44 07.05.2020
3596 Clouds 18 1006 76 0 3.65 177 14:21 07.05.2020
3597 Clouds 18 1006 73 0 3.65 177 13:45 07.05.2020
3598 Clouds 20 1005 73 0 4.45 176 13:26 07.05.2020
3599 Clouds 20 1005 72 0 4.45 176 12:58 07.05.2020
3600 Clouds 20 1005 71 0 4.45 176 12:39 07.05.2020
3601 Haze 20 1011 68 5000 2 100 12:19 07.05.2020
3602 Clouds 21 1005 67 0 5.02 173 11:39 07.05.2020
3603 Clouds 21 1004 65 0 4.96 178 11:21 07.05.2020
3604 Clouds 21 1004 63 0 4.96 178 10:54 07.05.2020
3605 Clouds 21 1004 61 0 4.96 178 10:36 07.05.2020
3606 Clouds 22 1011 63 6000 2 130 10:18 07.05.2020
3607 Clouds 22 1011 63 7000 3 130 09:38 07.05.2020
3608 Clouds 22 1011 63 7000 2 90 09:18 07.05.2020
3609 Clouds 20 1012 59 7000 2 90 08:43 07.05.2020
3610 Clouds 20 1012 59 7000 2 90 08:23 07.05.2020
3611 Clouds 21 1012 59 7000 2 140 07:58 07.05.2020
3612 Clouds 20 1005 52 0 2.58 152 07:39 07.05.2020
3613 Clouds 21 1005 48 0 2.18 136 07:20 07.05.2020
3614 Clouds 22 1006 52 0 2.18 136 06:37 07.05.2020
3615 Clouds 19 1006 56 0 1.89 112 06:18 07.05.2020
3616 Clouds 18 1006 58 0 1.81 84 04:28 07.05.2020
3617 Clouds 17 1006 61 0 1.81 84 03:38 07.05.2020
3618 Clouds 17 1006 61 0 2.19 78 03:18 07.05.2020
3619 Clouds 16 1006 61 0 1.96 84 02:26 07.05.2020
3620 Clouds 16 1006 62 0 1.96 84 01:37 07.05.2020
3621 Clouds 16 1006 61 0 2.26 73 01:19 07.05.2020
3622 Clouds 16 1006 61 0 2.26 73 00:42 07.05.2020
3623 Clouds 16 1006 61 0 2.57 82 00:21 07.05.2020
3624 Clouds 17 1006 62 0 2.57 82 23:44 06.05.2020
3625 Clouds 16 1005 65 0 2.73 93 23:22 06.05.2020
3626 Clouds 17 1005 66 0 2.73 93 22:55 06.05.2020
3627 Clouds 17 1005 64 0 2.73 93 22:37 06.05.2020
3628 Clouds 17 1005 62 0 2.87 89 22:18 06.05.2020
3629 Clouds 17 1005 57 0 2.87 89 21:55 06.05.2020
3630 Clouds 17 1005 57 0 2.87 89 21:36 06.05.2020
3631 Clouds 17 1005 57 0 2.54 76 21:18 06.05.2020
3632 Clouds 17 1006 55 0 2.54 76 20:39 06.05.2020
3633 Clouds 17 1006 55 0 2.8 89 20:21 06.05.2020
3634 Clouds 18 1006 53 0 2.8 89 19:56 06.05.2020
3635 Clouds 18 1006 52 0 2.8 89 19:38 06.05.2020
3636 Clouds 18 1013 59 10000 2 140 19:19 06.05.2020
3637 Clouds 18 1013 59 10000 2 140 18:58 06.05.2020
3638 Clouds 18 1013 59 10000 2 140 18:58 06.05.2020
3639 Clouds 18 1013 55 10000 3 130 18:38 06.05.2020
3640 Clouds 18 1013 55 10000 3 130 18:38 06.05.2020
3641 Clouds 18 1013 55 10000 3 130 18:20 06.05.2020
3642 Clouds 19 1013 59 10000 2 130 17:55 06.05.2020
3643 Clouds 19 1014 55 10000 3 140 17:37 06.05.2020
3644 Clouds 19 1014 55 10000 3 140 17:37 06.05.2020
3645 Clouds 19 1014 55 10000 2 160 17:18 06.05.2020
3646 Clouds 21 1007 40 0 2.76 125 16:58 06.05.2020
3647 Clouds 21 1005 32 0 2.76 125 16:40 06.05.2020
3648 Clouds 21 1008 45 0 3.34 128 16:20 06.05.2020
3649 Clouds 22 1008 53 0 3.34 128 15:56 06.05.2020
3650 Clouds 22 1008 51 0 0.45 225 15:38 06.05.2020
3651 Clouds 22 1007 56 0 4.02 129 15:18 06.05.2020
3652 Clouds 23 1007 57 0 4.02 129 14:40 06.05.2020
3653 Clouds 23 1007 56 0 4.68 125 14:19 06.05.2020
3654 Clouds 23 1006 56 0 4.68 125 13:59 06.05.2020
3655 Clouds 23 1006 56 0 4.68 125 13:39 06.05.2020
3656 Clouds 23 1006 54 0 5.04 133 13:19 06.05.2020
3657 Clouds 23 1006 54 0 5.04 133 13:19 06.05.2020
3658 Clouds 24 1012 49 8000 4 130 12:44 06.05.2020
3659 Clouds 24 1012 49 8000 4 130 12:26 06.05.2020
3660 Clouds 25 1012 53 7000 4 130 11:56 06.05.2020
3661 Clouds 26 1012 50 6000 5 120 11:37 06.05.2020
3662 Clouds 26 1012 50 6000 3 140 11:19 06.05.2020
3663 Clouds 26 1005 55 0 5.67 146 10:56 06.05.2020
3664 Clouds 26 1005 54 0 5.67 146 10:37 06.05.2020
3665 Clouds 26 1012 50 7000 4 140 10:18 06.05.2020
3666 Clouds 27 1012 44 7000 4 140 09:39 06.05.2020
3667 Clouds 27 1012 44 7000 4 140 09:21 06.05.2020
3668 Clouds 27 1013 44 7000 4 130 08:45 06.05.2020
3669 Clouds 28 1006 46 0 4.04 160 08:21 06.05.2020
3670 Clouds 28 1007 45 0 4.04 160 07:58 06.05.2020
3671 Clouds 28 1007 47 0 4.04 160 07:39 06.05.2020
3672 Clouds 28 1007 48 0 3.5 158 07:20 06.05.2020
3673 Clouds 28 1008 48 0 3.5 158 06:49 06.05.2020
3674 Clouds 26 1008 47 0 0.45 0 06:21 06.05.2020
3675 Haze 24 1016 53 5000 1 0 05:50 06.05.2020
3676 Clouds 24 1009 54 0 3.02 143 05:32 06.05.2020
3677 Clouds 26 1010 58 0 2.18 110 04:22 06.05.2020
3678 Haze 21 1016 60 4000 1 0 03:36 06.05.2020
3679 Haze 20 1016 64 4000 1 0 02:58 06.05.2020
3680 Clouds 20 1010 78 0 1.95 78 02:28 06.05.2020
3681 Clouds 18 1010 83 0 1.95 78 01:53 06.05.2020
3682 Clouds 18 1009 84 0 2.08 84 01:27 06.05.2020
3683 Clouds 17 1009 85 0 2.08 84 00:45 06.05.2020
3684 Clouds 17 1009 85 0 2.05 81 00:23 06.05.2020
3685 Clouds 16 1008 87 0 2.05 81 23:42 05.05.2020
3686 Clouds 17 1008 87 0 1.72 82 23:20 05.05.2020
3687 Clouds 17 1007 85 0 1.72 82 22:57 05.05.2020
3688 Clouds 17 1007 85 0 1.72 82 22:39 05.05.2020
3689 Clouds 17 1007 85 0 1.61 80 22:19 05.05.2020
3690 Mist 17 1012 87 4500 1 0 21:56 05.05.2020
3691 Mist 16 1012 87 4500 1 110 21:38 05.05.2020
3692 Clouds 19 1003 84 0 1.56 73 21:19 05.05.2020
3693 Clouds 18 1006 87 0 1.65 84 20:56 05.05.2020
3694 Clouds 18 1006 87 0 1.65 84 20:37 05.05.2020
3695 Clouds 18 1006 90 0 1.56 86 20:18 05.05.2020
3696 Clouds 18 1005 89 0 1.56 86 19:41 05.05.2020
3697 Clouds 19 1002 83 0 1.65 100 19:23 05.05.2020
3698 Clouds 19 1005 89 0 1.65 100 18:57 05.05.2020
3699 Clouds 19 1005 88 0 1.65 100 18:39 05.05.2020
3700 Clouds 19 1011 87 6000 2 140 18:20 05.05.2020
3701 Clouds 19 1011 87 6000 2 140 17:57 05.05.2020
3702 Clouds 19 1010 77 7000 3 150 17:39 05.05.2020
3703 Clouds 19 1010 77 7000 3 150 17:21 05.05.2020
3704 Clouds 19 1010 77 8000 3 150 16:54 05.05.2020
3705 Clouds 19 1010 77 10000 3 140 16:36 05.05.2020
3706 Clear 20 1010 72 10000 2 150 16:18 05.05.2020
3707 Clear 20 1009 72 10000 2 130 15:40 05.05.2020
3708 Clear 21 1009 72 10000 2 130 15:21 05.05.2020
3709 Clear 22 1009 68 10000 2 150 14:56 05.05.2020
3710 Clear 22 1009 68 10000 2 130 14:38 05.05.2020
3711 Clouds 22 1009 68 10000 2 130 14:19 05.05.2020
3712 Clouds 22 1008 63 10000 2 150 13:57 05.05.2020
3713 Clouds 24 1008 49 10000 2 150 13:38 05.05.2020
3714 Clouds 22 1007 46 10000 4 160 13:19 05.05.2020
3715 Clouds 22 1007 46 10000 4 160 12:58 05.05.2020
3716 Clouds 23 1007 43 10000 4 160 12:38 05.05.2020
3717 Clouds 23 1007 43 10000 5 180 12:19 05.05.2020
3718 Clouds 26 1008 38 10000 5 200 11:42 05.05.2020
3719 Clouds 26 1007 41 10000 5 180 11:20 05.05.2020
3720 Clouds 26 1008 38 10000 5 200 11:20 05.05.2020
3721 Clouds 26 1007 41 10000 5 180 10:59 05.05.2020
3722 Clouds 26 1008 44 10000 5 170 10:38 05.05.2020
3723 Clouds 26 1008 47 10000 5 180 10:19 05.05.2020
3724 Clouds 26 1008 47 10000 5 180 09:55 05.05.2020
3725 Clouds 26 1008 47 10000 4 180 09:37 05.05.2020
3726 Clouds 26 1008 47 8000 5 190 09:19 05.05.2020
3727 Clouds 25 1009 49 7000 5 180 08:41 05.05.2020
3728 Clouds 26 1009 49 6000 5 180 08:20 05.05.2020
3729 Clouds 24 1009 49 6000 5 180 07:57 05.05.2020
3730 Clouds 24 1009 53 6000 5 180 07:38 05.05.2020
3731 Clear 25 1010 56 7000 4 200 07:18 05.05.2020
3732 Clear 24 1004 56 0 3.38 205 06:42 05.05.2020
3733 Clear 24 1004 56 0 2.7 203 06:20 05.05.2020
3734 Clear 23 1004 58 0 2.7 203 05:34 05.05.2020
3735 Clear 17 1012 67 10000 2 260 03:24 05.05.2020
3736 Clouds 17 1006 84 0 0.27 123 01:25 05.05.2020
3737 Clouds 16 1006 86 0 0.27 123 00:50 05.05.2020
3738 Clouds 12 1012 93 7000 1 0 00:20 05.05.2020
3739 Clouds 12 1012 93 8000 0.39 114 23:43 04.05.2020
3740 Clouds 12 1012 93 8000 0.2 111 23:21 04.05.2020
3741 Clouds 11 1012 100 8000 1 40 22:56 04.05.2020
3742 Clouds 12 1012 93 8000 1 50 22:38 04.05.2020
3743 Clouds 12 1012 93 8000 2 60 22:19 04.05.2020
3744 Clouds 12 1012 93 8000 2 60 21:53 04.05.2020
3745 Clouds 12 1012 93 8000 2 60 21:53 04.05.2020
3746 Clouds 12 1012 93 8000 2 60 21:53 04.05.2020
3747 Clouds 12 1012 93 8000 1 100 21:53 04.05.2020
3748 Clouds 12 1012 93 8000 2 60 21:53 04.05.2020
3749 Clouds 12 1012 93 8000 1 100 21:30 04.05.2020
3750 Clouds 12 1012 93 8000 1 100 21:30 04.05.2020
3751 Clouds 12 1013 100 8000 1 130 20:44 04.05.2020
3752 Clouds 12 1013 100 8000 1 130 20:23 04.05.2020
3753 Clouds 13 1013 93 10000 1 120 19:59 04.05.2020
3754 Clouds 12 1013 93 10000 1 130 19:41 04.05.2020
3755 Clouds 12 1013 93 10000 1 130 19:21 04.05.2020
3756 Clouds 12 1013 93 10000 1 140 18:56 04.05.2020
3757 Clouds 13 1014 87 10000 2 150 18:37 04.05.2020
3758 Clouds 15 1008 90 0 2.5 197 18:18 04.05.2020
3759 Clouds 15 1008 90 0 2.5 197 18:18 04.05.2020
3760 Clouds 15 1008 90 0 2.5 197 17:55 04.05.2020
3761 Clouds 15 1014 87 10000 1 150 17:37 04.05.2020
3762 Clouds 15 1008 89 0 2.84 198 17:18 04.05.2020
3763 Clouds 15 1008 87 0 2.84 198 16:42 04.05.2020
3764 Clouds 15 1008 87 0 3.14 195 16:21 04.05.2020
3765 Clouds 16 1008 85 0 3.14 195 15:46 04.05.2020
3766 Clouds 16 1008 85 0 3.14 195 15:46 04.05.2020
3767 Clouds 16 1014 76 10000 3 170 15:25 04.05.2020
3768 Clouds 16 1014 76 10000 3 170 15:25 04.05.2020
3769 Clouds 16 1014 76 10000 3 170 14:58 04.05.2020
3770 Clouds 17 1008 81 0 3.18 198 14:39 04.05.2020
3771 Clouds 17 1008 81 0 3.18 198 14:39 04.05.2020
3772 Clouds 17 1008 81 0 3.18 198 14:38 04.05.2020
3773 Clouds 17 1008 81 0 3.18 198 14:38 04.05.2020
3774 Clouds 17 1008 81 0 3.18 198 14:38 04.05.2020
3775 Clouds 17 1014 67 10000 4 180 13:59 04.05.2020
3776 Clouds 17 1014 67 10000 4 180 13:59 04.05.2020
3777 Clouds 17 1008 70 0 3.73 201 12:49 04.05.2020
3778 Clouds 17 1008 70 0 3.73 201 12:49 04.05.2020
3779 Clouds 17 1008 70 0 3.73 201 12:49 04.05.2020
3780 Clouds 17 1008 70 0 3.73 201 12:49 04.05.2020
3781 Clouds 17 1008 70 0 3.73 201 12:49 04.05.2020
3782 Clouds 18 1014 59 10000 5 180 12:24 04.05.2020
3783 Clouds 18 1014 59 10000 5 180 12:24 04.05.2020
3784 Clouds 18 1014 59 10000 5 180 12:24 04.05.2020
3785 Clouds 18 1014 59 10000 5 180 12:24 04.05.2020
3786 Clouds 20 1006 68 0 3.82 206 09:33 04.05.2020
3787 Clouds 20 1009 64 0 3.74 207 09:02 04.05.2020
3788 Clouds 20 1009 63 0 3.74 207 09:02 04.05.2020
3789 Clouds 20 1009 64 0 3.74 207 09:02 04.05.2020
3790 Clouds 20 1009 63 0 3.74 207 09:02 04.05.2020
3791 Clouds 20 1009 64 0 3.74 207 09:02 04.05.2020
3792 Clouds 20 1011 62 0 3.31 205 07:51 04.05.2020
3793 Clouds 20 1011 62 0 3.31 205 07:51 04.05.2020
3794 Clouds 20 1011 62 0 3.31 205 07:51 04.05.2020
3795 Clouds 20 1011 62 0 3.31 205 07:51 04.05.2020
3796 Clouds 20 1011 62 0 3.31 205 07:51 04.05.2020
3797 Clouds 21 1011 60 0 3.33 202 07:28 04.05.2020
3798 Clouds 21 1011 60 0 3.33 202 07:28 04.05.2020
3799 Clouds 21 1011 60 0 3.33 202 07:28 04.05.2020
3800 Clouds 21 1011 60 0 3.33 202 07:27 04.05.2020
3801 Clouds 21 1011 60 0 3.33 202 07:27 04.05.2020
3802 Clouds 18 1013 63 0 3.42 200 04:57 04.05.2020
3803 Clouds 16 1012 74 0 3.23 189 03:21 04.05.2020
3804 Clouds 16 1012 74 0 3.23 189 03:21 04.05.2020
3805 Clouds 16 1012 74 0 3.54 189 02:31 04.05.2020
3806 Clouds 16 1011 77 0 3.27 192 00:45 04.05.2020
3807 Clouds 16 1010 74 0 3.66 191 23:46 03.05.2020
3808 Rain 16 1010 76 0 3.39 168 23:25 03.05.2020
3809 Rain 16 1009 78 0 3.39 168 22:57 03.05.2020
3810 Rain 17 1009 78 0 3.39 168 22:39 03.05.2020
3811 Clouds 17 1009 77 0 2.58 156 22:21 03.05.2020
3812 Clouds 17 1009 74 0 2.58 156 21:41 03.05.2020
3813 Clouds 18 1008 72 0 2.66 136 21:21 03.05.2020
3814 Clouds 18 1008 73 0 2.66 136 20:47 03.05.2020
3815 Clouds 18 1008 73 0 2.66 136 20:47 03.05.2020
3816 Clouds 19 1008 72 0 2.97 122 20:23 03.05.2020
3817 Clouds 19 1008 72 0 2.97 122 19:56 03.05.2020
3818 Clouds 19 1008 72 0 2.97 122 19:37 03.05.2020
3819 Clouds 19 1008 72 0 2.97 122 19:37 03.05.2020
3820 Clouds 19 1007 71 0 3.37 107 19:18 03.05.2020
3821 Clouds 20 1007 68 0 3.37 107 18:39 03.05.2020
3822 Clouds 20 1007 69 0 2.94 130 18:20 03.05.2020
3823 Clouds 20 1007 70 0 2.94 130 17:56 03.05.2020
3824 Clouds 20 1006 70 0 2.94 130 17:37 03.05.2020
3825 Clouds 21 1006 71 0 3.38 136 17:19 03.05.2020
3826 Clouds 21 1005 70 0 3.38 136 16:40 03.05.2020
3827 Clouds 21 1005 70 0 3.38 136 16:40 03.05.2020
3828 Clouds 21 1005 73 0 3.84 135 16:19 03.05.2020
3829 Clouds 21 1005 73 0 3.84 135 15:56 03.05.2020
3830 Clouds 21 1005 74 0 3.84 135 15:38 03.05.2020
3831 Haze 21 1011 73 5000 4 170 15:19 03.05.2020
3832 Clouds 21 1005 71 0 3.32 94 14:55 03.05.2020
3833 Clouds 21 1004 71 0 3.88 96 14:37 03.05.2020
3834 Clouds 22 1004 70 0 3.71 93 14:19 03.05.2020
3835 Clouds 22 1003 70 0 3.71 93 13:37 03.05.2020
3836 Haze 23 1007 64 5000 2 120 12:52 03.05.2020
3837 Clouds 26 1007 64 6000 4 120 12:29 03.05.2020
3838 Clouds 26 1007 64 6000 4 120 12:29 03.05.2020
3839 Clouds 26 1006 64 6000 4 100 11:58 03.05.2020
3840 Clouds 28 1005 61 6000 3 150 11:40 03.05.2020
3841 Clouds 27 1005 61 6000 3 150 11:40 03.05.2020
3842 Clouds 28 1005 61 6000 3 150 11:40 03.05.2020
3843 Clouds 27 1005 61 6000 3 150 11:40 03.05.2020
3844 Clouds 27 1005 61 6000 3 150 11:40 03.05.2020
3845 Rain 28 1005 61 6000 3 150 11:21 03.05.2020
3846 Rain 28 1005 64 6000 3 140 10:54 03.05.2020
3847 Clouds 28 1004 61 6000 3 120 10:25 03.05.2020
3848 Haze 30 1004 61 4500 3 140 09:41 03.05.2020
3849 Haze 30 1004 61 4500 3 140 09:41 03.05.2020
3850 Haze 30 1004 61 4500 3 140 09:41 03.05.2020
3851 Haze 30 1004 61 4500 3 140 09:41 03.05.2020
3852 Haze 30 1004 61 4500 3 140 09:41 03.05.2020
3853 Haze 29 1004 61 4500 2 110 09:00 03.05.2020
3854 Haze 29 1004 61 4500 2 110 09:00 03.05.2020
3855 Haze 28 1004 57 4500 2 110 08:35 03.05.2020
3856 Haze 28 1004 60 5000 2 110 07:45 03.05.2020
3857 Haze 28 1004 60 5000 2 110 07:45 03.05.2020
3858 Haze 28 1004 60 5000 2 110 07:45 03.05.2020
3859 Haze 28 1004 60 5000 2 110 07:45 03.05.2020
3860 Haze 28 1004 60 5000 2 110 07:45 03.05.2020
3861 Haze 28 1005 64 5000 2 0 06:54 03.05.2020
3862 Haze 28 1005 64 5000 2 0 06:54 03.05.2020
3863 Haze 28 1005 64 5000 2 0 06:54 03.05.2020
3864 Haze 28 1005 64 5000 2 0 06:54 03.05.2020
3865 Haze 24 1005 68 5000 2 70 05:56 03.05.2020
3866 Mist 26 1005 73 5000 2 100 05:37 03.05.2020
3867 Clouds 24 999 67 0 1.72 56 04:28 03.05.2020
3868 Clouds 23 999 77 0 1.72 56 03:41 03.05.2020
3869 Clear 20 998 76 0 0.45 315 02:32 03.05.2020
3870 Clouds 20 998 75 0 2.56 75 01:59 03.05.2020
3871 Clouds 20 998 78 0 0.45 315 01:39 03.05.2020
3872 Clouds 20 998 78 0 2.73 80 01:21 03.05.2020
3873 Clouds 20 997 79 0 2.73 80 00:40 03.05.2020
3874 Clouds 19 997 80 0 2.48 64 00:20 03.05.2020
3875 Clouds 19 997 80 0 2.48 64 00:20 03.05.2020
3876 Clouds 19 997 79 0 2.48 64 23:49 02.05.2020
3877 Clouds 20 997 80 0 2.48 64 23:30 02.05.2020
3878 Clouds 20 996 78 0 2.26 91 22:57 02.05.2020
3879 Clouds 20 996 78 0 2.26 91 22:39 02.05.2020
3880 Clear 20 996 78 0 2.32 92 22:21 02.05.2020
3881 Clear 20 996 76 0 2.32 92 21:43 02.05.2020
3882 Clear 21 996 75 0 3 93 21:20 02.05.2020
3883 Clear 21 996 75 0 3 93 20:58 02.05.2020
3884 Clear 21 996 75 0 3 93 20:39 02.05.2020
3885 Clear 21 996 75 0 3.3 89 20:20 02.05.2020
3886 Clear 21 996 75 0 3.3 89 20:20 02.05.2020
3887 Clear 21 996 75 0 3.3 89 19:59 02.05.2020
3888 Clear 21 996 76 0 3.3 89 19:39 02.05.2020
3889 Clear 21 996 76 0 3.54 79 19:20 02.05.2020
3890 Clear 21 996 75 0 3.54 79 18:56 02.05.2020
3891 Clear 21 996 74 0 3.54 79 18:38 02.05.2020
3892 Clear 22 996 73 0 4.02 74 18:20 02.05.2020
3893 Clear 22 996 73 0 4.02 74 18:20 02.05.2020
3894 Clear 22 996 73 0 4.02 74 18:20 02.05.2020
3895 Clear 22 996 72 0 4.02 74 17:56 02.05.2020
3896 Clear 22 996 71 0 4.02 74 17:38 02.05.2020
3897 Clouds 23 1002 64 10000 3 100 17:19 02.05.2020
3898 Clouds 24 1001 69 10000 5 110 16:46 02.05.2020
3899 Clouds 26 995 68 0 3.88 121 16:28 02.05.2020
3900 Clouds 27 994 66 0 3.88 121 15:56 02.05.2020
3901 Clouds 27 994 64 0 3.88 121 15:38 02.05.2020
3902 Clear 27 1001 61 8000 4 130 15:19 02.05.2020
3903 Clear 27 992 59 0 5.13 139 14:42 02.05.2020
3904 Clear 28 994 61 0 5.64 135 14:24 02.05.2020
3905 Clear 28 993 60 0 5.64 135 13:58 02.05.2020
3906 Clear 29 993 59 0 5.64 135 13:39 02.05.2020
3907 Clear 30 993 54 0 6.66 143 13:19 02.05.2020
3908 Clear 33 998 40 10000 5 170 12:41 02.05.2020
3909 Clear 33 998 38 10000 5 180 12:21 02.05.2020
3910 Clear 33 998 38 10000 5 180 11:57 02.05.2020
3911 Clear 33 998 38 10000 5 170 11:39 02.05.2020
3912 Clear 33 998 38 10000 5 170 11:20 02.05.2020
3913 Clear 34 999 38 10000 6 160 10:40 02.05.2020
3914 Clear 34 992 41 0 0.45 225 10:22 02.05.2020
3915 Clear 34 992 41 0 5.23 179 09:59 02.05.2020
3916 Clear 35 992 40 0 5.23 179 09:41 02.05.2020
3917 Clear 34 993 40 0 5.27 183 09:23 02.05.2020
3918 Clear 34 993 40 0 5.27 183 09:23 02.05.2020
3919 Clear 35 993 38 0 5.27 183 08:57 02.05.2020
3920 Clear 34 1001 43 10000 6 160 08:38 02.05.2020
3921 Clear 35 994 39 0 5.16 186 08:19 02.05.2020
3922 Clear 34 994 40 0 0.45 0 07:45 02.05.2020
3923 Clear 34 994 40 0 4.89 191 07:27 02.05.2020
3924 Clear 34 995 45 0 4.89 191 06:43 02.05.2020
3925 Clear 31 996 51 0 4.04 194 05:28 02.05.2020
3926 Clear 31 994 61 0 4.04 194 04:31 02.05.2020
3927 Clear 30 996 61 0 3.25 193 03:56 02.05.2020
3928 Mist 25 1003 73 5000 2 0 02:42 02.05.2020
3929 Clear 27 997 72 0 2.61 204 01:58 02.05.2020
3930 Clear 26 997 74 0 2.96 205 01:28 02.05.2020
3931 Clear 25 996 77 0 2.96 205 00:44 02.05.2020
3932 Clear 24 996 78 0 2.65 193 00:24 02.05.2020
3933 Clear 24 993 77 0 2.65 193 23:56 01.05.2020
3934 Clear 24 996 78 0 2.65 193 23:37 01.05.2020
3935 Clear 24 995 77 0 2.93 193 23:18 01.05.2020
3936 Clear 24 995 75 0 2.93 193 22:39 01.05.2020
3937 Clear 25 993 70 0 3.37 188 22:21 01.05.2020
3938 Clear 25 995 72 0 3.37 188 21:58 01.05.2020
3939 Clear 25 995 70 0 3.37 188 21:39 01.05.2020
3940 Clear 26 1001 64 10000 3 150 21:20 01.05.2020
3941 Clear 26 1001 64 10000 3 150 20:57 01.05.2020
3942 Clear 26 995 66 0 4.74 194 20:39 01.05.2020
3943 Clear 26 995 64 0 5.03 193 20:20 01.05.2020
3944 Clear 26 995 63 0 5.03 193 19:56 01.05.2020
3945 Clear 27 995 62 0 5.03 193 19:38 01.05.2020
3946 Clear 27 995 61 0 5.31 194 19:19 01.05.2020
3947 Clear 27 995 61 0 5.31 194 18:55 01.05.2020
3948 Clear 27 995 61 0 5.31 194 18:37 01.05.2020
3949 Clear 28 1002 54 10000 4 160 18:18 01.05.2020
3950 Clear 28 1002 54 10000 4 160 17:40 01.05.2020
3951 Clear 29 995 59 0 5.28 197 17:21 01.05.2020
3952 Clear 29 995 58 0 5.28 197 16:57 01.05.2020
3953 Clear 29 995 56 0 5.28 197 16:39 01.05.2020
3954 Clear 29 993 47 0 4.56 198 16:20 01.05.2020
3955 Clear 29 1001 57 10000 2 120 15:57 01.05.2020
3956 Clear 30 1001 51 10000 3 90 15:39 01.05.2020
3957 Clear 31 1001 42 10000 3 140 15:19 01.05.2020
3958 Clear 31 1001 42 10000 3 140 15:19 01.05.2020
3959 Clear 31 1000 45 10000 2 140 14:44 01.05.2020
3960 Clear 31 1000 45 10000 2 140 14:24 01.05.2020
3961 Clear 32 1000 37 10000 3 160 13:56 01.05.2020
3962 Clear 33 1000 35 10000 5 190 13:38 01.05.2020
3963 Clear 33 999 31 10000 4 180 13:19 01.05.2020
3964 Clear 32 999 31 10000 4 180 12:54 01.05.2020
3965 Clear 33 999 29 10000 5 180 12:36 01.05.2020
3966 Clear 34 999 30 10000 4 180 12:18 01.05.2020
3967 Clear 35 999 28 10000 4 180 11:41 01.05.2020
3968 Clear 36 999 28 10000 4 180 11:23 01.05.2020
3969 Clear 36 999 32 8000 5 170 10:57 01.05.2020
3970 Clear 36 999 34 8000 5 150 10:38 01.05.2020
3971 Clear 36 992 37 0 3.36 205 10:19 01.05.2020
3972 Clear 36 993 39 0 0.45 0 09:44 01.05.2020
3973 Clear 36 993 39 0 2.86 219 09:19 01.05.2020
3974 Clear 36 993 38 0 2.86 219 08:55 01.05.2020
3975 Clear 37 992 35 0 2.86 219 08:37 01.05.2020
3976 Clear 36 994 37 0 2.52 220 08:19 01.05.2020
3977 Clear 36 995 39 0 2.52 220 07:42 01.05.2020
3978 Clear 36 995 38 0 2.12 212 07:22 01.05.2020
3979 Clear 35 994 41 0 2.12 212 06:39 01.05.2020
3980 Clear 30 997 48 0 1.28 208 05:34 01.05.2020
3981 Clear 30 998 53 0 0.72 52 04:21 01.05.2020
3982 Haze 25 1004 60 3500 1 0 03:23 01.05.2020
3983 Clear 24 998 65 0 1.29 40 02:42 01.05.2020
3984 Mist 23 1004 68 3500 1 0 02:18 01.05.2020
3985 Clear 23 995 74 0 1.48 18 01:28 01.05.2020
3986 Clear 22 998 78 0 1.48 18 00:58 01.05.2020
3987 Clear 22 998 79 0 1.48 18 00:37 01.05.2020
3988 Mist 19 1003 87 4000 1 10 00:18 01.05.2020
3989 Mist 18 1003 87 4000 1 10 23:54 30.04.2020
3990 Clear 21 997 84 0 1.04 9 23:36 30.04.2020
3991 Clear 21 997 85 0 0.42 45 23:18 30.04.2020
3992 Clear 21 997 84 0 0.42 45 22:40 30.04.2020
3993 Clear 22 997 84 0 0.47 42 22:19 30.04.2020
3994 Clear 22 997 82 0 0.47 42 21:55 30.04.2020
3995 Clear 22 996 81 0 0.47 42 21:37 30.04.2020
3996 Clear 24 1003 77 7000 1 0 21:18 30.04.2020
3997 Clear 23 1003 77 7000 2 90 20:42 30.04.2020
3998 Clear 25 1003 73 7000 2 110 20:19 30.04.2020
3999 Clear 25 1003 73 7000 2 110 19:58 30.04.2020
4000 Clear 25 1003 77 7000 2 120 19:38 30.04.2020
4001 Clear 26 1003 68 7000 2 110 19:18 30.04.2020
4002 Clear 26 1003 68 7000 2 110 18:55 30.04.2020
4003 Clear 26 1003 64 8000 2 110 18:36 30.04.2020
4004 Clear 27 1003 60 8000 3 110 18:18 30.04.2020
4005 Clear 26 1003 60 8000 3 110 17:40 30.04.2020
4006 Clear 27 1003 60 8000 3 110 17:22 30.04.2020
4007 Clear 27 1003 61 8000 3 110 16:58 30.04.2020
4008 Clear 27 1003 61 8000 3 110 16:58 30.04.2020
4009 Clear 28 1003 61 8000 2 100 16:40 30.04.2020
4010 Clear 28 1003 61 8000 2 100 16:20 30.04.2020
4011 Clear 28 1003 61 8000 2 100 15:54 30.04.2020
4012 Clear 29 1003 57 8000 3 120 15:36 30.04.2020
4013 Clear 30 1003 57 8000 3 110 15:18 30.04.2020
4014 Clear 30 1002 54 8000 2 110 14:40 30.04.2020
4015 Clear 31 1002 54 8000 2 120 14:19 30.04.2020
4016 Clear 31 1002 54 8000 2 120 13:56 30.04.2020
4017 Clear 31 1002 51 8000 2 120 13:38 30.04.2020
4018 Clear 31 995 45 0 2.6 184 13:20 30.04.2020
4019 Clear 32 995 43 0 2.6 184 12:41 30.04.2020
4020 Clear 33 1001 33 8000 4 190 12:21 30.04.2020
4021 Clear 33 1001 33 8000 4 190 11:59 30.04.2020
4022 Clear 33 1002 31 8000 5 180 11:37 30.04.2020
4023 Clear 34 1002 31 7000 4 190 11:18 30.04.2020
4024 Clear 34 993 31 0 0.68 225 10:54 30.04.2020
4025 Clear 35 993 28 0 0.68 225 10:36 30.04.2020
4026 Clear 35 995 34 0 1.22 250 10:18 30.04.2020
4027 Clear 34 995 35 0 1.22 250 09:41 30.04.2020
4028 Clear 34 996 33 0 1.5 252 09:22 30.04.2020
4029 Clear 34 996 33 0 2.04 233 08:49 30.04.2020
4030 Clear 34 996 32 0 1.63 233 08:27 30.04.2020
4031 Clear 34 997 31 0 1.63 233 07:58 30.04.2020
4032 Clear 32 997 33 0 1.63 233 07:40 30.04.2020
4033 Clear 33 997 32 0 1.23 228 07:21 30.04.2020
4034 Clear 34 998 34 0 1.23 228 06:38 30.04.2020
4035 Clear 30 999 35 0 0.76 236 05:49 30.04.2020
4036 Clear 29 999 37 0 0.26 241 05:26 30.04.2020
4037 Clear 29 1000 45 0 0.39 79 04:25 30.04.2020
4038 Clear 22 1007 49 6000 2 360 02:57 30.04.2020
4039 Clear 22 1007 49 6000 2 360 02:57 30.04.2020
4040 Clouds 22 1000 54 0 0.97 40 02:29 30.04.2020
4041 Clouds 22 1000 60 0 0.97 40 01:48 30.04.2020
4042 Clouds 21 1000 65 0 0.73 56 00:58 30.04.2020
4043 Clouds 19 1000 66 0 0.73 56 00:36 30.04.2020
4044 Clouds 16 1006 81 6000 1 20 00:18 30.04.2020
4045 Clouds 15 1006 87 8000 1 10 23:42 29.04.2020
4046 Clouds 15 1006 87 8000 1 10 23:23 29.04.2020
4047 Clouds 15 1006 76 10000 1 0 22:58 29.04.2020
4048 Clouds 15 1006 82 10000 1 0 22:39 29.04.2020
4049 Clouds 16 1006 82 10000 0.42 83 22:20 29.04.2020
4050 Clouds 16 1007 82 10000 1 0 21:39 29.04.2020
4051 Clouds 16 1007 82 10000 1 0 21:20 29.04.2020
4052 Clouds 16 1007 76 10000 1 0 20:59 29.04.2020
4053 Clouds 17 1007 76 10000 1 160 20:40 29.04.2020
4054 Clouds 18 1007 67 10000 1 170 20:19 29.04.2020
4055 Clouds 18 1007 67 10000 1 170 19:57 29.04.2020
4056 Clouds 18 1007 63 10000 1 0 19:39 29.04.2020
4057 Clouds 19 1008 49 10000 2 290 19:18 29.04.2020
4058 Clouds 20 1008 49 10000 1 0 18:42 29.04.2020
4059 Clouds 21 1008 46 10000 3 130 18:20 29.04.2020
4060 Clouds 21 1008 46 10000 3 130 17:56 29.04.2020
4061 Clouds 21 1008 46 10000 2 130 17:37 29.04.2020
4062 Clouds 23 1001 49 0 2.35 84 17:19 29.04.2020
4063 Clouds 21 1008 46 10000 1 0 16:37 29.04.2020
4064 Clouds 24 1002 48 0 2.24 103 16:19 29.04.2020
4065 Clouds 24 1001 47 0 2.24 103 15:57 29.04.2020
4066 Clouds 24 1001 47 0 2.24 103 15:39 29.04.2020
4067 Clouds 25 1008 40 10000 2 90 15:20 29.04.2020
4068 Clouds 26 1007 40 10000 2 110 14:46 29.04.2020
4069 Clear 26 1007 40 10000 2 110 14:27 29.04.2020
4070 Clouds 26 1007 40 10000 1 0 13:59 29.04.2020
4071 Clouds 26 1007 40 10000 1 0 13:59 29.04.2020
4072 Clouds 28 1006 36 10000 3 100 13:40 29.04.2020
4073 Clouds 27 1006 36 10000 3 100 13:20 29.04.2020
4074 Clouds 27 1006 36 10000 4 130 12:56 29.04.2020
4075 Clouds 27 1006 38 10000 3 130 12:38 29.04.2020
4076 Clear 29 1006 36 10000 2 70 12:18 29.04.2020
4077 Clear 30 1006 34 10000 2 90 11:39 29.04.2020
4078 Clear 30 1006 34 10000 3 120 11:20 29.04.2020
4079 Clear 30 1006 34 10000 3 120 10:56 29.04.2020
4080 Clear 31 1006 34 10000 4 130 10:37 29.04.2020
4081 Clear 31 1006 34 10000 4 130 10:37 29.04.2020
4082 Clear 31 1006 32 10000 3 130 10:19 29.04.2020
4083 Clear 31 1006 32 10000 4 150 09:42 29.04.2020
4084 Clouds 31 999 34 0 0.45 0 09:22 29.04.2020
4085 Clouds 29 1006 32 10000 4 150 08:55 29.04.2020
4086 Clouds 31 999 32 0 1.33 210 08:36 29.04.2020
4087 Clouds 29 1007 34 10000 3 150 08:18 29.04.2020
4088 Clouds 30 1007 34 10000 4 150 07:39 29.04.2020
4089 Clouds 31 1000 31 0 0.57 210 07:18 29.04.2020
4090 Clouds 30 1000 32 0 0.57 210 06:48 29.04.2020
4091 Clouds 27 1008 33 10000 2 0 06:30 29.04.2020
4092 Clouds 26 1001 37 0 1.01 194 05:21 29.04.2020
4093 Clouds 27 1002 40 0 0.92 193 04:21 29.04.2020
4094 Clouds 26 1002 41 0 0.92 193 03:59 29.04.2020
4095 Clouds 22 1009 45 10000 3 170 02:39 29.04.2020
4096 Clear 21 1002 49 0 1.35 221 01:44 29.04.2020
4097 Clear 20 1002 51 0 2.23 221 01:20 29.04.2020
4098 Clear 19 1001 54 0 2.23 221 00:39 29.04.2020
4099 Clear 19 1001 55 0 2.73 211 00:19 29.04.2020
4100 Clear 19 1001 55 0 2.73 211 23:48 28.04.2020
4101 Clear 19 1001 56 0 2.42 209 23:23 28.04.2020
4102 Clear 19 1001 57 0 2.42 209 22:55 28.04.2020
4103 Clear 19 1001 56 0 2.42 209 22:37 28.04.2020
4104 Clear 20 1001 55 0 3.57 214 22:18 28.04.2020
4105 Clear 19 1001 55 0 3.57 214 21:54 28.04.2020
4106 Clear 20 1001 54 0 3.57 214 21:36 28.04.2020
4107 Clear 20 1008 52 10000 2 160 21:18 28.04.2020
4108 Clear 21 1007 48 10000 3 170 20:40 28.04.2020
4109 Clear 21 1001 53 0 5.62 211 20:21 28.04.2020
4110 Clear 21 1001 52 0 5.62 211 19:59 28.04.2020
4111 Clear 22 1000 52 0 5.62 211 19:41 28.04.2020
4112 Clear 22 1001 52 0 5.64 213 19:22 28.04.2020
4113 Clear 22 1001 52 0 5.64 213 19:22 28.04.2020
4114 Clear 22 1001 51 0 5.64 213 18:58 28.04.2020
4115 Clear 22 1001 51 0 5.64 213 18:38 28.04.2020
4116 Clear 23 1008 43 10000 5 180 18:19 28.04.2020
4117 Clear 23 1008 43 10000 5 180 18:19 28.04.2020
4118 Clear 23 1008 43 10000 4 190 17:39 28.04.2020
4119 Clear 23 1008 43 10000 4 190 17:20 28.04.2020
4120 Clear 23 1008 43 10000 4 190 17:20 28.04.2020
4121 Clear 24 1001 47 0 6.99 209 16:59 28.04.2020
4122 Clear 24 1001 45 0 6.99 209 16:41 28.04.2020
4123 Clear 25 1001 45 0 6.22 208 16:22 28.04.2020
4124 Clear 25 1001 43 0 6.22 208 15:57 28.04.2020
4125 Clear 25 1001 42 0 6.22 208 15:39 28.04.2020
4126 Clear 25 1001 42 0 6.22 208 15:39 28.04.2020
4127 Clear 25 1008 40 10000 4 170 15:20 28.04.2020
4128 Clear 26 999 30 0 5.75 204 14:57 28.04.2020
4129 Clear 26 1001 39 0 0.45 225 14:39 28.04.2020
4130 Clear 26 1001 38 0 4.55 195 14:19 28.04.2020
4131 Clear 26 1008 35 10000 2 170 13:57 28.04.2020
4132 Clear 26 1008 35 10000 2 170 13:37 28.04.2020
4133 Clear 27 1001 35 0 3.65 188 13:19 28.04.2020
4134 Clear 28 1007 26 10000 4 180 12:44 28.04.2020
4135 Clear 29 1007 26 10000 4 180 12:24 28.04.2020
4136 Clear 30 1008 23 10000 5 180 11:44 28.04.2020
4137 Clear 30 999 22 0 0.89 180 11:24 28.04.2020
4138 Clear 30 999 21 0 0.45 0 10:59 28.04.2020
4139 Clear 31 999 20 0 4.75 205 10:39 28.04.2020
4140 Clear 30 1001 28 0 4.32 211 10:19 28.04.2020
4141 Clear 31 1000 17 0 4.32 211 09:56 28.04.2020
4142 Clear 30 1001 25 0 4.32 211 09:38 28.04.2020
4143 Clear 29 1009 21 10000 4 160 09:20 28.04.2020
4144 Clear 29 1010 23 10000 4 180 08:45 28.04.2020
4145 Clear 30 1001 18 0 3.31 214 08:26 28.04.2020
4146 Clear 28 1011 24 10000 3 170 07:45 28.04.2020
4147 Clear 29 1004 24 0 2.83 204 07:20 28.04.2020
4148 Clear 29 1004 24 0 2.83 204 06:50 28.04.2020
4149 Clear 24 1013 25 10000 3 0 06:22 28.04.2020
4150 Clear 23 1014 27 10000 2 0 05:41 28.04.2020
4151 Clear 25 1014 27 10000 2 0 05:20 28.04.2020
4152 Clear 18 1015 42 10000 1 0 02:59 28.04.2020
4153 Clear 17 1016 44 10000 1 0 02:33 28.04.2020
4154 Clear 19 1009 45 0 0.17 249 01:23 28.04.2020
4155 Clear 17 1009 58 0 0.17 249 00:55 28.04.2020
4156 Clear 11 1016 87 10000 1 0 00:23 28.04.2020
4157 Clear 10 1016 81 10000 0.24 300 23:47 27.04.2020
4158 Clear 9 1016 81 10000 0.37 293 23:24 27.04.2020
4159 Clear 10 1016 87 10000 1 20 22:55 27.04.2020
4160 Clear 10 1016 81 10000 2 360 22:37 27.04.2020
4161 Clear 11 1016 75 10000 1 350 22:19 27.04.2020
4162 Clear 11 1016 75 10000 1 350 21:56 27.04.2020
4163 Clear 11 1016 81 10000 1 0 21:38 27.04.2020
4164 Clear 14 1016 75 10000 1 350 21:18 27.04.2020
4165 Clear 11 1016 75 10000 1 0 20:43 27.04.2020
4166 Clear 15 1016 75 10000 1 0 20:22 27.04.2020
4167 Clear 15 1016 75 10000 1 0 20:22 27.04.2020
4168 Clear 16 1017 70 10000 1.03 244 19:58 27.04.2020
4169 Clear 17 1010 49 0 1.03 244 19:39 27.04.2020
4170 Clear 17 1010 46 0 1.88 229 19:20 27.04.2020
4171 Clear 18 1010 44 0 1.88 229 18:57 27.04.2020
4172 Clear 18 1010 45 0 1.88 229 18:39 27.04.2020
4173 Clear 17 1017 61 10000 2.89 223 18:19 27.04.2020
4174 Clear 18 1017 57 10000 1 0 17:43 27.04.2020
4175 Clear 18 1017 57 10000 1 0 17:21 27.04.2020
4176 Clear 19 1018 50 10000 3.53 221 16:58 27.04.2020
4177 Clear 19 1018 44 10000 1 0 16:39 27.04.2020
4178 Clear 19 1018 44 10000 1 0 16:39 27.04.2020
4179 Clear 20 1018 44 10000 2 140 16:20 27.04.2020
4180 Clear 20 1018 44 10000 2 140 15:56 27.04.2020
4181 Clear 21 1018 38 10000 2 150 15:38 27.04.2020
4182 Clear 20 1018 38 10000 2 150 15:38 27.04.2020
4183 Clear 21 1018 41 10000 2 160 15:18 27.04.2020
4184 Clear 22 1017 34 10000 2 160 14:42 27.04.2020
4185 Clear 22 1017 34 10000 2 160 14:23 27.04.2020
4186 Clear 22 1017 30 10000 3 160 13:59 27.04.2020
4187 Clear 23 1017 21 10000 3 190 13:40 27.04.2020
4188 Clear 24 1004 26 0 3.9 194 13:19 27.04.2020
4189 Clear 25 1004 28 0 3.9 194 12:44 27.04.2020
4190 Clear 25 1017 20 10000 6 200 12:24 27.04.2020
4191 Clear 25 1017 16 10000 5 220 11:59 27.04.2020
4192 Clear 25 1017 15 10000 5 190 11:40 27.04.2020
4193 Clear 25 1017 15 10000 5 210 11:19 27.04.2020
4194 Clear 26 1017 15 10000 5 210 10:56 27.04.2020
4195 Clear 26 1017 13 10000 5 190 10:37 27.04.2020
4196 Clear 25 1018 12 10000 5 190 10:19 27.04.2020
4197 Clear 27 1018 12 10000 3 230 09:43 27.04.2020
4198 Clear 26 1019 11 10000 5 270 09:18 27.04.2020
4199 Clear 26 1019 11 10000 5 270 08:53 27.04.2020
4200 Clear 24 1019 13 10000 4 200 08:34 27.04.2020
4201 Clear 23 1020 16 10000 2 0 07:58 27.04.2020
4202 Clear 23 1020 17 10000 2 0 07:40 27.04.2020
4203 Clear 22 1021 18 10000 2 0 07:19 27.04.2020
4204 Clear 26 1022 17 10000 2 350 06:40 27.04.2020
4205 Clear 24 1022 17 10000 2 350 06:21 27.04.2020
4206 Clear 24 1023 24 10000 1 0 05:48 27.04.2020
4207 Clear 22 1023 33 10000 2 280 04:41 27.04.2020
4208 Clear 20 1023 33 10000 2 340 03:49 27.04.2020
4209 Clear 14 1023 44 10000 2 330 02:41 27.04.2020
4210 Clear 14 1023 57 10000 1 0 01:23 27.04.2020
4211 Clear 12 1023 80 10000 2 350 00:46 27.04.2020
4212 Clear 9 1023 86 10000 1.43 28 00:19 27.04.2020
4213 Clear 8 1023 86 10000 1.43 28 23:55 26.04.2020
4214 Clear 8 1023 86 10000 2 360 23:37 26.04.2020
4215 Clear 8 1022 86 10000 1 20 23:18 26.04.2020
4216 Clear 7 1022 86 10000 1 20 22:55 26.04.2020
4217 Clear 8 1022 80 10000 1 0 22:37 26.04.2020
4218 Clear 9 1022 80 10000 1 60 22:18 26.04.2020
4219 Clear 9 1022 80 10000 1 60 21:56 26.04.2020
4220 Clear 9 1023 80 10000 1 0 21:37 26.04.2020
4221 Clouds 9 1022 80 10000 1 0 21:18 26.04.2020
4222 Clouds 10 1022 70 10000 1 0 20:39 26.04.2020
4223 Clouds 10 1022 70 10000 1 0 20:20 26.04.2020
4224 Clouds 10 1022 70 10000 1 10 19:59 26.04.2020
4225 Clouds 11 1022 65 10000 1 10 19:38 26.04.2020
4226 Clouds 12 1022 46 10000 1 0 19:20 26.04.2020
4227 Clouds 13 1022 50 10000 2 100 18:45 26.04.2020
4228 Clouds 15 1022 50 10000 2 100 18:25 26.04.2020
4229 Clouds 15 1022 50 10000 2 90 17:58 26.04.2020
4230 Clouds 15 1022 50 10000 2 100 17:39 26.04.2020
4231 Clouds 16 1021 47 8000 3 100 17:21 26.04.2020
4232 Clouds 16 1021 44 10000 3 100 16:42 26.04.2020
4233 Clouds 18 1021 44 10000 3 100 16:24 26.04.2020
4234 Clouds 16 1020 28 10000 4 110 15:59 26.04.2020
4235 Clouds 16 1020 28 10000 4 110 15:59 26.04.2020
4236 Clouds 15 1020 37 10000 1 0 15:41 26.04.2020
4237 Clouds 15 1019 34 10000 1 80 15:21 26.04.2020
4238 Clouds 15 1019 34 10000 1 80 14:57 26.04.2020
4239 Clouds 17 1019 28 10000 1 20 14:38 26.04.2020
4240 Clouds 19 1018 17 10000 1 0 14:18 26.04.2020
4241 Clouds 19 1018 17 10000 1 0 13:56 26.04.2020
4242 Clouds 19 1018 17 10000 2 80 13:38 26.04.2020
4243 Clouds 20 1017 13 10000 3 0 13:18 26.04.2020
4244 Clouds 20 1017 20 10000 2 100 12:41 26.04.2020
4245 Clouds 20 1017 20 10000 2 100 12:41 26.04.2020
4246 Clouds 20 1017 20 10000 2 100 12:22 26.04.2020
4247 Clouds 21 1017 22 10000 1 0 11:59 26.04.2020
4248 Clouds 21 1017 14 10000 1 0 11:40 26.04.2020
4249 Clouds 23 1017 14 10000 1 0 11:22 26.04.2020
4250 Clouds 23 1016 14 10000 2 80 10:57 26.04.2020
4251 Clouds 22 1017 14 10000 1 0 10:39 26.04.2020
4252 Clouds 22 1017 14 10000 1 0 10:21 26.04.2020
4253 Clouds 23 1017 13 10000 4 40 09:41 26.04.2020
4254 Clouds 23 1017 13 10000 4 40 09:41 26.04.2020
4255 Clouds 23 1017 13 10000 4 40 09:22 26.04.2020
4256 Clouds 22 1017 13 10000 5 40 08:59 26.04.2020
4257 Clouds 22 1017 11 10000 2 0 08:40 26.04.2020
4258 Clouds 23 1017 11 10000 3 0 08:20 26.04.2020
4259 Clouds 24 1018 12 10000 4 300 07:47 26.04.2020
4260 Clouds 22 1018 12 10000 4 300 07:21 26.04.2020
4261 Clouds 22 1018 14 10000 3 10 06:45 26.04.2020
4262 Clear 20 1019 16 10000 4 60 05:59 26.04.2020
4263 Clear 21 1019 18 10000 4 10 05:41 26.04.2020
4264 Clear 21 1019 18 10000 4 10 05:22 26.04.2020
4265 Clear 20 1019 18 10000 2 350 04:23 26.04.2020
4266 Clear 19 1019 27 10000 3 360 03:32 26.04.2020
4267 Clear 16 1019 28 10000 3 10 02:32 26.04.2020
4268 Clear 14 1019 33 10000 2 10 01:52 26.04.2020
4269 Clear 13 1019 37 10000 2 350 01:27 26.04.2020
4270 Clear 13 1019 28 10000 2 350 00:40 26.04.2020
4271 Clear 9 1018 64 10000 1 350 00:19 26.04.2020
4272 Clear 6 1018 69 10000 1 0 23:40 25.04.2020
4273 Clear 6 1018 69 10000 1 0 23:21 25.04.2020
4274 Clear 6 1018 65 10000 1 0 22:59 25.04.2020
4275 Clear 9 1018 52 10000 1 310 22:41 25.04.2020
4276 Clear 11 1018 39 10000 2 300 22:19 25.04.2020
4277 Clear 10 1018 39 10000 2 300 21:56 25.04.2020
4278 Clear 10 1018 45 10000 4 360 21:37 25.04.2020
4279 Clouds 10 1017 32 10000 1 0 21:18 25.04.2020
4280 Clouds 11 1017 32 10000 2 60 20:42 25.04.2020
4281 Clouds 11 1017 32 10000 2 60 20:22 25.04.2020
4282 Clouds 11 1018 65 10000 1 0 19:58 25.04.2020
4283 Clouds 11 1018 32 10000 1 70 19:38 25.04.2020
4284 Clouds 12 1018 56 10000 1 60 19:19 25.04.2020
4285 Clouds 12 1018 32 10000 1 0 18:43 25.04.2020
4286 Clouds 12 1018 28 10000 1 0 18:21 25.04.2020
4287 Clouds 13 1018 49 10000 1 0 17:59 25.04.2020
4288 Clouds 13 1018 43 10000 1 130 17:39 25.04.2020
4289 Clouds 13 1018 43 10000 1 130 17:21 25.04.2020
4290 Clouds 13 1018 43 10000 1 130 17:21 25.04.2020
4291 Clouds 14 1018 40 10000 2 20 16:59 25.04.2020
4292 Clouds 14 1018 32 10000 2 340 16:41 25.04.2020
4293 Clouds 15 1018 28 10000 2 360 16:21 25.04.2020
4294 Clouds 16 1018 28 10000 2 360 15:55 25.04.2020
4295 Clouds 16 1017 30 10000 2 30 15:36 25.04.2020
4296 Clouds 17 1017 23 10000 1 40 15:18 25.04.2020
4297 Clouds 18 1016 20 10000 2 40 14:40 25.04.2020
4298 Clouds 18 1016 20 10000 2 40 14:21 25.04.2020
4299 Clouds 18 1016 20 10000 2 60 13:59 25.04.2020
4300 Clouds 18 1015 18 10000 2 70 13:41 25.04.2020
4301 Clouds 19 1015 16 10000 3 50 13:18 25.04.2020
4302 Clouds 19 1015 16 10000 3 50 12:55 25.04.2020
4303 Clouds 20 1014 16 10000 3 60 12:37 25.04.2020
4304 Clouds 20 1014 15 10000 2 50 12:18 25.04.2020
4305 Clouds 20 1014 15 10000 2 50 12:18 25.04.2020
4306 Clouds 20 1014 16 10000 3 50 11:42 25.04.2020
4307 Clouds 21 1014 16 10000 3 50 11:24 25.04.2020
4308 Clouds 21 1014 16 10000 3 350 10:57 25.04.2020
4309 Clouds 21 1013 10 10000 5 290 10:38 25.04.2020
4310 Clouds 21 1013 10 10000 8 300 10:20 25.04.2020
4311 Clouds 22 1013 10 10000 5 320 09:43 25.04.2020
4312 Clear 22 1013 10 10000 5 320 09:22 25.04.2020
4313 Clear 23 1014 11 10000 4 320 08:56 25.04.2020
4314 Clear 22 1014 13 10000 2 0 08:38 25.04.2020
4315 Clear 22 1014 14 10000 3 200 08:19 25.04.2020
4316 Clear 22 1015 14 10000 2 0 07:44 25.04.2020
4317 Clear 20 1015 14 10000 2 0 07:22 25.04.2020
4318 Clear 21 1016 14 10000 3 300 06:43 25.04.2020
4319 Clear 20 1016 15 10000 5 360 05:47 25.04.2020
4320 Clear 20 1016 15 10000 5 360 05:28 25.04.2020
4321 Clear 19 1017 15 10000 5 340 04:24 25.04.2020
4322 Clouds 16 1016 18 10000 4 360 02:44 25.04.2020
4323 Clouds 15 1016 21 10000 3 20 02:19 25.04.2020
4324 Clouds 14 1016 21 10000 3 20 01:50 25.04.2020
4325 Clouds 14 1015 21 10000 3 20 01:26 25.04.2020
4326 Clouds 13 1014 23 10000 3 10 00:49 25.04.2020
4327 Clouds 13 1014 23 10000 3 10 00:28 25.04.2020
4328 Clouds 14 1013 17 10000 6 10 23:42 24.04.2020
4329 Clouds 14 1013 17 10000 6 10 23:22 24.04.2020
4330 Clouds 14 1012 15 10000 7 10 22:54 24.04.2020
4331 Clouds 14 1012 15 10000 7 10 22:54 24.04.2020
4332 Clouds 14 1012 15 10000 7 10 22:36 24.04.2020
4333 Clouds 15 1011 16 10000 8 20 22:18 24.04.2020
4334 Clouds 15 1011 16 10000 8 20 21:54 24.04.2020
4335 Clouds 16 1011 17 10000 7 20 21:36 24.04.2020
4336 Clear 16 1010 19 10000 7 20 21:18 24.04.2020
4337 Clear 17 1009 18 10000 9 10 20:42 24.04.2020
4338 Clear 17 1009 18 10000 8 10 20:19 24.04.2020
4339 Clear 17 1009 18 10000 8 10 19:58 24.04.2020
4340 Clear 18 1008 17 10000 8 10 19:38 24.04.2020
4341 Clear 18 1008 17 10000 8 10 19:20 24.04.2020
4342 Clear 19 1007 17 10000 7 20 18:41 24.04.2020
4343 Clear 20 1006 18 10000 7 30 18:23 24.04.2020
4344 Clear 21 1005 15 10000 7 30 17:54 24.04.2020
4345 Clear 21 1005 15 10000 7 30 17:36 24.04.2020
4346 Clear 22 1004 15 10000 7 40 17:18 24.04.2020
4347 Clear 23 1003 16 10000 7 30 16:41 24.04.2020
4348 Clear 23 1003 16 10000 7 30 16:22 24.04.2020
4349 Clear 24 1002 13 10000 6 20 15:59 24.04.2020
4350 Clear 24 1001 11 10000 5 360 15:39 24.04.2020
4351 Clear 26 1000 7 10000 4 310 15:19 24.04.2020
4352 Dust 27 1000 6 9000 5 330 14:40 24.04.2020
4353 Dust 28 999 5 8000 6 300 14:22 24.04.2020
4354 Dust 28 999 5 8000 6 300 13:57 24.04.2020
4355 Dust 28 999 5 8000 6 300 13:57 24.04.2020
4356 Dust 28 999 4 6000 8 310 13:39 24.04.2020
4357 Dust 29 998 5 6000 8 300 13:20 24.04.2020
4358 Dust 29 998 6 7000 7 290 12:42 24.04.2020
4359 Dust 30 998 5 8000 8 280 12:24 24.04.2020
4360 Dust 30 998 5 8000 8 280 11:58 24.04.2020
4361 Clear 30 998 6 10000 9 280 11:39 24.04.2020
4362 Clear 30 999 6 10000 9 280 11:20 24.04.2020
4363 Clear 30 999 6 10000 9 280 10:56 24.04.2020
4364 Clear 30 999 6 10000 11 300 10:37 24.04.2020
4365 Clear 30 999 6 10000 11 300 10:37 24.04.2020
4366 Clear 30 999 6 10000 11 280 10:19 24.04.2020
4367 Clear 30 1000 7 10000 9 270 09:45 24.04.2020
4368 Clouds 30 1000 7 10000 9 270 09:24 24.04.2020
4369 Clear 30 1001 7 10000 8 280 08:58 24.04.2020
4370 Clear 30 1002 6 10000 6 270 08:39 24.04.2020
4371 Clear 30 1002 7 10000 7 230 08:18 24.04.2020
4372 Clear 29 1003 5 10000 8 250 07:46 24.04.2020
4373 Clear 29 1003 5 10000 8 250 07:26 24.04.2020
4374 Clear 28 1004 5 10000 8 260 06:58 24.04.2020
4375 Clear 28 1005 7 10000 10 270 06:38 24.04.2020
4376 Clear 25 1007 6 10000 8 270 05:48 24.04.2020
4377 Clear 24 1008 5 10000 7 280 04:33 24.04.2020
4378 Clouds 18 1009 6 10000 9 280 03:24 24.04.2020
4379 Clouds 16 1010 15 10000 4 220 02:41 24.04.2020
4380 Clear 15 1010 15 10000 3 240 02:20 24.04.2020
4381 Clear 13 1011 32 10000 1 0 01:24 24.04.2020
4382 Clear 12 1011 44 10000 1 0 00:43 24.04.2020
4383 Clear 9 1011 38 10000 1 0 00:18 24.04.2020
4384 Clear 9 1012 44 10000 1 0 23:44 23.04.2020
4385 Clear 9 1012 44 10000 1 0 23:26 23.04.2020
4386 Clear 9 1012 38 10000 1 0 22:55 23.04.2020
4387 Clear 11 1013 30 10000 2 190 22:37 23.04.2020
4388 Clear 12 1013 12 10000 3 230 22:19 23.04.2020
4389 Clear 13 1013 12 10000 3 230 21:56 23.04.2020
4390 Clear 13 1014 11 10000 4 260 21:38 23.04.2020
4391 Clear 13 1014 11 10000 4 260 21:20 23.04.2020
4392 Clear 10 1014 38 10000 2 210 20:54 23.04.2020
4393 Clear 10 1014 35 10000 2 200 20:36 23.04.2020
4394 Clear 10 1015 38 10000 2 200 20:18 23.04.2020
4395 Clear 10 1015 44 10000 1 160 19:41 23.04.2020
4396 Clear 10 1015 44 10000 1 160 19:22 23.04.2020
4397 Clear 13 1016 13 10000 2 250 18:58 23.04.2020
4398 Clear 13 1016 13 10000 3 250 18:39 23.04.2020
4399 Clear 13 1016 13 10000 3 250 18:21 23.04.2020
4400 Clear 14 1016 12 10000 3 260 17:56 23.04.2020
4401 Clear 14 1016 14 10000 3 240 17:38 23.04.2020
4402 Clear 14 1016 14 10000 3 250 17:19 23.04.2020
4403 Clear 14 1016 12 10000 3 250 16:43 23.04.2020
4404 Clear 14 1016 12 10000 3 250 16:21 23.04.2020
4405 Clear 15 1017 10 10000 3 280 15:43 23.04.2020
4406 Clear 15 1017 10 10000 3 280 15:24 23.04.2020
4407 Clear 16 1017 8 10000 4 310 14:59 23.04.2020
4408 Clear 16 1017 8 10000 4 320 14:41 23.04.2020
4409 Clear 16 1017 8 10000 4 320 14:22 23.04.2020
4410 Clear 17 1016 8 10000 5 310 13:58 23.04.2020
4411 Clear 17 1016 6 10000 7 310 13:40 23.04.2020
4412 Clear 17 1016 6 10000 7 310 13:22 23.04.2020
4413 Clear 18 1016 7 10000 7 310 12:57 23.04.2020
4414 Clear 19 1016 6 10000 8 300 12:38 23.04.2020
4415 Clear 20 1016 6 10000 9 320 12:20 23.04.2020
4416 Clear 20 1016 5 10000 10 320 11:46 23.04.2020
4417 Clear 20 1016 5 10000 10 320 11:27 23.04.2020
4418 Clear 20 1017 5 10000 9 320 10:57 23.04.2020
4419 Clear 20 1017 6 10000 7 330 10:39 23.04.2020
4420 Clear 20 1017 6 10000 9 310 10:19 23.04.2020
4421 Clear 20 1017 6 10000 8 310 09:38 23.04.2020
4422 Clear 20 1018 6 10000 7 320 09:18 23.04.2020
4423 Clear 20 1018 7 10000 7 320 08:47 23.04.2020
4424 Clear 20 1018 7 10000 7 320 08:29 23.04.2020
4425 Clear 20 1020 8 10000 6 310 07:47 23.04.2020
4426 Clear 19 1020 8 10000 6 310 07:24 23.04.2020
4427 Clear 18 1021 8 10000 4 310 06:58 23.04.2020
4428 Clear 18 1021 11 10000 6 340 06:40 23.04.2020
4429 Clear 15 1023 10 10000 6 300 05:33 23.04.2020
4430 Clear 15 1024 12 10000 7 340 04:54 23.04.2020
4431 Clear 11 1025 15 10000 7 300 02:48 23.04.2020
4432 Clear 11 1025 15 10000 7 300 02:22 23.04.2020
4433 Clear 11 1025 18 10000 6 290 01:38 23.04.2020
4434 Clear 10 1025 19 10000 4 290 00:51 23.04.2020
4435 Clear 8 1025 19 10000 5 290 00:26 23.04.2020
4436 Clear 8 1025 19 10000 5 290 23:55 22.04.2020
4437 Clear 8 1025 19 10000 5 290 23:27 22.04.2020
4438 Clear 8 1024 19 10000 5 290 22:59 22.04.2020
4439 Clear 8 1025 19 10000 4 310 22:39 22.04.2020
4440 Clear 9 1025 16 10000 6 310 22:20 22.04.2020
4441 Clear 9 1025 16 10000 6 310 21:58 22.04.2020
4442 Clear 9 1025 16 10000 5 310 21:40 22.04.2020
4443 Clear 9 1025 16 10000 5 310 21:21 22.04.2020
4444 Clear 9 1025 16 10000 7 300 20:55 22.04.2020
4445 Clear 9 1025 16 10000 5 300 20:37 22.04.2020
4446 Clear 9 1025 16 10000 5 310 20:18 22.04.2020
4447 Clear 9 1025 16 10000 5 310 19:55 22.04.2020
4448 Clear 9 1025 16 10000 5 310 19:36 22.04.2020
4449 Clear 9 1025 16 10000 6 320 19:18 22.04.2020
4450 Clear 9 1025 16 10000 6 320 18:55 22.04.2020
4451 Clear 9 1025 18 10000 3 320 18:37 22.04.2020
4452 Clear 9 1025 16 10000 5 330 18:18 22.04.2020
4453 Clear 10 1024 15 10000 6 340 17:42 22.04.2020
4454 Clear 10 1024 19 10000 5 350 17:23 22.04.2020
4455 Clear 10 1024 18 10000 6 340 16:47 22.04.2020
4456 Clear 10 1024 18 10000 6 340 16:28 22.04.2020
4457 Clear 10 1024 20 10000 5 350 15:59 22.04.2020
4458 Clear 11 1024 18 10000 6 350 15:38 22.04.2020
4459 Clear 10 1024 18 10000 6 360 15:19 22.04.2020
4460 Clear 10 1024 18 10000 6 360 14:56 22.04.2020
4461 Clear 11 1023 14 10000 6 340 14:37 22.04.2020
4462 Clear 11 1022 14 10000 6 340 14:18 22.04.2020
4463 Clear 12 1022 13 10000 8 330 13:43 22.04.2020
4464 Clear 14 1021 10 10000 10 330 13:20 22.04.2020
4465 Clear 14 1021 11 10000 11 330 12:44 22.04.2020
4466 Clear 15 1021 11 10000 11 330 12:24 22.04.2020
4467 Clear 14 1020 10 10000 10 340 11:58 22.04.2020
4468 Clear 14 1020 10 10000 10 340 11:58 22.04.2020
4469 Clear 15 1020 10 10000 11 350 11:39 22.04.2020
4470 Clear 15 1020 10 10000 11 350 11:39 22.04.2020
4471 Clear 15 1020 8 10000 11 340 11:20 22.04.2020
4472 Clear 15 1020 9 10000 10 350 10:45 22.04.2020
4473 Clear 16 1020 9 10000 10 350 10:25 22.04.2020
4474 Clear 16 1020 8 10000 10 320 09:56 22.04.2020
4475 Clear 16 1020 8 10000 10 310 09:37 22.04.2020
4476 Clear 16 1020 8 10000 10 320 09:19 22.04.2020
4477 Clear 16 1020 8 10000 10 320 08:42 22.04.2020
4478 Clear 16 1020 8 10000 10 320 08:23 22.04.2020
4479 Clear 16 1020 8 10000 10 320 08:23 22.04.2020
4480 Clear 16 1020 8 10000 8 320 07:58 22.04.2020
4481 Clear 15 1021 8 10000 10 290 07:39 22.04.2020
4482 Clear 15 1021 9 10000 9 310 07:19 22.04.2020
4483 Clear 15 1022 8 10000 8 290 06:42 22.04.2020
4484 Clear 13 1023 9 10000 9 300 05:40 22.04.2020
4485 Clear 12 1023 9 10000 11 310 04:46 22.04.2020
4486 Clear 11 1023 11 10000 10 310 03:40 22.04.2020
4487 Clear 9 1024 10 10000 11 310 02:28 22.04.2020
4488 Clear 9 1024 10 10000 11 310 02:28 22.04.2020
4489 Clear 8 1024 12 10000 9 310 01:41 22.04.2020
4490 Clear 8 1024 12 10000 9 310 01:21 22.04.2020
4491 Clear 7 1023 14 10000 9 320 00:41 22.04.2020
4492 Clear 7 1023 14 10000 9 320 00:20 22.04.2020
4493 Clear 6 1023 14 10000 8 310 23:45 21.04.2020
4494 Clear 6 1023 14 10000 8 310 23:23 21.04.2020
4495 Clear 6 1023 14 10000 8 310 22:58 21.04.2020
4496 Clear 7 1023 14 10000 8 310 22:39 21.04.2020
4497 Clear 7 1023 14 10000 8 310 22:20 21.04.2020
4498 Clear 7 1024 14 10000 9 310 21:55 21.04.2020
4499 Clear 7 1024 14 10000 9 310 21:37 21.04.2020
4500 Clear 7 1024 14 10000 9 300 21:18 21.04.2020
4501 Clear 7 1024 16 10000 9 310 20:40 21.04.2020
4502 Clear 6 1024 16 10000 9 310 20:22 21.04.2020
4503 Clear 6 1025 16 10000 6 310 19:58 21.04.2020
4504 Clear 6 1025 16 10000 7 310 19:38 21.04.2020
4505 Clear 7 1026 16 10000 6 320 19:19 21.04.2020
4506 Clear 6 1026 16 10000 6 320 18:55 21.04.2020
4507 Clear 7 1026 14 10000 8 320 18:37 21.04.2020
4508 Clear 7 1026 14 10000 9 320 18:18 21.04.2020
4509 Clear 8 1026 15 10000 10 320 17:40 21.04.2020
4510 Clear 8 1026 15 10000 10 320 17:20 21.04.2020
4511 Clear 8 1026 13 10000 12 320 16:57 21.04.2020
4512 Clear 8 1026 15 10000 11 330 16:37 21.04.2020
4513 Clear 8 1025 17 10000 9 340 16:18 21.04.2020
4514 Clear 8 1025 17 10000 9 340 15:55 21.04.2020
4515 Clear 8 1024 17 10000 9 340 15:37 21.04.2020
4516 Clear 8 1024 17 10000 8 350 15:19 21.04.2020
4517 Clear 9 1023 15 10000 9 340 14:45 21.04.2020
4518 Clear 10 1023 15 10000 9 340 14:24 21.04.2020
4519 Clear 9 1022 15 10000 8 350 13:56 21.04.2020
4520 Clear 9 1022 15 10000 8 340 13:38 21.04.2020
4521 Clear 11 1021 16 10000 9 350 13:18 21.04.2020
4522 Clear 11 1021 16 10000 9 350 13:18 21.04.2020
4523 Clear 11 1021 12 10000 12 340 12:39 21.04.2020
4524 Clear 13 1021 11 10000 9 340 12:19 21.04.2020
4525 Clear 13 1021 11 10000 9 340 11:57 21.04.2020
4526 Clear 13 1021 11 10000 11 350 11:39 21.04.2020
4527 Clear 13 1021 9 10000 11 340 11:19 21.04.2020
4528 Clear 13 1021 9 10000 11 340 10:59 21.04.2020
4529 Clear 13 1020 9 10000 11 340 10:40 21.04.2020
4530 Clear 13 1020 9 10000 11 340 10:22 21.04.2020
4531 Clear 13 1021 8 10000 12 330 09:59 21.04.2020
4532 Clear 13 1021 9 10000 10 320 09:37 21.04.2020
4533 Clear 13 1021 9 10000 11 310 09:18 21.04.2020
4534 Clear 13 1021 9 10000 12 340 08:44 21.04.2020
4535 Clear 13 1021 9 10000 12 340 08:26 21.04.2020
4536 Clear 13 1022 9 10000 12 340 07:55 21.04.2020
4537 Clear 13 1022 9 10000 13 320 07:36 21.04.2020
4538 Clear 13 1022 9 10000 12 330 07:18 21.04.2020
4539 Clear 12 1022 8 10000 11 310 06:42 21.04.2020
4540 Clear 13 1023 9 10000 10 330 05:51 21.04.2020
4541 Clear 12 1023 10 10000 11 330 05:32 21.04.2020
4542 Clear 11 1024 14 10000 10 340 03:48 21.04.2020
4543 Clear 9 1024 15 10000 8 320 02:47 21.04.2020
4544 Clear 8 1024 17 10000 6 340 01:33 21.04.2020
4545 Clear 6 1023 23 10000 5 340 00:47 21.04.2020
4546 Clear 6 1023 23 10000 5 340 00:23 21.04.2020
4547 Clear 5 1023 21 10000 5 340 23:44 20.04.2020
4548 Clear 5 1023 21 10000 5 340 23:23 20.04.2020
4549 Clear 6 1023 20 10000 5 330 22:56 20.04.2020
4550 Clear 5 1023 18 10000 4 330 22:37 20.04.2020
4551 Clear 5 1023 20 10000 7 340 22:18 20.04.2020
4552 Clear 6 1023 20 10000 7 340 22:18 20.04.2020
4553 Clear 6 1023 20 10000 7 340 21:55 20.04.2020
4554 Clear 7 1023 20 10000 7 340 21:36 20.04.2020
4555 Clear 7 1023 22 10000 8 340 21:18 20.04.2020
4556 Clear 7 1023 22 10000 8 340 20:55 20.04.2020
4557 Clear 6 1023 38 10000 2 350 20:36 20.04.2020
4558 Clear 8 1023 47 10000 1 0 20:18 20.04.2020
4559 Clear 8 1023 44 10000 2 30 19:41 20.04.2020
4560 Clear 8 1023 44 10000 2 30 19:41 20.04.2020
4561 Clear 5 1023 44 10000 2 30 19:23 20.04.2020
4562 Clear 6 1023 35 10000 2 50 18:59 20.04.2020
4563 Clear 7 1023 30 10000 3 20 18:40 20.04.2020
4564 Clear 9 1023 28 10000 2 20 18:20 20.04.2020
4565 Clear 7 1023 28 10000 2 20 17:54 20.04.2020
4566 Clear 7 1023 30 10000 2 20 17:36 20.04.2020
4567 Clear 8 1022 26 10000 3 40 17:18 20.04.2020
4568 Clear 8 1022 26 10000 2 40 16:42 20.04.2020
4569 Clear 10 1022 26 10000 2 40 16:20 20.04.2020
4570 Clear 9 1022 24 10000 3 20 15:56 20.04.2020
4571 Clear 9 1022 24 10000 3 360 15:38 20.04.2020
4572 Clear 12 1022 21 10000 5 20 15:20 20.04.2020
4573 Clear 13 1012 12 0 5.71 343 14:42 20.04.2020
4574 Clear 12 1015 23 0 5.94 339 14:20 20.04.2020
4575 Clear 12 1014 23 0 5.94 339 13:58 20.04.2020
4576 Clear 13 1014 23 0 5.94 339 13:39 20.04.2020
4577 Clear 13 1013 23 0 5.94 339 13:20 20.04.2020
4578 Clear 15 1012 21 0 5.94 339 12:44 20.04.2020
4579 Clear 15 1012 18 0 1.34 45 12:24 20.04.2020
4580 Clear 15 1012 17 0 1.34 0 11:58 20.04.2020
4581 Clear 15 1012 18 0 0.45 315 11:38 20.04.2020
4582 Clear 16 1011 17 0 0.45 0 11:19 20.04.2020
4583 Clear 16 1011 17 0 1.34 0 10:55 20.04.2020
4584 Clear 15 1011 18 0 8.3 329 10:36 20.04.2020
4585 Clear 15 1011 16 0 0.89 0 10:18 20.04.2020
4586 Clear 15 1011 17 0 1.34 0 09:44 20.04.2020
4587 Clear 15 1010 17 0 1.34 315 09:25 20.04.2020
4588 Clear 16 1011 15 0 0.89 315 08:58 20.04.2020
4589 Clear 16 1011 16 0 1.34 0 08:40 20.04.2020
4590 Clear 17 1010 15 0 8.26 326 08:18 20.04.2020
4591 Clear 17 1011 16 0 0.89 315 07:52 20.04.2020
4592 Clear 17 1011 16 0 0.89 0 07:28 20.04.2020
4593 Clear 16 1011 19 0 0.89 270 06:39 20.04.2020
4594 Clear 16 1011 20 0 1.34 0 06:20 20.04.2020
4595 Clear 16 1011 22 0 0.89 0 05:25 20.04.2020
4596 Rain 15 1010 30 0 0.89 0 03:30 20.04.2020
4597 Clear 15 1006 23 0 7.45 315 02:38 20.04.2020
4598 Clear 13 1009 41 0 8.05 313 01:31 20.04.2020
4599 Clear 12 1006 29 0 8.05 313 00:58 20.04.2020
4600 Clear 12 1006 28 0 8.05 313 00:33 20.04.2020
4601 Clear 12 1009 42 0 4.64 331 23:55 19.04.2020
4602 Clear 12 1009 41 0 0.45 338 23:37 19.04.2020
4603 Clear 12 1008 44 0 4.64 331 23:18 19.04.2020
4604 Clear 12 1008 42 0 4.64 331 22:39 19.04.2020
4605 Clear 12 1008 41 0 4.64 331 22:21 19.04.2020
4606 Clear 12 1008 41 0 4.64 331 21:56 19.04.2020
4607 Clear 12 1007 40 0 1.34 315 21:37 19.04.2020
4608 Clear 13 1007 40 0 0.45 0 21:18 19.04.2020
4609 Clear 13 1007 40 0 6.16 327 20:41 19.04.2020
4610 Clear 13 1006 41 0 6.16 327 20:21 19.04.2020
4611 Clear 13 1006 41 0 6.16 327 19:59 19.04.2020
4612 Clear 13 1006 41 0 1.34 0 19:40 19.04.2020
4613 Clear 13 1006 41 0 0.89 0 19:22 19.04.2020
4614 Clear 14 1006 41 0 0.45 0 18:58 19.04.2020
4615 Clear 14 1006 40 0 0.89 45 18:39 19.04.2020
4616 Clouds 14 1006 40 0 0.45 315 18:20 19.04.2020
4617 Clouds 14 1006 40 0 0.45 0 17:57 19.04.2020
4618 Clouds 14 1002 29 0 7.45 316 17:38 19.04.2020
4619 Clouds 15 1005 40 0 0.45 0 17:20 19.04.2020
4620 Clouds 15 1005 40 0 0.89 0 16:57 19.04.2020
4621 Clouds 15 1005 40 0 1.34 0 16:38 19.04.2020
4622 Clouds 15 1004 40 0 1.34 0 16:19 19.04.2020
4623 Clouds 15 1004 38 0 1.79 338 15:43 19.04.2020
4624 Rain 17 1001 34 0 6.79 294 15:22 19.04.2020
4625 Rain 18 1000 35 0 6.79 294 14:55 19.04.2020
4626 Rain 19 1000 43 0 6.79 294 14:37 19.04.2020
4627 Rain 19 1000 56 0 3.21 313 14:18 19.04.2020
4628 Rain 19 998 80 0 3.21 313 13:39 19.04.2020
4629 Rain 18 998 83 0 3.21 313 13:20 19.04.2020
4630 Rain 17 998 84 0 3.21 313 12:50 19.04.2020
4631 Clouds 23 1004 27 0 6.03 198 12:25 19.04.2020
4632 Rain 22 998 49 0 6.03 198 11:59 19.04.2020
4633 Rain 21 997 46 0 6.03 198 11:37 19.04.2020
4634 Clouds 22 996 42 0 6.03 198 11:19 19.04.2020
4635 Clouds 22 998 45 0 6.03 198 10:56 19.04.2020
4636 Clouds 22 996 36 0 6.03 198 10:38 19.04.2020
4637 Clouds 23 998 41 0 6.03 198 10:19 19.04.2020
4638 Clouds 23 998 38 0 6.03 198 09:45 19.04.2020
4639 Clouds 23 999 39 0 4.04 205 09:27 19.04.2020
4640 Clouds 24 999 38 0 4.68 201 08:41 19.04.2020
4641 Clouds 24 1000 34 0 4.68 201 08:23 19.04.2020
4642 Clouds 23 1001 38 0 4.68 201 07:59 19.04.2020
4643 Clouds 23 1001 36 0 4.21 202 07:41 19.04.2020
4644 Clouds 24 1001 34 0 4.21 202 07:22 19.04.2020
4645 Clouds 23 1007 32 0 0.89 315 06:29 19.04.2020
4646 Clouds 22 1003 37 0 0.45 180 05:56 19.04.2020
4647 Clouds 22 1005 40 0 4.32 213 04:48 19.04.2020
4648 Clouds 17 1006 49 0 3.24 227 02:59 19.04.2020
4649 Clouds 18 1006 54 0 3.55 226 02:21 19.04.2020
4650 Clouds 18 1006 53 0 3.55 226 01:39 19.04.2020
4651 Clouds 17 1006 55 0 3.55 226 00:49 19.04.2020
4652 Clouds 15 1006 55 0 1.9 164 00:25 19.04.2020
4653 Clouds 15 1006 54 0 1.9 164 23:56 18.04.2020
4654 Clouds 15 1006 54 0 1.9 164 23:36 18.04.2020
4655 Clouds 17 1006 54 0 1.9 164 23:18 18.04.2020
4656 Clouds 16 1006 54 0 1.9 164 22:41 18.04.2020
4657 Clouds 16 1006 55 0 1.9 164 22:21 18.04.2020
4658 Clouds 16 1006 55 0 1.9 164 21:57 18.04.2020
4659 Clouds 16 1006 54 0 0.45 225 21:37 18.04.2020
4660 Clouds 16 1006 50 0 3.24 176 21:19 18.04.2020
4661 Clouds 16 1006 47 0 3.24 176 20:42 18.04.2020
4662 Clouds 16 1006 45 0 3.24 176 20:22 18.04.2020
4663 Clouds 16 1006 44 0 3.24 176 19:59 18.04.2020
4664 Clouds 16 1007 43 0 3.24 176 19:38 18.04.2020
4665 Clouds 16 1007 43 0 3.24 176 19:19 18.04.2020
4666 Clouds 17 1007 43 0 3.24 176 18:38 18.04.2020
4667 Clouds 17 1008 43 0 2.83 164 18:19 18.04.2020
4668 Clouds 18 1008 41 0 2.83 164 17:45 18.04.2020
4669 Clouds 18 1008 41 0 2.83 164 17:22 18.04.2020
4670 Clouds 18 1008 40 0 2.83 164 16:58 18.04.2020
4671 Clouds 18 1008 39 0 2.83 164 16:39 18.04.2020
4672 Clouds 19 1008 39 0 2.83 164 16:21 18.04.2020
4673 Clouds 20 1008 39 0 2.83 164 15:40 18.04.2020
4674 Clouds 20 1008 38 0 3.2 161 15:22 18.04.2020
4675 Clouds 20 1008 37 0 3.2 161 14:48 18.04.2020
4676 Clouds 20 1008 36 0 3.16 163 14:29 18.04.2020
4677 Clouds 20 1008 36 0 3.16 163 13:59 18.04.2020
4678 Clouds 21 1008 36 0 3.16 163 13:41 18.04.2020
4679 Clouds 21 1009 37 0 3.16 163 13:20 18.04.2020
4680 Clouds 22 1008 35 0 3.16 163 12:42 18.04.2020
4681 Clouds 22 1008 33 0 3.27 162 12:24 18.04.2020
4682 Clouds 22 1006 20 0 3.27 162 11:57 18.04.2020
4683 Clouds 22 1008 28 0 3.27 162 11:38 18.04.2020
4684 Clouds 22 1008 27 0 3.27 162 11:19 18.04.2020
4685 Clouds 23 1008 27 0 3.27 162 10:42 18.04.2020
4686 Clouds 23 1009 26 0 3.27 162 10:22 18.04.2020
4687 Clouds 23 1009 26 0 3.27 162 10:22 18.04.2020
4688 Clouds 23 1009 25 0 3.27 162 09:59 18.04.2020
4689 Clouds 24 1009 25 0 3.27 162 09:39 18.04.2020
4690 Clouds 24 1009 24 0 1.4 140 09:20 18.04.2020
4691 Clouds 23 1009 24 0 1.4 140 08:42 18.04.2020
4692 Clouds 24 1009 22 0 1.4 140 08:21 18.04.2020
4693 Clouds 25 1010 20 0 1.4 140 07:47 18.04.2020
4694 Clouds 24 1010 22 0 1.4 140 07:28 18.04.2020
4695 Clouds 24 1011 22 0 1.4 140 06:39 18.04.2020
4696 Clouds 20 1019 26 0 3.13 310 05:49 18.04.2020
4697 Clouds 20 1020 32 0 3.13 0 04:54 18.04.2020
4698 Clouds 20 1013 35 0 1.43 63 04:30 18.04.2020
4699 Clouds 17 1014 40 0 1.03 355 03:18 18.04.2020
4700 Clouds 16 1014 42 0 1.03 355 02:40 18.04.2020
4701 Clouds 15 1014 43 0 1.22 5 02:21 18.04.2020
4702 Clouds 15 1014 46 0 1.22 5 01:43 18.04.2020
4703 Clouds 14 1014 47 0 1.22 5 01:22 18.04.2020
4704 Clouds 13 1014 47 0 1.15 331 00:24 18.04.2020
4705 Clouds 13 1014 48 0 1.15 331 23:59 17.04.2020
4706 Clouds 12 1014 51 0 1.15 331 23:40 17.04.2020
4707 Clouds 13 1014 50 0 1.15 331 23:20 17.04.2020
4708 Clouds 13 1014 48 0 1.15 331 22:58 17.04.2020
4709 Clouds 13 1014 46 0 1.15 331 22:40 17.04.2020
4710 Clouds 14 1014 44 0 1.15 331 22:20 17.04.2020
4711 Clouds 13 1014 50 0 1.15 331 21:58 17.04.2020
4712 Clouds 13 1014 50 0 1.42 335 21:39 17.04.2020
4713 Clouds 19 1011 30 0 1.67 259 21:19 17.04.2020
4714 Clouds 19 1011 30 0 1.67 259 20:55 17.04.2020
4715 Clouds 15 1020 39 0 1.67 259 20:36 17.04.2020
4716 Clouds 19 1011 28 0 1.67 259 20:18 17.04.2020
4717 Clouds 15 1020 39 0 1.67 259 19:44 17.04.2020
4718 Clouds 13 1013 48 0 1.67 259 19:24 17.04.2020
4719 Clouds 14 1013 47 0 1.67 259 18:47 17.04.2020
4720 Clouds 14 1014 45 0 1.51 196 18:25 17.04.2020
4721 Clouds 14 1013 44 0 1.51 196 17:58 17.04.2020
4722 Clouds 15 1013 43 0 1.51 196 17:37 17.04.2020
4723 Clouds 15 1013 44 0 1.51 196 17:19 17.04.2020
4724 Clouds 15 1013 44 0 1.51 196 17:19 17.04.2020
4725 Clouds 16 1013 41 0 1.51 196 16:44 17.04.2020
4726 Clouds 19 1013 40 0 1.51 196 16:23 17.04.2020
4727 Clouds 19 1013 40 0 1.51 196 15:58 17.04.2020
4728 Clouds 19 1013 42 0 1.51 196 15:38 17.04.2020
4729 Clouds 22 1010 26 0 2.61 84 15:19 17.04.2020
4730 Clouds 20 1012 38 0 2.61 84 14:40 17.04.2020
4731 Clouds 20 1011 37 0 2.8 78 14:22 17.04.2020
4732 Clouds 20 1011 36 0 2.8 78 13:58 17.04.2020
4733 Clouds 20 1011 35 0 2.8 78 13:37 17.04.2020
4734 Clouds 20 1016 29 10000 3 10 13:19 17.04.2020
4735 Clouds 21 1016 28 10000 3 10 12:46 17.04.2020
4736 Clouds 21 1016 28 10000 3 10 12:26 17.04.2020
4737 Clouds 21 1015 22 10000 5 20 11:58 17.04.2020
4738 Clouds 22 1015 22 10000 5 10 11:37 17.04.2020
4739 Clouds 22 1015 22 10000 5 10 11:18 17.04.2020
4740 Clouds 22 1015 26 10000 5 360 10:39 17.04.2020
4741 Clouds 22 1015 26 10000 5 30 10:19 17.04.2020
4742 Clouds 22 1015 26 10000 5 30 09:54 17.04.2020
4743 Clouds 22 1015 22 10000 8 10 09:36 17.04.2020
4744 Clouds 22 1015 28 10000 5 40 09:18 17.04.2020
4745 Clouds 22 1015 28 10000 5 40 08:45 17.04.2020
4746 Clouds 22 1015 28 10000 5 40 08:25 17.04.2020
4747 Clouds 21 1015 26 10000 5 30 07:44 17.04.2020
4748 Clouds 21 1015 24 10000 5 330 07:25 17.04.2020
4749 Clouds 21 1015 24 10000 5 330 06:57 17.04.2020
4750 Clear 21 1015 28 10000 6 10 06:27 17.04.2020
4751 Clear 19 1015 31 10000 7 350 05:42 17.04.2020
4752 Clouds 16 1015 41 10000 3 20 03:22 17.04.2020
4753 Clouds 16 1015 34 10000 6 360 03:22 17.04.2020
4754 Clouds 16 1015 41 10000 3 20 02:49 17.04.2020
4755 Clouds 14 1014 47 10000 3 10 01:30 17.04.2020
4756 Clouds 14 1014 62 10000 3 360 00:59 17.04.2020
4757 Clouds 13 1012 58 10000 4 30 00:20 17.04.2020
4758 Clouds 13 1012 58 10000 4 30 23:46 16.04.2020
4759 Clouds 13 1012 58 10000 4 30 23:23 16.04.2020
4760 Clouds 13 1011 62 10000 3 10 22:59 16.04.2020
4761 Clouds 13 1011 62 10000 3 10 22:39 16.04.2020
4762 Clouds 13 1011 62 10000 3 10 22:39 16.04.2020
4763 Clouds 13 1011 76 10000 2 330 22:20 16.04.2020
4764 Clouds 13 1011 76 10000 2 330 21:57 16.04.2020
4765 Clouds 13 1011 81 10000 2 10 21:38 16.04.2020
4766 Clouds 13 1011 81 10000 2 10 21:38 16.04.2020
4767 Clouds 13 1010 81 10000 2 340 21:18 16.04.2020
4768 Clouds 13 1010 76 10000 3 340 20:41 16.04.2020
4769 Clouds 12 1010 81 10000 3 340 20:22 16.04.2020
4770 Clouds 13 1010 81 10000 3 340 19:57 16.04.2020
4771 Clouds 13 1010 71 10000 3 330 19:38 16.04.2020
4772 Clouds 13 1010 66 10000 3 320 19:19 16.04.2020
4773 Clouds 14 1010 58 10000 3 270 18:46 16.04.2020
4774 Clouds 15 1009 58 10000 3 270 18:27 16.04.2020
4775 Clouds 16 1009 58 10000 3 270 17:59 16.04.2020
4776 Clouds 16 1009 58 10000 2 270 17:40 16.04.2020
4777 Clouds 16 1009 58 10000 2 270 17:21 16.04.2020
4778 Clouds 16 1010 58 10000 2 240 16:45 16.04.2020
4779 Clouds 16 1010 58 10000 2 240 16:45 16.04.2020
4780 Clouds 16 1010 58 10000 2 240 16:26 16.04.2020
4781 Clouds 14 1010 71 10000 2 200 15:58 16.04.2020
4782 Clouds 15 1010 66 10000 2 190 15:39 16.04.2020
4783 Clouds 16 1010 58 10000 1 0 15:19 16.04.2020
4784 Clouds 15 1010 58 10000 3 30 14:45 16.04.2020
4785 Clouds 16 1010 58 10000 3 30 14:25 16.04.2020
4786 Clouds 16 1009 66 10000 1 0 13:59 16.04.2020
4787 Clouds 16 1008 50 10000 1 0 13:41 16.04.2020
4788 Clouds 17 1008 47 10000 5 40 13:23 16.04.2020
4789 Clouds 17 1008 47 10000 5 40 12:58 16.04.2020
4790 Clouds 18 1007 44 10000 2 30 12:39 16.04.2020
4791 Clouds 19 1007 36 10000 7 300 12:20 16.04.2020
4792 Clouds 19 1007 36 10000 7 300 11:59 16.04.2020
4793 Clouds 19 1007 34 10000 10 280 11:40 16.04.2020
4794 Clouds 19 1007 34 10000 10 280 11:21 16.04.2020
4795 Clouds 19 1007 31 10000 10 280 10:55 16.04.2020
4796 Clouds 19 1006 31 10000 11 280 10:37 16.04.2020
4797 Clouds 20 1006 31 10000 10 280 10:18 16.04.2020
4798 Clouds 20 1006 22 10000 10 290 09:39 16.04.2020
4799 Clouds 20 1006 22 10000 10 290 09:21 16.04.2020
4800 Clouds 21 1006 24 10000 10 270 08:59 16.04.2020
4801 Clouds 22 1006 30 10000 4 310 08:41 16.04.2020
4802 Clouds 21 1006 40 10000 5 360 08:21 16.04.2020
4803 Clear 20 1007 22 10000 10 280 07:44 16.04.2020
4804 Rain 20 1007 22 10000 10 280 07:26 16.04.2020
4805 Rain 21 1007 48 10000 2 330 06:42 16.04.2020
4806 Clear 19 1008 48 10000 2 320 06:24 16.04.2020
4807 Clear 18 1008 48 10000 4 360 04:54 16.04.2020
4808 Clear 16 1009 58 10000 3 30 03:47 16.04.2020
4809 Clouds 14 1009 58 10000 3 30 03:22 16.04.2020
4810 Clouds 13 1009 71 10000 5 30 02:47 16.04.2020
4811 Clouds 13 1009 71 10000 5 30 02:26 16.04.2020
4812 Clouds 12 1008 76 10000 5 20 01:18 16.04.2020
4813 Clouds 12 1008 76 10000 5 20 01:18 16.04.2020
4814 Rain 12 1008 76 10000 4 20 00:27 16.04.2020
4815 Rain 10 1008 76 10000 5 40 23:57 15.04.2020
4816 Rain 10 1008 87 10000 5 20 23:39 15.04.2020
4817 Rain 10 1008 87 10000 5 20 23:20 15.04.2020
4818 Rain 11 1008 93 10000 3 10 22:40 15.04.2020
4819 Rain 11 1008 93 10000 4 350 22:21 15.04.2020
4820 Rain 11 1008 93 10000 4 350 21:58 15.04.2020
4821 Rain 11 1008 93 10000 3 360 21:40 15.04.2020
4822 Rain 11 1008 93 10000 3 360 21:22 15.04.2020
4823 Thunderstorm 12 1008 93 4000 5 350 20:57 15.04.2020
4824 Thunderstorm 12 1008 93 4000 6 320 20:39 15.04.2020
4825 Thunderstorm 13 1009 93 5000 5 320 20:21 15.04.2020
4826 Rain 14 1009 82 6000 8 300 19:45 15.04.2020
4827 Rain 14 1008 76 10000 9 300 19:21 15.04.2020
4828 Rain 14 1007 71 10000 2 30 18:56 15.04.2020
4829 Rain 14 1007 67 10000 3 60 18:37 15.04.2020
4830 Rain 14 1007 67 10000 3 60 18:19 15.04.2020
4831 Rain 14 1008 71 10000 3 60 17:40 15.04.2020
4832 Rain 14 1008 71 10000 3 60 17:40 15.04.2020
4833 Rain 14 1008 71 10000 3 60 17:21 15.04.2020
4834 Rain 15 1009 76 10000 3 40 16:58 15.04.2020
4835 Rain 16 1010 51 10000 5 270 16:39 15.04.2020
4836 Rain 16 1010 51 10000 5 270 16:20 15.04.2020
4837 Rain 18 1008 32 10000 2 160 15:59 15.04.2020
4838 Rain 18 1007 32 10000 3 130 15:40 15.04.2020
4839 Rain 19 1007 30 8000 6 130 15:20 15.04.2020
4840 Rain 20 1007 30 8000 6 130 14:59 15.04.2020
4841 Rain 20 1007 30 8000 6 130 14:40 15.04.2020
4842 Rain 21 1007 30 8000 6 130 14:22 15.04.2020
4843 Rain 21 1007 32 8000 4 130 13:58 15.04.2020
4844 Rain 21 1006 40 8000 3 70 13:39 15.04.2020
4845 Rain 21 1006 43 8000 3 350 13:20 15.04.2020
4846 Rain 23 1006 43 8000 3 350 12:56 15.04.2020
4847 Clouds 25 1006 43 8000 2 360 12:38 15.04.2020
4848 Clouds 25 1006 40 8000 2 360 12:20 15.04.2020
4849 Clouds 25 1006 40 8000 3 360 11:44 15.04.2020
4850 Clouds 24 1006 40 8000 3 360 11:25 15.04.2020
4851 Clouds 25 1006 35 8000 3 10 10:58 15.04.2020
4852 Clouds 25 1006 38 8000 3 10 10:37 15.04.2020
4853 Clouds 25 1006 35 8000 3 20 10:19 15.04.2020
4854 Clouds 25 1006 35 8000 3 20 09:55 15.04.2020
4855 Clouds 25 1006 35 8000 2 50 09:37 15.04.2020
4856 Clouds 25 1007 33 8000 1 0 09:18 15.04.2020
4857 Clouds 26 1007 36 8000 2 0 08:41 15.04.2020
4858 Clouds 25 1007 36 8000 2 0 08:41 15.04.2020
4859 Clouds 26 1007 35 8000 2 100 08:21 15.04.2020
4860 Clouds 25 1007 35 8000 2 100 07:56 15.04.2020
4861 Clouds 25 1008 37 8000 2 0 07:36 15.04.2020
4862 Clouds 25 1008 37 8000 3 120 06:49 15.04.2020
4863 Clouds 23 1009 40 8000 2 160 06:20 15.04.2020
4864 Clouds 23 1009 42 8000 3 160 05:22 15.04.2020
4865 Clouds 22 1009 45 8000 3 150 04:46 15.04.2020
4866 Clouds 21 1009 45 8000 2 150 03:55 15.04.2020
4867 Clouds 17 1009 48 8000 2 130 03:20 15.04.2020
4868 Clouds 17 1009 55 10000 2 120 02:39 15.04.2020
4869 Clouds 16 1009 58 10000 2 90 01:50 15.04.2020
4870 Clouds 15 1009 66 10000 3 70 01:22 15.04.2020
4871 Clouds 15 1008 66 10000 2 90 00:39 15.04.2020
4872 Clouds 14 1008 71 10000 2 80 00:20 15.04.2020
4873 Clouds 14 1008 71 10000 2 80 23:55 14.04.2020
4874 Clouds 14 1008 71 10000 2 60 23:36 14.04.2020
4875 Clouds 14 1008 71 10000 2 60 23:36 14.04.2020
4876 Clouds 16 1008 66 10000 2 70 23:18 14.04.2020
4877 Clouds 16 1008 66 10000 2 70 22:56 14.04.2020
4878 Clouds 16 1008 58 10000 2 120 22:37 14.04.2020
4879 Clouds 16 1008 51 10000 2 140 22:19 14.04.2020
4880 Clouds 17 1008 51 10000 2 140 21:55 14.04.2020
4881 Clouds 17 1008 51 10000 2 150 21:37 14.04.2020
4882 Clouds 17 1008 51 10000 2 150 21:37 14.04.2020
4883 Clouds 17 1008 47 10000 2 140 21:18 14.04.2020
4884 Clouds 18 1008 47 10000 2 140 20:41 14.04.2020
4885 Clouds 17 1008 47 10000 2 140 20:23 14.04.2020
4886 Clouds 17 1008 39 10000 3 150 19:59 14.04.2020
4887 Clouds 18 1008 39 10000 3 150 19:40 14.04.2020
4888 Clouds 18 1009 39 10000 3 150 19:21 14.04.2020
4889 Clouds 19 1009 39 10000 3 150 18:57 14.04.2020
4890 Clouds 20 1009 36 10000 3 140 18:38 14.04.2020
4891 Clouds 20 1009 39 10000 3 170 18:19 14.04.2020
4892 Clouds 20 1009 39 10000 3 170 17:56 14.04.2020
4893 Clouds 21 1009 36 10000 3 170 17:37 14.04.2020
4894 Clouds 21 1009 36 10000 3 170 17:37 14.04.2020
4895 Clouds 21 1009 36 10000 3 170 17:37 14.04.2020
4896 Clouds 21 1009 39 10000 2 160 17:19 14.04.2020
4897 Clouds 21 1009 39 10000 2 150 16:42 14.04.2020
4898 Clouds 21 1009 39 10000 2 150 16:24 14.04.2020
4899 Clouds 21 1009 44 10000 2 150 15:58 14.04.2020
4900 Clouds 22 1009 42 10000 2 160 15:39 14.04.2020
4901 Clouds 22 1009 42 10000 2 160 15:21 14.04.2020
4902 Clouds 23 1009 34 10000 2 170 14:58 14.04.2020
4903 Clouds 23 1008 34 10000 2 170 14:40 14.04.2020
4904 Clouds 23 1008 34 10000 2 170 14:21 14.04.2020
4905 Clouds 23 1008 32 10000 2 180 13:56 14.04.2020
4906 Clouds 24 1007 23 10000 4 190 13:37 14.04.2020
4907 Clouds 24 1007 24 10000 3 160 13:19 14.04.2020
4908 Clouds 25 1007 20 10000 4 180 12:41 14.04.2020
4909 Clouds 26 1007 20 10000 4 180 12:20 14.04.2020
4910 Clouds 26 1007 20 10000 4 180 11:55 14.04.2020
4911 Clouds 27 1007 16 10000 4 160 11:37 14.04.2020
4912 Clouds 27 1007 16 10000 4 160 11:18 14.04.2020
4913 Clouds 27 1007 15 10000 6 200 10:43 14.04.2020
4914 Clouds 28 1007 15 10000 6 200 10:23 14.04.2020
4915 Clouds 27 1008 21 8000 3 150 09:43 14.04.2020
4916 Clouds 27 1008 21 8000 3 150 09:25 14.04.2020
4917 Clouds 27 1008 16 0 2.65 206 08:59 14.04.2020
4918 Clouds 27 1008 16 0 2.65 206 08:41 14.04.2020
4919 Clouds 27 1009 26 8000 4 150 08:22 14.04.2020
4920 Clouds 27 1008 16 0 2.65 206 07:53 14.04.2020
4921 Clouds 27 1010 29 8000 4 0 07:30 14.04.2020
4922 Clouds 25 1011 31 8000 3 160 06:48 14.04.2020
4923 Clouds 22 1011 33 6000 2 0 05:55 14.04.2020
4924 Clouds 20 1012 42 6000 2 120 03:52 14.04.2020
4925 Clouds 16 1013 44 6000 2 120 02:54 14.04.2020
4926 Clouds 14 1013 70 6000 0.68 103 01:39 14.04.2020
4927 Mist 13 1013 75 5000 1 0 01:18 14.04.2020
4928 Clouds 13 1013 81 7000 1 30 00:36 14.04.2020
4929 Clouds 10 1012 70 10000 2 350 00:18 14.04.2020
4930 Clouds 10 1012 70 10000 2 350 23:40 13.04.2020
4931 Clouds 13 1012 70 10000 2 350 23:22 13.04.2020
4932 Clouds 13 1012 75 10000 1 0 22:57 13.04.2020
4933 Clouds 13 1012 81 10000 1 70 22:39 13.04.2020
4934 Clouds 14 1012 81 10000 1 70 22:20 13.04.2020
4935 Clouds 14 1012 65 10000 1 0 21:55 13.04.2020
4936 Clouds 11 1012 61 10000 2 10 21:37 13.04.2020
4937 Clouds 10 1012 61 10000 2 30 21:18 13.04.2020
4938 Clouds 13 1012 27 10000 2 40 20:41 13.04.2020
4939 Clouds 12 1013 49 10000 1 0 20:20 13.04.2020
4940 Clouds 13 1013 49 10000 1 0 19:59 13.04.2020
4941 Clouds 13 1013 49 10000 1 0 19:59 13.04.2020
4942 Clouds 14 1013 46 10000 2 50 19:38 13.04.2020
4943 Clouds 15 1013 43 10000 1 0 19:19 13.04.2020
4944 Clouds 15 1013 43 10000 1 0 19:19 13.04.2020
4945 Clouds 15 1013 43 10000 1 0 18:59 13.04.2020
4946 Clouds 15 1013 46 10000 1.43 186 18:39 13.04.2020
4947 Clouds 15 1014 46 10000 1 0 18:20 13.04.2020
4948 Clouds 17 1014 46 10000 1 0 17:58 13.04.2020
4949 Clouds 17 1014 46 10000 1 0 17:58 13.04.2020
4950 Clouds 17 1014 43 10000 1 80 17:38 13.04.2020
4951 Clouds 17 1014 43 10000 1 80 17:19 13.04.2020
4952 Clouds 17 1014 43 10000 3.21 196 16:58 13.04.2020
4953 Clouds 18 1014 40 10000 1 0 16:40 13.04.2020
4954 Clouds 17 1014 40 10000 1 0 16:20 13.04.2020
4955 Clouds 18 1014 32 10000 1 60 15:58 13.04.2020
4956 Clouds 19 1014 28 10000 2 120 15:39 13.04.2020
4957 Clouds 21 1014 28 10000 2 160 15:21 13.04.2020
4958 Clouds 22 1014 24 10000 2 150 14:54 13.04.2020
4959 Clouds 22 1014 24 10000 2 150 14:36 13.04.2020
4960 Clouds 23 1014 16 10000 2 170 14:18 13.04.2020
4961 Clouds 22 1014 16 10000 2 170 13:55 13.04.2020
4962 Clouds 23 1013 15 10000 2 170 13:37 13.04.2020
4963 Clouds 24 1013 11 10000 3 160 13:18 13.04.2020
4964 Clouds 25 1013 11 10000 3 160 12:55 13.04.2020
4965 Clouds 25 1013 9 10000 4 180 12:37 13.04.2020
4966 Clouds 26 1013 9 10000 4 170 12:18 13.04.2020
4967 Clouds 27 1013 7 10000 5 170 11:41 13.04.2020
4968 Clouds 27 1013 7 10000 4 180 11:18 13.04.2020
4969 Clouds 27 1013 7 10000 4 180 10:56 13.04.2020
4970 Clouds 27 1013 6 10000 4 180 10:37 13.04.2020
4971 Clouds 27 1014 6 10000 4 160 10:19 13.04.2020
4972 Clouds 28 1014 8 10000 4 180 09:46 13.04.2020
4973 Clear 28 1014 8 10000 4 180 09:26 13.04.2020
4974 Clear 27 1015 8 10000 3 150 08:52 13.04.2020
4975 Clear 27 1015 8 10000 3 190 08:31 13.04.2020
4976 Clear 26 1015 9 10000 2 180 07:59 13.04.2020
4977 Clear 25 1016 11 10000 2 210 07:39 13.04.2020
4978 Clear 24 1016 11 10000 2 250 07:20 13.04.2020
4979 Clear 25 1017 13 10000 2 290 06:47 13.04.2020
4980 Clear 23 1017 15 10000 2 280 06:24 13.04.2020
4981 Clear 23 1018 18 10000 2 270 05:31 13.04.2020
4982 Clear 23 1018 19 10000 2 0 04:53 13.04.2020
4983 Clear 23 1019 18 10000 2 0 04:24 13.04.2020
4984 Clear 19 1019 27 10000 2 320 03:47 13.04.2020
4985 Clear 16 1019 29 10000 3 330 02:59 13.04.2020
4986 Clear 14 1019 33 10000 3 320 02:25 13.04.2020
4987 Clear 13 1019 46 10000 2 330 01:42 13.04.2020
4988 Clear 13 1019 46 10000 2 330 01:23 13.04.2020
4989 Clear 11 1019 69 10000 2 340 00:42 13.04.2020
4990 Clear 7 1019 69 10000 2 340 00:20 13.04.2020
4991 Clear 7 1019 69 10000 2 340 00:20 13.04.2020
4992 Clear 7 1019 74 10000 1 20 23:48 12.04.2020
4993 Clear 7 1019 74 10000 1 20 23:23 12.04.2020
4994 Clear 9 1019 64 10000 1 350 22:58 12.04.2020
4995 Clear 9 1019 69 10000 0.62 354 22:37 12.04.2020
4996 Clear 9 1019 64 10000 1 360 22:19 12.04.2020
4997 Clear 8 1020 60 10000 1 350 21:40 12.04.2020
4998 Clear 7 1020 60 10000 1 350 21:21 12.04.2020
4999 Clear 8 1020 56 10000 1 350 20:58 12.04.2020
5000 Clear 10 1020 45 10000 0.62 182 20:39 12.04.2020
5001 Clear 10 1020 45 10000 0.62 182 20:39 12.04.2020
5002 Clear 10 1020 45 10000 0.62 182 20:21 12.04.2020
5003 Clear 11 1020 49 10000 1 100 19:56 12.04.2020
5004 Clear 11 1020 49 10000 1 100 19:37 12.04.2020
5005 Clear 11 1020 49 10000 1 100 19:37 12.04.2020
5006 Clear 13 1020 45 10000 2 30 19:18 12.04.2020
5007 Clear 13 1020 45 10000 2 30 19:18 12.04.2020
5008 Clear 12 1020 45 10000 2 30 18:41 12.04.2020
5009 Clear 14 1021 45 10000 1 80 18:22 12.04.2020
5010 Clear 14 1021 39 10000 2 50 17:57 12.04.2020
5011 Clear 13 1021 39 10000 2 50 17:38 12.04.2020
5012 Clear 13 1021 39 10000 2 50 17:38 12.04.2020
5013 Clear 14 1021 39 10000 2 50 17:20 12.04.2020
5014 Clear 15 1020 37 10000 1 0 16:57 12.04.2020
5015 Clear 16 1020 32 10000 2 90 16:38 12.04.2020
5016 Clear 16 1020 32 10000 2 90 16:19 12.04.2020
5017 Clear 17 1019 26 10000 4 120 15:45 12.04.2020
5018 Clear 18 1019 26 10000 4 120 15:27 12.04.2020
5019 Clear 19 1019 23 10000 5 140 14:54 12.04.2020
5020 Clear 20 1018 19 10000 5 140 14:36 12.04.2020
5021 Clear 21 1017 15 10000 4 140 14:18 12.04.2020
5022 Clear 21 1016 15 10000 3 150 13:41 12.04.2020
5023 Clear 23 1016 15 10000 3 150 13:22 12.04.2020
5024 Clear 24 1016 11 10000 4 150 12:49 12.04.2020
5025 Rain 24 1016 11 10000 4 150 12:23 12.04.2020
5026 Rain 25 1015 11 10000 4 150 11:59 12.04.2020
5027 Clear 25 1015 7 10000 3 170 11:40 12.04.2020
5028 Clear 26 1016 6 10000 5 230 11:21 12.04.2020
5029 Clear 26 1016 6 10000 5 230 10:58 12.04.2020
5030 Clear 27 1016 6 10000 2 0 10:40 12.04.2020
5031 Clear 27 1016 6 10000 2 0 10:21 12.04.2020
5032 Clear 26 1016 7 10000 3 50 10:00 12.04.2020
5033 Clear 26 1016 7 10000 3 50 10:00 12.04.2020
5034 Clear 26 1017 7 10000 3 40 09:39 12.04.2020
5035 Clear 26 1017 7 10000 3 30 09:21 12.04.2020
5036 Clear 26 1017 7 10000 3 30 08:52 12.04.2020
5037 Clear 25 1018 8 10000 4 40 08:33 12.04.2020
5038 Clear 25 1018 9 10000 3 70 07:58 12.04.2020
5039 Clear 25 1019 7 10000 4 50 07:40 12.04.2020
5040 Clear 25 1019 8 10000 4 20 07:18 12.04.2020
5041 Clear 25 1020 11 10000 2 0 06:33 12.04.2020
5042 Clear 22 1020 10 10000 3 360 05:51 12.04.2020
5043 Clear 22 1021 10 10000 4 20 05:29 12.04.2020
5044 Clear 21 1022 13 10000 4 10 03:43 12.04.2020
5045 Clear 18 1022 13 10000 3 360 03:19 12.04.2020
5046 Clear 17 1022 16 10000 4 360 02:34 12.04.2020
5047 Clear 15 1021 19 10000 3 340 01:47 12.04.2020
5048 Clear 14 1021 23 10000 3 360 00:57 12.04.2020
5049 Clear 14 1021 23 10000 3 360 00:57 12.04.2020
5050 Clear 13 1020 24 10000 4 360 00:39 12.04.2020
5051 Clear 12 1020 24 10000 3 10 00:19 12.04.2020
5052 Clear 13 1020 20 10000 4 360 23:46 11.04.2020
5053 Clear 13 1020 20 10000 4 360 23:25 11.04.2020
5054 Clear 14 1020 18 10000 3 330 22:42 11.04.2020
5055 Clear 13 1020 24 10000 2 340 22:23 11.04.2020
5056 Clear 13 1020 18 10000 3 330 22:22 11.04.2020
5057 Clear 13 1020 24 10000 2 340 21:57 11.04.2020
5058 Clear 13 1020 23 10000 2 330 21:37 11.04.2020
5059 Clear 13 1020 23 10000 2 330 21:37 11.04.2020
5060 Clear 13 1020 23 10000 2 330 21:19 11.04.2020
5061 Clear 13 1020 24 10000 2 330 20:58 11.04.2020
5062 Clear 12 1020 31 10000 2 340 20:39 11.04.2020
5063 Clear 13 1020 23 10000 2 340 20:20 11.04.2020
5064 Clear 13 1020 23 10000 2 340 19:58 11.04.2020
5065 Clear 14 1020 21 10000 2 360 19:39 11.04.2020
5066 Clear 14 1020 20 10000 3 360 19:20 11.04.2020
5067 Clear 13 1020 20 10000 3 360 18:57 11.04.2020
5068 Clear 15 1020 18 10000 3 360 18:39 11.04.2020
5069 Clear 15 1020 17 10000 3 360 18:20 11.04.2020
5070 Clear 15 1020 17 10000 3 360 17:59 11.04.2020
5071 Clear 15 1020 18 10000 3 360 17:40 11.04.2020
5072 Clear 15 1020 18 10000 3 360 17:21 11.04.2020
5073 Clear 15 1020 18 10000 3 360 16:56 11.04.2020
5074 Clear 15 1020 14 10000 3 350 16:38 11.04.2020
5075 Clear 15 1020 16 10000 4 350 16:19 11.04.2020
5076 Clear 16 1019 14 10000 5 350 15:39 11.04.2020
5077 Clear 17 1019 12 10000 5 350 15:19 11.04.2020
5078 Clear 16 1019 13 10000 5 360 14:43 11.04.2020
5079 Clear 17 1019 13 10000 5 360 14:25 11.04.2020
5080 Clear 16 1018 14 10000 4 350 13:59 11.04.2020
5081 Clear 17 1018 12 10000 3 350 13:40 11.04.2020
5082 Clear 21 1018 8 10000 4 360 13:20 11.04.2020
5083 Clear 21 1018 8 10000 1 0 12:42 11.04.2020
5084 Clear 22 1018 6 10000 1 0 12:21 11.04.2020
5085 Clear 23 1018 6 10000 1 0 11:58 11.04.2020
5086 Clear 23 1018 6 10000 1 0 11:39 11.04.2020
5087 Clear 23 1018 8 10000 3 0 11:19 11.04.2020
5088 Clear 24 1018 8 10000 3 0 10:55 11.04.2020
5089 Clear 24 1019 8 10000 2 0 10:36 11.04.2020
5090 Clear 24 1019 8 10000 2 0 10:36 11.04.2020
5091 Clear 24 1019 8 10000 2 0 10:18 11.04.2020
5092 Clear 24 1020 11 10000 3 340 09:40 11.04.2020
5093 Clear 24 1020 11 10000 3 340 09:22 11.04.2020
5094 Clear 23 1020 10 10000 1 0 08:51 11.04.2020
5095 Clear 23 1021 10 10000 2 0 08:29 11.04.2020
5096 Clear 23 1022 10 10000 4 300 07:56 11.04.2020
5097 Clear 22 1022 12 10000 3 290 07:38 11.04.2020
5098 Clear 22 1023 11 10000 4 280 07:19 11.04.2020
5099 Clear 22 1024 11 10000 4 360 06:35 11.04.2020
5100 Clear 20 1024 13 10000 4 10 05:56 11.04.2020
5101 Clear 18 1026 22 10000 4 330 03:57 11.04.2020
5102 Clear 14 1026 30 10000 4 330 02:51 11.04.2020
5103 Clear 11 1026 49 10000 4 350 01:26 11.04.2020
5104 Clear 11 1026 64 10000 3 360 00:55 11.04.2020
5105 Clear 11 1026 64 10000 3 360 00:37 11.04.2020
5106 Clear 9 1025 60 10000 3 360 00:18 11.04.2020
5107 Clear 9 1025 60 10000 3 350 23:41 10.04.2020
5108 Clear 9 1025 60 10000 3 350 23:19 10.04.2020
5109 Clear 8 1025 64 10000 2 360 22:57 10.04.2020
5110 Clear 8 1025 64 10000 2 340 22:37 10.04.2020
5111 Clear 8 1026 69 10000 1 340 22:19 10.04.2020
5112 Clear 9 1026 52 10000 1 350 21:41 10.04.2020
5113 Clear 9 1026 52 10000 1 350 21:21 10.04.2020
5114 Clear 9 1026 52 10000 2 340 20:57 10.04.2020
5115 Clear 9 1026 52 10000 2 360 20:39 10.04.2020
5116 Clear 9 1026 60 10000 2 360 20:20 10.04.2020
5117 Clear 9 1026 60 10000 2 360 19:55 10.04.2020
5118 Clear 9 1026 52 10000 2 360 19:37 10.04.2020
5119 Clear 9 1027 56 10000 1 290 19:19 10.04.2020
5120 Clear 9 1027 56 10000 1 290 18:55 10.04.2020
5121 Clear 9 1027 56 10000 1.63 321 18:37 10.04.2020
5122 Clear 10 1027 49 10000 2 220 18:19 10.04.2020
5123 Clear 10 1027 49 10000 2 220 17:57 10.04.2020
5124 Clear 10 1027 45 10000 1 0 17:38 10.04.2020
5125 Clear 12 1027 32 10000 3 230 17:19 10.04.2020
5126 Clear 13 1027 30 10000 3 230 16:44 10.04.2020
5127 Clear 13 1027 30 10000 3 230 16:23 10.04.2020
5128 Clear 14 1027 28 10000 3 220 15:58 10.04.2020
5129 Clear 14 1027 34 10000 3 220 15:39 10.04.2020
5130 Clouds 14 1027 34 10000 3 220 15:21 10.04.2020
5131 Clouds 14 1027 39 10000 1 0 14:59 10.04.2020
5132 Clouds 15 1026 39 10000 1 100 14:40 10.04.2020
5133 Clouds 13 1026 39 10000 1 100 14:21 10.04.2020
5134 Clouds 15 1026 23 10000 3 260 13:49 10.04.2020
5135 Clouds 15 1026 23 10000 3 260 13:23 10.04.2020
5136 Clouds 16 1026 23 10000 2 260 12:59 10.04.2020
5137 Clouds 16 1026 20 10000 1 0 12:41 10.04.2020
5138 Clouds 17 1025 20 10000 2 0 12:21 10.04.2020
5139 Clouds 17 1025 21 10000 3 0 11:43 10.04.2020
5140 Clouds 18 1025 21 10000 3 0 11:24 10.04.2020
5141 Clouds 18 1025 20 10000 1 0 10:58 10.04.2020
5142 Clouds 18 1025 18 10000 1 0 10:39 10.04.2020
5143 Clouds 18 1025 18 10000 1 0 10:21 10.04.2020
5144 Clouds 18 1026 20 10000 2 0 09:43 10.04.2020
5145 Clouds 18 1026 20 10000 2 0 09:23 10.04.2020
5146 Clouds 17 1026 20 10000 4 310 08:50 10.04.2020
5147 Clouds 18 1027 20 10000 2 290 08:27 10.04.2020
5148 Clouds 17 1027 18 10000 1 0 07:58 10.04.2020
5149 Clouds 17 1028 23 10000 1 0 07:40 10.04.2020
5150 Clouds 17 1028 23 10000 2 0 07:21 10.04.2020
5151 Clouds 17 1029 23 10000 1 0 06:43 10.04.2020
5152 Clouds 16 1029 23 10000 1 0 06:23 10.04.2020
5153 Clouds 15 1030 26 10000 2 270 05:35 10.04.2020
5154 Clouds 15 1030 33 10000 2 300 04:57 10.04.2020
5155 Clouds 14 1031 43 10000 3 310 03:37 10.04.2020
5156 Clouds 11 1030 50 10000 2 330 02:59 10.04.2020
5157 Clouds 10 1030 57 10000 2 340 02:36 10.04.2020
5158 Clouds 10 1030 66 10000 1 0 01:59 10.04.2020
5159 Clouds 9 1030 75 10000 1 30 01:29 10.04.2020
5160 Clouds 8 1030 75 10000 1 0 00:49 10.04.2020
5161 Clouds 7 1030 75 10000 1 60 00:22 10.04.2020
5162 Clouds 7 1030 80 10000 2 60 23:44 09.04.2020
5163 Clouds 7 1030 80 10000 2 60 23:25 09.04.2020
5164 Clouds 7 1029 75 10000 1 150 22:59 09.04.2020
5165 Clouds 7 1029 75 10000 1 80 22:40 09.04.2020
5166 Clouds 7 1029 75 10000 1 80 22:22 09.04.2020
5167 Clouds 7 1029 75 10000 1 150 21:45 09.04.2020
5168 Clouds 7 1029 75 10000 1 150 21:26 09.04.2020
5169 Clouds 8 1029 70 10000 1 150 20:57 09.04.2020
5170 Clouds 8 1029 65 10000 1 0 20:38 09.04.2020
5171 Clouds 8 1029 61 10000 1 140 20:19 09.04.2020
5172 Clouds 8 1029 61 10000 2 160 19:41 09.04.2020
5173 Clouds 9 1029 57 10000 2 150 19:23 09.04.2020
5174 Clouds 9 1029 57 10000 2 150 18:58 09.04.2020
5175 Clouds 9 1029 57 10000 2 150 18:40 09.04.2020
5176 Clouds 9 1029 61 10000 2 150 18:18 09.04.2020
5177 Clouds 9 1029 61 10000 2 150 18:18 09.04.2020
5178 Clouds 10 1028 44 10000 2 160 17:40 09.04.2020
5179 Clouds 10 1028 44 10000 2 160 17:21 09.04.2020
5180 Clouds 11 1028 44 10000 2 170 16:41 09.04.2020
5181 Clouds 11 1028 44 10000 3 200 16:20 09.04.2020
5182 Clouds 12 1028 44 10000 3 200 15:58 09.04.2020
5183 Clouds 12 1027 43 10000 3 210 15:39 09.04.2020
5184 Clouds 12 1027 43 10000 3 210 15:21 09.04.2020
5185 Clouds 11 1027 39 10000 4 220 14:59 09.04.2020
5186 Clouds 11 1026 39 10000 4 210 14:39 09.04.2020
5187 Clouds 11 1026 40 10000 5 220 14:20 09.04.2020
5188 Clouds 11 1026 40 10000 4 210 13:42 09.04.2020
5189 Clouds 11 1025 40 10000 4 220 13:24 09.04.2020
5190 Clouds 13 1025 40 10000 4 220 12:59 09.04.2020
5191 Clouds 13 1025 37 10000 4 210 12:39 09.04.2020
5192 Clouds 14 1025 37 10000 4 190 12:21 09.04.2020
5193 Clouds 15 1025 37 10000 4 190 11:55 09.04.2020
5194 Clouds 15 1025 32 10000 2 190 11:36 09.04.2020
5195 Clouds 15 1025 35 10000 4 210 11:18 09.04.2020
5196 Clouds 15 1025 35 10000 4 210 10:41 09.04.2020
5197 Clouds 14 1025 35 10000 4 210 10:22 09.04.2020
5198 Clouds 15 1025 35 10000 2 230 09:58 09.04.2020
5199 Clouds 15 1025 37 10000 2 0 09:40 09.04.2020
5200 Clouds 15 1025 37 10000 2 0 09:21 09.04.2020
5201 Clouds 16 1026 30 10000 3 190 08:56 09.04.2020
5202 Clouds 15 1026 35 10000 3 250 08:37 09.04.2020
5203 Clouds 15 1026 35 10000 2 0 08:18 09.04.2020
5204 Clouds 14 1027 31 10000 2 0 07:37 09.04.2020
5205 Clouds 15 1027 31 10000 2 270 07:18 09.04.2020
5206 Clouds 13 1027 31 10000 2 310 06:35 09.04.2020
5207 Clouds 13 1028 50 10000 3 250 05:49 09.04.2020
5208 Clouds 13 1028 50 10000 3 250 05:24 09.04.2020
5209 Clouds 9 1027 57 10000 2 300 02:36 09.04.2020
5210 Clouds 9 1027 61 10000 3 270 01:46 09.04.2020
5211 Clouds 8 1027 61 10000 3 270 01:27 09.04.2020
5212 Clouds 8 1026 61 10000 2 280 00:54 09.04.2020
5213 Clouds 8 1026 65 10000 2 280 00:36 09.04.2020
5214 Rain 8 1026 61 10000 2 290 00:18 09.04.2020
5215 Rain 8 1026 61 10000 2 290 00:18 09.04.2020
5216 Rain 8 1026 61 10000 3 260 23:41 08.04.2020
5217 Rain 8 1026 45 10000 4 230 23:22 08.04.2020
5218 Rain 8 1026 45 10000 4 230 22:44 08.04.2020
5219 Rain 8 1025 36 10000 1 0 22:25 08.04.2020
5220 Rain 8 1025 36 10000 1 0 21:57 08.04.2020
5221 Rain 8 1025 36 10000 1 0 21:39 08.04.2020
5222 Clouds 8 1025 29 10000 1 0 21:21 08.04.2020
5223 Clouds 9 1025 29 10000 1 0 21:00 08.04.2020
5224 Clouds 9 1025 31 10000 2 90 20:40 08.04.2020
5225 Clouds 9 1025 31 10000 2 90 20:21 08.04.2020
5226 Clouds 10 1025 34 10000 2 100 19:59 08.04.2020
5227 Clouds 10 1024 34 10000 2 60 19:40 08.04.2020
5228 Clouds 10 1024 31 10000 3 130 19:21 08.04.2020
5229 Clouds 10 1024 31 10000 4 130 18:45 08.04.2020
5230 Clouds 10 1024 31 10000 4 120 18:27 08.04.2020
5231 Clouds 10 1024 37 10000 4 110 17:57 08.04.2020
5232 Clouds 10 1024 37 10000 4 110 17:38 08.04.2020
5233 Clouds 11 1024 37 10000 4 120 17:20 08.04.2020
5234 Clouds 11 1024 34 10000 4 130 16:55 08.04.2020
5235 Clouds 11 1024 34 10000 4 130 16:37 08.04.2020
5236 Clouds 11 1023 37 10000 5 150 16:19 08.04.2020
5237 Clouds 12 1022 30 10000 4 150 15:38 08.04.2020
5238 Clouds 12 1022 30 10000 4 150 15:20 08.04.2020
5239 Clouds 12 1022 30 10000 5 140 14:54 08.04.2020
5240 Clouds 12 1022 30 10000 5 140 14:36 08.04.2020
5241 Clouds 14 1022 24 10000 2 150 14:18 08.04.2020
5242 Clouds 13 1021 22 10000 3 150 13:43 08.04.2020
5243 Clouds 13 1021 22 10000 3 150 13:43 08.04.2020
5244 Clouds 14 1021 24 10000 4 170 13:21 08.04.2020
5245 Clouds 15 1021 22 10000 4 160 12:43 08.04.2020
5246 Clouds 16 1020 20 10000 4 170 12:19 08.04.2020
5247 Clouds 16 1020 20 10000 4 170 11:59 08.04.2020
5248 Clouds 16 1020 19 10000 4 150 11:41 08.04.2020
5249 Clouds 17 1020 19 10000 4 150 11:22 08.04.2020
5250 Clouds 17 1020 17 10000 3 150 10:57 08.04.2020
5251 Clouds 17 1020 17 10000 3 150 10:39 08.04.2020
5252 Clouds 18 1020 18 10000 4 170 10:20 08.04.2020
5253 Clouds 18 1020 18 10000 4 170 09:56 08.04.2020
5254 Clouds 18 1020 17 10000 4 190 09:38 08.04.2020
5255 Clear 18 1020 16 10000 3 170 09:18 08.04.2020
5256 Clear 17 1021 18 10000 4 170 08:42 08.04.2020
5257 Clear 17 1021 18 10000 4 170 08:23 08.04.2020
5258 Clear 17 1021 18 10000 3 160 07:57 08.04.2020
5259 Clear 16 1021 16 10000 2 190 07:39 08.04.2020
5260 Clear 16 1022 16 10000 3 190 07:19 08.04.2020
5261 Clear 15 1022 16 10000 2 0 06:21 08.04.2020
5262 Clear 14 1023 22 10000 2 340 04:44 08.04.2020
5263 Clouds 11 1023 32 10000 3 360 02:49 08.04.2020
5264 Clear 10 1023 37 10000 2 360 02:21 08.04.2020
5265 Clear 9 1022 65 10000 1 360 01:51 08.04.2020
5266 Clear 8 1022 65 10000 1 360 01:27 08.04.2020
5267 Clear 8 1022 74 10000 2 360 00:41 08.04.2020
5268 Clear 5 1022 74 10000 2 360 00:22 08.04.2020
5269 Clear 5 1022 69 10000 1 360 23:40 07.04.2020
5270 Clear 5 1022 69 10000 1 360 23:22 07.04.2020
5271 Clear 5 1022 64 10000 2 360 22:58 07.04.2020
5272 Clear 5 1022 64 10000 1 350 22:40 07.04.2020
5273 Clear 5 1022 64 10000 1 350 22:20 07.04.2020
5274 Clear 6 1022 59 10000 1.8 64 21:58 07.04.2020
5275 Clear 6 1022 59 10000 1 50 21:40 07.04.2020
5276 Clear 6 1022 59 10000 1 50 21:20 07.04.2020
5277 Clear 7 1022 48 10000 1 0 20:57 07.04.2020
5278 Clear 7 1022 48 10000 1 0 20:39 07.04.2020
5279 Clear 7 1022 48 10000 1 0 20:20 07.04.2020
5280 Clear 8 1022 42 10000 2 80 19:57 07.04.2020
5281 Clear 9 1022 42 10000 2 100 19:37 07.04.2020
5282 Clear 9 1022 42 10000 2 100 19:18 07.04.2020
5283 Clear 9 1022 42 10000 2 100 19:18 07.04.2020
5284 Clear 9 1022 42 10000 2 100 19:18 07.04.2020
5285 Clear 9 1021 39 10000 2 90 18:57 07.04.2020
5286 Clear 9 1021 39 10000 2 90 18:38 07.04.2020
5287 Clouds 11 1021 39 10000 2 90 18:19 07.04.2020
5288 Clouds 10 1021 37 10000 3 130 17:44 07.04.2020
5289 Clouds 10 1020 34 10000 4 130 17:21 07.04.2020
5290 Clouds 11 1020 32 10000 3 130 16:47 07.04.2020
5291 Clouds 11 1020 32 10000 3 130 16:29 07.04.2020
5292 Clouds 13 1020 27 10000 3 150 15:58 07.04.2020
5293 Clouds 13 1019 30 10000 4 180 15:40 07.04.2020
5294 Clouds 13 1019 30 10000 4 180 15:22 07.04.2020
5295 Clouds 13 1018 28 10000 5 180 14:41 07.04.2020
5296 Clouds 13 1018 28 10000 6 180 14:22 07.04.2020
5297 Clouds 14 1018 28 10000 6 180 13:57 07.04.2020
5298 Clouds 14 1017 28 10000 5 180 13:38 07.04.2020
5299 Clouds 15 1017 26 10000 4 190 13:18 07.04.2020
5300 Clouds 16 1017 26 10000 4 190 12:55 07.04.2020
5301 Clouds 17 1017 23 10000 4 200 12:36 07.04.2020
5302 Clouds 16 1017 21 10000 4 170 12:18 07.04.2020
5303 Clouds 17 1017 18 10000 5 170 11:44 07.04.2020
5304 Clouds 18 1017 18 10000 5 170 11:25 07.04.2020
5305 Clouds 18 1017 18 10000 5 170 10:58 07.04.2020
5306 Clouds 18 1017 18 10000 6 200 10:38 07.04.2020
5307 Clouds 19 1018 17 10000 5 170 10:19 07.04.2020
5308 Clouds 20 1018 18 10000 5 190 09:45 07.04.2020
5309 Clouds 19 1018 18 10000 5 190 09:19 07.04.2020
5310 Clouds 19 1019 19 10000 4 190 08:55 07.04.2020
5311 Clouds 19 1019 17 10000 4 170 08:36 07.04.2020
5312 Clouds 19 1020 18 10000 4 210 08:18 07.04.2020
5313 Clouds 19 1020 18 10000 3 180 07:40 07.04.2020
5314 Clouds 19 1020 17 10000 2 0 07:21 07.04.2020
5315 Clouds 18 1021 16 10000 3 220 06:51 07.04.2020
5316 Clouds 18 1021 16 10000 2 0 06:23 07.04.2020
5317 Clouds 17 1022 16 10000 2 0 05:43 07.04.2020
5318 Clouds 17 1022 15 10000 3 190 05:22 07.04.2020
5319 Clouds 15 1022 18 10000 3 170 03:32 07.04.2020
5320 Clouds 14 1022 16 10000 3 150 02:59 07.04.2020
5321 Clouds 13 1021 26 10000 1 0 01:57 07.04.2020
5322 Clouds 13 1021 32 10000 1 10 01:29 07.04.2020
5323 Clouds 12 1020 33 10000 1 0 00:29 07.04.2020
5324 Clouds 12 1019 34 10000 2 40 23:57 06.04.2020
5325 Clouds 12 1019 53 10000 2 150 23:38 06.04.2020
5326 Clouds 12 1019 34 10000 2 60 23:19 06.04.2020
5327 Clouds 12 1018 61 10000 2 120 22:41 06.04.2020
5328 Clouds 12 1018 61 10000 2 120 22:22 06.04.2020
5329 Clouds 12 1018 66 8000 2 340 21:58 06.04.2020
5330 Clouds 13 1018 70 7000 1 0 21:39 06.04.2020
5331 Clouds 13 1018 70 7000 1 0 21:19 06.04.2020
5332 Clouds 13 1018 71 10000 2 40 20:55 06.04.2020
5333 Clouds 13 1018 71 10000 2 40 20:55 06.04.2020
5334 Clouds 14 1018 58 10000 2 10 20:37 06.04.2020
5335 Clouds 14 1017 58 10000 3 350 20:19 06.04.2020
5336 Clouds 14 1017 54 10000 1 50 19:41 06.04.2020
5337 Clouds 14 1017 54 10000 2 80 19:23 06.04.2020
5338 Clouds 15 1017 54 10000 2 80 18:59 06.04.2020
5339 Clouds 15 1017 54 10000 3 70 18:40 06.04.2020
5340 Clouds 16 1017 50 10000 2 80 18:22 06.04.2020
5341 Clouds 15 1017 54 10000 2 80 17:55 06.04.2020
5342 Clouds 15 1017 54 10000 2 80 17:36 06.04.2020
5343 Clouds 16 1017 54 10000 2 70 17:18 06.04.2020
5344 Clouds 16 1016 58 10000 1 70 16:44 06.04.2020
5345 Clouds 18 1016 58 10000 1 70 16:26 06.04.2020
5346 Clouds 19 1015 47 10000 2 170 14:45 06.04.2020
5347 Clouds 19 1015 47 10000 2 170 14:45 06.04.2020
5348 Clouds 19 1015 47 10000 2 170 14:45 06.04.2020
5349 Clouds 19 1015 47 10000 2 170 14:45 06.04.2020
5350 Clouds 19 1015 47 10000 2 170 14:45 06.04.2020
5351 Clouds 20 1014 38 10000 1 0 13:44 06.04.2020
5352 Clouds 20 1014 38 10000 1 0 13:44 06.04.2020
5353 Clouds 20 1014 38 10000 1 0 13:44 06.04.2020
5354 Clouds 20 1014 38 10000 1 0 13:44 06.04.2020
5355 Clouds 20 1014 34 10000 1 0 13:20 06.04.2020
5356 Clouds 20 1014 34 10000 1 0 13:20 06.04.2020
5357 Clouds 20 1014 34 10000 1 0 13:20 06.04.2020
5358 Clouds 20 1014 34 10000 1 0 13:20 06.04.2020
5359 Clouds 22 1013 26 10000 4 220 12:26 06.04.2020
5360 Clouds 22 1013 26 10000 4 220 12:26 06.04.2020
5361 Clouds 22 1013 26 10000 4 220 12:26 06.04.2020
5362 Clear 23 1013 25 10000 4 210 11:56 06.04.2020
5363 Clear 23 1012 25 10000 4 170 11:36 06.04.2020
5364 Clear 23 1012 25 10000 4 170 11:36 06.04.2020
5365 Clear 23 1012 25 10000 4 170 11:34 06.04.2020
5366 Clear 23 1012 25 10000 4 170 11:34 06.04.2020
5367 Clear 24 1012 22 10000 4 170 10:52 06.04.2020
5368 Clear 24 1012 22 10000 4 170 10:52 06.04.2020
5369 Clear 24 1012 22 10000 4 170 10:52 06.04.2020
5370 Clear 24 1013 19 10000 3 180 10:22 06.04.2020
5371 Clear 24 1013 19 10000 3 180 10:22 06.04.2020
5372 Clear 24 1013 19 10000 4 210 09:51 06.04.2020
5373 Clear 24 1013 19 10000 4 210 09:51 06.04.2020
5374 Clear 24 1013 19 10000 4 210 09:51 06.04.2020
5375 Clear 24 1013 20 10000 3 170 09:24 06.04.2020
5376 Clouds 24 1014 19 10000 3 0 08:55 06.04.2020
5377 Clouds 24 1014 19 10000 3 0 08:55 06.04.2020
5378 Clouds 24 1014 19 10000 3 210 08:33 06.04.2020
5379 Clouds 24 1014 19 10000 3 210 08:33 06.04.2020
5380 Clouds 24 1015 19 10000 3 190 07:55 06.04.2020
5381 Clouds 22 1016 21 10000 2 0 07:18 06.04.2020
5382 Clouds 22 1017 24 10000 2 200 06:25 06.04.2020
5383 Clouds 19 1018 27 10000 2 280 04:59 06.04.2020
5384 Clouds 19 1018 27 10000 2 280 04:59 06.04.2020
5385 Clouds 16 1019 28 10000 2 310 03:28 06.04.2020
5386 Clouds 13 1019 30 10000 2 330 02:48 06.04.2020
5387 Clouds 12 1019 40 10000 2 320 01:52 06.04.2020
5388 Clouds 11 1019 35 10000 0.95 43 00:49 06.04.2020
5389 Clouds 10 1019 35 10000 0.95 43 00:26 06.04.2020
5390 Clouds 9 1019 65 10000 1 0 23:47 05.04.2020
5391 Clouds 9 1019 41 10000 1 30 23:29 05.04.2020
5392 Clouds 9 1019 41 10000 1 30 23:29 05.04.2020
5393 Clouds 9 1019 41 10000 1 360 22:56 05.04.2020
5394 Clouds 9 1019 41 10000 1 40 22:38 05.04.2020
5395 Clouds 9 1019 41 10000 1 40 22:19 05.04.2020
5396 Clouds 10 1020 56 10000 1 20 21:58 05.04.2020
5397 Clouds 10 1020 52 10000 1 0 21:39 05.04.2020
5398 Clouds 10 1020 52 10000 1 0 21:21 05.04.2020
5399 Clouds 10 1020 52 10000 1 0 21:21 05.04.2020
5400 Clouds 11 1020 43 10000 2 90 20:20 05.04.2020
5401 Clouds 11 1020 43 10000 2 100 19:41 05.04.2020
5402 Clouds 11 1020 43 10000 2 100 19:22 05.04.2020
5403 Clouds 12 1021 40 10000 2 90 18:46 05.04.2020
5404 Clouds 12 1021 40 10000 2 90 18:46 05.04.2020
5405 Clouds 12 1021 37 10000 2 0 17:58 05.04.2020
5406 Clouds 12 1021 37 10000 2 0 17:58 05.04.2020
5407 Clouds 12 1021 39 10000 1 70 17:39 05.04.2020
5408 Clouds 13 1021 39 10000 1 70 17:20 05.04.2020
5409 Clouds 13 1021 39 10000 2 70 16:45 05.04.2020
5410 Clouds 13 1021 39 10000 2 70 16:45 05.04.2020
5411 Clouds 13 1021 39 10000 2 70 16:45 05.04.2020
5412 Clouds 13 1021 39 10000 2 70 16:45 05.04.2020
5413 Clouds 13 1021 39 10000 2 70 16:45 05.04.2020
5414 Clouds 13 1021 32 10000 1 0 16:18 05.04.2020
5415 Clouds 14 1021 32 10000 2 170 15:44 05.04.2020
5416 Clouds 14 1021 30 10000 2 170 15:25 05.04.2020
5417 Clouds 14 1021 30 10000 2 170 15:25 05.04.2020
5418 Clouds 14 1021 34 10000 1 160 14:47 05.04.2020
5419 Clouds 14 1021 34 10000 1 160 14:47 05.04.2020
5420 Clouds 14 1021 34 10000 1 160 14:47 05.04.2020
5421 Clouds 14 1021 34 10000 1 160 14:47 05.04.2020
5422 Clouds 14 1021 34 10000 1 160 14:47 05.04.2020
5423 Clouds 16 1021 28 10000 1 160 13:45 05.04.2020
5424 Clouds 18 1020 16 10000 3 200 12:57 05.04.2020
5425 Clouds 18 1020 16 10000 3 200 12:57 05.04.2020
5426 Clouds 18 1020 15 10000 4 210 11:58 05.04.2020
5427 Clouds 18 1020 15 10000 4 210 11:58 05.04.2020
5428 Clouds 18 1020 15 10000 4 210 11:58 05.04.2020
5429 Clouds 19 1020 15 10000 4 180 11:38 05.04.2020
5430 Clouds 19 1020 15 10000 4 180 11:19 05.04.2020
5431 Clouds 20 1021 16 10000 3 210 10:44 05.04.2020
5432 Clouds 20 1021 16 10000 4 160 10:19 05.04.2020
5433 Clouds 19 1021 16 10000 4 160 09:51 05.04.2020
5434 Clouds 20 1021 16 10000 4 160 09:51 05.04.2020
5435 Clouds 20 1021 16 10000 4 160 09:51 05.04.2020
5436 Clouds 19 1021 16 10000 4 160 09:49 05.04.2020
5437 Clouds 19 1021 16 10000 4 160 09:49 05.04.2020
5438 Clouds 19 1022 17 10000 4 230 09:25 05.04.2020
5439 Clouds 19 1022 17 10000 4 230 09:25 05.04.2020
5440 Clouds 19 1022 17 10000 4 230 09:25 05.04.2020
5441 Clouds 19 1022 17 10000 4 230 09:25 05.04.2020
5442 Clouds 19 1022 17 10000 4 230 09:25 05.04.2020
5443 Clouds 18 1024 20 10000 3 160 07:57 05.04.2020
5444 Clouds 18 1024 20 10000 3 160 07:57 05.04.2020
5445 Clouds 14 1028 34 10000 1 0 04:52 05.04.2020
5446 Clouds 14 1028 34 10000 1 0 04:52 05.04.2020
5447 Clouds 13 1029 43 10000 1 0 03:35 05.04.2020
5448 Clouds 13 1029 43 10000 1 0 03:35 05.04.2020
5449 Clouds 13 1029 43 10000 1 0 03:35 05.04.2020
5450 Clouds 9 1029 49 10000 1 0 02:52 05.04.2020
5451 Clouds 9 1029 56 10000 1 0 01:51 05.04.2020
5452 Clouds 8 1029 65 10000 1 50 01:32 05.04.2020
5453 Clouds 6 1029 74 10000 1 30 00:47 05.04.2020
5454 Clouds 5 1029 74 10000 1 150 00:22 05.04.2020
5455 Clouds 5 1029 74 10000 1 100 23:57 04.04.2020
5456 Clouds 5 1029 69 10000 1 100 23:38 04.04.2020
5457 Clouds 5 1029 69 10000 1 100 23:19 04.04.2020
5458 Clouds 5 1029 60 10000 1 90 22:55 04.04.2020
5459 Clouds 6 1029 56 10000 1 90 22:37 04.04.2020
5460 Clouds 6 1029 56 10000 1 90 22:19 04.04.2020
5461 Clouds 6 1029 56 10000 2 100 21:54 04.04.2020
5462 Clear 6 1029 60 10000 2 110 21:36 04.04.2020
5463 Clear 6 1029 60 10000 2 110 21:18 04.04.2020
5464 Clear 7 1029 56 10000 2 110 20:42 04.04.2020
5465 Clear 7 1029 56 10000 2 100 20:23 04.04.2020
5466 Clear 7 1029 56 10000 2 100 19:59 04.04.2020
5467 Clear 8 1030 52 10000 2 100 19:37 04.04.2020
5468 Clear 8 1030 52 10000 3 100 19:19 04.04.2020
5469 Clear 8 1030 52 10000 3 100 18:57 04.04.2020
5470 Clear 9 1029 42 10000 3 120 18:38 04.04.2020
5471 Clear 9 1029 42 10000 3 120 18:19 04.04.2020
5472 Clear 9 1029 39 10000 4 130 17:56 04.04.2020
5473 Clear 9 1029 39 10000 3 130 17:38 04.04.2020
5474 Clear 10 1029 39 10000 3 130 17:18 04.04.2020
5475 Clear 10 1029 42 10000 3 120 16:42 04.04.2020
5476 Clear 10 1029 39 10000 3 120 16:23 04.04.2020
5477 Clear 11 1028 32 10000 4 150 15:57 04.04.2020
5478 Clear 12 1028 30 10000 4 160 15:38 04.04.2020
5479 Clear 12 1028 30 10000 4 160 15:19 04.04.2020
5480 Clear 12 1028 30 10000 4 160 14:44 04.04.2020
5481 Clear 13 1028 28 10000 4 160 14:23 04.04.2020
5482 Clear 13 1027 28 10000 4 170 13:57 04.04.2020
5483 Clear 13 1026 30 10000 4 180 13:38 04.04.2020
5484 Clear 15 1026 30 10000 4 180 13:20 04.04.2020
5485 Clear 16 1026 25 10000 5 200 12:55 04.04.2020
5486 Clear 16 1026 25 10000 5 200 12:55 04.04.2020
5487 Clear 16 1026 25 10000 5 180 12:36 04.04.2020
5488 Clear 17 1026 23 10000 5 190 12:18 04.04.2020
5489 Clear 18 1026 23 10000 5 180 11:41 04.04.2020
5490 Clear 18 1026 23 10000 5 180 11:23 04.04.2020
5491 Clear 19 1026 25 10000 6 180 10:58 04.04.2020
5492 Clear 19 1026 25 10000 6 180 10:40 04.04.2020
5493 Clear 18 1026 22 10000 5 220 10:21 04.04.2020
5494 Clear 19 1027 22 10000 5 180 09:55 04.04.2020
5495 Clear 19 1027 20 10000 4 190 09:37 04.04.2020
5496 Clear 19 1027 20 10000 4 190 09:19 04.04.2020
5497 Clear 18 1028 22 10000 5 220 08:42 04.04.2020
5498 Clear 18 1028 19 10000 4 210 08:23 04.04.2020
5499 Clear 18 1028 20 10000 4 180 07:55 04.04.2020
5500 Clear 18 1029 20 10000 4 190 07:37 04.04.2020
5501 Clear 18 1029 20 10000 4 190 07:19 04.04.2020
5502 Clear 18 1030 21 10000 4 200 06:22 04.04.2020
5503 Clear 16 1030 21 10000 4 0 05:51 04.04.2020
5504 Clear 16 1031 23 10000 5 170 05:32 04.04.2020
5505 Clear 15 1031 30 10000 4 160 04:34 04.04.2020
5506 Clear 14 1031 33 10000 5 170 03:55 04.04.2020
5507 Clear 15 1030 30 10000 5 160 03:27 04.04.2020
5508 Clear 15 1030 11 10000 5 70 02:42 04.04.2020
5509 Clear 13 1029 11 10000 4 50 02:24 04.04.2020
5510 Clear 12 1029 18 10000 2 60 01:27 04.04.2020
5511 Clear 12 1028 18 10000 2 30 00:57 04.04.2020
5512 Clear 12 1027 18 10000 3 30 00:30 04.04.2020
5513 Clear 12 1027 16 10000 2 30 23:56 03.04.2020
5514 Clear 12 1026 17 10000 3 360 23:37 03.04.2020
5515 Clear 12 1026 17 10000 3 360 23:18 03.04.2020
5516 Clear 14 1026 16 10000 4 10 22:40 03.04.2020
5517 Clear 14 1025 14 10000 4 20 22:19 03.04.2020
5518 Clear 14 1025 13 10000 5 20 21:56 03.04.2020
5519 Clear 14 1025 13 10000 5 20 21:56 03.04.2020
5520 Clear 15 1024 14 10000 6 30 21:37 03.04.2020
5521 Clear 15 1024 14 10000 6 30 21:19 03.04.2020
5522 Clear 16 1024 15 10000 4 30 20:55 03.04.2020
5523 Clear 16 1024 14 10000 6 20 20:36 03.04.2020
5524 Clear 16 1024 14 10000 6 20 20:18 03.04.2020
5525 Clear 17 1023 13 10000 6 30 19:54 03.04.2020
5526 Clear 17 1023 13 10000 6 20 19:36 03.04.2020
5527 Clear 18 1022 13 10000 7 20 19:18 03.04.2020
5528 Clear 18 1022 13 10000 7 20 18:56 03.04.2020
5529 Clear 18 1021 13 10000 8 30 18:38 03.04.2020
5530 Clear 18 1021 13 10000 8 30 18:19 03.04.2020
5531 Clear 18 1020 15 10000 4 40 17:40 03.04.2020
5532 Clear 17 1020 15 10000 4 40 17:19 03.04.2020
5533 Clear 16 1020 28 10000 2 50 16:55 03.04.2020
5534 Clear 16 1020 28 10000 2 50 16:55 03.04.2020
5535 Clear 16 1020 26 10000 2 80 16:36 03.04.2020
5536 Clear 18 1019 23 10000 1 0 16:18 03.04.2020
5537 Clear 18 1019 23 10000 1 0 15:41 03.04.2020
5538 Clear 18 1018 18 10000 2 190 15:22 03.04.2020
5539 Clear 21 1009 12 0 2.67 319 14:58 03.04.2020
5540 Clear 20 1011 23 0 2.67 319 14:40 03.04.2020
5541 Clear 21 1016 11 10000 6 210 14:21 03.04.2020
5542 Clear 22 1016 11 10000 6 210 13:46 03.04.2020
5543 Clear 21 1016 11 10000 6 210 13:27 03.04.2020
5544 Clear 22 1016 13 10000 1 0 12:57 03.04.2020
5545 Clear 24 1015 8 10000 2 200 12:39 03.04.2020
5546 Clear 24 1015 9 10000 3 210 12:18 03.04.2020
5547 Clear 24 1015 9 10000 3 210 11:55 03.04.2020
5548 Clear 25 1015 8 10000 5 260 11:37 03.04.2020
5549 Clear 26 1015 8 10000 5 260 11:18 03.04.2020
5550 Clear 26 1015 9 10000 6 270 10:56 03.04.2020
5551 Clear 26 1016 9 10000 5 230 10:37 03.04.2020
5552 Clear 25 1016 9 10000 5 230 10:19 03.04.2020
5553 Clear 25 1016 9 10000 6 260 09:56 03.04.2020
5554 Clear 26 1017 8 10000 5 260 09:37 03.04.2020
5555 Clear 24 1017 8 10000 5 260 09:19 03.04.2020
5556 Clear 24 1017 9 10000 5 280 08:44 03.04.2020
5557 Clear 24 1018 8 10000 4 270 08:25 03.04.2020
5558 Clear 24 1019 10 10000 2 260 07:57 03.04.2020
5559 Clear 24 1019 8 10000 2 0 07:39 03.04.2020
5560 Clear 23 1019 8 10000 2 0 07:20 03.04.2020
5561 Clear 23 1021 12 10000 4 270 06:28 03.04.2020
5562 Clear 21 1021 11 10000 4 280 05:43 03.04.2020
5563 Clear 19 1022 17 10000 1 0 04:27 03.04.2020
5564 Clear 20 1023 16 10000 2 340 03:33 03.04.2020
5565 Clear 15 1023 17 10000 3 330 02:40 03.04.2020
5566 Clear 13 1022 52 10000 1 0 01:25 03.04.2020
5567 Clear 11 1022 51 10000 1 330 00:52 03.04.2020
5568 Clear 10 1022 47 10000 2 340 00:32 03.04.2020
5569 Clear 9 1022 48 10000 2 320 23:55 02.04.2020
5570 Clear 9 1022 48 10000 1 320 23:37 02.04.2020
5571 Clear 10 1022 48 10000 1 320 23:18 02.04.2020
5572 Clear 10 1022 48 10000 1 320 23:18 02.04.2020
5573 Clear 10 1021 41 10000 3 330 22:41 02.04.2020
5574 Clear 9 1022 51 10000 2 340 22:22 02.04.2020
5575 Clear 9 1022 55 10000 2 350 21:59 02.04.2020
5576 Clear 9 1022 64 10000 2 340 21:37 02.04.2020
5577 Clear 9 1022 64 10000 2 340 21:18 02.04.2020
5578 Clear 9 1022 64 10000 2 340 20:45 02.04.2020
5579 Clear 9 1022 60 10000 3 350 20:25 02.04.2020
5580 Clear 9 1022 64 10000 1 340 19:59 02.04.2020
5581 Clear 9 1022 56 10000 1 50 19:40 02.04.2020
5582 Clear 9 1022 56 10000 1 50 19:20 02.04.2020
5583 Clear 9 1022 52 10000 2.05 328 18:56 02.04.2020
5584 Clear 10 1022 48 10000 1 0 18:37 02.04.2020
5585 Clear 11 1021 45 10000 2 60 18:18 02.04.2020
5586 Clear 12 1021 45 10000 2 60 17:43 02.04.2020
5587 Clear 14 1021 37 10000 1 0 17:24 02.04.2020
5588 Clear 14 1021 28 10000 3 230 16:58 02.04.2020
5589 Clear 14 1021 26 10000 4 220 16:40 02.04.2020
5590 Clear 14 1021 26 10000 4 220 16:22 02.04.2020
5591 Clear 15 1021 24 10000 5 210 15:57 02.04.2020
5592 Clear 15 1021 23 10000 6 220 15:39 02.04.2020
5593 Clear 15 1021 23 10000 6 220 15:19 02.04.2020
5594 Clear 15 1020 23 10000 7 220 14:57 02.04.2020
5595 Clear 16 1020 19 10000 6 220 14:38 02.04.2020
5596 Clear 17 1019 14 10000 8 220 14:18 02.04.2020
5597 Clear 16 1019 14 10000 8 220 13:55 02.04.2020
5598 Clear 18 1019 12 10000 6 200 13:37 02.04.2020
5599 Clear 18 1019 10 10000 5 200 13:18 02.04.2020
5600 Clear 19 1019 10 10000 5 200 12:45 02.04.2020
5601 Clear 19 1019 10 10000 5 200 12:45 02.04.2020
5602 Clear 20 1019 7 10000 2 240 12:20 02.04.2020
5603 Clear 20 1019 7 10000 2 240 11:58 02.04.2020
5604 Clear 20 1019 7 10000 2 240 11:58 02.04.2020
5605 Clear 21 1019 7 10000 4 260 11:39 02.04.2020
5606 Clear 21 1019 7 10000 4 260 11:20 02.04.2020
5607 Clear 21 1019 7 10000 4 260 11:20 02.04.2020
5608 Clear 21 1019 7 10000 5 260 10:57 02.04.2020
5609 Clear 22 1019 8 10000 3 200 10:38 02.04.2020
5610 Clear 22 1019 8 10000 3 200 10:20 02.04.2020
5611 Clear 21 1020 7 10000 4 250 09:59 02.04.2020
5612 Clear 21 1020 7 10000 4 250 09:41 02.04.2020
5613 Clear 21 1020 8 10000 5 320 09:21 02.04.2020
5614 Clear 20 1020 8 10000 3 240 08:47 02.04.2020
5615 Clear 21 1021 7 10000 2 300 08:28 02.04.2020
5616 Clear 20 1022 8 10000 4 300 07:57 02.04.2020
5617 Clear 20 1022 8 10000 2 0 07:38 02.04.2020
5618 Clear 20 1022 8 10000 2 0 07:19 02.04.2020
5619 Clear 19 1023 8 10000 4 230 06:24 02.04.2020
5620 Clear 17 1024 10 10000 3 320 05:46 02.04.2020
5621 Clear 17 1024 10 10000 3 310 04:55 02.04.2020
5622 Clear 10 1025 27 10000 2 340 02:19 02.04.2020
5623 Clear 8 1025 48 10000 3 350 01:27 02.04.2020
5624 Clear 9 1024 38 10000 2 310 00:41 02.04.2020
5625 Clear 7 1024 38 10000 2 310 00:19 02.04.2020
5626 Clear 6 1024 51 10000 3 340 23:39 01.04.2020
5627 Clear 6 1024 51 10000 3 340 23:19 01.04.2020
5628 Clear 5 1024 69 10000 2 360 22:56 01.04.2020
5629 Clear 6 1024 59 10000 2 330 22:38 01.04.2020
5630 Clear 6 1024 59 10000 2 330 22:19 01.04.2020
5631 Clear 6 1024 69 10000 2 350 21:41 01.04.2020
5632 Clear 9 1023 80 10000 2 350 21:19 01.04.2020
5633 Clouds 9 1024 80 10000 1 350 20:56 01.04.2020
5634 Clouds 9 1024 45 10000 2 360 20:38 01.04.2020
5635 Clouds 9 1024 45 10000 2 360 20:19 01.04.2020
5636 Clouds 9 1024 74 10000 1 0 19:58 01.04.2020
5637 Clouds 9 1024 45 10000 1 70 19:38 01.04.2020
5638 Clouds 10 1024 45 10000 1 70 19:19 01.04.2020
5639 Clouds 10 1024 65 10000 1 170 18:42 01.04.2020
5640 Clouds 10 1024 65 10000 1 170 18:23 01.04.2020
5641 Clouds 11 1024 41 10000 1 0 17:57 01.04.2020
5642 Clouds 11 1024 46 10000 2 200 17:38 01.04.2020
5643 Clouds 11 1024 46 10000 2 200 17:19 01.04.2020
5644 Clouds 11 1024 46 10000 2 200 17:19 01.04.2020
5645 Clouds 11 1024 41 10000 2 160 16:58 01.04.2020
5646 Clouds 10 1023 46 10000 4 190 16:39 01.04.2020
5647 Clouds 10 1023 46 10000 4 190 16:39 01.04.2020
5648 Clouds 11 1023 46 10000 4 190 16:20 01.04.2020
5649 Clouds 11 1023 41 10000 5 210 15:56 01.04.2020
5650 Clouds 11 1023 40 10000 5 210 15:37 01.04.2020
5651 Clouds 13 1023 37 10000 5 220 15:18 01.04.2020
5652 Clouds 12 1023 37 10000 5 220 14:40 01.04.2020
5653 Clouds 12 1023 28 10000 4 210 14:22 01.04.2020
5654 Clouds 13 1022 12 10000 3 190 13:59 01.04.2020
5655 Clouds 13 1022 11 10000 4 200 13:40 01.04.2020
5656 Clouds 14 1022 11 10000 4 200 13:20 01.04.2020
5657 Clouds 14 1022 11 10000 4 200 13:20 01.04.2020
5658 Clouds 14 1022 10 10000 4 180 12:59 01.04.2020
5659 Clouds 14 1022 10 10000 4 180 12:41 01.04.2020
5660 Clouds 16 1022 10 10000 4 180 12:22 01.04.2020
5661 Clouds 15 1022 7 10000 3 180 11:57 01.04.2020
5662 Clouds 16 1022 6 10000 3 210 11:38 01.04.2020
5663 Clouds 17 1022 6 10000 3 210 11:20 01.04.2020
5664 Clouds 17 1022 6 10000 2 170 10:41 01.04.2020
5665 Clouds 17 1022 8 10000 3 200 10:22 01.04.2020
5666 Clouds 17 1023 8 10000 4 180 09:59 01.04.2020
5667 Clouds 17 1023 8 10000 3 0 09:40 01.04.2020
5668 Clouds 17 1023 8 10000 3 0 09:21 01.04.2020
5669 Clouds 17 1024 8 10000 2 0 08:57 01.04.2020
5670 Clouds 17 1024 7 10000 1 0 08:38 01.04.2020
5671 Clouds 17 1024 7 10000 1 0 08:18 01.04.2020
5672 Clouds 17 1026 9 10000 3 220 07:41 01.04.2020
5673 Clouds 16 1026 9 10000 3 220 07:19 01.04.2020
5674 Clouds 16 1027 10 10000 1 0 06:47 01.04.2020
5675 Clouds 15 1027 10 10000 1 0 06:21 01.04.2020
5676 Clouds 15 1027 10 10000 2 320 05:53 01.04.2020
5677 Clouds 14 1029 11 10000 4 350 04:29 01.04.2020
5678 Clouds 12 1029 12 10000 3 10 03:21 01.04.2020
5679 Clouds 11 1029 12 10000 4 20 02:41 01.04.2020
5680 Clouds 10 1028 15 10000 3 10 01:53 01.04.2020
5681 Clouds 10 1028 15 10000 3 20 01:29 01.04.2020
5682 Clouds 10 1027 15 10000 3 20 00:47 01.04.2020
5683 Clouds 9 1027 16 10000 4 20 00:25 01.04.2020
5684 Clouds 9 1027 16 10000 3 20 23:59 31.03.2020
5685 Clouds 9 1027 18 10000 3 20 23:41 31.03.2020
5686 Clouds 9 1027 18 10000 3 20 23:22 31.03.2020
5687 Clouds 10 1026 16 10000 3 20 22:42 31.03.2020
5688 Clouds 10 1026 16 10000 4 20 22:22 31.03.2020
5689 Clouds 10 1026 16 10000 4 20 21:59 31.03.2020
5690 Clouds 11 1026 15 10000 4 30 21:40 31.03.2020
5691 Clouds 11 1026 15 10000 4 30 21:40 31.03.2020
5692 Clouds 11 1026 15 10000 4 30 21:22 31.03.2020
5693 Clouds 11 1026 14 10000 5 30 20:58 31.03.2020
5694 Clouds 11 1026 14 10000 5 30 20:38 31.03.2020
5695 Clouds 12 1026 14 10000 6 40 20:20 31.03.2020
5696 Clouds 12 1026 14 10000 6 40 19:58 31.03.2020
5697 Clouds 12 1025 13 10000 7 30 19:40 31.03.2020
5698 Clouds 12 1025 14 10000 7 30 19:21 31.03.2020
5699 Clouds 12 1025 14 10000 7 30 18:54 31.03.2020
5700 Clouds 13 1025 14 10000 7 30 18:36 31.03.2020
5701 Clouds 13 1024 16 10000 7 10 18:18 31.03.2020
5702 Clouds 13 1024 22 10000 4 20 17:54 31.03.2020
5703 Clouds 13 1024 22 10000 4 20 17:36 31.03.2020
5704 Clouds 13 1023 50 10000 2 20 17:18 31.03.2020
5705 Clouds 13 1023 58 10000 3 360 16:37 31.03.2020
5706 Clouds 13 1023 58 10000 3 360 16:18 31.03.2020
5707 Clouds 13 1022 54 10000 2 70 15:56 31.03.2020
5708 Clouds 13 1021 54 10000 4 70 15:37 31.03.2020
5709 Clouds 13 1021 54 10000 4 70 15:19 31.03.2020
5710 Clouds 13 1021 54 10000 4 70 14:56 31.03.2020
5711 Clouds 13 1020 54 10000 4 80 14:38 31.03.2020
5712 Clouds 13 1020 54 10000 4 80 14:18 31.03.2020
5713 Clouds 14 1019 58 10000 4 80 13:41 31.03.2020
5714 Clouds 15 1018 58 10000 5 80 13:19 31.03.2020
5715 Clouds 17 1017 51 10000 3 100 12:54 31.03.2020
5716 Clouds 17 1016 51 8000 2 80 12:36 31.03.2020
5717 Clouds 17 1016 51 8000 2 80 12:18 31.03.2020
5718 Rain 18 1016 48 10000 4 20 11:38 31.03.2020
5719 Rain 18 1016 48 10000 4 20 11:19 31.03.2020
5720 Rain 18 1015 45 10000 7 360 10:57 31.03.2020
5721 Clouds 19 1015 39 7000 4 150 10:39 31.03.2020
5722 Clouds 19 1015 39 7000 4 150 10:20 31.03.2020
5723 Clouds 20 1014 39 7000 4 150 09:55 31.03.2020
5724 Clouds 20 1014 37 7000 5 140 09:37 31.03.2020
5725 Clouds 20 1014 37 7000 5 140 09:19 31.03.2020
5726 Clouds 19 1014 39 7000 4 140 08:54 31.03.2020
5727 Clouds 19 1014 39 7000 4 130 08:36 31.03.2020
5728 Clouds 20 1014 39 7000 4 130 08:18 31.03.2020
5729 Clouds 19 1014 37 7000 3 60 07:43 31.03.2020
5730 Clouds 19 1015 39 7000 3 40 07:23 31.03.2020
5731 Clouds 19 1016 42 7000 3 40 06:58 31.03.2020
5732 Clouds 18 1016 48 7000 2 0 06:39 31.03.2020
5733 Clouds 16 1017 51 7000 2 360 05:42 31.03.2020
5734 Clouds 17 1017 51 7000 2 360 05:23 31.03.2020
5735 Clouds 12 1016 62 7000 2 160 02:53 31.03.2020
5736 Clouds 11 1016 66 7000 1 140 01:47 31.03.2020
5737 Clouds 10 1016 70 7000 2 150 01:19 31.03.2020
5738 Clouds 9 1015 75 10000 2 170 00:43 31.03.2020
5739 Clouds 9 1015 75 10000 2 170 00:20 31.03.2020
5740 Clouds 9 1015 75 10000 2 120 23:40 30.03.2020
5741 Clouds 9 1015 75 10000 2 120 23:20 30.03.2020
5742 Clouds 9 1015 65 10000 1 0 22:57 30.03.2020
5743 Clouds 10 1015 66 10000 2 140 22:38 30.03.2020
5744 Clouds 11 1015 66 10000 2 140 22:19 30.03.2020
5745 Clouds 10 1015 70 10000 1 0 21:57 30.03.2020
5746 Clouds 12 1015 61 10000 2 130 21:38 30.03.2020
5747 Clouds 12 1015 61 10000 2 130 21:20 30.03.2020
5748 Clouds 12 1015 57 10000 2 140 20:57 30.03.2020
5749 Clouds 12 1015 53 10000 3 130 20:38 30.03.2020
5750 Clouds 13 1015 53 10000 3 130 20:19 30.03.2020
5751 Clouds 13 1015 53 10000 3 130 20:19 30.03.2020
5752 Clouds 13 1015 50 10000 3 130 19:41 30.03.2020
5753 Clouds 13 1015 50 10000 3 130 19:22 30.03.2020
5754 Clouds 13 1015 46 10000 3 140 18:59 30.03.2020
5755 Clouds 13 1016 50 10000 3 140 18:41 30.03.2020
5756 Clouds 13 1016 50 10000 3 140 18:22 30.03.2020
5757 Clouds 13 1016 53 10000 2 120 17:57 30.03.2020
5758 Clouds 14 1016 50 10000 3 140 17:39 30.03.2020
5759 Clouds 14 1016 50 10000 3 140 17:39 30.03.2020
5760 Clouds 14 1016 50 10000 3 140 17:19 30.03.2020
5761 Clouds 12 1016 57 10000 2 120 16:57 30.03.2020
5762 Clouds 13 1016 57 10000 2 150 16:38 30.03.2020
5763 Clouds 15 1016 57 10000 2 150 16:20 30.03.2020
5764 Clouds 13 1016 54 10000 2 140 15:55 30.03.2020
5765 Clouds 14 1016 54 10000 1 160 15:36 30.03.2020
5766 Clouds 15 1016 54 10000 1 160 15:18 30.03.2020
5767 Clouds 15 1016 47 10000 2 160 14:55 30.03.2020
5768 Clouds 16 1016 47 10000 3 180 14:36 30.03.2020
5769 Clouds 16 1016 47 10000 3 180 14:18 30.03.2020
5770 Clouds 16 1016 41 10000 6 210 13:43 30.03.2020
5771 Clouds 16 1015 41 10000 3 190 13:21 30.03.2020
5772 Clouds 16 1015 36 10000 5 200 12:58 30.03.2020
5773 Clouds 16 1015 33 10000 4 210 12:40 30.03.2020
5774 Clouds 17 1015 33 10000 4 210 12:19 30.03.2020
5775 Clouds 17 1014 33 10000 5 210 11:56 30.03.2020
5776 Clouds 18 1014 29 10000 5 190 11:38 30.03.2020
5777 Clouds 18 1014 29 10000 5 190 11:20 30.03.2020
5778 Clouds 19 1014 29 10000 5 210 10:40 30.03.2020
5779 Clouds 19 1014 31 10000 4 190 10:22 30.03.2020
5780 Clouds 19 1014 31 10000 5 200 09:56 30.03.2020
5781 Clouds 19 1015 31 10000 4 190 09:38 30.03.2020
5782 Clouds 19 1015 31 10000 4 190 09:19 30.03.2020
5783 Clouds 19 1015 27 10000 5 170 08:42 30.03.2020
5784 Clouds 19 1016 31 10000 4 180 08:22 30.03.2020
5785 Clouds 18 1016 36 10000 4 180 07:49 30.03.2020
5786 Clouds 19 1016 38 10000 4 200 07:31 30.03.2020
5787 Clouds 18 1017 36 10000 4 180 06:56 30.03.2020
5788 Clouds 17 1017 41 10000 2 170 06:32 30.03.2020
5789 Clouds 16 1018 44 10000 3 180 05:53 30.03.2020
5790 Clouds 15 1018 41 10000 4 190 05:22 30.03.2020
5791 Clouds 14 1019 47 10000 1 0 04:23 30.03.2020
5792 Clouds 13 1019 35 10000 1 0 03:44 30.03.2020
5793 Clear 10 1018 57 10000 1 0 02:39 30.03.2020
5794 Clear 9 1018 70 10000 0.88 258 01:44 30.03.2020
5795 Clear 7 1018 80 10000 1 0 00:50 30.03.2020
5796 Clear 6 1017 74 10000 1 60 00:23 30.03.2020
5797 Clear 6 1017 80 10000 2 70 23:42 29.03.2020
5798 Clear 7 1017 74 10000 1 40 23:24 29.03.2020
5799 Clear 7 1017 69 10000 1.49 226 22:58 29.03.2020
5800 Clear 7 1017 69 10000 2 70 22:38 29.03.2020
5801 Clear 8 1017 69 10000 2 70 22:19 29.03.2020
5802 Clear 7 1017 74 10000 1 40 21:56 29.03.2020
5803 Clear 7 1017 60 10000 1.49 226 21:36 29.03.2020
5804 Clear 8 1017 60 10000 2.31 192 21:18 29.03.2020
5805 Clear 8 1017 56 10000 1 0 20:55 29.03.2020
5806 Clear 9 1017 48 10000 1 0 20:36 29.03.2020
5807 Clear 9 1017 48 10000 1 100 20:18 29.03.2020
5808 Clear 9 1017 48 10000 1 100 20:18 29.03.2020
5809 Clear 9 1017 45 10000 2 100 19:42 29.03.2020
5810 Clear 9 1017 45 10000 2 100 19:42 29.03.2020
5811 Clear 9 1017 45 10000 2 100 19:24 29.03.2020
5812 Clear 10 1017 45 10000 2 100 18:58 29.03.2020
5813 Clear 10 1017 45 10000 2 110 18:40 29.03.2020
5814 Clear 10 1017 42 10000 2 100 18:21 29.03.2020
5815 Clear 10 1017 42 10000 2 100 17:59 29.03.2020
5816 Clear 11 1017 42 10000 2 110 17:41 29.03.2020
5817 Clear 11 1017 42 10000 2 110 17:22 29.03.2020
5818 Clear 11 1017 42 10000 2 110 17:22 29.03.2020
5819 Clear 11 1017 39 10000 2 90 16:58 29.03.2020
5820 Clear 11 1017 49 10000 3.2 189 16:39 29.03.2020
5821 Clear 11 1017 49 10000 3.2 189 16:21 29.03.2020
5822 Clear 11 1017 52 10000 2 130 15:58 29.03.2020
5823 Clear 11 1017 42 10000 2 180 15:39 29.03.2020
5824 Clear 12 1017 42 10000 2 180 15:19 29.03.2020
5825 Clear 13 1016 32 10000 3 190 14:55 29.03.2020
5826 Clear 12 1016 37 10000 2 180 14:36 29.03.2020
5827 Clear 12 1016 37 10000 2 180 14:36 29.03.2020
5828 Clear 14 1016 32 10000 2 170 14:18 29.03.2020
5829 Clear 14 1015 30 10000 2 190 13:42 29.03.2020
5830 Clear 15 1015 30 10000 2 190 13:22 29.03.2020
5831 Clear 16 1015 24 10000 4 180 12:58 29.03.2020
5832 Clear 16 1015 24 10000 4 180 12:39 29.03.2020
5833 Clouds 16 1015 23 10000 5 180 12:19 29.03.2020
5834 Clouds 17 1015 23 10000 5 180 11:59 29.03.2020
5835 Clouds 17 1015 23 10000 3 180 11:38 29.03.2020
5836 Clouds 18 1015 23 10000 3 180 11:19 29.03.2020
5837 Clouds 18 1016 20 10000 4 180 10:39 29.03.2020
5838 Clouds 18 1016 20 10000 4 180 10:20 29.03.2020
5839 Clouds 18 1016 20 10000 5 220 09:56 29.03.2020
5840 Clouds 18 1017 20 10000 5 170 09:38 29.03.2020
5841 Clouds 18 1017 20 10000 5 170 09:18 29.03.2020
5842 Clouds 17 1018 21 10000 5 190 08:43 29.03.2020
5843 Clouds 18 1018 21 10000 5 190 08:25 29.03.2020
5844 Clouds 17 1019 22 10000 5 210 07:47 29.03.2020
5845 Clouds 17 1019 22 10000 4 170 07:23 29.03.2020
5846 Clouds 16 1020 24 10000 5 180 06:34 29.03.2020
5847 Clouds 13 1021 32 10000 2 240 04:56 29.03.2020
5848 Clouds 12 1022 36 10000 1 0 03:41 29.03.2020
5849 Clouds 9 1022 36 10000 1 0 03:20 29.03.2020
5850 Clouds 8 1022 42 10000 1 0 01:40 29.03.2020
5851 Clear 8 1022 42 10000 1 0 01:21 29.03.2020
5852 Clear 6 1021 64 10000 1 40 00:40 29.03.2020
5853 Clear 5 1021 44 10000 1 50 00:19 29.03.2020
5854 Clear 4 1021 63 10000 1 0 23:41 28.03.2020
5855 Clear 3 1021 63 10000 1 0 23:22 28.03.2020
5856 Clear 4 1020 50 10000 1 50 22:44 28.03.2020
5857 Clear 4 1020 55 10000 2 70 22:23 28.03.2020
5858 Clear 4 1021 55 10000 2 70 21:59 28.03.2020
5859 Clear 4 1021 55 10000 2 70 21:39 28.03.2020
5860 Clear 4 1021 55 10000 2 70 21:21 28.03.2020
5861 Clear 5 1021 55 10000 2 80 20:57 28.03.2020
5862 Clear 5 1021 50 10000 2 100 20:38 28.03.2020
5863 Clear 5 1021 45 10000 2 100 20:20 28.03.2020
5864 Clear 5 1022 68 10000 2 70 19:55 28.03.2020
5865 Clear 5 1022 55 10000 1 0 19:36 28.03.2020
5866 Clear 5 1022 55 10000 1 0 19:18 28.03.2020
5867 Clear 6 1022 51 10000 1 0 18:42 28.03.2020
5868 Clear 7 1022 41 10000 2 160 18:20 28.03.2020
5869 Clear 7 1022 44 10000 2 160 17:43 28.03.2020
5870 Clear 7 1022 44 10000 2 160 17:24 28.03.2020
5871 Clear 8 1022 38 10000 2 150 17:00 28.03.2020
5872 Clear 8 1022 38 10000 2 150 17:00 28.03.2020
5873 Clear 8 1022 35 10000 2 160 16:40 28.03.2020
5874 Clear 8 1022 35 10000 2 160 16:20 28.03.2020
5875 Clear 8 1022 35 10000 2 150 15:55 28.03.2020
5876 Clear 9 1022 28 10000 2 170 15:37 28.03.2020
5877 Clear 9 1022 28 10000 2 170 15:18 28.03.2020
5878 Clear 9 1022 23 10000 3 170 14:41 28.03.2020
5879 Clear 10 1022 23 10000 3 170 14:22 28.03.2020
5880 Clear 10 1022 19 10000 4 180 13:46 28.03.2020
5881 Clear 10 1022 19 10000 4 180 13:26 28.03.2020
5882 Clear 11 1021 19 10000 4 180 12:57 28.03.2020
5883 Clear 11 1021 19 10000 4 180 12:37 28.03.2020
5884 Clear 12 1021 19 10000 4 180 12:18 28.03.2020
5885 Clear 12 1021 14 10000 5 180 11:42 28.03.2020
5886 Clear 12 1021 13 10000 5 180 11:21 28.03.2020
5887 Clear 12 1021 13 10000 5 180 11:21 28.03.2020
5888 Clear 14 1021 11 10000 5 180 10:41 28.03.2020
5889 Clear 14 1021 11 10000 5 180 10:22 28.03.2020
5890 Clear 15 1021 12 10000 4 190 09:59 28.03.2020
5891 Clear 15 1021 11 10000 3 220 09:39 28.03.2020
5892 Clear 15 1021 11 10000 3 220 09:21 28.03.2020
5893 Clear 15 1022 11 10000 3 190 08:42 28.03.2020
5894 Clear 15 1022 11 10000 3 190 08:42 28.03.2020
5895 Clear 14 1023 11 10000 3 0 08:24 28.03.2020
5896 Clouds 14 1023 10 10000 5 220 07:52 28.03.2020
5897 Clouds 14 1024 11 10000 3 0 07:34 28.03.2020
5898 Clouds 13 1026 11 10000 3 200 06:45 28.03.2020
5899 Clouds 14 1026 11 10000 3 200 06:23 28.03.2020
5900 Clouds 13 1027 10 10000 4 0 05:26 28.03.2020
5901 Clouds 12 1028 12 10000 4 230 04:53 28.03.2020
5902 Clouds 11 1029 14 10000 4 180 04:35 28.03.2020
5903 Clouds 10 1030 18 10000 2 240 02:50 28.03.2020
5904 Clear 7 1030 20 10000 1 0 01:47 28.03.2020
5905 Clear 7 1030 24 10000 1 0 01:23 28.03.2020
5906 Clear 7 1030 35 10000 1 0 00:49 28.03.2020
5907 Clear 5 1030 55 10000 1 40 00:24 28.03.2020
5908 Clear 4 1030 46 10000 2 0 23:44 27.03.2020
5909 Clear 3 1030 46 10000 2 0 23:26 27.03.2020
5910 Clear 1 1029 58 10000 1 0 22:57 27.03.2020
5911 Clear 2 1029 53 10000 0.54 171 22:39 27.03.2020
5912 Clear 2 1029 53 10000 0.54 171 22:20 27.03.2020
5913 Clear 2 1029 62 10000 1 0 21:58 27.03.2020
5914 Clear 2 1029 50 10000 1 0 21:40 27.03.2020
5915 Clear 2 1029 50 10000 1 0 21:22 27.03.2020
5916 Clear 2 1029 53 10000 1 0 20:55 27.03.2020
5917 Clear 2 1029 50 10000 1 0 20:37 27.03.2020
5918 Clear 2 1029 50 10000 1 0 20:19 27.03.2020
5919 Clear 2 1029 49 10000 1 320 19:43 27.03.2020
5920 Clear 3 1029 49 10000 1 320 19:23 27.03.2020
5921 Clear 3 1029 50 10000 2.43 20 18:57 27.03.2020
5922 Clear 4 1029 42 10000 1 40 18:39 27.03.2020
5923 Clear 4 1029 42 10000 1 40 18:20 27.03.2020
5924 Clear 5 1029 38 10000 1 0 17:41 27.03.2020
5925 Clear 5 1029 22 10000 1 0 17:21 27.03.2020
5926 Clear 5 1029 22 10000 1 0 16:57 27.03.2020
5927 Clear 6 1029 19 10000 1 0 16:39 27.03.2020
5928 Clear 6 1029 19 10000 1 0 16:20 27.03.2020
5929 Clear 7 1029 17 10000 4 350 15:42 27.03.2020
5930 Clear 8 1022 17 0 0.45 0 15:24 27.03.2020
5931 Clear 8 1022 17 0 4.22 11 14:48 27.03.2020
5932 Clear 8 1022 19 0 4.22 11 14:27 27.03.2020
5933 Clear 8 1022 18 0 0.89 315 13:58 27.03.2020
5934 Clear 11 1022 19 0 4.82 3 13:40 27.03.2020
5935 Clear 11 1022 19 0 4.8 4 13:21 27.03.2020
5936 Clear 11 1021 20 0 4.8 4 12:57 27.03.2020
5937 Clear 11 1021 19 0 4.8 4 12:39 27.03.2020
5938 Clear 12 1021 18 0 1.34 0 12:19 27.03.2020
5939 Clear 12 1019 18 0 4.8 4 11:41 27.03.2020
5940 Clear 13 1019 15 0 1.34 315 11:23 27.03.2020
5941 Clear 13 1019 15 0 0.89 0 11:23 27.03.2020
5942 Clear 14 1018 15 0 2.24 0 10:55 27.03.2020
5943 Clear 14 1018 16 0 1.34 0 10:37 27.03.2020
5944 Clear 14 1018 15 0 0.89 315 10:19 27.03.2020
5945 Clear 15 1017 14 0 1.34 180 09:57 27.03.2020
5946 Clear 16 1017 14 0 0.45 0 09:37 27.03.2020
5947 Clear 14 1017 13 0 2.68 315 09:18 27.03.2020
5948 Clear 14 1017 15 0 1.34 315 08:56 27.03.2020
5949 Clear 14 1018 15 0 0.45 315 08:38 27.03.2020
5950 Clear 14 1018 14 0 1.34 23 08:20 27.03.2020
5951 Clear 14 1018 15 0 0.89 315 07:50 27.03.2020
5952 Clear 14 1019 14 0 1.34 0 07:24 27.03.2020
5953 Clear 14 1020 14 0 0.89 315 06:53 27.03.2020
5954 Clear 15 1020 13 0 4.68 296 06:35 27.03.2020
5955 Clear 12 1022 15 0 0.89 90 04:24 27.03.2020
5956 Clear 10 1023 19 0 0.45 315 02:32 27.03.2020
5957 Clear 7 1023 22 0 0.45 315 01:23 27.03.2020
5958 Clear 7 1023 24 0 0.45 0 00:48 27.03.2020
5959 Clear 6 1023 28 0 3.49 332 00:24 27.03.2020
5960 Clear 5 1023 35 0 3.49 332 23:44 26.03.2020
5961 Clear 4 1027 24 0 3.02 337 23:22 26.03.2020
5962 Clear 3 1023 38 0 3.02 337 22:59 26.03.2020
5963 Clear 4 1023 36 0 3.02 337 22:38 26.03.2020
5964 Clear 4 1023 37 0 3.02 337 22:19 26.03.2020
5965 Clear 4 1023 36 0 3.02 337 21:56 26.03.2020
5966 Clear 4 1023 36 0 3.02 337 21:37 26.03.2020
5967 Clear 5 1023 32 0 3.02 337 21:18 26.03.2020
5968 Clear 5 1022 30 0 3.02 337 20:56 26.03.2020
5969 Clear 5 1022 26 0 3.02 337 20:37 26.03.2020
5970 Clouds 5 1022 23 0 4.93 348 20:19 26.03.2020
5971 Clouds 5 1022 23 0 0.45 315 19:54 26.03.2020
5972 Clouds 6 1022 23 0 0.45 0 19:36 26.03.2020
5973 Clouds 6 1022 23 0 5.04 355 19:18 26.03.2020
5974 Clouds 6 1022 22 0 0.89 315 18:41 26.03.2020
5975 Clouds 6 1022 22 0 5.04 355 18:23 26.03.2020
5976 Clouds 6 1022 22 0 5.04 355 18:23 26.03.2020
5977 Clouds 7 1022 22 0 0.45 0 17:56 26.03.2020
5978 Clouds 7 1022 22 0 0.89 0 17:37 26.03.2020
5979 Clouds 7 1022 22 0 1.34 338 17:18 26.03.2020
5980 Clouds 7 1022 26 0 0.89 315 16:40 26.03.2020
5981 Clouds 9 1022 27 0 0.45 0 16:21 26.03.2020
5982 Clouds 7 1022 28 0 0.45 0 15:57 26.03.2020
5983 Clouds 7 1022 28 0 0.45 0 15:57 26.03.2020
5984 Clouds 9 1022 28 0 0.89 0 15:39 26.03.2020
5985 Clouds 9 1022 28 0 0.89 0 15:20 26.03.2020
5986 Clouds 9 1022 30 0 0.45 315 14:57 26.03.2020
5987 Clouds 9 1019 13 0 5.11 360 14:37 26.03.2020
5988 Clouds 10 1022 27 0 0.45 0 14:18 26.03.2020
5989 Clouds 10 1021 23 0 1.34 0 13:41 26.03.2020
5990 Clouds 13 1018 11 0 5.91 349 13:22 26.03.2020
5991 Clouds 10 1021 22 0 1.79 338 12:55 26.03.2020
5992 Clouds 11 1021 22 0 1.34 315 12:37 26.03.2020
5993 Clouds 11 1021 22 0 1.34 0 12:18 26.03.2020
5994 Clouds 10 1020 22 0 1.34 0 11:44 26.03.2020
5995 Clouds 13 1016 10 0 4.07 351 11:20 26.03.2020
5996 Clouds 14 1015 10 0 4.07 351 10:42 26.03.2020
5997 Clouds 14 1015 9 0 4.07 351 10:20 26.03.2020
5998 Clouds 14 1015 8 0 4.07 351 09:59 26.03.2020
5999 Clouds 12 1015 8 0 4.07 351 09:41 26.03.2020
6000 Clouds 12 1018 18 0 1.79 0 09:19 26.03.2020
6001 Clouds 13 1017 19 0 1.34 225 08:44 26.03.2020
6002 Clouds 11 1017 19 0 1.34 0 08:26 26.03.2020
6003 Rain 12 1017 18 0 1.34 0 07:57 26.03.2020
6004 Rain 12 1017 19 0 1.34 0 07:38 26.03.2020
6005 Rain 11 1017 18 0 1.34 45 07:20 26.03.2020
6006 Rain 11 1017 18 0 1.34 0 06:38 26.03.2020
6007 Rain 11 1017 22 0 4.3 1 05:51 26.03.2020
6008 Rain 8 1016 96 0 4.13 14 03:48 26.03.2020
6009 Rain 7 1016 95 0 0.45 270 03:26 26.03.2020
6010 Rain 7 1016 96 0 4.13 14 02:52 26.03.2020
6011 Rain 6 1016 97 0 6.73 346 01:20 26.03.2020
6012 Rain 4 1015 97 0 6.66 346 00:33 26.03.2020
6013 Rain 5 1014 97 0 6.66 346 23:44 25.03.2020
6014 Rain 7 1014 97 0 1.34 315 23:26 25.03.2020
6015 Rain 8 1010 66 0 7.58 347 22:56 25.03.2020
6016 Rain 9 1009 66 0 7.58 347 22:38 25.03.2020
6017 Rain 9 1009 67 0 7.58 347 22:19 25.03.2020
6018 Rain 10 1009 66 0 7.58 347 21:54 25.03.2020
6019 Rain 10 1008 65 0 7.58 347 21:36 25.03.2020
6020 Rain 10 1008 66 0 7.58 347 21:18 25.03.2020
6021 Rain 10 1010 95 0 1.34 338 20:39 25.03.2020
6022 Rain 11 1008 62 0 5.81 346 20:19 25.03.2020
6023 Rain 13 1007 56 0 5.48 354 19:56 25.03.2020
6024 Rain 13 1006 53 0 5.48 354 19:38 25.03.2020
6025 Rain 14 1006 53 0 5.48 354 19:19 25.03.2020
6026 Rain 14 1005 46 0 5.48 354 18:43 25.03.2020
6027 Clouds 14 1007 50 0 0.89 225 18:25 25.03.2020
6028 Rain 15 1006 44 0 0.89 315 17:59 25.03.2020
6029 Rain 15 1006 50 0 5.48 354 17:41 25.03.2020
6030 Rain 15 1005 50 0 5.48 354 17:22 25.03.2020
6031 Clouds 16 1004 47 0 2.8 96 16:58 25.03.2020
6032 Clouds 16 1004 47 0 2.66 89 16:58 25.03.2020
6033 Clouds 16 1004 45 0 2.66 89 16:39 25.03.2020
6034 Clouds 16 1004 44 0 2.66 89 16:20 25.03.2020
6035 Clouds 16 1004 41 0 2.66 89 15:43 25.03.2020
6036 Clouds 17 1004 40 0 2.66 89 15:21 25.03.2020
6037 Clouds 17 1004 38 0 2.66 89 14:57 25.03.2020
6038 Clouds 17 1003 37 0 2.66 89 14:39 25.03.2020
6039 Clouds 17 1003 36 0 4.32 141 14:20 25.03.2020
6040 Clouds 18 1003 41 0 4.26 136 13:44 25.03.2020
6041 Clouds 18 1002 43 0 4.26 136 13:24 25.03.2020
6042 Clouds 19 1002 44 0 4.32 141 12:39 25.03.2020
6043 Clouds 21 1002 43 0 4.26 136 12:21 25.03.2020
6044 Clouds 21 1001 42 0 4.26 136 11:59 25.03.2020
6045 Clouds 22 1001 42 0 4.26 136 11:40 25.03.2020
6046 Clouds 25 999 31 0 2.37 177 11:21 25.03.2020
6047 Clouds 23 1001 42 0 2.37 177 10:58 25.03.2020
6048 Clouds 23 1001 41 0 2.37 177 10:40 25.03.2020
6049 Clouds 23 1001 41 0 2.37 177 10:19 25.03.2020
6050 Clouds 23 1001 41 0 2.37 177 09:56 25.03.2020
6051 Clouds 23 999 30 0 2.37 177 09:38 25.03.2020
6052 Clouds 24 1001 40 0 2.37 177 09:20 25.03.2020
6053 Clouds 22 1002 38 0 2.37 177 08:42 25.03.2020
6054 Clouds 22 1002 38 0 2.37 177 08:42 25.03.2020
6055 Clouds 23 1001 37 0 2.37 177 08:24 25.03.2020
6056 Clear 23 1002 37 0 1.94 186 07:57 25.03.2020
6057 Clear 23 1002 36 0 1.94 186 07:38 25.03.2020
6058 Clear 23 1002 36 0 1.94 186 07:18 25.03.2020
6059 Clear 23 1002 37 0 1.94 186 06:42 25.03.2020
6060 Clear 23 1003 36 0 1.94 186 06:23 25.03.2020
6061 Clear 22 1003 41 0 1.94 186 05:47 25.03.2020
6062 Clear 21 1004 45 0 1.36 155 04:46 25.03.2020
6063 Clear 20 1005 47 0 1.36 155 03:58 25.03.2020
6064 Clear 19 1005 49 0 1.36 155 03:33 25.03.2020
6065 Clouds 16 1005 57 0 1.12 73 01:41 25.03.2020
6066 Clouds 13 1005 63 0 1.1 58 00:51 25.03.2020
6067 Clouds 12 1005 65 0 1.1 58 00:30 25.03.2020
6068 Clouds 11 1005 69 0 1.1 58 23:58 24.03.2020
6069 Clouds 11 1004 68 0 1.1 58 23:39 24.03.2020
6070 Clouds 11 1004 68 0 0.73 85 23:20 24.03.2020
6071 Clouds 12 1004 65 0 0.73 85 22:55 24.03.2020
6072 Clouds 12 1004 65 0 0.73 85 22:36 24.03.2020
6073 Clouds 12 1004 64 0 0.73 85 22:18 24.03.2020
6074 Clouds 12 1004 63 0 0.73 85 21:42 24.03.2020
6075 Clouds 12 1004 62 0 0.73 85 21:19 24.03.2020
6076 Clouds 13 1004 62 0 0.73 85 20:59 24.03.2020
6077 Clouds 12 1004 62 0 0.73 85 20:41 24.03.2020
6078 Clouds 12 1004 62 0 1.01 99 20:22 24.03.2020
6079 Clouds 12 1004 61 0 1.42 138 19:48 24.03.2020
6080 Clouds 12 1004 61 0 1.42 138 19:48 24.03.2020
6081 Clouds 13 1005 61 0 1.42 138 19:24 24.03.2020
6082 Clouds 13 1005 55 0 1.42 138 18:59 24.03.2020
6083 Clouds 13 1005 55 0 1.42 138 18:40 24.03.2020
6084 Clouds 13 1005 55 0 1.42 138 18:20 24.03.2020
6085 Clouds 13 1005 54 0 1.42 138 17:59 24.03.2020
6086 Clouds 13 1005 54 0 1.42 138 17:40 24.03.2020
6087 Clouds 13 1005 54 0 1.42 138 17:22 24.03.2020
6088 Clouds 13 1012 58 10000 2 110 16:57 24.03.2020
6089 Clouds 13 1012 62 10000 2 90 16:38 24.03.2020
6090 Clouds 13 1012 62 10000 2 90 16:20 24.03.2020
6091 Clouds 14 1013 58 10000 2 130 15:44 24.03.2020
6092 Clouds 14 1013 58 10000 2 130 15:44 24.03.2020
6093 Clouds 14 1013 62 10000 2 110 15:25 24.03.2020
6094 Clouds 13 1013 66 10000 2 110 14:57 24.03.2020
6095 Clouds 14 1013 58 10000 1 0 14:39 24.03.2020
6096 Clouds 14 1006 49 0 1.78 204 14:18 24.03.2020
6097 Clouds 17 1006 48 0 1.78 204 13:42 24.03.2020
6098 Clouds 17 1006 49 0 1.7 193 13:22 24.03.2020
6099 Clouds 17 1006 48 0 1.7 193 12:47 24.03.2020
6100 Clouds 17 1006 47 0 1.7 193 12:28 24.03.2020
6101 Clouds 18 1003 32 0 1.7 193 11:58 24.03.2020
6102 Clouds 18 1006 46 0 1.7 193 11:39 24.03.2020
6103 Clouds 19 1012 36 10000 3 150 11:19 24.03.2020
6104 Clouds 18 1012 36 10000 3 140 10:42 24.03.2020
6105 Clouds 19 1012 36 10000 3 140 10:19 24.03.2020
6106 Clouds 19 1012 34 10000 4 150 09:57 24.03.2020
6107 Clouds 20 1012 34 10000 3 150 09:39 24.03.2020
6108 Clouds 19 1012 34 10000 3 150 09:20 24.03.2020
6109 Clouds 19 1013 31 10000 3 130 08:38 24.03.2020
6110 Clouds 19 1013 31 10000 3 130 08:20 24.03.2020
6111 Clouds 19 1013 22 10000 2 160 07:47 24.03.2020
6112 Clouds 19 1014 22 10000 2 0 07:24 24.03.2020
6113 Clouds 19 1016 27 10000 2 120 06:50 24.03.2020
6114 Clouds 19 1016 27 10000 2 120 06:25 24.03.2020
6115 Clouds 15 1017 24 10000 1 0 04:57 24.03.2020
6116 Clouds 15 1018 26 10000 3 150 03:48 24.03.2020
6117 Clouds 14 1019 30 10000 2 300 02:49 24.03.2020
6118 Clouds 11 1019 37 10000 2 340 01:42 24.03.2020
6119 Clouds 10 1019 36 10000 2 300 00:44 24.03.2020
6120 Clouds 8 1019 48 10000 2 310 00:23 24.03.2020
6121 Clouds 7 1019 55 10000 2 310 23:44 23.03.2020
6122 Clouds 7 1019 55 10000 2 310 23:26 23.03.2020
6123 Clouds 7 1019 55 10000 2 310 23:26 23.03.2020
6124 Clouds 7 1019 55 10000 2 330 22:55 23.03.2020
6125 Clouds 7 1019 60 10000 2 340 22:36 23.03.2020
6126 Clouds 7 1019 60 10000 2 340 22:18 23.03.2020
6127 Clouds 7 1019 64 10000 1 360 21:42 23.03.2020
6128 Clouds 7 1019 64 10000 1 360 21:20 23.03.2020
6129 Clouds 7 1019 51 10000 1 350 20:57 23.03.2020
6130 Clouds 7 1020 64 10000 2 360 20:38 23.03.2020
6131 Clouds 7 1020 64 10000 2 360 20:19 23.03.2020
6132 Clouds 7 1020 55 10000 1 360 19:45 23.03.2020
6133 Clouds 7 1020 55 10000 1 360 19:26 23.03.2020
6134 Clouds 8 1021 45 10000 1 0 18:57 23.03.2020
6135 Clouds 8 1021 45 10000 1 0 18:39 23.03.2020
6136 Clouds 8 1021 45 10000 1 0 18:20 23.03.2020
6137 Clouds 8 1021 48 10000 1 70 17:42 23.03.2020
6138 Clouds 9 1021 39 10000 1 0 17:21 23.03.2020
6139 Clouds 9 1021 39 10000 1 0 16:57 23.03.2020
6140 Clouds 9 1021 39 10000 1 110 16:39 23.03.2020
6141 Clouds 9 1021 39 10000 1 110 16:20 23.03.2020
6142 Clouds 10 1021 31 10000 2 140 15:41 23.03.2020
6143 Clouds 10 1021 31 10000 2 140 15:19 23.03.2020
6144 Clouds 10 1020 31 10000 3 160 14:38 23.03.2020
6145 Clouds 12 1020 31 10000 3 160 14:20 23.03.2020
6146 Clouds 12 1020 25 10000 4 130 13:59 23.03.2020
6147 Clouds 12 1020 30 10000 4 130 13:40 23.03.2020
6148 Clouds 14 1020 30 10000 4 130 13:20 23.03.2020
6149 Clouds 13 1018 30 10000 2 130 12:45 23.03.2020
6150 Clouds 13 1018 30 10000 2 130 12:45 23.03.2020
6151 Clouds 14 1018 30 10000 2 130 12:25 23.03.2020
6152 Clouds 15 1018 28 10000 3 140 11:59 23.03.2020
6153 Clouds 15 1018 25 10000 5 150 11:40 23.03.2020
6154 Clouds 19 1017 25 10000 6 150 11:20 23.03.2020
6155 Clouds 19 1017 25 10000 6 150 11:20 23.03.2020
6156 Clouds 19 1017 25 10000 6 150 10:58 23.03.2020
6157 Clouds 18 1017 22 10000 5 150 10:38 23.03.2020
6158 Clouds 19 1017 22 10000 5 150 10:20 23.03.2020
6159 Clouds 20 1017 19 10000 6 150 09:44 23.03.2020
6160 Clouds 20 1017 19 10000 6 150 09:21 23.03.2020
6161 Clouds 21 1017 19 10000 5 140 08:57 23.03.2020
6162 Clouds 21 1018 19 10000 5 130 08:36 23.03.2020
6163 Clear 21 1018 19 10000 5 130 08:18 23.03.2020
6164 Clear 22 1018 19 10000 5 150 07:45 23.03.2020
6165 Clear 22 1018 19 10000 5 150 07:27 23.03.2020
6166 Clear 22 1019 19 10000 5 140 06:51 23.03.2020
6167 Clear 22 1020 13 10000 3 0 05:54 23.03.2020
6168 Clear 22 1020 13 10000 3 0 05:29 23.03.2020
6169 Clear 19 1021 17 10000 3 320 03:29 23.03.2020
6170 Clear 15 1021 30 10000 1 0 01:51 23.03.2020
6171 Clear 14 1020 35 10000 1 0 01:33 23.03.2020
6172 Clear 11 1020 56 10000 2 360 00:39 23.03.2020
6173 Clear 9 1019 60 10000 1 340 23:47 22.03.2020
6174 Clear 8 1019 60 10000 1 340 23:26 22.03.2020
6175 Clear 9 1019 52 10000 2 20 22:45 22.03.2020
6176 Clear 9 1019 52 10000 2 20 22:26 22.03.2020
6177 Clear 8 1018 56 10000 3 320 21:56 22.03.2020
6178 Clear 9 1018 56 10000 2 320 21:37 22.03.2020
6179 Clear 9 1018 56 10000 2 320 21:19 22.03.2020
6180 Clear 9 1018 60 10000 2 340 20:46 22.03.2020
6181 Clear 9 1018 69 10000 1 350 20:26 22.03.2020
6182 Clear 10 1018 65 10000 1 0 19:59 22.03.2020
6183 Clear 10 1018 60 10000 2 350 19:40 22.03.2020
6184 Clear 10 1018 60 10000 2 350 19:21 22.03.2020
6185 Clear 10 1018 56 10000 1 0 18:59 22.03.2020
6186 Clear 10 1018 60 10000 2 360 18:41 22.03.2020
6187 Clear 10 1018 60 10000 2 360 18:22 22.03.2020
6188 Clear 10 1018 60 10000 2 360 18:22 22.03.2020
6189 Clear 11 1018 60 10000 3 360 17:59 22.03.2020
6190 Clear 11 1018 60 10000 3 360 17:59 22.03.2020
6191 Clear 11 1018 18 10000 2 360 17:39 22.03.2020
6192 Clear 11 1018 18 10000 2 360 17:21 22.03.2020
6193 Clear 11 1018 18 10000 2 360 17:21 22.03.2020
6194 Clear 11 1017 60 10000 1 0 16:59 22.03.2020
6195 Clear 11 1017 60 10000 1 0 16:59 22.03.2020
6196 Clear 12 1017 49 10000 1.56 339 16:41 22.03.2020
6197 Clear 12 1017 49 10000 1.56 339 16:22 22.03.2020
6198 Clear 12 1017 56 10000 2 60 15:58 22.03.2020
6199 Clear 13 1017 46 10000 1 0 15:39 22.03.2020
6200 Clear 14 1016 46 10000 1.56 339 14:47 22.03.2020
6201 Clear 14 1016 43 10000 1 80 14:19 22.03.2020
6202 Clear 16 1015 35 10000 1 0 13:57 22.03.2020
6203 Clear 16 1015 33 10000 2 150 13:39 22.03.2020
6204 Clear 17 1015 33 10000 2 150 13:19 22.03.2020
6205 Clear 18 1014 25 10000 3 200 12:44 22.03.2020
6206 -273 0 0 0 0 0 12:20 22.03.2020
6207 Clear 18 1014 25 10000 3 190 11:56 22.03.2020
6208 Clear 19 1013 20 10000 6 210 11:38 22.03.2020
6209 Clear 20 1013 20 10000 6 210 11:19 22.03.2020
6210 Clear 21 1013 19 10000 7 200 10:43 22.03.2020
6211 Clear 21 1013 19 10000 7 200 10:24 22.03.2020
6212 Clear 21 1013 19 10000 7 200 10:24 22.03.2020
6213 Clear 21 1013 18 10000 6 190 09:49 22.03.2020
6214 Clear 22 1013 17 10000 6 200 09:30 22.03.2020
6215 Clear 22 1014 17 10000 5 210 08:55 22.03.2020
6216 Clear 22 1014 17 10000 5 210 08:36 22.03.2020
6217 Clear 22 1014 17 10000 5 210 08:36 22.03.2020
6218 Clear 22 1014 17 10000 5 210 08:18 22.03.2020
6219 Clear 21 1015 18 10000 7 190 07:48 22.03.2020
6220 Clear 21 1015 18 10000 6 220 07:18 22.03.2020
6221 Clear 21 1017 18 10000 5 190 05:54 22.03.2020
6222 Clear 17 1019 23 10000 2 0 04:50 22.03.2020
6223 Clear 14 1021 34 10000 2 260 02:43 22.03.2020
6224 Clear 10 1021 45 10000 1 0 01:20 22.03.2020
6225 Clear 8 1020 69 10000 1 170 00:35 22.03.2020
6226 Clear 7 1020 24 10000 1 10 23:57 21.03.2020
6227 Clear 6 1020 24 10000 1 30 23:38 21.03.2020
6228 Clear 4 1020 26 10000 2 20 23:18 21.03.2020
6229 Clear 5 1020 69 10000 1 0 22:38 21.03.2020
6230 Clear 5 1020 69 10000 1 0 22:20 21.03.2020
6231 Clear 6 1019 59 10000 1 0 21:59 21.03.2020
6232 Clear 6 1019 64 10000 2 70 21:39 21.03.2020
6233 Clear 6 1019 64 10000 2 70 21:21 21.03.2020
6234 Clear 7 1019 55 10000 2 50 20:46 21.03.2020
6235 Clear 7 1019 55 10000 2 50 20:23 21.03.2020
6236 Clear 8 1019 52 10000 2 110 19:57 21.03.2020
6237 Clear 7 1019 55 10000 2 110 19:39 21.03.2020
6238 Clear 7 1019 55 10000 2 110 19:20 21.03.2020
6239 Clear 7 1019 45 10000 1 0 18:54 21.03.2020
6240 Clear 8 1019 42 10000 1 0 18:36 21.03.2020
6241 Clear 8 1019 42 10000 1 0 18:18 21.03.2020
6242 Clear 9 1019 36 10000 2 160 17:42 21.03.2020
6243 Clear 9 1019 36 10000 2 160 17:23 21.03.2020
6244 Clear 10 1019 34 10000 2 150 16:56 21.03.2020
6245 Clear 10 1018 36 10000 4 160 16:38 21.03.2020
6246 Clear 10 1018 36 10000 4 160 16:18 21.03.2020
6247 Clear 10 1018 36 10000 4 160 16:18 21.03.2020
6248 Clear 10 1018 31 10000 3 160 15:41 21.03.2020
6249 Clear 10 1018 31 10000 3 160 15:23 21.03.2020
6250 Clear 11 1017 27 10000 3 150 14:58 21.03.2020
6251 Clear 12 1017 27 10000 3 140 14:40 21.03.2020
6252 Clear 13 1017 27 10000 3 140 14:20 21.03.2020
6253 Clear 13 1016 29 10000 2 160 13:59 21.03.2020
6254 Clear 14 1016 32 10000 3 190 13:40 21.03.2020
6255 Clear 14 1016 32 10000 3 190 13:22 21.03.2020
6256 Clear 14 1015 27 10000 3 180 12:59 21.03.2020
6257 Clear 15 1015 28 10000 3 160 12:38 21.03.2020
6258 Clear 14 1014 24 10000 3 150 12:19 21.03.2020
6259 Clear 14 1014 24 10000 3 150 12:19 21.03.2020
6260 Clear 14 1014 24 10000 3 150 11:56 21.03.2020
6261 Clear 16 1014 24 10000 4 170 11:38 21.03.2020
6262 Clear 15 1013 21 10000 5 180 11:19 21.03.2020
6263 Clear 16 1013 21 10000 5 180 10:56 21.03.2020
6264 Clear 17 1013 21 10000 4 190 10:38 21.03.2020
6265 Clear 17 1013 21 10000 4 190 10:19 21.03.2020
6266 Clear 18 1012 20 10000 4 190 09:55 21.03.2020
6267 Clear 18 1012 18 10000 4 190 09:37 21.03.2020
6268 Clear 18 1012 18 10000 4 190 09:18 21.03.2020
6269 Clear 18 1012 19 10000 5 180 08:43 21.03.2020
6270 Clear 18 1012 20 10000 3 150 08:24 21.03.2020
6271 Clouds 18 1012 17 10000 4 170 07:43 21.03.2020
6272 Clouds 17 1012 17 10000 4 170 07:23 21.03.2020
6273 Clouds 17 1013 18 10000 2 190 06:48 21.03.2020
6274 Clouds 18 1013 18 10000 2 190 06:27 21.03.2020
6275 Clouds 17 1013 18 10000 2 0 05:46 21.03.2020
6276 Clouds 15 1014 19 10000 3 150 04:46 21.03.2020
6277 Clouds 14 1014 24 10000 2 170 02:51 21.03.2020
6278 Clouds 15 1013 24 10000 5 170 02:33 21.03.2020
6279 Clouds 14 1013 24 10000 3 170 01:32 21.03.2020
6280 Clouds 13 1011 30 10000 4 160 00:48 21.03.2020
6281 Clouds 12 1011 30 10000 4 160 00:26 21.03.2020
6282 Clouds 12 1011 32 10000 3 180 23:51 20.03.2020
6283 Clouds 12 1010 32 10000 3 170 23:27 20.03.2020
6284 Clouds 12 1010 30 10000 2 140 22:59 20.03.2020
6285 Clouds 13 1009 28 10000 2 110 22:40 20.03.2020
6286 Clouds 13 1009 28 10000 2 110 22:21 20.03.2020
6287 Clouds 13 1009 28 10000 3 120 21:56 20.03.2020
6288 Clouds 13 1009 28 10000 3 110 21:38 20.03.2020
6289 Clouds 14 1009 33 10000 3 110 21:18 20.03.2020
6290 Clouds 14 1009 33 10000 3 110 20:56 20.03.2020
6291 Clouds 14 1009 33 10000 3 110 20:38 20.03.2020
6292 Clouds 14 1009 33 10000 3 110 20:18 20.03.2020
6293 Clouds 15 1009 26 10000 2 90 19:44 20.03.2020
6294 Clouds 15 1009 21 10000 2 60 19:19 20.03.2020
6295 Clouds 15 1009 19 10000 3 30 18:55 20.03.2020
6296 Clouds 15 1008 19 10000 5 30 18:37 20.03.2020
6297 Clouds 16 1008 17 10000 4 20 18:19 20.03.2020
6298 Clouds 17 1008 17 10000 4 20 17:39 20.03.2020
6299 Clear 16 1008 34 10000 3 360 17:21 20.03.2020
6300 Clear 16 1008 34 10000 3 360 17:21 20.03.2020
6301 Clear 15 1008 34 10000 3 360 16:57 20.03.2020
6302 Clear 16 1008 28 10000 4.9 42 16:39 20.03.2020
6303 Clear 16 1008 28 10000 4.9 42 16:18 20.03.2020
6304 Clear 15 1008 27 10000 1 0 15:42 20.03.2020
6305 Clear 17 1007 17 10000 1 0 15:21 20.03.2020
6306 Clear 18 1007 16 10000 3 50 14:56 20.03.2020
6307 Clear 17 1006 24 10000 2 140 14:37 20.03.2020
6308 Clear 16 1006 24 10000 2 140 14:18 20.03.2020
6309 Clear 17 1005 21 10000 1 40 13:43 20.03.2020
6310 Clear 18 1005 21 10000 1 40 13:19 20.03.2020
6311 Clear 21 1004 12 10000 5 300 12:41 20.03.2020
6312 Clear 21 1004 12 10000 5 300 12:23 20.03.2020
6313 Clear 21 1004 12 10000 5 300 11:58 20.03.2020
6314 Clear 22 1003 11 10000 7 300 11:38 20.03.2020
6315 Clear 22 1002 10 10000 8 290 11:19 20.03.2020
6316 Clear 24 1002 9 10000 8 280 10:42 20.03.2020
6317 Clear 25 1002 9 10000 8 280 10:21 20.03.2020
6318 Clear 24 1002 9 10000 8 280 09:59 20.03.2020
6319 Clear 25 1002 9 10000 8 280 09:41 20.03.2020
6320 Clear 25 1002 11 10000 3 300 09:19 20.03.2020
6321 Clear 25 1002 10 10000 3 260 08:43 20.03.2020
6322 Clear 24 1002 12 10000 4 250 08:22 20.03.2020
6323 Clear 24 1002 12 10000 4 250 08:22 20.03.2020
6324 Clouds 23 1002 16 10000 2 210 07:55 20.03.2020
6325 Clouds 22 1003 18 10000 1 0 07:37 20.03.2020
6326 Clouds 22 1003 18 10000 1 0 07:18 20.03.2020
6327 Clouds 22 1004 20 10000 1 0 06:41 20.03.2020
6328 Clouds 16 1005 26 10000 2 200 04:52 20.03.2020
6329 Clouds 15 1005 28 10000 1 0 03:50 20.03.2020
6330 Clouds 11 1006 34 10000 1 0 02:21 20.03.2020
6331 Clouds 10 1006 45 10000 1 0 01:33 20.03.2020
6332 Clouds 7 1006 64 10000 2 350 00:33 20.03.2020
6333 Clouds 7 1005 51 10000 1 30 23:49 19.03.2020
6334 Clouds 7 1005 51 10000 1 30 23:30 19.03.2020
6335 Clouds 8 1005 39 10000 1 0 22:57 19.03.2020
6336 Clouds 8 1006 41 10000 1 0 22:38 19.03.2020
6337 Clouds 8 1006 41 10000 1 0 22:20 19.03.2020
6338 Clouds 8 1006 41 10000 2 110 21:55 19.03.2020
6339 Clouds 8 1006 39 10000 2 70 21:37 19.03.2020
6340 Clouds 8 1006 39 10000 2 70 21:18 19.03.2020
6341 Clouds 9 1007 39 10000 2 120 20:42 19.03.2020
6342 Clouds 9 1007 39 10000 2 120 20:23 19.03.2020
6343 Clouds 8 1007 48 10000 1 100 19:56 19.03.2020
6344 Clouds 9 1008 33 10000 1 0 19:38 19.03.2020
6345 Clouds 10 1008 33 10000 2 90 19:19 19.03.2020
6346 Clouds 10 1008 33 10000 2 90 18:56 19.03.2020
6347 Clouds 10 1009 36 10000 2 130 18:38 19.03.2020
6348 Clouds 10 1009 36 10000 2 130 18:19 19.03.2020
6349 Clouds 11 1009 29 10000 2 140 17:42 19.03.2020
6350 Clouds 11 1010 36 10000 2 110 17:19 19.03.2020
6351 Clouds 12 1010 21 10000 2 140 16:45 19.03.2020
6352 Clouds 11 1010 21 10000 2 140 16:25 19.03.2020
6353 Clouds 12 1011 21 10000 3 150 15:55 19.03.2020
6354 Clouds 12 1011 25 10000 3 160 15:36 19.03.2020
6355 Clouds 13 1011 25 10000 3 160 15:18 19.03.2020
6356 Clouds 12 1011 23 10000 2 150 14:43 19.03.2020
6357 Clouds 13 1011 23 10000 2 150 14:21 19.03.2020
6358 Clear 12 1011 23 10000 3 170 13:41 19.03.2020
6359 Clear 14 1011 18 10000 4 180 13:20 19.03.2020
6360 Clear 14 1011 18 10000 4 180 12:58 19.03.2020
6361 Clear 14 1011 14 10000 6 190 12:40 19.03.2020
6362 Clear 15 1011 14 10000 6 190 12:21 19.03.2020
6363 Clear 15 1011 12 10000 4 190 11:43 19.03.2020
6364 Clear 16 1010 7 10000 5 210 11:24 19.03.2020
6365 Clear 17 1010 7 10000 5 210 10:57 19.03.2020
6366 Clear 18 1010 6 10000 3 310 10:38 19.03.2020
6367 Clear 18 1010 6 10000 3 310 10:19 19.03.2020
6368 Clear 18 1011 6 10000 5 290 09:55 19.03.2020
6369 Clear 18 1011 6 10000 5 290 09:37 19.03.2020
6370 Clear 18 1011 6 10000 5 290 09:18 19.03.2020
6371 Clear 18 1012 7 10000 6 300 08:41 19.03.2020
6372 Clear 17 1012 7 10000 6 300 08:20 19.03.2020
6373 Clear 17 1013 9 10000 7 280 07:44 19.03.2020
6374 Clear 17 1013 8 10000 6 270 07:25 19.03.2020
6375 Clear 16 1014 11 10000 6 290 06:35 19.03.2020
6376 Clear 15 1015 11 10000 7 290 05:48 19.03.2020
6377 Clear 14 1015 11 10000 7 290 04:54 19.03.2020
6378 Clear 14 1015 11 10000 8 310 04:34 19.03.2020
6379 Clear 12 1016 15 10000 12 320 02:37 19.03.2020
6380 Clear 10 1016 16 10000 9 310 01:21 19.03.2020
6381 Clear 9 1015 18 10000 9 310 00:28 19.03.2020
6382 Clear 9 1014 17 10000 9 320 23:48 18.03.2020
6383 Clear 8 1014 17 10000 9 320 23:29 18.03.2020
6384 Clear 8 1014 17 10000 10 320 22:56 18.03.2020
6385 Clear 9 1013 15 10000 8 320 22:38 18.03.2020
6386 Clear 9 1013 15 10000 8 320 22:20 18.03.2020
6387 Clear 9 1013 14 10000 8 310 21:41 18.03.2020
6388 Clear 9 1013 15 10000 9 310 21:21 18.03.2020
6389 Clear 9 1013 15 10000 10 320 20:57 18.03.2020
6390 Clear 9 1013 16 10000 5 310 20:39 18.03.2020
6391 Clear 9 1013 16 10000 5 310 20:20 18.03.2020
6392 Clear 9 1013 19 10000 4 300 19:56 18.03.2020
6393 Clear 9 1013 30 10000 2 320 19:37 18.03.2020
6394 Clear 9 1013 22 10000 3 270 19:19 18.03.2020
6395 Clear 9 1013 22 10000 3 270 19:19 18.03.2020
6396 Clear 9 1013 22 10000 3 270 18:41 18.03.2020
6397 Clear 10 1013 21 10000 2 260 18:20 18.03.2020
6398 Clear 9 1013 21 10000 2 260 17:58 18.03.2020
6399 Clear 10 1012 18 10000 6 320 17:39 18.03.2020
6400 Clear 11 1012 18 10000 7 320 17:21 18.03.2020
6401 Clear 11 1012 18 10000 7 320 16:55 18.03.2020
6402 Clear 10 1012 19 10000 9 320 16:37 18.03.2020
6403 Clear 10 1012 19 10000 9 320 16:19 18.03.2020
6404 Clear 10 1012 21 10000 8 310 15:45 18.03.2020
6405 Clear 10 1012 23 10000 9 310 15:20 18.03.2020
6406 Clear 11 1011 21 10000 10 310 14:45 18.03.2020
6407 Clear 12 1011 23 10000 11 310 14:22 18.03.2020
6408 Clouds 12 1011 21 10000 14 320 13:58 18.03.2020
6409 Clouds 12 1010 23 10000 14 320 13:36 18.03.2020
6410 Clouds 13 1008 25 10000 14 310 13:18 18.03.2020
6411 Rain 13 1008 25 10000 14 310 12:41 18.03.2020
6412 Rain 14 1007 24 8000 15 310 12:19 18.03.2020
6413 Rain 16 1006 18 8000 16 310 11:40 18.03.2020
6414 Rain 18 1001 14 7000 14 310 11:21 18.03.2020
6415 Dust 20 1001 14 7000 14 310 10:58 18.03.2020
6416 Rain 21 999 10 5000 13 290 10:39 18.03.2020
6417 Rain 21 999 10 5000 13 290 10:20 18.03.2020
6418 Rain 23 997 8 8000 11 290 09:56 18.03.2020
6419 Rain 24 997 7 10000 9 270 09:38 18.03.2020
6420 Rain 25 997 7 10000 9 270 09:20 18.03.2020
6421 Clouds 25 997 14 10000 4 220 08:39 18.03.2020
6422 Clouds 25 997 14 10000 4 220 08:21 18.03.2020
6423 Clouds 24 998 17 10000 3 200 07:49 18.03.2020
6424 Clouds 23 998 19 10000 3 200 07:30 18.03.2020
6425 Clouds 23 999 21 10000 3 210 06:50 18.03.2020
6426 Clouds 23 999 24 10000 3 200 06:24 18.03.2020
6427 Clouds 22 1000 8 10000 2 0 05:35 18.03.2020
6428 Clouds 18 1002 19 10000 1 0 04:29 18.03.2020
6429 Clouds 15 1004 19 10000 1 0 02:51 18.03.2020
6430 Clouds 13 1004 19 10000 2 60 02:23 18.03.2020
6431 Clouds 11 1004 70 10000 1 0 01:29 18.03.2020
6432 Clouds 7 1005 69 10000 1 0 00:26 18.03.2020
6433 Clouds 7 1005 69 10000 1 0 23:59 17.03.2020
6434 Clouds 7 1005 69 10000 1 0 23:40 17.03.2020
6435 Clouds 6 1005 74 10000 2 350 23:19 17.03.2020
6436 Clear 7 1005 69 10000 1 350 22:42 17.03.2020
6437 Clear 7 1005 69 10000 1 350 22:23 17.03.2020
6438 Clear 8 1005 60 10000 1 0 21:42 17.03.2020
6439 Clear 8 1005 60 10000 1 0 21:22 17.03.2020
6440 Clouds 9 1006 52 10000 2 70 20:56 17.03.2020
6441 Clouds 9 1006 60 10000 2 70 20:37 17.03.2020
6442 Clear 9 1006 60 10000 2 70 20:18 17.03.2020
6443 Clear 10 1007 56 10000 1 0 19:41 17.03.2020
6444 Clear 10 1007 52 10000 1 0 19:18 17.03.2020
6445 Clear 11 1007 48 10000 1 40 18:56 17.03.2020
6446 Clear 11 1007 48 10000 1 40 18:38 17.03.2020
6447 Clear 11 1007 48 10000 1 40 18:38 17.03.2020
6448 Clear 12 1007 45 10000 1 0 18:20 17.03.2020
6449 Clear 13 1008 42 10000 2 120 17:41 17.03.2020
6450 Clear 14 1008 32 10000 2 140 17:22 17.03.2020
6451 Clear 13 1008 32 10000 2 140 16:56 17.03.2020
6452 Clear 15 1008 28 10000 2 140 16:38 17.03.2020
6453 Clear 14 1008 28 10000 2 140 16:18 17.03.2020
6454 Clear 14 1009 34 10000 2 140 15:43 17.03.2020
6455 Clear 14 1009 37 10000 1 0 15:21 17.03.2020
6456 Clear 15 1009 32 10000 1 0 14:44 17.03.2020
6457 Clear 16 1010 30 10000 2 150 14:23 17.03.2020
6458 Clear 16 1010 24 10000 2 150 13:56 17.03.2020
6459 Clear 16 1010 24 10000 2 150 13:38 17.03.2020
6460 Clear 17 1010 21 10000 2 150 13:20 17.03.2020
6461 Clear 18 1010 18 10000 2 160 12:42 17.03.2020
6462 Clear 18 1010 17 10000 4 180 12:22 17.03.2020
6463 Clear 20 1010 16 10000 6 180 11:47 17.03.2020
6464 Clear 20 1010 15 10000 4 150 11:29 17.03.2020
6465 Clear 21 1010 15 10000 4 150 10:58 17.03.2020
6466 Clear 22 1010 14 10000 5 160 10:39 17.03.2020
6467 Clear 22 1010 14 10000 4 170 10:21 17.03.2020
6468 Clear 22 1010 14 10000 4 170 09:59 17.03.2020
6469 Clear 22 1010 14 10000 4 160 09:40 17.03.2020
6470 Clear 22 1010 14 10000 4 160 09:19 17.03.2020
6471 Clear 23 1011 13 10000 3 190 08:48 17.03.2020
6472 Clear 22 1011 13 10000 3 180 08:23 17.03.2020
6473 Clear 22 1012 13 10000 2 0 07:50 17.03.2020
6474 Clear 21 1012 14 10000 3 190 07:28 17.03.2020
6475 Clear 21 1013 14 10000 3 200 06:59 17.03.2020
6476 Clear 21 1013 14 10000 3 200 06:34 17.03.2020
6477 Clear 20 1015 15 10000 1 0 05:55 17.03.2020
6478 Clear 14 1016 35 10000 1 0 03:43 17.03.2020
6479 Clear 15 1017 40 10000 1 0 02:46 17.03.2020
6480 Clear 9 1017 49 10000 1 0 01:44 17.03.2020
6481 Clear 9 1016 56 10000 2 360 01:25 17.03.2020
6482 Clear 7 1016 86 10000 1 0 00:38 17.03.2020
6483 Clear 7 1016 86 10000 3 350 23:45 16.03.2020
6484 Clear 6 1016 86 10000 3 350 23:27 16.03.2020
6485 Clear 7 1015 74 10000 1 0 22:41 16.03.2020
6486 Clear 7 1015 74 10000 1 0 22:23 16.03.2020
6487 Clear 6 1015 80 10000 1 0 21:58 16.03.2020
6488 Clear 8 1015 64 10000 2 290 21:40 16.03.2020
6489 Clear 7 1015 64 10000 2 290 21:21 16.03.2020
6490 Clear 7 1015 64 10000 1 290 20:56 16.03.2020
6491 Clear 8 1015 59 10000 1 0 20:37 16.03.2020
6492 Clear 8 1015 59 10000 1 0 20:18 16.03.2020
6493 Clear 8 1016 64 10000 3 360 19:41 16.03.2020
6494 Clear 8 1016 64 10000 3 360 19:20 16.03.2020
6495 Clear 8 1016 69 10000 3 340 18:43 16.03.2020
6496 Clear 8 1016 74 10000 2 340 18:21 16.03.2020
6497 Clear 7 1016 74 10000 2 340 17:55 16.03.2020
6498 Clear 8 1016 69 10000 1 350 17:37 16.03.2020
6499 Clear 4 1016 69 10000 3 360 17:18 16.03.2020
6500 Clear 5 1016 69 10000 2 350 16:44 16.03.2020
6501 Clear 5 1016 69 10000 2 350 16:24 16.03.2020
6502 Clear 6 1016 69 10000 0.81 295 15:45 16.03.2020
6503 Clear 6 1016 69 10000 1 40 15:27 16.03.2020
6504 Clear 7 1016 60 10000 1 0 14:49 16.03.2020
6505 Clear 7 1016 60 10000 1 0 14:27 16.03.2020
6506 Clear 8 1016 55 10000 1 0 13:58 16.03.2020
6507 Clear 9 1015 52 10000 2 120 13:40 16.03.2020
6508 Clear 9 1015 52 10000 2 120 13:21 16.03.2020
6509 Clouds 9 1015 42 10000 1 90 12:44 16.03.2020
6510 Clouds 9 1015 42 10000 1 90 12:23 16.03.2020
6511 Clouds 12 1014 37 10000 1 0 11:47 16.03.2020
6512 Clouds 12 1014 37 10000 1 0 11:28 16.03.2020
6513 Clouds 13 1014 32 10000 1 0 10:56 16.03.2020
6514 Clouds 13 1014 32 10000 2 140 10:37 16.03.2020
6515 Clouds 14 1014 32 10000 2 140 10:18 16.03.2020
6516 Clouds 13 1014 30 10000 1 0 09:42 16.03.2020
6517 Clouds 13 1014 30 10000 1 0 09:21 16.03.2020
6518 Clouds 13 1014 30 10000 2 130 08:52 16.03.2020
6519 Clear 13 1015 30 10000 2 250 08:25 16.03.2020
6520 Clouds 13 1015 30 10000 2 250 08:25 16.03.2020
6521 Clouds 11 1016 34 10000 2 250 07:48 16.03.2020
6522 Clouds 12 1016 34 10000 2 250 07:25 16.03.2020
6523 Clouds 11 1017 34 10000 2 210 06:52 16.03.2020
6524 Clouds 11 1019 36 10000 1 0 06:24 16.03.2020
6525 Clouds 8 1021 39 10000 1 0 04:55 16.03.2020
6526 Clouds 7 1023 48 10000 1 0 02:42 16.03.2020
6527 Clouds 2 1024 68 10000 1 60 00:52 16.03.2020
6528 Clouds 1 1024 73 10000 1 50 00:33 16.03.2020
6529 Clouds 0 1025 63 10000 1 0 23:46 15.03.2020
6530 Clouds 0 1025 49 10000 1 0 23:20 15.03.2020
6531 Clouds 1 1025 49 10000 1 0 22:43 15.03.2020
6532 Clouds 1 1025 49 10000 1 0 22:23 15.03.2020
6533 Clouds 1 1025 49 10000 2 110 21:58 15.03.2020
6534 Clouds 1 1025 50 10000 2 90 21:38 15.03.2020
6535 Clouds 1 1025 50 10000 2 90 21:18 15.03.2020
6536 Clouds 2 1025 50 10000 2 90 20:42 15.03.2020
6537 Clear 2 1026 50 10000 1 0 20:20 15.03.2020
6538 Clear 2 1026 50 10000 2 100 19:58 15.03.2020
6539 Clear 2 1026 50 10000 3 120 19:39 15.03.2020
6540 Clear 2 1026 50 10000 3 120 19:20 15.03.2020
6541 Clear 2 1026 50 10000 2 100 18:55 15.03.2020
6542 Clear 3 1026 47 10000 3 110 18:37 15.03.2020
6543 Clear 4 1026 47 10000 3 110 18:19 15.03.2020
6544 Clear 4 1026 55 10000 2 110 17:41 15.03.2020
6545 Clear 5 1026 51 10000 4 110 17:21 15.03.2020
6546 Clear 5 1026 51 10000 4 110 16:58 15.03.2020
6547 Clear 5 1026 55 10000 4 110 16:39 15.03.2020
6548 Clear 5 1026 55 10000 4 110 16:21 15.03.2020
6549 Clear 6 1025 55 10000 4 100 15:46 15.03.2020
6550 Clear 6 1025 52 10000 6 140 15:28 15.03.2020
6551 Clear 6 1024 56 10000 6 120 14:58 15.03.2020
6552 Clear 8 1023 48 10000 5 120 14:38 15.03.2020
6553 Clear 10 1023 48 10000 5 120 14:19 15.03.2020
6554 Clear 12 1022 39 10000 6 130 13:55 15.03.2020
6555 Clear 12 1021 37 10000 5 150 13:36 15.03.2020
6556 Clear 11 1021 37 10000 5 150 13:18 15.03.2020
6557 Clear 11 1021 37 10000 5 150 13:18 15.03.2020
6558 Clear 13 1019 20 10000 2 110 12:40 15.03.2020
6559 Clear 13 1019 20 10000 2 110 12:21 15.03.2020
6560 Clear 15 1018 18 10000 2 110 11:43 15.03.2020
6561 Clear 15 1018 18 10000 2 110 11:24 15.03.2020
6562 Clear 16 1018 17 10000 3 90 10:58 15.03.2020
6563 Clear 17 1017 17 10000 3 80 10:39 15.03.2020
6564 Clear 17 1017 17 10000 3 80 10:21 15.03.2020
6565 Clear 18 1017 16 10000 1 0 09:57 15.03.2020
6566 Clear 19 1018 16 10000 2 0 09:36 15.03.2020
6567 Clear 19 1018 16 10000 2 0 09:18 15.03.2020
6568 Clear 18 1017 17 10000 2 0 08:40 15.03.2020
6569 Clear 18 1017 17 10000 2 0 08:19 15.03.2020
6570 Clear 17 1018 18 10000 2 0 07:44 15.03.2020
6571 Clear 17 1018 17 10000 3 50 07:21 15.03.2020
6572 Clear 17 1019 18 10000 3 50 06:36 15.03.2020
6573 Clear 17 1019 21 10000 4 30 05:46 15.03.2020
6574 Clear 15 1019 22 10000 4 50 04:55 15.03.2020
6575 Clear 15 1019 24 10000 4 50 04:33 15.03.2020
6576 Clear 15 1019 24 10000 5 40 03:59 15.03.2020
6577 Clear 13 1019 28 10000 4 40 02:49 15.03.2020
6578 Clear 14 1019 26 10000 5 360 02:18 15.03.2020
6579 Clear 6 1018 44 10000 2 40 00:57 15.03.2020
6580 Clear 6 1017 51 10000 3 350 00:38 15.03.2020
6581 Clear 7 1016 55 10000 3 350 00:18 15.03.2020
6582 Clear 8 1016 51 10000 3 10 23:38 14.03.2020
6583 Clear 8 1015 47 10000 2 20 23:19 14.03.2020
6584 Clear 7 1015 47 10000 2 20 22:55 14.03.2020
6585 Clear 7 1014 41 10000 2 30 22:37 14.03.2020
6586 Clear 8 1014 41 10000 2 30 22:19 14.03.2020
6587 Clear 7 1014 41 10000 2 350 21:54 14.03.2020
6588 Clear 7 1014 38 10000 1 0 21:36 14.03.2020
6589 Clear 9 1014 38 10000 1 0 21:18 14.03.2020
6590 Clear 11 1014 23 10000 4 280 20:55 14.03.2020
6591 Clear 10 1014 23 10000 4 280 20:36 14.03.2020
6592 Clear 11 1014 23 10000 4 280 20:18 14.03.2020
6593 Clear 9 1014 38 10000 2 280 19:40 14.03.2020
6594 Clear 11 1014 38 10000 1 0 19:20 14.03.2020
6595 Clear 10 1014 51 10000 1 0 18:39 14.03.2020
6596 Clear 8 1014 51 10000 1 0 18:20 14.03.2020
6597 Clear 8 1015 40 10000 1 0 17:41 14.03.2020
6598 Clear 8 1015 44 10000 1 0 17:21 14.03.2020
6599 Clear 7 1015 44 10000 1 0 16:58 14.03.2020
6600 Clear 10 1015 30 10000 1 200 16:38 14.03.2020
6601 Clear 10 1015 30 10000 1 200 16:18 14.03.2020
6602 Clear 11 1015 26 10000 2.31 288 15:28 14.03.2020
6603 Clear 11 1016 23 10000 2 340 14:59 14.03.2020
6604 Clear 11 1016 23 10000 2 340 14:59 14.03.2020
6605 Clear 12 1016 21 10000 4 340 14:39 14.03.2020
6606 Clear 12 1016 21 10000 4 340 14:20 14.03.2020
6607 Clear 13 1015 18 10000 5 340 13:56 14.03.2020
6608 Clear 13 1015 16 10000 6 340 13:38 14.03.2020
6609 Clear 13 1015 16 10000 6 340 13:19 14.03.2020
6610 Clear 13 1015 17 10000 5 330 12:44 14.03.2020
6611 Clear 14 1014 16 10000 5 330 12:25 14.03.2020
6612 Clear 14 1014 15 10000 6 330 11:45 14.03.2020
6613 Clear 15 1013 14 10000 7 340 11:26 14.03.2020
6614 Clear 15 1013 14 10000 7 340 11:26 14.03.2020
6615 Clear 15 1013 14 10000 7 340 10:57 14.03.2020
6616 Clear 16 1014 13 10000 6 330 10:38 14.03.2020
6617 Clear 16 1014 13 10000 6 330 10:20 14.03.2020
6618 Clear 16 1014 11 10000 8 330 09:41 14.03.2020
6619 Clear 16 1014 11 10000 8 330 09:22 14.03.2020
6620 Clear 16 1014 11 10000 8 330 09:22 14.03.2020
6621 Rain 17 1014 11 10000 9 330 08:47 14.03.2020
6622 Rain 16 1014 11 10000 9 330 08:47 14.03.2020
6623 Rain 17 1015 11 10000 9 320 08:27 14.03.2020
6624 Clear 16 1015 11 10000 8 330 07:48 14.03.2020
6625 Clear 16 1015 11 10000 10 330 07:23 14.03.2020
6626 Clear 16 1016 12 10000 10 340 06:59 14.03.2020
6627 Clear 15 1016 13 10000 8 290 06:39 14.03.2020
6628 Clear 14 1018 11 10000 6 270 04:58 14.03.2020
6629 Clear 13 1019 11 10000 5 290 03:41 14.03.2020
6630 Clear 12 1019 11 10000 5 290 03:20 14.03.2020
6631 Clouds 11 1019 13 10000 5 300 02:19 14.03.2020
6632 Clouds 6 1019 18 10000 4 290 00:42 14.03.2020
6633 Clouds 5 1019 21 10000 4 270 23:44 13.03.2020
6634 Clouds 5 1019 21 10000 4 270 23:25 13.03.2020
6635 Clouds 3 1019 73 10000 4 300 22:46 13.03.2020
6636 Clouds 4 1019 79 10000 1 10 22:25 13.03.2020
6637 Clouds 4 1019 73 10000 4.86 298 21:42 13.03.2020
6638 Clouds 4 1019 73 10000 4.86 298 21:21 13.03.2020
6639 Clouds 5 1019 68 10000 4.86 298 20:57 13.03.2020
6640 Clouds 5 1019 68 10000 1 0 20:38 13.03.2020
6641 Clear 4 1019 68 10000 1 0 20:19 13.03.2020
6642 Clear 6 1020 63 10000 4.29 286 19:42 13.03.2020
6643 Clear 5 1020 63 10000 4.29 286 19:23 13.03.2020
6644 Clear 5 1020 63 10000 4.29 286 19:23 13.03.2020
6645 Clear 5 1021 63 10000 1 0 18:44 13.03.2020
6646 Clear 6 1021 47 10000 1 0 18:25 13.03.2020
6647 Clear 6 1021 47 10000 1 0 17:55 13.03.2020
6648 Clear 5 1021 47 10000 1 0 17:37 13.03.2020
6649 Clouds 7 1021 33 10000 3 230 17:18 13.03.2020
6650 Clouds 7 1021 33 10000 4 220 16:40 13.03.2020
6651 Clouds 7 1021 33 10000 4 220 16:22 13.03.2020
6652 Clouds 7 1021 31 10000 5 210 15:55 13.03.2020
6653 Clouds 7 1022 31 10000 5 210 15:37 13.03.2020
6654 Clouds 8 1022 31 10000 5 210 15:18 13.03.2020
6655 Clouds 8 1022 31 10000 5 210 14:40 13.03.2020
6656 Clouds 9 1022 31 10000 5 210 14:22 13.03.2020
6657 Clear 9 1022 27 10000 5 210 13:55 13.03.2020
6658 Clear 9 1022 29 10000 5 220 13:37 13.03.2020
6659 Clear 9 1022 29 10000 5 220 13:18 13.03.2020
6660 Clear 9 1022 21 10000 5 210 12:39 13.03.2020
6661 Clear 10 1022 21 10000 5 210 12:21 13.03.2020
6662 Clear 10 1022 14 10000 5 230 11:57 13.03.2020
6663 Clear 11 1022 14 10000 5 230 11:37 13.03.2020
6664 Clear 11 1022 8 10000 7 270 11:19 13.03.2020
6665 Clear 11 1022 8 10000 9 270 10:47 13.03.2020
6666 Clear 12 1022 8 10000 9 270 10:26 13.03.2020
6667 Clear 12 1023 8 10000 7 260 09:56 13.03.2020
6668 Clear 13 1023 8 10000 7 290 09:38 13.03.2020
6669 Clear 13 1023 8 10000 7 290 09:20 13.03.2020
6670 Clear 13 1024 8 10000 7 280 08:42 13.03.2020
6671 Clear 12 1024 8 10000 7 280 08:22 13.03.2020
6672 Clear 12 1025 8 10000 9 270 07:47 13.03.2020
6673 Clear 12 1025 8 10000 10 280 07:27 13.03.2020
6674 Clear 12 1027 8 10000 10 290 06:46 13.03.2020
6675 Clear 12 1027 8 10000 10 290 06:24 13.03.2020
6676 Clear 11 1028 8 10000 10 300 05:46 13.03.2020
6677 Clear 10 1029 10 10000 9 300 05:19 13.03.2020
6678 Clear 10 1030 11 10000 9 290 04:35 13.03.2020
6679 Clear 7 1031 15 10000 2 280 02:58 13.03.2020
6680 Clear 3 1032 23 10000 2 270 01:41 13.03.2020
6681 Clear 3 1032 23 10000 2 270 01:18 13.03.2020
6682 Clear 3 1032 43 10000 1 310 00:43 13.03.2020
6683 Clear 2 1031 42 10000 1 330 00:20 13.03.2020
6684 Clear 2 1031 22 10000 1 320 23:45 12.03.2020
6685 Clear 1 1031 22 10000 1 320 23:26 12.03.2020
6686 Clear 2 1031 15 10000 2 30 22:55 12.03.2020
6687 Clear 2 1031 22 10000 2 20 22:37 12.03.2020
6688 Clear 2 1031 22 10000 2 20 22:37 12.03.2020
6689 Clear 2 1031 22 10000 2 20 22:18 12.03.2020
6690 Clear 2 1031 15 10000 2 10 21:42 12.03.2020
6691 Clear 2 1031 15 10000 2 10 21:24 12.03.2020
6692 Clear 2 1031 15 10000 3 10 20:55 12.03.2020
6693 Clear 3 1031 24 10000 3 10 20:36 12.03.2020
6694 Clouds 3 1031 24 10000 3 10 20:18 12.03.2020
6695 Clouds 4 1031 21 10000 2 20 19:39 12.03.2020
6696 Clouds 4 1031 21 10000 2 20 19:19 12.03.2020
6697 Clouds 5 1030 18 10000 3 30 18:42 12.03.2020
6698 Clouds 5 1030 15 10000 3 40 18:23 12.03.2020
6699 Clouds 5 1029 17 10000 3 30 17:56 12.03.2020
6700 Clouds 5 1029 17 10000 3 30 17:37 12.03.2020
6701 Clouds 6 1029 17 10000 3 40 17:18 12.03.2020
6702 Clouds 6 1029 18 10000 2 60 16:43 12.03.2020
6703 Clouds 6 1029 18 10000 2 60 16:23 12.03.2020
6704 Clouds 7 1028 16 10000 3 50 15:59 12.03.2020
6705 Clouds 7 1028 17 10000 3 50 15:39 12.03.2020
6706 Clouds 7 1028 17 10000 3 50 15:21 12.03.2020
6707 Clouds 8 1027 16 10000 5 30 14:38 12.03.2020
6708 Clouds 8 1027 16 10000 5 30 14:38 12.03.2020
6709 Clouds 8 1027 16 10000 5 30 14:19 12.03.2020
6710 Clouds 9 1025 13 10000 5 40 13:40 12.03.2020
6711 Clouds 10 1025 13 10000 5 40 13:22 12.03.2020
6712 Clouds 10 1024 14 10000 6 20 12:55 12.03.2020
6713 Clouds 10 1023 16 10000 5 30 12:37 12.03.2020
6714 Clouds 10 1022 17 10000 4 30 12:18 12.03.2020
6715 Clouds 11 1022 17 10000 4 30 11:56 12.03.2020
6716 Clouds 11 1022 16 10000 4 40 11:37 12.03.2020
6717 Clouds 12 1021 16 10000 4 40 11:19 12.03.2020
6718 Clouds 13 1021 16 10000 4 40 10:55 12.03.2020
6719 Clouds 13 1021 16 10000 4 40 10:55 12.03.2020
6720 Clouds 13 1020 17 10000 4 40 10:37 12.03.2020
6721 Clouds 13 1020 17 10000 4 40 10:18 12.03.2020
6722 Clouds 14 1019 16 10000 4 70 09:42 12.03.2020
6723 Clouds 14 1019 16 10000 4 70 09:23 12.03.2020
6724 Clouds 14 1019 16 10000 4 30 08:40 12.03.2020
6725 Clouds 14 1019 16 10000 4 30 08:19 12.03.2020
6726 Clouds 15 1019 16 10000 5 40 07:52 12.03.2020
6727 Clouds 14 1018 16 10000 5 30 07:23 12.03.2020
6728 Clouds 15 1018 17 10000 5 40 06:38 12.03.2020
6729 Clouds 14 1019 20 10000 7 30 05:40 12.03.2020
6730 Clouds 13 1018 22 10000 6 20 03:54 12.03.2020
6731 Clouds 11 1017 27 10000 5 20 02:34 12.03.2020
6732 Clouds 10 1016 29 10000 4 30 01:30 12.03.2020
6733 Clear 7 1014 59 10000 5 360 00:42 12.03.2020
6734 Clear 6 1014 59 10000 5 350 23:59 11.03.2020
6735 Clear 6 1014 59 10000 5 350 23:59 11.03.2020
6736 Clear 5 1014 59 10000 5 350 23:40 11.03.2020
6737 Clear 6 1013 59 10000 5 350 23:22 11.03.2020
6738 Clear 6 1012 55 10000 4 350 22:45 11.03.2020
6739 Clear 5 1012 55 10000 4 350 22:25 11.03.2020
6740 Clear 5 1012 59 10000 3 340 21:58 11.03.2020
6741 Clear 4 1011 28 10000 5 350 21:40 11.03.2020
6742 Clear 4 1011 28 10000 5 350 21:22 11.03.2020
6743 Clear 4 1011 28 10000 2 350 20:58 11.03.2020
6744 Clear 5 1011 64 10000 1 330 20:38 11.03.2020
6745 Clear 5 1011 64 10000 1 330 20:19 11.03.2020
6746 Clear 4 1011 64 10000 3 340 19:43 11.03.2020
6747 Clear 4 1011 64 10000 3 340 19:25 11.03.2020
6748 Clear 4 1010 64 10000 1 340 18:57 11.03.2020
6749 Clear 5 1010 59 10000 1 0 18:38 11.03.2020
6750 Clear 6 1010 64 10000 1 20 18:20 11.03.2020
6751 Clear 6 1011 69 10000 1 0 17:56 11.03.2020
6752 Clear 6 1011 69 10000 1 0 17:37 11.03.2020
6753 Clear 7 1011 64 10000 2 20 17:19 11.03.2020
6754 Clear 6 1011 69 10000 1 10 16:45 11.03.2020
6755 Clear 7 1011 69 10000 1 10 16:21 11.03.2020
6756 Clear 8 1011 55 10000 2 360 15:44 11.03.2020
6757 Clear 8 1011 55 10000 2 360 15:24 11.03.2020
6758 Clear 7 1011 55 10000 2 340 14:57 11.03.2020
6759 Clear 8 1011 48 10000 1.87 360 14:39 11.03.2020
6760 Clear 7 1011 48 10000 1.87 360 14:21 11.03.2020
6761 Clouds 8 1011 48 10000 1 0 13:44 11.03.2020
6762 Clouds 9 1011 42 10000 1 0 13:26 11.03.2020
6763 Clouds 9 1010 45 10000 2 350 12:58 11.03.2020
6764 Clouds 10 1010 42 10000 1 40 12:39 11.03.2020
6765 Clouds 10 1010 42 10000 1 40 12:19 11.03.2020
6766 Clouds 12 1010 30 10000 1 120 11:41 11.03.2020
6767 Clouds 14 1010 19 10000 1 0 11:23 11.03.2020
6768 Clouds 15 1010 19 10000 1 0 10:56 11.03.2020
6769 Clouds 15 1010 19 10000 2 180 10:37 11.03.2020
6770 Clouds 16 1010 19 10000 2 180 10:18 11.03.2020
6771 Clouds 16 1010 19 10000 2 200 09:41 11.03.2020
6772 Clouds 16 1010 19 10000 2 200 09:23 11.03.2020
6773 Clouds 16 1010 19 10000 2 210 08:44 11.03.2020
6774 Clouds 16 1010 19 10000 2 210 08:44 11.03.2020
6775 Clear 15 1010 19 10000 3 190 08:26 11.03.2020
6776 Clear 15 1011 20 10000 3 190 07:48 11.03.2020
6777 Clear 14 1012 22 10000 1 0 07:22 11.03.2020
6778 Clear 13 1012 23 10000 3 200 06:53 11.03.2020
6779 Clear 13 1013 25 10000 2 190 06:35 11.03.2020
6780 Clear 12 1014 27 10000 2 90 05:33 11.03.2020
6781 Clear 8 1017 35 10000 2 260 03:34 11.03.2020
6782 Clear 4 1017 47 10000 1 0 01:56 11.03.2020
6783 Clear 3 1017 55 10000 1 350 01:25 11.03.2020
6784 Clear 1 1017 73 10000 1 360 00:45 11.03.2020
6785 Clear 0 1017 79 10000 1 0 23:50 10.03.2020
6786 Clear -1 1017 79 10000 1 0 23:29 10.03.2020
6787 Clear 0 1017 68 10000 2 340 22:59 10.03.2020
6788 Clear 0 1016 68 10000 1 350 22:38 10.03.2020
6789 Clear 0 1016 68 10000 1 350 22:19 10.03.2020
6790 Clear 0 1016 79 10000 1 30 21:56 10.03.2020
6791 Clear 0 1017 68 10000 1 0 21:38 10.03.2020
6792 Clear 0 1017 68 10000 1 0 21:19 10.03.2020
6793 Clear 2 1017 58 10000 1 0 20:56 10.03.2020
6794 Clear 1 1017 73 10000 1 0 20:38 10.03.2020
6795 Clear 1 1017 73 10000 1 0 20:18 10.03.2020
6796 Clear 1 1018 68 10000 1 0 19:55 10.03.2020
6797 Clear 1 1018 73 10000 1 80 19:36 10.03.2020
6798 Clear 2 1018 73 1